<?xml version="1.0" encoding="UTF-8" standalone="no" ?>
<gpx xmlns="http://www.topografix.com/GPX/1/1" xmlns:xsi="http://www.w3.org/2001/XMLSchema-instance" xsi:schemaLocation="http://www.topografix.com/GPX/1/1 http://www.topografix.com/GPX/1/1/gpx.xsd" version="1.1" creator="VisuGPX - https://www.visugpx.com">
  <metadata>
    <name>Pornichet 29/12/2019</name>
    <desc><![CDATA[Sortie VTT du dimanche 29 décembre 2019]]></desc>
  </metadata>
  <trk>
    <name><![CDATA[Pornichet Cyclisme]]></name>
    <trkseg>
      <trkpt lat="47.26098" lon="-2.31762">
        <ele>4.5</ele>
        <time>2019-12-29T07:59:36.000Z</time>
      </trkpt>
      <trkpt lat="47.26099" lon="-2.31769">
        <ele>4.4</ele>
        <time>2019-12-29T07:59:37.000Z</time>
      </trkpt>
      <trkpt lat="47.26101" lon="-2.31783">
        <ele>4.4</ele>
        <time>2019-12-29T07:59:39.000Z</time>
      </trkpt>
      <trkpt lat="47.26101" lon="-2.3179">
        <ele>-0.20000000298023</ele>
        <time>2019-12-29T07:59:40.000Z</time>
      </trkpt>
      <trkpt lat="47.26104" lon="-2.31805">
        <ele>-0.20000000298023</ele>
        <time>2019-12-29T07:59:42.000Z</time>
      </trkpt>
      <trkpt lat="47.26111" lon="-2.3185">
        <ele>-0.20000000298023</ele>
        <time>2019-12-29T07:59:48.000Z</time>
      </trkpt>
      <trkpt lat="47.26115" lon="-2.31863">
        <ele>-0.20000000298023</ele>
        <time>2019-12-29T07:59:50.000Z</time>
      </trkpt>
      <trkpt lat="47.26123" lon="-2.31903">
        <ele>-0.20000000298023</ele>
        <time>2019-12-29T07:59:56.000Z</time>
      </trkpt>
      <trkpt lat="47.2613" lon="-2.31946">
        <ele>-0.20000000298023</ele>
        <time>2019-12-29T08:00:02.000Z</time>
      </trkpt>
      <trkpt lat="47.26131" lon="-2.31952">
        <ele>-0.20000000298023</ele>
        <time>2019-12-29T08:00:03.000Z</time>
      </trkpt>
      <trkpt lat="47.26135" lon="-2.31979">
        <ele>-0.20000000298023</ele>
        <time>2019-12-29T08:00:07.000Z</time>
      </trkpt>
      <trkpt lat="47.26135" lon="-2.31986">
        <ele>-0.20000000298023</ele>
        <time>2019-12-29T08:00:08.000Z</time>
      </trkpt>
      <trkpt lat="47.26133" lon="-2.32015">
        <ele>-0.20000000298023</ele>
        <time>2019-12-29T08:00:12.000Z</time>
      </trkpt>
      <trkpt lat="47.26126" lon="-2.32059">
        <ele>-0.20000000298023</ele>
        <time>2019-12-29T08:00:18.000Z</time>
      </trkpt>
      <trkpt lat="47.26123" lon="-2.32066">
        <ele>-0.20000000298023</ele>
        <time>2019-12-29T08:00:19.000Z</time>
      </trkpt>
      <trkpt lat="47.26119" lon="-2.32079">
        <ele>-0.20000000298023</ele>
        <time>2019-12-29T08:00:21.000Z</time>
      </trkpt>
      <trkpt lat="47.26113" lon="-2.32099">
        <ele>-0.20000000298023</ele>
        <time>2019-12-29T08:00:24.000Z</time>
      </trkpt>
      <trkpt lat="47.26103" lon="-2.32131">
        <ele>-0.20000000298023</ele>
        <time>2019-12-29T08:00:29.000Z</time>
      </trkpt>
      <trkpt lat="47.26093" lon="-2.32162">
        <ele>-0.20000000298023</ele>
        <time>2019-12-29T08:00:34.000Z</time>
      </trkpt>
      <trkpt lat="47.26091" lon="-2.32168">
        <ele>-0.20000000298023</ele>
        <time>2019-12-29T08:00:35.000Z</time>
      </trkpt>
      <trkpt lat="47.26086" lon="-2.3218">
        <ele>-0.20000000298023</ele>
        <time>2019-12-29T08:00:37.000Z</time>
      </trkpt>
      <trkpt lat="47.26072" lon="-2.32209">
        <ele>-0.20000000298023</ele>
        <time>2019-12-29T08:00:42.000Z</time>
      </trkpt>
      <trkpt lat="47.26055" lon="-2.32233">
        <ele>-0.20000000298023</ele>
        <time>2019-12-29T08:00:47.000Z</time>
      </trkpt>
      <trkpt lat="47.26043" lon="-2.32247">
        <ele>-0.20000000298023</ele>
        <time>2019-12-29T08:00:50.000Z</time>
      </trkpt>
      <trkpt lat="47.2604" lon="-2.32252">
        <ele>-0.20000000298023</ele>
        <time>2019-12-29T08:00:51.000Z</time>
      </trkpt>
      <trkpt lat="47.26028" lon="-2.32266">
        <ele>-0.20000000298023</ele>
        <time>2019-12-29T08:00:54.000Z</time>
      </trkpt>
      <trkpt lat="47.2602" lon="-2.32276">
        <ele>-0.20000000298023</ele>
        <time>2019-12-29T08:00:56.000Z</time>
      </trkpt>
      <trkpt lat="47.26016" lon="-2.3228">
        <ele>-0.20000000298023</ele>
        <time>2019-12-29T08:00:57.000Z</time>
      </trkpt>
      <trkpt lat="47.25997" lon="-2.32305">
        <ele>-0.20000000298023</ele>
        <time>2019-12-29T08:01:02.000Z</time>
      </trkpt>
      <trkpt lat="47.25993" lon="-2.3231">
        <ele>-0.20000000298023</ele>
        <time>2019-12-29T08:01:03.000Z</time>
      </trkpt>
      <trkpt lat="47.25966" lon="-2.32346">
        <ele>-0.20000000298023</ele>
        <time>2019-12-29T08:01:10.000Z</time>
      </trkpt>
      <trkpt lat="47.25936" lon="-2.32386">
        <ele>-0.20000000298023</ele>
        <time>2019-12-29T08:01:18.000Z</time>
      </trkpt>
      <trkpt lat="47.25911" lon="-2.32421">
        <ele>-0.20000000298023</ele>
        <time>2019-12-29T08:01:25.000Z</time>
      </trkpt>
      <trkpt lat="47.25887" lon="-2.32459">
        <ele>-0.20000000298023</ele>
        <time>2019-12-29T08:01:33.000Z</time>
      </trkpt>
      <trkpt lat="47.25881" lon="-2.32469">
        <ele>-0.20000000298023</ele>
        <time>2019-12-29T08:01:36.000Z</time>
      </trkpt>
      <trkpt lat="47.2587" lon="-2.32475">
        <ele>-0.20000000298023</ele>
        <time>2019-12-29T08:01:39.000Z</time>
      </trkpt>
      <trkpt lat="47.25857" lon="-2.32478">
        <ele>-0.20000000298023</ele>
        <time>2019-12-29T08:01:42.000Z</time>
      </trkpt>
      <trkpt lat="47.25853" lon="-2.32479">
        <ele>-0.20000000298023</ele>
        <time>2019-12-29T08:01:43.000Z</time>
      </trkpt>
      <trkpt lat="47.25844" lon="-2.32478">
        <ele>-0.20000000298023</ele>
        <time>2019-12-29T08:01:45.000Z</time>
      </trkpt>
      <trkpt lat="47.25839" lon="-2.32476">
        <ele>-0.20000000298023</ele>
        <time>2019-12-29T08:01:46.000Z</time>
      </trkpt>
      <trkpt lat="47.25825" lon="-2.3247">
        <ele>-0.20000000298023</ele>
        <time>2019-12-29T08:01:49.000Z</time>
      </trkpt>
      <trkpt lat="47.25811" lon="-2.32462">
        <ele>-0.20000000298023</ele>
        <time>2019-12-29T08:01:52.000Z</time>
      </trkpt>
      <trkpt lat="47.25798" lon="-2.32458">
        <ele>-0.20000000298023</ele>
        <time>2019-12-29T08:01:55.000Z</time>
      </trkpt>
      <trkpt lat="47.2579" lon="-2.3246">
        <ele>-0.20000000298023</ele>
        <time>2019-12-29T08:01:57.000Z</time>
      </trkpt>
      <trkpt lat="47.25776" lon="-2.32454">
        <ele>-0.20000000298023</ele>
        <time>2019-12-29T08:02:01.000Z</time>
      </trkpt>
      <trkpt lat="47.25766" lon="-2.32436">
        <ele>-0.20000000298023</ele>
        <time>2019-12-29T08:02:05.000Z</time>
      </trkpt>
      <trkpt lat="47.25753" lon="-2.32428">
        <ele>-0.20000000298023</ele>
        <time>2019-12-29T08:02:08.000Z</time>
      </trkpt>
      <trkpt lat="47.25743" lon="-2.32428">
        <ele>-0.20000000298023</ele>
        <time>2019-12-29T08:02:10.000Z</time>
      </trkpt>
      <trkpt lat="47.25717" lon="-2.32427">
        <ele>-0.20000000298023</ele>
        <time>2019-12-29T08:02:15.000Z</time>
      </trkpt>
      <trkpt lat="47.25688" lon="-2.32426">
        <ele>-0.20000000298023</ele>
        <time>2019-12-29T08:02:21.000Z</time>
      </trkpt>
      <trkpt lat="47.25675" lon="-2.32424">
        <ele>-0.20000000298023</ele>
        <time>2019-12-29T08:02:24.000Z</time>
      </trkpt>
      <trkpt lat="47.25666" lon="-2.32423">
        <ele>-0.20000000298023</ele>
        <time>2019-12-29T08:02:26.000Z</time>
      </trkpt>
      <trkpt lat="47.25662" lon="-2.32425">
        <ele>-0.20000000298023</ele>
        <time>2019-12-29T08:02:27.000Z</time>
      </trkpt>
      <trkpt lat="47.25658" lon="-2.32442">
        <ele>-0.20000000298023</ele>
        <time>2019-12-29T08:02:30.000Z</time>
      </trkpt>
      <trkpt lat="47.25659" lon="-2.32448">
        <ele>0.20000000298023</ele>
        <time>2019-12-29T08:02:31.000Z</time>
      </trkpt>
      <trkpt lat="47.25661" lon="-2.32455">
        <ele>0.80000001192093</ele>
        <time>2019-12-29T08:02:32.000Z</time>
      </trkpt>
      <trkpt lat="47.25663" lon="-2.32461">
        <ele>1.2000000476837</ele>
        <time>2019-12-29T08:02:33.000Z</time>
      </trkpt>
      <trkpt lat="47.25664" lon="-2.32467">
        <ele>1.6000000238419</ele>
        <time>2019-12-29T08:02:34.000Z</time>
      </trkpt>
      <trkpt lat="47.25667" lon="-2.32473">
        <ele>2</ele>
        <time>2019-12-29T08:02:35.000Z</time>
      </trkpt>
      <trkpt lat="47.25675" lon="-2.32497">
        <ele>2</ele>
        <time>2019-12-29T08:02:39.000Z</time>
      </trkpt>
      <trkpt lat="47.25679" lon="-2.32509">
        <ele>2</ele>
        <time>2019-12-29T08:02:41.000Z</time>
      </trkpt>
      <trkpt lat="47.25689" lon="-2.3254">
        <ele>2.4000000953674</ele>
        <time>2019-12-29T08:02:46.000Z</time>
      </trkpt>
      <trkpt lat="47.25691" lon="-2.32546">
        <ele>2.7999999523163</ele>
        <time>2019-12-29T08:02:47.000Z</time>
      </trkpt>
      <trkpt lat="47.25693" lon="-2.32552">
        <ele>3.2000000476837</ele>
        <time>2019-12-29T08:02:48.000Z</time>
      </trkpt>
      <trkpt lat="47.25695" lon="-2.32558">
        <ele>3.5999999046326</ele>
        <time>2019-12-29T08:02:49.000Z</time>
      </trkpt>
      <trkpt lat="47.25697" lon="-2.32564">
        <ele>4</ele>
        <time>2019-12-29T08:02:50.000Z</time>
      </trkpt>
      <trkpt lat="47.25705" lon="-2.32595">
        <ele>4</ele>
        <time>2019-12-29T08:02:55.000Z</time>
      </trkpt>
      <trkpt lat="47.25707" lon="-2.32608">
        <ele>4</ele>
        <time>2019-12-29T08:02:57.000Z</time>
      </trkpt>
      <trkpt lat="47.25706" lon="-2.32615">
        <ele>4.4000000953674</ele>
        <time>2019-12-29T08:02:58.000Z</time>
      </trkpt>
      <trkpt lat="47.25704" lon="-2.32621">
        <ele>4.8000001907349</ele>
        <time>2019-12-29T08:02:59.000Z</time>
      </trkpt>
      <trkpt lat="47.257" lon="-2.32626">
        <ele>5.1999998092651</ele>
        <time>2019-12-29T08:03:00.000Z</time>
      </trkpt>
      <trkpt lat="47.25697" lon="-2.32629">
        <ele>5.5999999046326</ele>
        <time>2019-12-29T08:03:01.000Z</time>
      </trkpt>
      <trkpt lat="47.25692" lon="-2.32631">
        <ele>6</ele>
        <time>2019-12-29T08:03:02.000Z</time>
      </trkpt>
      <trkpt lat="47.25688" lon="-2.32633">
        <ele>6</ele>
        <time>2019-12-29T08:03:03.000Z</time>
      </trkpt>
      <trkpt lat="47.25654" lon="-2.32647">
        <ele>6</ele>
        <time>2019-12-29T08:03:11.000Z</time>
      </trkpt>
      <trkpt lat="47.25649" lon="-2.32649">
        <ele>6.4000000953674</ele>
        <time>2019-12-29T08:03:12.000Z</time>
      </trkpt>
      <trkpt lat="47.25645" lon="-2.32652">
        <ele>7</ele>
        <time>2019-12-29T08:03:13.000Z</time>
      </trkpt>
      <trkpt lat="47.25641" lon="-2.32654">
        <ele>7.4000000953674</ele>
        <time>2019-12-29T08:03:14.000Z</time>
      </trkpt>
      <trkpt lat="47.25637" lon="-2.32656">
        <ele>7.8000001907349</ele>
        <time>2019-12-29T08:03:15.000Z</time>
      </trkpt>
      <trkpt lat="47.25632" lon="-2.32658">
        <ele>8.1999998092651</ele>
        <time>2019-12-29T08:03:16.000Z</time>
      </trkpt>
      <trkpt lat="47.25623" lon="-2.32661">
        <ele>8.1999998092651</ele>
        <time>2019-12-29T08:03:18.000Z</time>
      </trkpt>
      <trkpt lat="47.25597" lon="-2.32672">
        <ele>8.6000003814697</ele>
        <time>2019-12-29T08:03:24.000Z</time>
      </trkpt>
      <trkpt lat="47.25593" lon="-2.32674">
        <ele>9</ele>
        <time>2019-12-29T08:03:25.000Z</time>
      </trkpt>
      <trkpt lat="47.25588" lon="-2.32675">
        <ele>9.3999996185303</ele>
        <time>2019-12-29T08:03:26.000Z</time>
      </trkpt>
      <trkpt lat="47.25583" lon="-2.32677">
        <ele>9.8000001907349</ele>
        <time>2019-12-29T08:03:27.000Z</time>
      </trkpt>
      <trkpt lat="47.25579" lon="-2.32679">
        <ele>10.199999809265</ele>
        <time>2019-12-29T08:03:28.000Z</time>
      </trkpt>
      <trkpt lat="47.25556" lon="-2.32688">
        <ele>10.199999809265</ele>
        <time>2019-12-29T08:03:33.000Z</time>
      </trkpt>
      <trkpt lat="47.25524" lon="-2.32703">
        <ele>10.199999809265</ele>
        <time>2019-12-29T08:03:40.000Z</time>
      </trkpt>
      <trkpt lat="47.25519" lon="-2.32704">
        <ele>10.199999809265</ele>
        <time>2019-12-29T08:03:41.000Z</time>
      </trkpt>
      <trkpt lat="47.25495" lon="-2.32707">
        <ele>10.199999809265</ele>
        <time>2019-12-29T08:03:46.000Z</time>
      </trkpt>
      <trkpt lat="47.25486" lon="-2.32709">
        <ele>10.199999809265</ele>
        <time>2019-12-29T08:03:48.000Z</time>
      </trkpt>
      <trkpt lat="47.25473" lon="-2.32719">
        <ele>10.199999809265</ele>
        <time>2019-12-29T08:03:51.000Z</time>
      </trkpt>
      <trkpt lat="47.25469" lon="-2.32723">
        <ele>10.199999809265</ele>
        <time>2019-12-29T08:03:52.000Z</time>
      </trkpt>
      <trkpt lat="47.2545" lon="-2.32746">
        <ele>10.199999809265</ele>
        <time>2019-12-29T08:03:57.000Z</time>
      </trkpt>
      <trkpt lat="47.25444" lon="-2.32756">
        <ele>10.199999809265</ele>
        <time>2019-12-29T08:03:59.000Z</time>
      </trkpt>
      <trkpt lat="47.25433" lon="-2.32779">
        <ele>10.199999809265</ele>
        <time>2019-12-29T08:04:03.000Z</time>
      </trkpt>
      <trkpt lat="47.25429" lon="-2.3279">
        <ele>10.199999809265</ele>
        <time>2019-12-29T08:04:05.000Z</time>
      </trkpt>
      <trkpt lat="47.25423" lon="-2.32799">
        <ele>10.199999809265</ele>
        <time>2019-12-29T08:04:07.000Z</time>
      </trkpt>
      <trkpt lat="47.25415" lon="-2.3281">
        <ele>10.199999809265</ele>
        <time>2019-12-29T08:04:09.000Z</time>
      </trkpt>
      <trkpt lat="47.25391" lon="-2.32843">
        <ele>10.199999809265</ele>
        <time>2019-12-29T08:04:15.000Z</time>
      </trkpt>
      <trkpt lat="47.25358" lon="-2.32877">
        <ele>10.199999809265</ele>
        <time>2019-12-29T08:04:23.000Z</time>
      </trkpt>
      <trkpt lat="47.25322" lon="-2.32913">
        <ele>10.199999809265</ele>
        <time>2019-12-29T08:04:32.000Z</time>
      </trkpt>
      <trkpt lat="47.25311" lon="-2.32924">
        <ele>10.199999809265</ele>
        <time>2019-12-29T08:04:35.000Z</time>
      </trkpt>
      <trkpt lat="47.25309" lon="-2.3293">
        <ele>10.199999809265</ele>
        <time>2019-12-29T08:04:36.000Z</time>
      </trkpt>
      <trkpt lat="47.25308" lon="-2.32936">
        <ele>10.199999809265</ele>
        <time>2019-12-29T08:04:37.000Z</time>
      </trkpt>
      <trkpt lat="47.2531" lon="-2.32954">
        <ele>10.199999809265</ele>
        <time>2019-12-29T08:04:40.000Z</time>
      </trkpt>
      <trkpt lat="47.25312" lon="-2.32959">
        <ele>10.199999809265</ele>
        <time>2019-12-29T08:04:41.000Z</time>
      </trkpt>
      <trkpt lat="47.2532" lon="-2.3298">
        <ele>10.199999809265</ele>
        <time>2019-12-29T08:04:45.000Z</time>
      </trkpt>
      <trkpt lat="47.25341" lon="-2.33033">
        <ele>10.199999809265</ele>
        <time>2019-12-29T08:04:54.000Z</time>
      </trkpt>
      <trkpt lat="47.2535" lon="-2.33056">
        <ele>10.199999809265</ele>
        <time>2019-12-29T08:04:58.000Z</time>
      </trkpt>
      <trkpt lat="47.25355" lon="-2.33067">
        <ele>10.199999809265</ele>
        <time>2019-12-29T08:05:00.000Z</time>
      </trkpt>
      <trkpt lat="47.2537" lon="-2.33104">
        <ele>10.199999809265</ele>
        <time>2019-12-29T08:05:07.000Z</time>
      </trkpt>
      <trkpt lat="47.25377" lon="-2.33125">
        <ele>10.199999809265</ele>
        <time>2019-12-29T08:05:13.000Z</time>
      </trkpt>
      <trkpt lat="47.25377" lon="-2.33127">
        <ele>10.199999809265</ele>
        <time>2019-12-29T08:05:14.000Z</time>
      </trkpt>
      <trkpt lat="47.25375" lon="-2.33128">
        <ele>10.199999809265</ele>
        <time>2019-12-29T08:05:16.000Z</time>
      </trkpt>
      <trkpt lat="47.25375" lon="-2.33128">
        <ele>10.199999809265</ele>
        <time>2019-12-29T08:05:17.000Z</time>
      </trkpt>
      <trkpt lat="47.25383" lon="-2.33129">
        <ele>12.199999809265</ele>
        <time>2019-12-29T08:09:14.000Z</time>
      </trkpt>
      <trkpt lat="47.25385" lon="-2.33135">
        <ele>12.199999809265</ele>
        <time>2019-12-29T08:09:16.000Z</time>
      </trkpt>
      <trkpt lat="47.25396" lon="-2.33135">
        <ele>12.199999809265</ele>
        <time>2019-12-29T08:09:20.000Z</time>
      </trkpt>
      <trkpt lat="47.254" lon="-2.33133">
        <ele>12.199999809265</ele>
        <time>2019-12-29T08:09:21.000Z</time>
      </trkpt>
      <trkpt lat="47.25415" lon="-2.33125">
        <ele>12.199999809265</ele>
        <time>2019-12-29T08:09:26.000Z</time>
      </trkpt>
      <trkpt lat="47.25431" lon="-2.33117">
        <ele>12.199999809265</ele>
        <time>2019-12-29T08:09:30.000Z</time>
      </trkpt>
      <trkpt lat="47.25435" lon="-2.33115">
        <ele>13</ele>
        <time>2019-12-29T08:09:31.000Z</time>
      </trkpt>
      <trkpt lat="47.25439" lon="-2.33114">
        <ele>13.39999961853</ele>
        <time>2019-12-29T08:09:32.000Z</time>
      </trkpt>
      <trkpt lat="47.25443" lon="-2.33111">
        <ele>13.800000190735</ele>
        <time>2019-12-29T08:09:33.000Z</time>
      </trkpt>
      <trkpt lat="47.25448" lon="-2.3311">
        <ele>14.199999809265</ele>
        <time>2019-12-29T08:09:34.000Z</time>
      </trkpt>
      <trkpt lat="47.25469" lon="-2.33101">
        <ele>14.199999809265</ele>
        <time>2019-12-29T08:09:39.000Z</time>
      </trkpt>
      <trkpt lat="47.25481" lon="-2.33094">
        <ele>14.199999809265</ele>
        <time>2019-12-29T08:09:42.000Z</time>
      </trkpt>
      <trkpt lat="47.25496" lon="-2.33079">
        <ele>14.199999809265</ele>
        <time>2019-12-29T08:09:46.000Z</time>
      </trkpt>
      <trkpt lat="47.25519" lon="-2.33054">
        <ele>14.199999809265</ele>
        <time>2019-12-29T08:09:52.000Z</time>
      </trkpt>
      <trkpt lat="47.25523" lon="-2.33051">
        <ele>14.199999809265</ele>
        <time>2019-12-29T08:09:53.000Z</time>
      </trkpt>
      <trkpt lat="47.25528" lon="-2.33048">
        <ele>14.199999809265</ele>
        <time>2019-12-29T08:09:54.000Z</time>
      </trkpt>
      <trkpt lat="47.25545" lon="-2.33042">
        <ele>14.199999809265</ele>
        <time>2019-12-29T08:09:58.000Z</time>
      </trkpt>
      <trkpt lat="47.25549" lon="-2.3304">
        <ele>14.199999809265</ele>
        <time>2019-12-29T08:09:59.000Z</time>
      </trkpt>
      <trkpt lat="47.25578" lon="-2.33035">
        <ele>14.199999809265</ele>
        <time>2019-12-29T08:10:06.000Z</time>
      </trkpt>
      <trkpt lat="47.25596" lon="-2.33032">
        <ele>14.60000038147</ele>
        <time>2019-12-29T08:10:10.000Z</time>
      </trkpt>
      <trkpt lat="47.256" lon="-2.33031">
        <ele>15.199999809265</ele>
        <time>2019-12-29T08:10:11.000Z</time>
      </trkpt>
      <trkpt lat="47.25604" lon="-2.3303">
        <ele>15.60000038147</ele>
        <time>2019-12-29T08:10:12.000Z</time>
      </trkpt>
      <trkpt lat="47.25609" lon="-2.33029">
        <ele>16</ele>
        <time>2019-12-29T08:10:13.000Z</time>
      </trkpt>
      <trkpt lat="47.25612" lon="-2.33026">
        <ele>16.39999961853</ele>
        <time>2019-12-29T08:10:14.000Z</time>
      </trkpt>
      <trkpt lat="47.25617" lon="-2.33016">
        <ele>16.39999961853</ele>
        <time>2019-12-29T08:10:16.000Z</time>
      </trkpt>
      <trkpt lat="47.25615" lon="-2.32996">
        <ele>16.39999961853</ele>
        <time>2019-12-29T08:10:19.000Z</time>
      </trkpt>
      <trkpt lat="47.25609" lon="-2.32964">
        <ele>16.799999237061</ele>
        <time>2019-12-29T08:10:24.000Z</time>
      </trkpt>
      <trkpt lat="47.25608" lon="-2.32958">
        <ele>17.200000762939</ele>
        <time>2019-12-29T08:10:25.000Z</time>
      </trkpt>
      <trkpt lat="47.25607" lon="-2.32952">
        <ele>17.60000038147</ele>
        <time>2019-12-29T08:10:26.000Z</time>
      </trkpt>
      <trkpt lat="47.25606" lon="-2.32946">
        <ele>18</ele>
        <time>2019-12-29T08:10:27.000Z</time>
      </trkpt>
      <trkpt lat="47.25605" lon="-2.3294">
        <ele>18.39999961853</ele>
        <time>2019-12-29T08:10:28.000Z</time>
      </trkpt>
      <trkpt lat="47.25599" lon="-2.32896">
        <ele>18.39999961853</ele>
        <time>2019-12-29T08:10:35.000Z</time>
      </trkpt>
      <trkpt lat="47.25599" lon="-2.3289">
        <ele>18.39999961853</ele>
        <time>2019-12-29T08:10:36.000Z</time>
      </trkpt>
      <trkpt lat="47.25595" lon="-2.32847">
        <ele>18.39999961853</ele>
        <time>2019-12-29T08:10:43.000Z</time>
      </trkpt>
      <trkpt lat="47.25593" lon="-2.32828">
        <ele>18.39999961853</ele>
        <time>2019-12-29T08:10:46.000Z</time>
      </trkpt>
      <trkpt lat="47.25596" lon="-2.32809">
        <ele>18.39999961853</ele>
        <time>2019-12-29T08:10:49.000Z</time>
      </trkpt>
      <trkpt lat="47.25599" lon="-2.32784">
        <ele>18.39999961853</ele>
        <time>2019-12-29T08:10:53.000Z</time>
      </trkpt>
      <trkpt lat="47.256" lon="-2.32772">
        <ele>18.39999961853</ele>
        <time>2019-12-29T08:10:55.000Z</time>
      </trkpt>
      <trkpt lat="47.25602" lon="-2.32734">
        <ele>18.39999961853</ele>
        <time>2019-12-29T08:11:01.000Z</time>
      </trkpt>
      <trkpt lat="47.25602" lon="-2.32728">
        <ele>18.39999961853</ele>
        <time>2019-12-29T08:11:02.000Z</time>
      </trkpt>
      <trkpt lat="47.25602" lon="-2.32722">
        <ele>18.799999237061</ele>
        <time>2019-12-29T08:11:03.000Z</time>
      </trkpt>
      <trkpt lat="47.25603" lon="-2.32716">
        <ele>19.200000762939</ele>
        <time>2019-12-29T08:11:04.000Z</time>
      </trkpt>
      <trkpt lat="47.25603" lon="-2.3271">
        <ele>19.60000038147</ele>
        <time>2019-12-29T08:11:05.000Z</time>
      </trkpt>
      <trkpt lat="47.25603" lon="-2.32704">
        <ele>20</ele>
        <time>2019-12-29T08:11:06.000Z</time>
      </trkpt>
      <trkpt lat="47.25604" lon="-2.32697">
        <ele>20.39999961853</ele>
        <time>2019-12-29T08:11:07.000Z</time>
      </trkpt>
      <trkpt lat="47.25605" lon="-2.32684">
        <ele>20.39999961853</ele>
        <time>2019-12-29T08:11:09.000Z</time>
      </trkpt>
      <trkpt lat="47.25611" lon="-2.32666">
        <ele>20.39999961853</ele>
        <time>2019-12-29T08:11:13.000Z</time>
      </trkpt>
      <trkpt lat="47.2563" lon="-2.32654">
        <ele>20.39999961853</ele>
        <time>2019-12-29T08:11:18.000Z</time>
      </trkpt>
      <trkpt lat="47.25634" lon="-2.32652">
        <ele>20.39999961853</ele>
        <time>2019-12-29T08:11:19.000Z</time>
      </trkpt>
      <trkpt lat="47.25643" lon="-2.32649">
        <ele>20.39999961853</ele>
        <time>2019-12-29T08:11:21.000Z</time>
      </trkpt>
      <trkpt lat="47.25657" lon="-2.32643">
        <ele>20.39999961853</ele>
        <time>2019-12-29T08:11:24.000Z</time>
      </trkpt>
      <trkpt lat="47.2568" lon="-2.32632">
        <ele>20</ele>
        <time>2019-12-29T08:11:29.000Z</time>
      </trkpt>
      <trkpt lat="47.25685" lon="-2.3263">
        <ele>19.60000038147</ele>
        <time>2019-12-29T08:11:30.000Z</time>
      </trkpt>
      <trkpt lat="47.2569" lon="-2.32628">
        <ele>19.200000762939</ele>
        <time>2019-12-29T08:11:31.000Z</time>
      </trkpt>
      <trkpt lat="47.25695" lon="-2.32626">
        <ele>18.799999237061</ele>
        <time>2019-12-29T08:11:32.000Z</time>
      </trkpt>
      <trkpt lat="47.257" lon="-2.32624">
        <ele>18.39999961853</ele>
        <time>2019-12-29T08:11:33.000Z</time>
      </trkpt>
      <trkpt lat="47.25704" lon="-2.32619">
        <ele>18.39999961853</ele>
        <time>2019-12-29T08:11:34.000Z</time>
      </trkpt>
      <trkpt lat="47.25708" lon="-2.32607">
        <ele>18.39999961853</ele>
        <time>2019-12-29T08:11:36.000Z</time>
      </trkpt>
      <trkpt lat="47.25708" lon="-2.326">
        <ele>18</ele>
        <time>2019-12-29T08:11:37.000Z</time>
      </trkpt>
      <trkpt lat="47.25706" lon="-2.32594">
        <ele>17.60000038147</ele>
        <time>2019-12-29T08:11:38.000Z</time>
      </trkpt>
      <trkpt lat="47.25704" lon="-2.32587">
        <ele>17.200000762939</ele>
        <time>2019-12-29T08:11:39.000Z</time>
      </trkpt>
      <trkpt lat="47.25703" lon="-2.3258">
        <ele>16.799999237061</ele>
        <time>2019-12-29T08:11:40.000Z</time>
      </trkpt>
      <trkpt lat="47.257" lon="-2.32573">
        <ele>16.39999961853</ele>
        <time>2019-12-29T08:11:41.000Z</time>
      </trkpt>
      <trkpt lat="47.25698" lon="-2.32566">
        <ele>16.39999961853</ele>
        <time>2019-12-29T08:11:42.000Z</time>
      </trkpt>
      <trkpt lat="47.25693" lon="-2.32551">
        <ele>16.39999961853</ele>
        <time>2019-12-29T08:11:44.000Z</time>
      </trkpt>
      <trkpt lat="47.25676" lon="-2.3249">
        <ele>16.39999961853</ele>
        <time>2019-12-29T08:11:52.000Z</time>
      </trkpt>
      <trkpt lat="47.25666" lon="-2.32459">
        <ele>16</ele>
        <time>2019-12-29T08:11:56.000Z</time>
      </trkpt>
      <trkpt lat="47.25664" lon="-2.32451">
        <ele>15.60000038147</ele>
        <time>2019-12-29T08:11:57.000Z</time>
      </trkpt>
      <trkpt lat="47.25662" lon="-2.32443">
        <ele>15.199999809265</ele>
        <time>2019-12-29T08:11:58.000Z</time>
      </trkpt>
      <trkpt lat="47.25661" lon="-2.32435">
        <ele>14.199999809265</ele>
        <time>2019-12-29T08:11:59.000Z</time>
      </trkpt>
      <trkpt lat="47.2566" lon="-2.32428">
        <ele>14.199999809265</ele>
        <time>2019-12-29T08:12:00.000Z</time>
      </trkpt>
      <trkpt lat="47.25661" lon="-2.32422">
        <ele>14.199999809265</ele>
        <time>2019-12-29T08:12:01.000Z</time>
      </trkpt>
      <trkpt lat="47.25666" lon="-2.32414">
        <ele>14.199999809265</ele>
        <time>2019-12-29T08:12:03.000Z</time>
      </trkpt>
      <trkpt lat="47.25677" lon="-2.32417">
        <ele>14.199999809265</ele>
        <time>2019-12-29T08:12:06.000Z</time>
      </trkpt>
      <trkpt lat="47.25691" lon="-2.32421">
        <ele>14.199999809265</ele>
        <time>2019-12-29T08:12:09.000Z</time>
      </trkpt>
      <trkpt lat="47.25702" lon="-2.32422">
        <ele>14.199999809265</ele>
        <time>2019-12-29T08:12:11.000Z</time>
      </trkpt>
      <trkpt lat="47.2573" lon="-2.32423">
        <ele>14.199999809265</ele>
        <time>2019-12-29T08:12:16.000Z</time>
      </trkpt>
      <trkpt lat="47.25741" lon="-2.32423">
        <ele>13.800000190735</ele>
        <time>2019-12-29T08:12:18.000Z</time>
      </trkpt>
      <trkpt lat="47.25746" lon="-2.32423">
        <ele>13.39999961853</ele>
        <time>2019-12-29T08:12:19.000Z</time>
      </trkpt>
      <trkpt lat="47.25751" lon="-2.32423">
        <ele>13</ele>
        <time>2019-12-29T08:12:20.000Z</time>
      </trkpt>
      <trkpt lat="47.25756" lon="-2.32422">
        <ele>12.60000038147</ele>
        <time>2019-12-29T08:12:21.000Z</time>
      </trkpt>
      <trkpt lat="47.25761" lon="-2.3242">
        <ele>12.199999809265</ele>
        <time>2019-12-29T08:12:22.000Z</time>
      </trkpt>
      <trkpt lat="47.25765" lon="-2.32419">
        <ele>12.199999809265</ele>
        <time>2019-12-29T08:12:23.000Z</time>
      </trkpt>
      <trkpt lat="47.2578" lon="-2.32416">
        <ele>12.199999809265</ele>
        <time>2019-12-29T08:12:27.000Z</time>
      </trkpt>
      <trkpt lat="47.25791" lon="-2.3243">
        <ele>12.199999809265</ele>
        <time>2019-12-29T08:12:30.000Z</time>
      </trkpt>
      <trkpt lat="47.25797" lon="-2.32443">
        <ele>12.199999809265</ele>
        <time>2019-12-29T08:12:32.000Z</time>
      </trkpt>
      <trkpt lat="47.25801" lon="-2.32449">
        <ele>12.199999809265</ele>
        <time>2019-12-29T08:12:33.000Z</time>
      </trkpt>
      <trkpt lat="47.25806" lon="-2.32454">
        <ele>12.199999809265</ele>
        <time>2019-12-29T08:12:34.000Z</time>
      </trkpt>
      <trkpt lat="47.25823" lon="-2.32464">
        <ele>12.199999809265</ele>
        <time>2019-12-29T08:12:37.000Z</time>
      </trkpt>
      <trkpt lat="47.25829" lon="-2.32467">
        <ele>12.199999809265</ele>
        <time>2019-12-29T08:12:38.000Z</time>
      </trkpt>
      <trkpt lat="47.25841" lon="-2.32472">
        <ele>12.199999809265</ele>
        <time>2019-12-29T08:12:40.000Z</time>
      </trkpt>
      <trkpt lat="47.25852" lon="-2.32475">
        <ele>12.199999809265</ele>
        <time>2019-12-29T08:12:42.000Z</time>
      </trkpt>
      <trkpt lat="47.25858" lon="-2.32475">
        <ele>12.199999809265</ele>
        <time>2019-12-29T08:12:43.000Z</time>
      </trkpt>
      <trkpt lat="47.25863" lon="-2.32475">
        <ele>12.199999809265</ele>
        <time>2019-12-29T08:12:44.000Z</time>
      </trkpt>
      <trkpt lat="47.25886" lon="-2.32469">
        <ele>12.199999809265</ele>
        <time>2019-12-29T08:12:48.000Z</time>
      </trkpt>
      <trkpt lat="47.25897" lon="-2.32464">
        <ele>12.199999809265</ele>
        <time>2019-12-29T08:12:50.000Z</time>
      </trkpt>
      <trkpt lat="47.25905" lon="-2.32453">
        <ele>12.199999809265</ele>
        <time>2019-12-29T08:12:52.000Z</time>
      </trkpt>
      <trkpt lat="47.25932" lon="-2.32419">
        <ele>12.199999809265</ele>
        <time>2019-12-29T08:12:58.000Z</time>
      </trkpt>
      <trkpt lat="47.25974" lon="-2.32364">
        <ele>12.199999809265</ele>
        <time>2019-12-29T08:13:08.000Z</time>
      </trkpt>
      <trkpt lat="47.26007" lon="-2.3232">
        <ele>12.199999809265</ele>
        <time>2019-12-29T08:13:16.000Z</time>
      </trkpt>
      <trkpt lat="47.26023" lon="-2.32301">
        <ele>12.199999809265</ele>
        <time>2019-12-29T08:13:20.000Z</time>
      </trkpt>
      <trkpt lat="47.26031" lon="-2.32292">
        <ele>12.199999809265</ele>
        <time>2019-12-29T08:13:22.000Z</time>
      </trkpt>
      <trkpt lat="47.26034" lon="-2.32288">
        <ele>12.199999809265</ele>
        <time>2019-12-29T08:13:23.000Z</time>
      </trkpt>
      <trkpt lat="47.26042" lon="-2.32279">
        <ele>12.199999809265</ele>
        <time>2019-12-29T08:13:25.000Z</time>
      </trkpt>
      <trkpt lat="47.26049" lon="-2.3227">
        <ele>12.199999809265</ele>
        <time>2019-12-29T08:13:27.000Z</time>
      </trkpt>
      <trkpt lat="47.26076" lon="-2.3224">
        <ele>12.199999809265</ele>
        <time>2019-12-29T08:13:34.000Z</time>
      </trkpt>
      <trkpt lat="47.26101" lon="-2.32203">
        <ele>12.199999809265</ele>
        <time>2019-12-29T08:13:41.000Z</time>
      </trkpt>
      <trkpt lat="47.26103" lon="-2.32197">
        <ele>12.199999809265</ele>
        <time>2019-12-29T08:13:42.000Z</time>
      </trkpt>
      <trkpt lat="47.26113" lon="-2.32172">
        <ele>12.199999809265</ele>
        <time>2019-12-29T08:13:46.000Z</time>
      </trkpt>
      <trkpt lat="47.26128" lon="-2.32131">
        <ele>12.199999809265</ele>
        <time>2019-12-29T08:13:52.000Z</time>
      </trkpt>
      <trkpt lat="47.26132" lon="-2.32118">
        <ele>12.199999809265</ele>
        <time>2019-12-29T08:13:54.000Z</time>
      </trkpt>
      <trkpt lat="47.26134" lon="-2.32111">
        <ele>12.199999809265</ele>
        <time>2019-12-29T08:13:55.000Z</time>
      </trkpt>
      <trkpt lat="47.26139" lon="-2.32092">
        <ele>12.199999809265</ele>
        <time>2019-12-29T08:13:58.000Z</time>
      </trkpt>
      <trkpt lat="47.26149" lon="-2.32059">
        <ele>12.199999809265</ele>
        <time>2019-12-29T08:14:03.000Z</time>
      </trkpt>
      <trkpt lat="47.26162" lon="-2.32022">
        <ele>12.199999809265</ele>
        <time>2019-12-29T08:14:10.000Z</time>
      </trkpt>
      <trkpt lat="47.26168" lon="-2.32019">
        <ele>12.199999809265</ele>
        <time>2019-12-29T08:14:12.000Z</time>
      </trkpt>
      <trkpt lat="47.26172" lon="-2.32019">
        <ele>12.199999809265</ele>
        <time>2019-12-29T08:14:14.000Z</time>
      </trkpt>
      <trkpt lat="47.26186" lon="-2.32022">
        <ele>12.199999809265</ele>
        <time>2019-12-29T08:14:21.000Z</time>
      </trkpt>
      <trkpt lat="47.26187" lon="-2.32024">
        <ele>12.199999809265</ele>
        <time>2019-12-29T08:14:22.000Z</time>
      </trkpt>
      <trkpt lat="47.26193" lon="-2.32023">
        <ele>12.199999809265</ele>
        <time>2019-12-29T08:14:25.000Z</time>
      </trkpt>
      <trkpt lat="47.26196" lon="-2.32015">
        <ele>12.199999809265</ele>
        <time>2019-12-29T08:14:29.000Z</time>
      </trkpt>
      <trkpt lat="47.262" lon="-2.32005">
        <ele>12.199999809265</ele>
        <time>2019-12-29T08:14:33.000Z</time>
      </trkpt>
      <trkpt lat="47.26202" lon="-2.32004">
        <ele>12.199999809265</ele>
        <time>2019-12-29T08:14:34.000Z</time>
      </trkpt>
      <trkpt lat="47.26211" lon="-2.31995">
        <ele>12.199999809265</ele>
        <time>2019-12-29T08:14:38.000Z</time>
      </trkpt>
      <trkpt lat="47.26217" lon="-2.31983">
        <ele>12.199999809265</ele>
        <time>2019-12-29T08:14:42.000Z</time>
      </trkpt>
      <trkpt lat="47.26221" lon="-2.31979">
        <ele>12.199999809265</ele>
        <time>2019-12-29T08:14:44.000Z</time>
      </trkpt>
      <trkpt lat="47.26226" lon="-2.3198">
        <ele>12.199999809265</ele>
        <time>2019-12-29T08:14:46.000Z</time>
      </trkpt>
      <trkpt lat="47.26236" lon="-2.3197">
        <ele>12.199999809265</ele>
        <time>2019-12-29T08:14:50.000Z</time>
      </trkpt>
      <trkpt lat="47.26237" lon="-2.31966">
        <ele>12.199999809265</ele>
        <time>2019-12-29T08:14:51.000Z</time>
      </trkpt>
      <trkpt lat="47.26244" lon="-2.31948">
        <ele>12.199999809265</ele>
        <time>2019-12-29T08:14:57.000Z</time>
      </trkpt>
      <trkpt lat="47.26253" lon="-2.31936">
        <ele>12.199999809265</ele>
        <time>2019-12-29T08:15:03.000Z</time>
      </trkpt>
      <trkpt lat="47.26257" lon="-2.3193">
        <ele>12.199999809265</ele>
        <time>2019-12-29T08:15:05.000Z</time>
      </trkpt>
      <trkpt lat="47.26259" lon="-2.31921">
        <ele>12.199999809265</ele>
        <time>2019-12-29T08:15:08.000Z</time>
      </trkpt>
      <trkpt lat="47.26265" lon="-2.31906">
        <ele>12.199999809265</ele>
        <time>2019-12-29T08:15:14.000Z</time>
      </trkpt>
      <trkpt lat="47.26273" lon="-2.31902">
        <ele>12.199999809265</ele>
        <time>2019-12-29T08:15:15.000Z</time>
      </trkpt>
      <trkpt lat="47.26283" lon="-2.31898">
        <ele>12.199999809265</ele>
        <time>2019-12-29T08:15:17.000Z</time>
      </trkpt>
      <trkpt lat="47.26291" lon="-2.31888">
        <ele>12.199999809265</ele>
        <time>2019-12-29T08:15:20.000Z</time>
      </trkpt>
      <trkpt lat="47.26296" lon="-2.31869">
        <ele>12.199999809265</ele>
        <time>2019-12-29T08:15:25.000Z</time>
      </trkpt>
      <trkpt lat="47.26297" lon="-2.31867">
        <ele>12.199999809265</ele>
        <time>2019-12-29T08:15:26.000Z</time>
      </trkpt>
      <trkpt lat="47.26298" lon="-2.31854">
        <ele>12.199999809265</ele>
        <time>2019-12-29T08:15:30.000Z</time>
      </trkpt>
      <trkpt lat="47.26299" lon="-2.31838">
        <ele>12.199999809265</ele>
        <time>2019-12-29T08:15:34.000Z</time>
      </trkpt>
      <trkpt lat="47.26302" lon="-2.31813">
        <ele>12.199999809265</ele>
        <time>2019-12-29T08:15:39.000Z</time>
      </trkpt>
      <trkpt lat="47.26302" lon="-2.31801">
        <ele>12.60000038147</ele>
        <time>2019-12-29T08:15:41.000Z</time>
      </trkpt>
      <trkpt lat="47.26302" lon="-2.31795">
        <ele>13.39999961853</ele>
        <time>2019-12-29T08:15:42.000Z</time>
      </trkpt>
      <trkpt lat="47.26302" lon="-2.31791">
        <ele>13.800000190735</ele>
        <time>2019-12-29T08:15:43.000Z</time>
      </trkpt>
      <trkpt lat="47.26302" lon="-2.31786">
        <ele>14.199999809265</ele>
        <time>2019-12-29T08:15:44.000Z</time>
      </trkpt>
      <trkpt lat="47.26301" lon="-2.31759">
        <ele>14.199999809265</ele>
        <time>2019-12-29T08:15:49.000Z</time>
      </trkpt>
      <trkpt lat="47.26301" lon="-2.31729">
        <ele>14.199999809265</ele>
        <time>2019-12-29T08:15:55.000Z</time>
      </trkpt>
      <trkpt lat="47.26304" lon="-2.31725">
        <ele>14.199999809265</ele>
        <time>2019-12-29T08:15:56.000Z</time>
      </trkpt>
      <trkpt lat="47.26311" lon="-2.31721">
        <ele>14.199999809265</ele>
        <time>2019-12-29T08:15:58.000Z</time>
      </trkpt>
      <trkpt lat="47.26329" lon="-2.31708">
        <ele>14.199999809265</ele>
        <time>2019-12-29T08:16:04.000Z</time>
      </trkpt>
      <trkpt lat="47.26331" lon="-2.31705">
        <ele>14.199999809265</ele>
        <time>2019-12-29T08:16:05.000Z</time>
      </trkpt>
      <trkpt lat="47.26334" lon="-2.31694">
        <ele>14.800000190735</ele>
        <time>2019-12-29T08:16:08.000Z</time>
      </trkpt>
      <trkpt lat="47.26335" lon="-2.31691">
        <ele>15.199999809265</ele>
        <time>2019-12-29T08:16:09.000Z</time>
      </trkpt>
      <trkpt lat="47.26337" lon="-2.31689">
        <ele>15.60000038147</ele>
        <time>2019-12-29T08:16:10.000Z</time>
      </trkpt>
      <trkpt lat="47.2634" lon="-2.31689">
        <ele>16</ele>
        <time>2019-12-29T08:16:11.000Z</time>
      </trkpt>
      <trkpt lat="47.26343" lon="-2.31686">
        <ele>16.39999961853</ele>
        <time>2019-12-29T08:16:12.000Z</time>
      </trkpt>
      <trkpt lat="47.26355" lon="-2.3168">
        <ele>16.799999237061</ele>
        <time>2019-12-29T08:16:16.000Z</time>
      </trkpt>
      <trkpt lat="47.26357" lon="-2.31678">
        <ele>17.200000762939</ele>
        <time>2019-12-29T08:16:17.000Z</time>
      </trkpt>
      <trkpt lat="47.26361" lon="-2.31676">
        <ele>17.60000038147</ele>
        <time>2019-12-29T08:16:18.000Z</time>
      </trkpt>
      <trkpt lat="47.26364" lon="-2.31674">
        <ele>18</ele>
        <time>2019-12-29T08:16:19.000Z</time>
      </trkpt>
      <trkpt lat="47.26368" lon="-2.31672">
        <ele>18.39999961853</ele>
        <time>2019-12-29T08:16:20.000Z</time>
      </trkpt>
      <trkpt lat="47.26385" lon="-2.31662">
        <ele>18.39999961853</ele>
        <time>2019-12-29T08:16:25.000Z</time>
      </trkpt>
      <trkpt lat="47.26399" lon="-2.31654">
        <ele>18.39999961853</ele>
        <time>2019-12-29T08:16:30.000Z</time>
      </trkpt>
      <trkpt lat="47.26405" lon="-2.31648">
        <ele>18.39999961853</ele>
        <time>2019-12-29T08:16:32.000Z</time>
      </trkpt>
      <trkpt lat="47.26406" lon="-2.31639">
        <ele>18.39999961853</ele>
        <time>2019-12-29T08:16:34.000Z</time>
      </trkpt>
      <trkpt lat="47.26407" lon="-2.31636">
        <ele>18.799999237061</ele>
        <time>2019-12-29T08:16:35.000Z</time>
      </trkpt>
      <trkpt lat="47.26407" lon="-2.31631">
        <ele>19.200000762939</ele>
        <time>2019-12-29T08:16:36.000Z</time>
      </trkpt>
      <trkpt lat="47.26407" lon="-2.31626">
        <ele>19.60000038147</ele>
        <time>2019-12-29T08:16:37.000Z</time>
      </trkpt>
      <trkpt lat="47.26407" lon="-2.3162">
        <ele>20</ele>
        <time>2019-12-29T08:16:38.000Z</time>
      </trkpt>
      <trkpt lat="47.26408" lon="-2.31614">
        <ele>20.60000038147</ele>
        <time>2019-12-29T08:16:39.000Z</time>
      </trkpt>
      <trkpt lat="47.2641" lon="-2.31571">
        <ele>20.60000038147</ele>
        <time>2019-12-29T08:16:47.000Z</time>
      </trkpt>
      <trkpt lat="47.26412" lon="-2.31554">
        <ele>20.60000038147</ele>
        <time>2019-12-29T08:16:51.000Z</time>
      </trkpt>
      <trkpt lat="47.26415" lon="-2.31555">
        <ele>20.60000038147</ele>
        <time>2019-12-29T08:16:52.000Z</time>
      </trkpt>
      <trkpt lat="47.26418" lon="-2.31556">
        <ele>20.60000038147</ele>
        <time>2019-12-29T08:16:55.000Z</time>
      </trkpt>
      <trkpt lat="47.2642" lon="-2.31553">
        <ele>22.60000038147</ele>
        <time>2019-12-29T08:18:14.000Z</time>
      </trkpt>
      <trkpt lat="47.26416" lon="-2.31551">
        <ele>22.60000038147</ele>
        <time>2019-12-29T08:18:16.000Z</time>
      </trkpt>
      <trkpt lat="47.26416" lon="-2.31552">
        <ele>22.60000038147</ele>
        <time>2019-12-29T08:18:17.000Z</time>
      </trkpt>
      <trkpt lat="47.2641" lon="-2.31559">
        <ele>22.60000038147</ele>
        <time>2019-12-29T08:18:48.000Z</time>
      </trkpt>
      <trkpt lat="47.2641" lon="-2.31565">
        <ele>22.60000038147</ele>
        <time>2019-12-29T08:18:50.000Z</time>
      </trkpt>
      <trkpt lat="47.26408" lon="-2.31591">
        <ele>22.60000038147</ele>
        <time>2019-12-29T08:18:55.000Z</time>
      </trkpt>
      <trkpt lat="47.26408" lon="-2.31626">
        <ele>22.60000038147</ele>
        <time>2019-12-29T08:19:01.000Z</time>
      </trkpt>
      <trkpt lat="47.26411" lon="-2.31653">
        <ele>22.60000038147</ele>
        <time>2019-12-29T08:19:06.000Z</time>
      </trkpt>
      <trkpt lat="47.26415" lon="-2.31657">
        <ele>22.60000038147</ele>
        <time>2019-12-29T08:19:07.000Z</time>
      </trkpt>
      <trkpt lat="47.26427" lon="-2.31659">
        <ele>22.60000038147</ele>
        <time>2019-12-29T08:19:10.000Z</time>
      </trkpt>
      <trkpt lat="47.26432" lon="-2.31658">
        <ele>22.60000038147</ele>
        <time>2019-12-29T08:19:11.000Z</time>
      </trkpt>
      <trkpt lat="47.26456" lon="-2.31652">
        <ele>22.60000038147</ele>
        <time>2019-12-29T08:19:16.000Z</time>
      </trkpt>
      <trkpt lat="47.26482" lon="-2.31648">
        <ele>22.60000038147</ele>
        <time>2019-12-29T08:19:22.000Z</time>
      </trkpt>
      <trkpt lat="47.26495" lon="-2.31646">
        <ele>23</ele>
        <time>2019-12-29T08:19:25.000Z</time>
      </trkpt>
      <trkpt lat="47.26499" lon="-2.31644">
        <ele>23.39999961853</ele>
        <time>2019-12-29T08:19:26.000Z</time>
      </trkpt>
      <trkpt lat="47.26503" lon="-2.31643">
        <ele>24</ele>
        <time>2019-12-29T08:19:27.000Z</time>
      </trkpt>
      <trkpt lat="47.26507" lon="-2.31642">
        <ele>24.39999961853</ele>
        <time>2019-12-29T08:19:28.000Z</time>
      </trkpt>
      <trkpt lat="47.26511" lon="-2.3164">
        <ele>24.799999237061</ele>
        <time>2019-12-29T08:19:29.000Z</time>
      </trkpt>
      <trkpt lat="47.26515" lon="-2.31638">
        <ele>24.799999237061</ele>
        <time>2019-12-29T08:19:30.000Z</time>
      </trkpt>
      <trkpt lat="47.26527" lon="-2.31631">
        <ele>24.799999237061</ele>
        <time>2019-12-29T08:19:33.000Z</time>
      </trkpt>
      <trkpt lat="47.26531" lon="-2.31629">
        <ele>25.200000762939</ele>
        <time>2019-12-29T08:19:34.000Z</time>
      </trkpt>
      <trkpt lat="47.26534" lon="-2.31627">
        <ele>25.799999237061</ele>
        <time>2019-12-29T08:19:35.000Z</time>
      </trkpt>
      <trkpt lat="47.26538" lon="-2.31625">
        <ele>26.200000762939</ele>
        <time>2019-12-29T08:19:36.000Z</time>
      </trkpt>
      <trkpt lat="47.26542" lon="-2.31623">
        <ele>26.60000038147</ele>
        <time>2019-12-29T08:19:37.000Z</time>
      </trkpt>
      <trkpt lat="47.26545" lon="-2.31621">
        <ele>27</ele>
        <time>2019-12-29T08:19:38.000Z</time>
      </trkpt>
      <trkpt lat="47.26549" lon="-2.31619">
        <ele>27</ele>
        <time>2019-12-29T08:19:39.000Z</time>
      </trkpt>
      <trkpt lat="47.26571" lon="-2.31604">
        <ele>27.39999961853</ele>
        <time>2019-12-29T08:19:46.000Z</time>
      </trkpt>
      <trkpt lat="47.26575" lon="-2.31602">
        <ele>28</ele>
        <time>2019-12-29T08:19:47.000Z</time>
      </trkpt>
      <trkpt lat="47.26578" lon="-2.31599">
        <ele>28.39999961853</ele>
        <time>2019-12-29T08:19:48.000Z</time>
      </trkpt>
      <trkpt lat="47.26581" lon="-2.31597">
        <ele>28.799999237061</ele>
        <time>2019-12-29T08:19:49.000Z</time>
      </trkpt>
      <trkpt lat="47.26584" lon="-2.31595">
        <ele>29.200000762939</ele>
        <time>2019-12-29T08:19:50.000Z</time>
      </trkpt>
      <trkpt lat="47.2659" lon="-2.3159">
        <ele>29.60000038147</ele>
        <time>2019-12-29T08:19:52.000Z</time>
      </trkpt>
      <trkpt lat="47.26593" lon="-2.31589">
        <ele>30</ele>
        <time>2019-12-29T08:19:53.000Z</time>
      </trkpt>
      <trkpt lat="47.26595" lon="-2.31587">
        <ele>30.60000038147</ele>
        <time>2019-12-29T08:19:54.000Z</time>
      </trkpt>
      <trkpt lat="47.26598" lon="-2.31584">
        <ele>31</ele>
        <time>2019-12-29T08:19:55.000Z</time>
      </trkpt>
      <trkpt lat="47.26601" lon="-2.31582">
        <ele>31.39999961853</ele>
        <time>2019-12-29T08:19:56.000Z</time>
      </trkpt>
      <trkpt lat="47.26609" lon="-2.31577">
        <ele>31.39999961853</ele>
        <time>2019-12-29T08:19:59.000Z</time>
      </trkpt>
      <trkpt lat="47.26611" lon="-2.31575">
        <ele>31.799999237061</ele>
        <time>2019-12-29T08:20:00.000Z</time>
      </trkpt>
      <trkpt lat="47.26614" lon="-2.31574">
        <ele>32.200000762939</ele>
        <time>2019-12-29T08:20:01.000Z</time>
      </trkpt>
      <trkpt lat="47.26617" lon="-2.31572">
        <ele>32.599998474121</ele>
        <time>2019-12-29T08:20:02.000Z</time>
      </trkpt>
      <trkpt lat="47.26619" lon="-2.3157">
        <ele>33</ele>
        <time>2019-12-29T08:20:03.000Z</time>
      </trkpt>
      <trkpt lat="47.26621" lon="-2.31568">
        <ele>33.400001525879</ele>
        <time>2019-12-29T08:20:04.000Z</time>
      </trkpt>
      <trkpt lat="47.26625" lon="-2.31565">
        <ele>33.400001525879</ele>
        <time>2019-12-29T08:20:06.000Z</time>
      </trkpt>
      <trkpt lat="47.26634" lon="-2.31563">
        <ele>33.799999237061</ele>
        <time>2019-12-29T08:20:10.000Z</time>
      </trkpt>
      <trkpt lat="47.26636" lon="-2.31564">
        <ele>34.200000762939</ele>
        <time>2019-12-29T08:20:11.000Z</time>
      </trkpt>
      <trkpt lat="47.26639" lon="-2.31565">
        <ele>34.599998474121</ele>
        <time>2019-12-29T08:20:12.000Z</time>
      </trkpt>
      <trkpt lat="47.26641" lon="-2.31568">
        <ele>35</ele>
        <time>2019-12-29T08:20:13.000Z</time>
      </trkpt>
      <trkpt lat="47.26643" lon="-2.31571">
        <ele>35.400001525879</ele>
        <time>2019-12-29T08:20:14.000Z</time>
      </trkpt>
      <trkpt lat="47.26648" lon="-2.31579">
        <ele>35.400001525879</ele>
        <time>2019-12-29T08:20:16.000Z</time>
      </trkpt>
      <trkpt lat="47.26654" lon="-2.31593">
        <ele>35.400001525879</ele>
        <time>2019-12-29T08:20:19.000Z</time>
      </trkpt>
      <trkpt lat="47.2666" lon="-2.3161">
        <ele>35.400001525879</ele>
        <time>2019-12-29T08:20:22.000Z</time>
      </trkpt>
      <trkpt lat="47.26677" lon="-2.31657">
        <ele>35.400001525879</ele>
        <time>2019-12-29T08:20:30.000Z</time>
      </trkpt>
      <trkpt lat="47.26689" lon="-2.31691">
        <ele>35.799999237061</ele>
        <time>2019-12-29T08:20:36.000Z</time>
      </trkpt>
      <trkpt lat="47.26691" lon="-2.31696">
        <ele>36.200000762939</ele>
        <time>2019-12-29T08:20:37.000Z</time>
      </trkpt>
      <trkpt lat="47.26692" lon="-2.31702">
        <ele>36.599998474121</ele>
        <time>2019-12-29T08:20:38.000Z</time>
      </trkpt>
      <trkpt lat="47.26693" lon="-2.31708">
        <ele>37.400001525879</ele>
        <time>2019-12-29T08:20:39.000Z</time>
      </trkpt>
      <trkpt lat="47.26705" lon="-2.31755">
        <ele>37.400001525879</ele>
        <time>2019-12-29T08:20:47.000Z</time>
      </trkpt>
      <trkpt lat="47.26718" lon="-2.31805">
        <ele>37.400001525879</ele>
        <time>2019-12-29T08:20:55.000Z</time>
      </trkpt>
      <trkpt lat="47.26729" lon="-2.31844">
        <ele>37.400001525879</ele>
        <time>2019-12-29T08:21:02.000Z</time>
      </trkpt>
      <trkpt lat="47.26734" lon="-2.31852">
        <ele>37.400001525879</ele>
        <time>2019-12-29T08:21:04.000Z</time>
      </trkpt>
      <trkpt lat="47.26742" lon="-2.31854">
        <ele>37.400001525879</ele>
        <time>2019-12-29T08:21:06.000Z</time>
      </trkpt>
      <trkpt lat="47.26755" lon="-2.31844">
        <ele>37.400001525879</ele>
        <time>2019-12-29T08:21:09.000Z</time>
      </trkpt>
      <trkpt lat="47.26759" lon="-2.3184">
        <ele>37.400001525879</ele>
        <time>2019-12-29T08:21:10.000Z</time>
      </trkpt>
      <trkpt lat="47.26785" lon="-2.31821">
        <ele>37.400001525879</ele>
        <time>2019-12-29T08:21:16.000Z</time>
      </trkpt>
      <trkpt lat="47.2681" lon="-2.3181">
        <ele>37.400001525879</ele>
        <time>2019-12-29T08:21:22.000Z</time>
      </trkpt>
      <trkpt lat="47.26816" lon="-2.31807">
        <ele>37.400001525879</ele>
        <time>2019-12-29T08:21:27.000Z</time>
      </trkpt>
      <trkpt lat="47.26817" lon="-2.31809">
        <ele>37.400001525879</ele>
        <time>2019-12-29T08:21:28.000Z</time>
      </trkpt>
      <trkpt lat="47.26817" lon="-2.31815">
        <ele>37.400001525879</ele>
        <time>2019-12-29T08:21:30.000Z</time>
      </trkpt>
      <trkpt lat="47.26823" lon="-2.31833">
        <ele>37.400001525879</ele>
        <time>2019-12-29T08:21:34.000Z</time>
      </trkpt>
      <trkpt lat="47.26825" lon="-2.31838">
        <ele>37</ele>
        <time>2019-12-29T08:21:35.000Z</time>
      </trkpt>
      <trkpt lat="47.26828" lon="-2.31843">
        <ele>36.599998474121</ele>
        <time>2019-12-29T08:21:36.000Z</time>
      </trkpt>
      <trkpt lat="47.2683" lon="-2.31849">
        <ele>36.200000762939</ele>
        <time>2019-12-29T08:21:37.000Z</time>
      </trkpt>
      <trkpt lat="47.26833" lon="-2.31857">
        <ele>35.799999237061</ele>
        <time>2019-12-29T08:21:38.000Z</time>
      </trkpt>
      <trkpt lat="47.26835" lon="-2.31862">
        <ele>35.400001525879</ele>
        <time>2019-12-29T08:21:39.000Z</time>
      </trkpt>
      <trkpt lat="47.26848" lon="-2.31887">
        <ele>35.400001525879</ele>
        <time>2019-12-29T08:21:43.000Z</time>
      </trkpt>
      <trkpt lat="47.26853" lon="-2.31889">
        <ele>34.799999237061</ele>
        <time>2019-12-29T08:21:44.000Z</time>
      </trkpt>
      <trkpt lat="47.26858" lon="-2.3189">
        <ele>34.400001525879</ele>
        <time>2019-12-29T08:21:45.000Z</time>
      </trkpt>
      <trkpt lat="47.26863" lon="-2.31891">
        <ele>34</ele>
        <time>2019-12-29T08:21:46.000Z</time>
      </trkpt>
      <trkpt lat="47.26869" lon="-2.31893">
        <ele>33.599998474121</ele>
        <time>2019-12-29T08:21:47.000Z</time>
      </trkpt>
      <trkpt lat="47.26874" lon="-2.31895">
        <ele>33</ele>
        <time>2019-12-29T08:21:48.000Z</time>
      </trkpt>
      <trkpt lat="47.26892" lon="-2.31913">
        <ele>33</ele>
        <time>2019-12-29T08:21:52.000Z</time>
      </trkpt>
      <trkpt lat="47.26896" lon="-2.31919">
        <ele>32.200000762939</ele>
        <time>2019-12-29T08:21:53.000Z</time>
      </trkpt>
      <trkpt lat="47.26901" lon="-2.31926">
        <ele>31.799999237061</ele>
        <time>2019-12-29T08:21:54.000Z</time>
      </trkpt>
      <trkpt lat="47.26905" lon="-2.31934">
        <ele>31.39999961853</ele>
        <time>2019-12-29T08:21:55.000Z</time>
      </trkpt>
      <trkpt lat="47.2691" lon="-2.31941">
        <ele>31</ele>
        <time>2019-12-29T08:21:56.000Z</time>
      </trkpt>
      <trkpt lat="47.26914" lon="-2.31946">
        <ele>31</ele>
        <time>2019-12-29T08:21:57.000Z</time>
      </trkpt>
      <trkpt lat="47.26919" lon="-2.31953">
        <ele>30.60000038147</ele>
        <time>2019-12-29T08:21:58.000Z</time>
      </trkpt>
      <trkpt lat="47.26924" lon="-2.31958">
        <ele>30.200000762939</ele>
        <time>2019-12-29T08:21:59.000Z</time>
      </trkpt>
      <trkpt lat="47.26929" lon="-2.31965">
        <ele>29.60000038147</ele>
        <time>2019-12-29T08:22:00.000Z</time>
      </trkpt>
      <trkpt lat="47.26933" lon="-2.31972">
        <ele>29.200000762939</ele>
        <time>2019-12-29T08:22:01.000Z</time>
      </trkpt>
      <trkpt lat="47.26937" lon="-2.31979">
        <ele>28.799999237061</ele>
        <time>2019-12-29T08:22:02.000Z</time>
      </trkpt>
      <trkpt lat="47.26949" lon="-2.31996">
        <ele>28.39999961853</ele>
        <time>2019-12-29T08:22:05.000Z</time>
      </trkpt>
      <trkpt lat="47.26952" lon="-2.31999">
        <ele>28</ele>
        <time>2019-12-29T08:22:06.000Z</time>
      </trkpt>
      <trkpt lat="47.26956" lon="-2.31999">
        <ele>27.39999961853</ele>
        <time>2019-12-29T08:22:07.000Z</time>
      </trkpt>
      <trkpt lat="47.26962" lon="-2.31998">
        <ele>27</ele>
        <time>2019-12-29T08:22:08.000Z</time>
      </trkpt>
      <trkpt lat="47.26966" lon="-2.31997">
        <ele>26.60000038147</ele>
        <time>2019-12-29T08:22:09.000Z</time>
      </trkpt>
      <trkpt lat="47.26975" lon="-2.31994">
        <ele>26.60000038147</ele>
        <time>2019-12-29T08:22:11.000Z</time>
      </trkpt>
      <trkpt lat="47.26986" lon="-2.3199">
        <ele>26.200000762939</ele>
        <time>2019-12-29T08:22:13.000Z</time>
      </trkpt>
      <trkpt lat="47.2699" lon="-2.31988">
        <ele>25.799999237061</ele>
        <time>2019-12-29T08:22:14.000Z</time>
      </trkpt>
      <trkpt lat="47.26993" lon="-2.31986">
        <ele>25.39999961853</ele>
        <time>2019-12-29T08:22:15.000Z</time>
      </trkpt>
      <trkpt lat="47.26996" lon="-2.31985">
        <ele>25</ele>
        <time>2019-12-29T08:22:16.000Z</time>
      </trkpt>
      <trkpt lat="47.26998" lon="-2.31983">
        <ele>24.60000038147</ele>
        <time>2019-12-29T08:22:17.000Z</time>
      </trkpt>
      <trkpt lat="47.27006" lon="-2.3198">
        <ele>24.60000038147</ele>
        <time>2019-12-29T08:22:20.000Z</time>
      </trkpt>
      <trkpt lat="47.27016" lon="-2.31973">
        <ele>24.60000038147</ele>
        <time>2019-12-29T08:22:23.000Z</time>
      </trkpt>
      <trkpt lat="47.27018" lon="-2.3197">
        <ele>24.60000038147</ele>
        <time>2019-12-29T08:22:24.000Z</time>
      </trkpt>
      <trkpt lat="47.27039" lon="-2.31958">
        <ele>24.60000038147</ele>
        <time>2019-12-29T08:22:30.000Z</time>
      </trkpt>
      <trkpt lat="47.27047" lon="-2.31955">
        <ele>24.60000038147</ele>
        <time>2019-12-29T08:22:32.000Z</time>
      </trkpt>
      <trkpt lat="47.27055" lon="-2.31955">
        <ele>24.60000038147</ele>
        <time>2019-12-29T08:22:34.000Z</time>
      </trkpt>
      <trkpt lat="47.27071" lon="-2.31955">
        <ele>24.60000038147</ele>
        <time>2019-12-29T08:22:39.000Z</time>
      </trkpt>
      <trkpt lat="47.27072" lon="-2.31954">
        <ele>24.60000038147</ele>
        <time>2019-12-29T08:22:41.000Z</time>
      </trkpt>
      <trkpt lat="47.27079" lon="-2.31957">
        <ele>24.60000038147</ele>
        <time>2019-12-29T08:22:56.000Z</time>
      </trkpt>
      <trkpt lat="47.27082" lon="-2.31958">
        <ele>24.60000038147</ele>
        <time>2019-12-29T08:22:57.000Z</time>
      </trkpt>
      <trkpt lat="47.271" lon="-2.31959">
        <ele>24.200000762939</ele>
        <time>2019-12-29T08:23:02.000Z</time>
      </trkpt>
      <trkpt lat="47.27104" lon="-2.31961">
        <ele>23.799999237061</ele>
        <time>2019-12-29T08:23:03.000Z</time>
      </trkpt>
      <trkpt lat="47.27108" lon="-2.31962">
        <ele>23.39999961853</ele>
        <time>2019-12-29T08:23:04.000Z</time>
      </trkpt>
      <trkpt lat="47.27111" lon="-2.31964">
        <ele>23</ele>
        <time>2019-12-29T08:23:05.000Z</time>
      </trkpt>
      <trkpt lat="47.27114" lon="-2.31965">
        <ele>22.60000038147</ele>
        <time>2019-12-29T08:23:06.000Z</time>
      </trkpt>
      <trkpt lat="47.27117" lon="-2.31966">
        <ele>22.60000038147</ele>
        <time>2019-12-29T08:23:07.000Z</time>
      </trkpt>
      <trkpt lat="47.27127" lon="-2.31973">
        <ele>22.60000038147</ele>
        <time>2019-12-29T08:23:11.000Z</time>
      </trkpt>
      <trkpt lat="47.27131" lon="-2.31976">
        <ele>22.60000038147</ele>
        <time>2019-12-29T08:23:12.000Z</time>
      </trkpt>
      <trkpt lat="47.27145" lon="-2.31985">
        <ele>22.60000038147</ele>
        <time>2019-12-29T08:23:17.000Z</time>
      </trkpt>
      <trkpt lat="47.27153" lon="-2.31989">
        <ele>22.60000038147</ele>
        <time>2019-12-29T08:23:22.000Z</time>
      </trkpt>
      <trkpt lat="47.27164" lon="-2.31991">
        <ele>22.60000038147</ele>
        <time>2019-12-29T08:23:27.000Z</time>
      </trkpt>
      <trkpt lat="47.27171" lon="-2.31982">
        <ele>22.60000038147</ele>
        <time>2019-12-29T08:23:31.000Z</time>
      </trkpt>
      <trkpt lat="47.27178" lon="-2.31969">
        <ele>22.60000038147</ele>
        <time>2019-12-29T08:23:35.000Z</time>
      </trkpt>
      <trkpt lat="47.2719" lon="-2.3196">
        <ele>22.60000038147</ele>
        <time>2019-12-29T08:23:39.000Z</time>
      </trkpt>
      <trkpt lat="47.27198" lon="-2.31952">
        <ele>22.60000038147</ele>
        <time>2019-12-29T08:23:43.000Z</time>
      </trkpt>
      <trkpt lat="47.27206" lon="-2.31935">
        <ele>22.60000038147</ele>
        <time>2019-12-29T08:23:48.000Z</time>
      </trkpt>
      <trkpt lat="47.27215" lon="-2.31923">
        <ele>22.60000038147</ele>
        <time>2019-12-29T08:23:52.000Z</time>
      </trkpt>
      <trkpt lat="47.27229" lon="-2.31923">
        <ele>22.60000038147</ele>
        <time>2019-12-29T08:23:56.000Z</time>
      </trkpt>
      <trkpt lat="47.27234" lon="-2.31925">
        <ele>22.60000038147</ele>
        <time>2019-12-29T08:23:57.000Z</time>
      </trkpt>
      <trkpt lat="47.27258" lon="-2.31932">
        <ele>22.60000038147</ele>
        <time>2019-12-29T08:24:02.000Z</time>
      </trkpt>
      <trkpt lat="47.27262" lon="-2.31934">
        <ele>22.60000038147</ele>
        <time>2019-12-29T08:24:03.000Z</time>
      </trkpt>
      <trkpt lat="47.27277" lon="-2.31937">
        <ele>22.60000038147</ele>
        <time>2019-12-29T08:24:06.000Z</time>
      </trkpt>
      <trkpt lat="47.27281" lon="-2.31939">
        <ele>22.60000038147</ele>
        <time>2019-12-29T08:24:07.000Z</time>
      </trkpt>
      <trkpt lat="47.27298" lon="-2.31947">
        <ele>22.60000038147</ele>
        <time>2019-12-29T08:24:10.000Z</time>
      </trkpt>
      <trkpt lat="47.27303" lon="-2.31951">
        <ele>22.60000038147</ele>
        <time>2019-12-29T08:24:11.000Z</time>
      </trkpt>
      <trkpt lat="47.27333" lon="-2.31979">
        <ele>22.60000038147</ele>
        <time>2019-12-29T08:24:17.000Z</time>
      </trkpt>
      <trkpt lat="47.27381" lon="-2.3203">
        <ele>22.60000038147</ele>
        <time>2019-12-29T08:24:26.000Z</time>
      </trkpt>
      <trkpt lat="47.27399" lon="-2.32049">
        <ele>23</ele>
        <time>2019-12-29T08:24:30.000Z</time>
      </trkpt>
      <trkpt lat="47.27403" lon="-2.32054">
        <ele>23.39999961853</ele>
        <time>2019-12-29T08:24:31.000Z</time>
      </trkpt>
      <trkpt lat="47.27407" lon="-2.32058">
        <ele>23.799999237061</ele>
        <time>2019-12-29T08:24:32.000Z</time>
      </trkpt>
      <trkpt lat="47.27411" lon="-2.32062">
        <ele>24.39999961853</ele>
        <time>2019-12-29T08:24:33.000Z</time>
      </trkpt>
      <trkpt lat="47.27415" lon="-2.32066">
        <ele>24.799999237061</ele>
        <time>2019-12-29T08:24:34.000Z</time>
      </trkpt>
      <trkpt lat="47.2743" lon="-2.32083">
        <ele>25.200000762939</ele>
        <time>2019-12-29T08:24:38.000Z</time>
      </trkpt>
      <trkpt lat="47.27433" lon="-2.32088">
        <ele>25.60000038147</ele>
        <time>2019-12-29T08:24:39.000Z</time>
      </trkpt>
      <trkpt lat="47.27437" lon="-2.32093">
        <ele>26</ele>
        <time>2019-12-29T08:24:40.000Z</time>
      </trkpt>
      <trkpt lat="47.2744" lon="-2.32097">
        <ele>26.39999961853</ele>
        <time>2019-12-29T08:24:41.000Z</time>
      </trkpt>
      <trkpt lat="47.27443" lon="-2.32101">
        <ele>27</ele>
        <time>2019-12-29T08:24:42.000Z</time>
      </trkpt>
      <trkpt lat="47.27467" lon="-2.32133">
        <ele>27</ele>
        <time>2019-12-29T08:24:49.000Z</time>
      </trkpt>
      <trkpt lat="47.27499" lon="-2.32173">
        <ele>27</ele>
        <time>2019-12-29T08:24:58.000Z</time>
      </trkpt>
      <trkpt lat="47.27512" lon="-2.32191">
        <ele>27.39999961853</ele>
        <time>2019-12-29T08:25:02.000Z</time>
      </trkpt>
      <trkpt lat="47.27516" lon="-2.32195">
        <ele>27.799999237061</ele>
        <time>2019-12-29T08:25:03.000Z</time>
      </trkpt>
      <trkpt lat="47.27519" lon="-2.32199">
        <ele>28.200000762939</ele>
        <time>2019-12-29T08:25:04.000Z</time>
      </trkpt>
      <trkpt lat="47.27522" lon="-2.32204">
        <ele>28.60000038147</ele>
        <time>2019-12-29T08:25:05.000Z</time>
      </trkpt>
      <trkpt lat="47.27526" lon="-2.32207">
        <ele>29</ele>
        <time>2019-12-29T08:25:06.000Z</time>
      </trkpt>
      <trkpt lat="47.27544" lon="-2.32225">
        <ele>29.39999961853</ele>
        <time>2019-12-29T08:25:11.000Z</time>
      </trkpt>
      <trkpt lat="47.27547" lon="-2.32228">
        <ele>29.799999237061</ele>
        <time>2019-12-29T08:25:12.000Z</time>
      </trkpt>
      <trkpt lat="47.2755" lon="-2.32231">
        <ele>30.39999961853</ele>
        <time>2019-12-29T08:25:13.000Z</time>
      </trkpt>
      <trkpt lat="47.27554" lon="-2.32234">
        <ele>30.799999237061</ele>
        <time>2019-12-29T08:25:14.000Z</time>
      </trkpt>
      <trkpt lat="47.27557" lon="-2.32237">
        <ele>31.200000762939</ele>
        <time>2019-12-29T08:25:15.000Z</time>
      </trkpt>
      <trkpt lat="47.27574" lon="-2.32251">
        <ele>31.60000038147</ele>
        <time>2019-12-29T08:25:20.000Z</time>
      </trkpt>
      <trkpt lat="47.27577" lon="-2.32254">
        <ele>32</ele>
        <time>2019-12-29T08:25:21.000Z</time>
      </trkpt>
      <trkpt lat="47.2758" lon="-2.32257">
        <ele>32.400001525879</ele>
        <time>2019-12-29T08:25:22.000Z</time>
      </trkpt>
      <trkpt lat="47.27583" lon="-2.3226">
        <ele>32.799999237061</ele>
        <time>2019-12-29T08:25:23.000Z</time>
      </trkpt>
      <trkpt lat="47.27585" lon="-2.32263">
        <ele>33.200000762939</ele>
        <time>2019-12-29T08:25:24.000Z</time>
      </trkpt>
      <trkpt lat="47.27603" lon="-2.32279">
        <ele>33.599998474121</ele>
        <time>2019-12-29T08:25:30.000Z</time>
      </trkpt>
      <trkpt lat="47.27605" lon="-2.32282">
        <ele>34</ele>
        <time>2019-12-29T08:25:31.000Z</time>
      </trkpt>
      <trkpt lat="47.27607" lon="-2.32287">
        <ele>34.400001525879</ele>
        <time>2019-12-29T08:25:32.000Z</time>
      </trkpt>
      <trkpt lat="47.27608" lon="-2.32292">
        <ele>34.799999237061</ele>
        <time>2019-12-29T08:25:33.000Z</time>
      </trkpt>
      <trkpt lat="47.27609" lon="-2.32298">
        <ele>35.400001525879</ele>
        <time>2019-12-29T08:25:34.000Z</time>
      </trkpt>
      <trkpt lat="47.27606" lon="-2.32309">
        <ele>35.400001525879</ele>
        <time>2019-12-29T08:25:36.000Z</time>
      </trkpt>
      <trkpt lat="47.27594" lon="-2.32343">
        <ele>35.400001525879</ele>
        <time>2019-12-29T08:25:41.000Z</time>
      </trkpt>
      <trkpt lat="47.2758" lon="-2.32386">
        <ele>35.400001525879</ele>
        <time>2019-12-29T08:25:47.000Z</time>
      </trkpt>
      <trkpt lat="47.27578" lon="-2.32401">
        <ele>35.400001525879</ele>
        <time>2019-12-29T08:25:49.000Z</time>
      </trkpt>
      <trkpt lat="47.27583" lon="-2.3242">
        <ele>35.400001525879</ele>
        <time>2019-12-29T08:25:52.000Z</time>
      </trkpt>
      <trkpt lat="47.27586" lon="-2.32426">
        <ele>35.400001525879</ele>
        <time>2019-12-29T08:25:53.000Z</time>
      </trkpt>
      <trkpt lat="47.27602" lon="-2.32446">
        <ele>35.400001525879</ele>
        <time>2019-12-29T08:25:57.000Z</time>
      </trkpt>
      <trkpt lat="47.27617" lon="-2.32466">
        <ele>35.400001525879</ele>
        <time>2019-12-29T08:26:01.000Z</time>
      </trkpt>
      <trkpt lat="47.27622" lon="-2.32479">
        <ele>35.400001525879</ele>
        <time>2019-12-29T08:26:03.000Z</time>
      </trkpt>
      <trkpt lat="47.27631" lon="-2.32501">
        <ele>35.400001525879</ele>
        <time>2019-12-29T08:26:06.000Z</time>
      </trkpt>
      <trkpt lat="47.27637" lon="-2.32528">
        <ele>35.400001525879</ele>
        <time>2019-12-29T08:26:09.000Z</time>
      </trkpt>
      <trkpt lat="47.2765" lon="-2.3259">
        <ele>35.400001525879</ele>
        <time>2019-12-29T08:26:15.000Z</time>
      </trkpt>
      <trkpt lat="47.27662" lon="-2.32627">
        <ele>34.799999237061</ele>
        <time>2019-12-29T08:26:18.000Z</time>
      </trkpt>
      <trkpt lat="47.27666" lon="-2.32639">
        <ele>34.400001525879</ele>
        <time>2019-12-29T08:26:19.000Z</time>
      </trkpt>
      <trkpt lat="47.27672" lon="-2.32651">
        <ele>34</ele>
        <time>2019-12-29T08:26:20.000Z</time>
      </trkpt>
      <trkpt lat="47.27677" lon="-2.32663">
        <ele>33.599998474121</ele>
        <time>2019-12-29T08:26:21.000Z</time>
      </trkpt>
      <trkpt lat="47.27683" lon="-2.32675">
        <ele>33</ele>
        <time>2019-12-29T08:26:22.000Z</time>
      </trkpt>
      <trkpt lat="47.27689" lon="-2.32686">
        <ele>32.599998474121</ele>
        <time>2019-12-29T08:26:23.000Z</time>
      </trkpt>
      <trkpt lat="47.27695" lon="-2.32698">
        <ele>32</ele>
        <time>2019-12-29T08:26:24.000Z</time>
      </trkpt>
      <trkpt lat="47.27701" lon="-2.32709">
        <ele>31</ele>
        <time>2019-12-29T08:26:25.000Z</time>
      </trkpt>
      <trkpt lat="47.27714" lon="-2.32729">
        <ele>31</ele>
        <time>2019-12-29T08:26:27.000Z</time>
      </trkpt>
      <trkpt lat="47.2772" lon="-2.32738">
        <ele>30.60000038147</ele>
        <time>2019-12-29T08:26:28.000Z</time>
      </trkpt>
      <trkpt lat="47.27726" lon="-2.32747">
        <ele>30.200000762939</ele>
        <time>2019-12-29T08:26:29.000Z</time>
      </trkpt>
      <trkpt lat="47.27731" lon="-2.32756">
        <ele>29.799999237061</ele>
        <time>2019-12-29T08:26:30.000Z</time>
      </trkpt>
      <trkpt lat="47.27737" lon="-2.32765">
        <ele>29.200000762939</ele>
        <time>2019-12-29T08:26:31.000Z</time>
      </trkpt>
      <trkpt lat="47.27743" lon="-2.32773">
        <ele>28.799999237061</ele>
        <time>2019-12-29T08:26:32.000Z</time>
      </trkpt>
      <trkpt lat="47.27747" lon="-2.32781">
        <ele>28.799999237061</ele>
        <time>2019-12-29T08:26:33.000Z</time>
      </trkpt>
      <trkpt lat="47.27756" lon="-2.32797">
        <ele>28.799999237061</ele>
        <time>2019-12-29T08:26:35.000Z</time>
      </trkpt>
      <trkpt lat="47.27761" lon="-2.32816">
        <ele>28.799999237061</ele>
        <time>2019-12-29T08:26:37.000Z</time>
      </trkpt>
      <trkpt lat="47.27762" lon="-2.32835">
        <ele>28.799999237061</ele>
        <time>2019-12-29T08:26:39.000Z</time>
      </trkpt>
      <trkpt lat="47.27764" lon="-2.32862">
        <ele>28.799999237061</ele>
        <time>2019-12-29T08:26:42.000Z</time>
      </trkpt>
      <trkpt lat="47.27761" lon="-2.32901">
        <ele>28.799999237061</ele>
        <time>2019-12-29T08:26:47.000Z</time>
      </trkpt>
      <trkpt lat="47.27761" lon="-2.32908">
        <ele>29.200000762939</ele>
        <time>2019-12-29T08:26:48.000Z</time>
      </trkpt>
      <trkpt lat="47.2776" lon="-2.32914">
        <ele>29.60000038147</ele>
        <time>2019-12-29T08:26:49.000Z</time>
      </trkpt>
      <trkpt lat="47.2776" lon="-2.32922">
        <ele>30.39999961853</ele>
        <time>2019-12-29T08:26:50.000Z</time>
      </trkpt>
      <trkpt lat="47.27759" lon="-2.32929">
        <ele>30.799999237061</ele>
        <time>2019-12-29T08:26:51.000Z</time>
      </trkpt>
      <trkpt lat="47.27758" lon="-2.32952">
        <ele>30.799999237061</ele>
        <time>2019-12-29T08:26:54.000Z</time>
      </trkpt>
      <trkpt lat="47.27758" lon="-2.32959">
        <ele>31.200000762939</ele>
        <time>2019-12-29T08:26:55.000Z</time>
      </trkpt>
      <trkpt lat="47.27758" lon="-2.32966">
        <ele>31.799999237061</ele>
        <time>2019-12-29T08:26:56.000Z</time>
      </trkpt>
      <trkpt lat="47.27757" lon="-2.32974">
        <ele>32.200000762939</ele>
        <time>2019-12-29T08:26:57.000Z</time>
      </trkpt>
      <trkpt lat="47.27757" lon="-2.32981">
        <ele>32.599998474121</ele>
        <time>2019-12-29T08:26:58.000Z</time>
      </trkpt>
      <trkpt lat="47.27757" lon="-2.32988">
        <ele>33</ele>
        <time>2019-12-29T08:26:59.000Z</time>
      </trkpt>
      <trkpt lat="47.27757" lon="-2.33008">
        <ele>33</ele>
        <time>2019-12-29T08:27:02.000Z</time>
      </trkpt>
      <trkpt lat="47.27757" lon="-2.33022">
        <ele>33.599998474121</ele>
        <time>2019-12-29T08:27:04.000Z</time>
      </trkpt>
      <trkpt lat="47.27757" lon="-2.33029">
        <ele>34</ele>
        <time>2019-12-29T08:27:05.000Z</time>
      </trkpt>
      <trkpt lat="47.27757" lon="-2.33035">
        <ele>34.400001525879</ele>
        <time>2019-12-29T08:27:06.000Z</time>
      </trkpt>
      <trkpt lat="47.27757" lon="-2.33042">
        <ele>34.799999237061</ele>
        <time>2019-12-29T08:27:07.000Z</time>
      </trkpt>
      <trkpt lat="47.27757" lon="-2.33049">
        <ele>35.200000762939</ele>
        <time>2019-12-29T08:27:08.000Z</time>
      </trkpt>
      <trkpt lat="47.27759" lon="-2.33092">
        <ele>35.599998474121</ele>
        <time>2019-12-29T08:27:14.000Z</time>
      </trkpt>
      <trkpt lat="47.27759" lon="-2.33098">
        <ele>36.400001525879</ele>
        <time>2019-12-29T08:27:15.000Z</time>
      </trkpt>
      <trkpt lat="47.2776" lon="-2.33104">
        <ele>36.799999237061</ele>
        <time>2019-12-29T08:27:16.000Z</time>
      </trkpt>
      <trkpt lat="47.2776" lon="-2.33111">
        <ele>37.200000762939</ele>
        <time>2019-12-29T08:27:17.000Z</time>
      </trkpt>
      <trkpt lat="47.27762" lon="-2.3313">
        <ele>37.200000762939</ele>
        <time>2019-12-29T08:27:20.000Z</time>
      </trkpt>
      <trkpt lat="47.27766" lon="-2.33141">
        <ele>37.200000762939</ele>
        <time>2019-12-29T08:27:22.000Z</time>
      </trkpt>
      <trkpt lat="47.27769" lon="-2.33153">
        <ele>37.200000762939</ele>
        <time>2019-12-29T08:27:24.000Z</time>
      </trkpt>
      <trkpt lat="47.27769" lon="-2.33168">
        <ele>37.200000762939</ele>
        <time>2019-12-29T08:27:26.000Z</time>
      </trkpt>
      <trkpt lat="47.27767" lon="-2.33183">
        <ele>37.599998474121</ele>
        <time>2019-12-29T08:27:28.000Z</time>
      </trkpt>
      <trkpt lat="47.27767" lon="-2.3319">
        <ele>38</ele>
        <time>2019-12-29T08:27:29.000Z</time>
      </trkpt>
      <trkpt lat="47.27767" lon="-2.33198">
        <ele>38.400001525879</ele>
        <time>2019-12-29T08:27:30.000Z</time>
      </trkpt>
      <trkpt lat="47.27767" lon="-2.33206">
        <ele>38.799999237061</ele>
        <time>2019-12-29T08:27:31.000Z</time>
      </trkpt>
      <trkpt lat="47.27768" lon="-2.33214">
        <ele>39.200000762939</ele>
        <time>2019-12-29T08:27:32.000Z</time>
      </trkpt>
      <trkpt lat="47.27775" lon="-2.33277">
        <ele>39.200000762939</ele>
        <time>2019-12-29T08:27:40.000Z</time>
      </trkpt>
      <trkpt lat="47.27776" lon="-2.33285">
        <ele>39.200000762939</ele>
        <time>2019-12-29T08:27:41.000Z</time>
      </trkpt>
      <trkpt lat="47.27777" lon="-2.33301">
        <ele>39.200000762939</ele>
        <time>2019-12-29T08:27:43.000Z</time>
      </trkpt>
      <trkpt lat="47.27778" lon="-2.33317">
        <ele>39.200000762939</ele>
        <time>2019-12-29T08:27:45.000Z</time>
      </trkpt>
      <trkpt lat="47.2778" lon="-2.33349">
        <ele>39.599998474121</ele>
        <time>2019-12-29T08:27:49.000Z</time>
      </trkpt>
      <trkpt lat="47.2778" lon="-2.33357">
        <ele>40</ele>
        <time>2019-12-29T08:27:50.000Z</time>
      </trkpt>
      <trkpt lat="47.2778" lon="-2.33365">
        <ele>40.400001525879</ele>
        <time>2019-12-29T08:27:51.000Z</time>
      </trkpt>
      <trkpt lat="47.2778" lon="-2.33373">
        <ele>40.799999237061</ele>
        <time>2019-12-29T08:27:52.000Z</time>
      </trkpt>
      <trkpt lat="47.2778" lon="-2.33381">
        <ele>41.400001525879</ele>
        <time>2019-12-29T08:27:53.000Z</time>
      </trkpt>
      <trkpt lat="47.27776" lon="-2.33432">
        <ele>41.400001525879</ele>
        <time>2019-12-29T08:28:00.000Z</time>
      </trkpt>
      <trkpt lat="47.27771" lon="-2.33498">
        <ele>41.400001525879</ele>
        <time>2019-12-29T08:28:09.000Z</time>
      </trkpt>
      <trkpt lat="47.2777" lon="-2.33557">
        <ele>41.400001525879</ele>
        <time>2019-12-29T08:28:17.000Z</time>
      </trkpt>
      <trkpt lat="47.27771" lon="-2.33572">
        <ele>41.799999237061</ele>
        <time>2019-12-29T08:28:19.000Z</time>
      </trkpt>
      <trkpt lat="47.27771" lon="-2.3358">
        <ele>42.200000762939</ele>
        <time>2019-12-29T08:28:20.000Z</time>
      </trkpt>
      <trkpt lat="47.27771" lon="-2.33587">
        <ele>42.599998474121</ele>
        <time>2019-12-29T08:28:21.000Z</time>
      </trkpt>
      <trkpt lat="47.27772" lon="-2.33595">
        <ele>43</ele>
        <time>2019-12-29T08:28:22.000Z</time>
      </trkpt>
      <trkpt lat="47.27772" lon="-2.33602">
        <ele>43.400001525879</ele>
        <time>2019-12-29T08:28:23.000Z</time>
      </trkpt>
      <trkpt lat="47.27772" lon="-2.33617">
        <ele>43.400001525879</ele>
        <time>2019-12-29T08:28:25.000Z</time>
      </trkpt>
      <trkpt lat="47.27773" lon="-2.33637">
        <ele>43.400001525879</ele>
        <time>2019-12-29T08:28:28.000Z</time>
      </trkpt>
      <trkpt lat="47.27773" lon="-2.33649">
        <ele>43.400001525879</ele>
        <time>2019-12-29T08:28:30.000Z</time>
      </trkpt>
      <trkpt lat="47.27771" lon="-2.33655">
        <ele>43.400001525879</ele>
        <time>2019-12-29T08:28:31.000Z</time>
      </trkpt>
      <trkpt lat="47.2776" lon="-2.33678">
        <ele>43.400001525879</ele>
        <time>2019-12-29T08:28:35.000Z</time>
      </trkpt>
      <trkpt lat="47.27751" lon="-2.33686">
        <ele>43.400001525879</ele>
        <time>2019-12-29T08:28:37.000Z</time>
      </trkpt>
      <trkpt lat="47.27737" lon="-2.33699">
        <ele>43.400001525879</ele>
        <time>2019-12-29T08:28:40.000Z</time>
      </trkpt>
      <trkpt lat="47.27729" lon="-2.33709">
        <ele>43.799999237061</ele>
        <time>2019-12-29T08:28:42.000Z</time>
      </trkpt>
      <trkpt lat="47.27726" lon="-2.33715">
        <ele>44.200000762939</ele>
        <time>2019-12-29T08:28:43.000Z</time>
      </trkpt>
      <trkpt lat="47.27723" lon="-2.33721">
        <ele>44.599998474121</ele>
        <time>2019-12-29T08:28:44.000Z</time>
      </trkpt>
      <trkpt lat="47.27722" lon="-2.33728">
        <ele>45</ele>
        <time>2019-12-29T08:28:45.000Z</time>
      </trkpt>
      <trkpt lat="47.27721" lon="-2.33735">
        <ele>45.400001525879</ele>
        <time>2019-12-29T08:28:46.000Z</time>
      </trkpt>
      <trkpt lat="47.2772" lon="-2.33749">
        <ele>45.400001525879</ele>
        <time>2019-12-29T08:28:48.000Z</time>
      </trkpt>
      <trkpt lat="47.2772" lon="-2.33765">
        <ele>45.400001525879</ele>
        <time>2019-12-29T08:28:50.000Z</time>
      </trkpt>
      <trkpt lat="47.27723" lon="-2.33788">
        <ele>45.400001525879</ele>
        <time>2019-12-29T08:28:53.000Z</time>
      </trkpt>
      <trkpt lat="47.2773" lon="-2.3381">
        <ele>45.400001525879</ele>
        <time>2019-12-29T08:28:56.000Z</time>
      </trkpt>
      <trkpt lat="47.27735" lon="-2.33824">
        <ele>45.400001525879</ele>
        <time>2019-12-29T08:28:58.000Z</time>
      </trkpt>
      <trkpt lat="47.27753" lon="-2.33876">
        <ele>45.400001525879</ele>
        <time>2019-12-29T08:29:05.000Z</time>
      </trkpt>
      <trkpt lat="47.27771" lon="-2.33933">
        <ele>45.400001525879</ele>
        <time>2019-12-29T08:29:13.000Z</time>
      </trkpt>
      <trkpt lat="47.2778" lon="-2.33967">
        <ele>46.200000762939</ele>
        <time>2019-12-29T08:29:18.000Z</time>
      </trkpt>
      <trkpt lat="47.27781" lon="-2.33974">
        <ele>46.599998474121</ele>
        <time>2019-12-29T08:29:19.000Z</time>
      </trkpt>
      <trkpt lat="47.27783" lon="-2.3398">
        <ele>47</ele>
        <time>2019-12-29T08:29:20.000Z</time>
      </trkpt>
      <trkpt lat="47.27784" lon="-2.33986">
        <ele>47.400001525879</ele>
        <time>2019-12-29T08:29:21.000Z</time>
      </trkpt>
      <trkpt lat="47.2779" lon="-2.34013">
        <ele>47.400001525879</ele>
        <time>2019-12-29T08:29:26.000Z</time>
      </trkpt>
      <trkpt lat="47.27789" lon="-2.34019">
        <ele>47.400001525879</ele>
        <time>2019-12-29T08:29:27.000Z</time>
      </trkpt>
      <trkpt lat="47.27781" lon="-2.34035">
        <ele>47.400001525879</ele>
        <time>2019-12-29T08:29:30.000Z</time>
      </trkpt>
      <trkpt lat="47.27778" lon="-2.34041">
        <ele>47.400001525879</ele>
        <time>2019-12-29T08:29:31.000Z</time>
      </trkpt>
      <trkpt lat="47.27774" lon="-2.34064">
        <ele>47.400001525879</ele>
        <time>2019-12-29T08:29:34.000Z</time>
      </trkpt>
      <trkpt lat="47.27782" lon="-2.34085">
        <ele>47.400001525879</ele>
        <time>2019-12-29T08:29:37.000Z</time>
      </trkpt>
      <trkpt lat="47.27789" lon="-2.34097">
        <ele>47.799999237061</ele>
        <time>2019-12-29T08:29:39.000Z</time>
      </trkpt>
      <trkpt lat="47.27794" lon="-2.34103">
        <ele>48.200000762939</ele>
        <time>2019-12-29T08:29:40.000Z</time>
      </trkpt>
      <trkpt lat="47.27798" lon="-2.34109">
        <ele>48.599998474121</ele>
        <time>2019-12-29T08:29:41.000Z</time>
      </trkpt>
      <trkpt lat="47.27802" lon="-2.34114">
        <ele>49</ele>
        <time>2019-12-29T08:29:42.000Z</time>
      </trkpt>
      <trkpt lat="47.27807" lon="-2.3412">
        <ele>49.400001525879</ele>
        <time>2019-12-29T08:29:43.000Z</time>
      </trkpt>
      <trkpt lat="47.27833" lon="-2.34151">
        <ele>49.400001525879</ele>
        <time>2019-12-29T08:29:49.000Z</time>
      </trkpt>
      <trkpt lat="47.27841" lon="-2.34162">
        <ele>49.400001525879</ele>
        <time>2019-12-29T08:29:51.000Z</time>
      </trkpt>
      <trkpt lat="47.27858" lon="-2.34196">
        <ele>49.400001525879</ele>
        <time>2019-12-29T08:29:56.000Z</time>
      </trkpt>
      <trkpt lat="47.27883" lon="-2.3425">
        <ele>49.400001525879</ele>
        <time>2019-12-29T08:30:04.000Z</time>
      </trkpt>
      <trkpt lat="47.2789" lon="-2.34262">
        <ele>49.400001525879</ele>
        <time>2019-12-29T08:30:06.000Z</time>
      </trkpt>
      <trkpt lat="47.279" lon="-2.34279">
        <ele>49.400001525879</ele>
        <time>2019-12-29T08:30:09.000Z</time>
      </trkpt>
      <trkpt lat="47.27922" lon="-2.34319">
        <ele>49.400001525879</ele>
        <time>2019-12-29T08:30:15.000Z</time>
      </trkpt>
      <trkpt lat="47.27936" lon="-2.34345">
        <ele>49.400001525879</ele>
        <time>2019-12-29T08:30:19.000Z</time>
      </trkpt>
      <trkpt lat="47.27943" lon="-2.34358">
        <ele>49.400001525879</ele>
        <time>2019-12-29T08:30:21.000Z</time>
      </trkpt>
      <trkpt lat="47.27951" lon="-2.34371">
        <ele>49.400001525879</ele>
        <time>2019-12-29T08:30:23.000Z</time>
      </trkpt>
      <trkpt lat="47.27967" lon="-2.34394">
        <ele>49.400001525879</ele>
        <time>2019-12-29T08:30:27.000Z</time>
      </trkpt>
      <trkpt lat="47.27996" lon="-2.34433">
        <ele>49.400001525879</ele>
        <time>2019-12-29T08:30:34.000Z</time>
      </trkpt>
      <trkpt lat="47.27999" lon="-2.34439">
        <ele>49.400001525879</ele>
        <time>2019-12-29T08:30:35.000Z</time>
      </trkpt>
      <trkpt lat="47.28003" lon="-2.34455">
        <ele>49</ele>
        <time>2019-12-29T08:30:37.000Z</time>
      </trkpt>
      <trkpt lat="47.28002" lon="-2.34464">
        <ele>48.599998474121</ele>
        <time>2019-12-29T08:30:38.000Z</time>
      </trkpt>
      <trkpt lat="47.28001" lon="-2.34473">
        <ele>48.200000762939</ele>
        <time>2019-12-29T08:30:39.000Z</time>
      </trkpt>
      <trkpt lat="47.27998" lon="-2.34482">
        <ele>47.799999237061</ele>
        <time>2019-12-29T08:30:40.000Z</time>
      </trkpt>
      <trkpt lat="47.27995" lon="-2.34491">
        <ele>47.400001525879</ele>
        <time>2019-12-29T08:30:41.000Z</time>
      </trkpt>
      <trkpt lat="47.27988" lon="-2.34508">
        <ele>47.400001525879</ele>
        <time>2019-12-29T08:30:43.000Z</time>
      </trkpt>
      <trkpt lat="47.27981" lon="-2.34524">
        <ele>47.400001525879</ele>
        <time>2019-12-29T08:30:45.000Z</time>
      </trkpt>
      <trkpt lat="47.27976" lon="-2.3454">
        <ele>47.400001525879</ele>
        <time>2019-12-29T08:30:47.000Z</time>
      </trkpt>
      <trkpt lat="47.27974" lon="-2.34557">
        <ele>47.400001525879</ele>
        <time>2019-12-29T08:30:49.000Z</time>
      </trkpt>
      <trkpt lat="47.27979" lon="-2.34581">
        <ele>47.400001525879</ele>
        <time>2019-12-29T08:30:52.000Z</time>
      </trkpt>
      <trkpt lat="47.27982" lon="-2.34588">
        <ele>47.400001525879</ele>
        <time>2019-12-29T08:30:53.000Z</time>
      </trkpt>
      <trkpt lat="47.27996" lon="-2.34642">
        <ele>47.400001525879</ele>
        <time>2019-12-29T08:31:00.000Z</time>
      </trkpt>
      <trkpt lat="47.28002" lon="-2.34695">
        <ele>47.400001525879</ele>
        <time>2019-12-29T08:31:06.000Z</time>
      </trkpt>
      <trkpt lat="47.28007" lon="-2.34758">
        <ele>47.400001525879</ele>
        <time>2019-12-29T08:31:13.000Z</time>
      </trkpt>
      <trkpt lat="47.2802" lon="-2.34797">
        <ele>47.400001525879</ele>
        <time>2019-12-29T08:31:18.000Z</time>
      </trkpt>
      <trkpt lat="47.28038" lon="-2.3484">
        <ele>47</ele>
        <time>2019-12-29T08:31:24.000Z</time>
      </trkpt>
      <trkpt lat="47.2804" lon="-2.34847">
        <ele>46.599998474121</ele>
        <time>2019-12-29T08:31:25.000Z</time>
      </trkpt>
      <trkpt lat="47.28043" lon="-2.34855">
        <ele>46.200000762939</ele>
        <time>2019-12-29T08:31:26.000Z</time>
      </trkpt>
      <trkpt lat="47.28046" lon="-2.34864">
        <ele>45.799999237061</ele>
        <time>2019-12-29T08:31:27.000Z</time>
      </trkpt>
      <trkpt lat="47.28048" lon="-2.34872">
        <ele>45.400001525879</ele>
        <time>2019-12-29T08:31:28.000Z</time>
      </trkpt>
      <trkpt lat="47.28052" lon="-2.3489">
        <ele>45.400001525879</ele>
        <time>2019-12-29T08:31:30.000Z</time>
      </trkpt>
      <trkpt lat="47.28063" lon="-2.34946">
        <ele>45.400001525879</ele>
        <time>2019-12-29T08:31:36.000Z</time>
      </trkpt>
      <trkpt lat="47.28068" lon="-2.34964">
        <ele>45.400001525879</ele>
        <time>2019-12-29T08:31:38.000Z</time>
      </trkpt>
      <trkpt lat="47.28074" lon="-2.34982">
        <ele>45</ele>
        <time>2019-12-29T08:31:40.000Z</time>
      </trkpt>
      <trkpt lat="47.28078" lon="-2.3499">
        <ele>44.599998474121</ele>
        <time>2019-12-29T08:31:41.000Z</time>
      </trkpt>
      <trkpt lat="47.28082" lon="-2.34998">
        <ele>44.200000762939</ele>
        <time>2019-12-29T08:31:42.000Z</time>
      </trkpt>
      <trkpt lat="47.28086" lon="-2.35005">
        <ele>43.799999237061</ele>
        <time>2019-12-29T08:31:43.000Z</time>
      </trkpt>
      <trkpt lat="47.2809" lon="-2.35013">
        <ele>43.400001525879</ele>
        <time>2019-12-29T08:31:44.000Z</time>
      </trkpt>
      <trkpt lat="47.28094" lon="-2.3502">
        <ele>43.400001525879</ele>
        <time>2019-12-29T08:31:45.000Z</time>
      </trkpt>
      <trkpt lat="47.28102" lon="-2.35034">
        <ele>43.400001525879</ele>
        <time>2019-12-29T08:31:47.000Z</time>
      </trkpt>
      <trkpt lat="47.28118" lon="-2.35062">
        <ele>43.400001525879</ele>
        <time>2019-12-29T08:31:51.000Z</time>
      </trkpt>
      <trkpt lat="47.28131" lon="-2.35083">
        <ele>43.400001525879</ele>
        <time>2019-12-29T08:31:54.000Z</time>
      </trkpt>
      <trkpt lat="47.2814" lon="-2.35095">
        <ele>43.799999237061</ele>
        <time>2019-12-29T08:31:56.000Z</time>
      </trkpt>
      <trkpt lat="47.28145" lon="-2.35101">
        <ele>44.200000762939</ele>
        <time>2019-12-29T08:31:57.000Z</time>
      </trkpt>
      <trkpt lat="47.2815" lon="-2.35106">
        <ele>44.599998474121</ele>
        <time>2019-12-29T08:31:58.000Z</time>
      </trkpt>
      <trkpt lat="47.28155" lon="-2.35111">
        <ele>45</ele>
        <time>2019-12-29T08:31:59.000Z</time>
      </trkpt>
      <trkpt lat="47.2816" lon="-2.35116">
        <ele>45.400001525879</ele>
        <time>2019-12-29T08:32:00.000Z</time>
      </trkpt>
      <trkpt lat="47.28169" lon="-2.35127">
        <ele>45.400001525879</ele>
        <time>2019-12-29T08:32:02.000Z</time>
      </trkpt>
      <trkpt lat="47.28196" lon="-2.35175">
        <ele>45.400001525879</ele>
        <time>2019-12-29T08:32:09.000Z</time>
      </trkpt>
      <trkpt lat="47.28214" lon="-2.35209">
        <ele>45.400001525879</ele>
        <time>2019-12-29T08:32:15.000Z</time>
      </trkpt>
      <trkpt lat="47.28229" lon="-2.35235">
        <ele>45.400001525879</ele>
        <time>2019-12-29T08:32:20.000Z</time>
      </trkpt>
      <trkpt lat="47.28232" lon="-2.35239">
        <ele>45.400001525879</ele>
        <time>2019-12-29T08:32:21.000Z</time>
      </trkpt>
      <trkpt lat="47.28235" lon="-2.35243">
        <ele>45.400001525879</ele>
        <time>2019-12-29T08:32:22.000Z</time>
      </trkpt>
      <trkpt lat="47.28245" lon="-2.35244">
        <ele>45.400001525879</ele>
        <time>2019-12-29T08:32:24.000Z</time>
      </trkpt>
      <trkpt lat="47.28253" lon="-2.3524">
        <ele>45.400001525879</ele>
        <time>2019-12-29T08:32:26.000Z</time>
      </trkpt>
      <trkpt lat="47.28256" lon="-2.35237">
        <ele>45.400001525879</ele>
        <time>2019-12-29T08:32:27.000Z</time>
      </trkpt>
      <trkpt lat="47.28264" lon="-2.35231">
        <ele>45.799999237061</ele>
        <time>2019-12-29T08:32:29.000Z</time>
      </trkpt>
      <trkpt lat="47.28268" lon="-2.35229">
        <ele>46.200000762939</ele>
        <time>2019-12-29T08:32:30.000Z</time>
      </trkpt>
      <trkpt lat="47.28272" lon="-2.35227">
        <ele>46.599998474121</ele>
        <time>2019-12-29T08:32:31.000Z</time>
      </trkpt>
      <trkpt lat="47.28276" lon="-2.35228">
        <ele>47.200000762939</ele>
        <time>2019-12-29T08:32:32.000Z</time>
      </trkpt>
      <trkpt lat="47.2828" lon="-2.3523">
        <ele>47.599998474121</ele>
        <time>2019-12-29T08:32:33.000Z</time>
      </trkpt>
      <trkpt lat="47.2829" lon="-2.3525">
        <ele>47.599998474121</ele>
        <time>2019-12-29T08:32:37.000Z</time>
      </trkpt>
      <trkpt lat="47.28302" lon="-2.35284">
        <ele>47.599998474121</ele>
        <time>2019-12-29T08:32:43.000Z</time>
      </trkpt>
      <trkpt lat="47.28305" lon="-2.3529">
        <ele>47.599998474121</ele>
        <time>2019-12-29T08:32:44.000Z</time>
      </trkpt>
      <trkpt lat="47.28309" lon="-2.35302">
        <ele>47.599998474121</ele>
        <time>2019-12-29T08:32:46.000Z</time>
      </trkpt>
      <trkpt lat="47.28317" lon="-2.35308">
        <ele>47.599998474121</ele>
        <time>2019-12-29T08:32:48.000Z</time>
      </trkpt>
      <trkpt lat="47.28335" lon="-2.35302">
        <ele>47.599998474121</ele>
        <time>2019-12-29T08:32:52.000Z</time>
      </trkpt>
      <trkpt lat="47.28345" lon="-2.35308">
        <ele>47.599998474121</ele>
        <time>2019-12-29T08:32:55.000Z</time>
      </trkpt>
      <trkpt lat="47.28349" lon="-2.35317">
        <ele>47.599998474121</ele>
        <time>2019-12-29T08:32:57.000Z</time>
      </trkpt>
      <trkpt lat="47.28352" lon="-2.35329">
        <ele>47.599998474121</ele>
        <time>2019-12-29T08:32:59.000Z</time>
      </trkpt>
      <trkpt lat="47.28355" lon="-2.35339">
        <ele>46.799999237061</ele>
        <time>2019-12-29T08:33:01.000Z</time>
      </trkpt>
      <trkpt lat="47.28357" lon="-2.35342">
        <ele>46.400001525879</ele>
        <time>2019-12-29T08:33:02.000Z</time>
      </trkpt>
      <trkpt lat="47.28357" lon="-2.35345">
        <ele>45.799999237061</ele>
        <time>2019-12-29T08:33:03.000Z</time>
      </trkpt>
      <trkpt lat="47.28358" lon="-2.35347">
        <ele>45.400001525879</ele>
        <time>2019-12-29T08:33:04.000Z</time>
      </trkpt>
      <trkpt lat="47.2836" lon="-2.3535">
        <ele>45.400001525879</ele>
        <time>2019-12-29T08:33:06.000Z</time>
      </trkpt>
      <trkpt lat="47.28361" lon="-2.35353">
        <ele>45.400001525879</ele>
        <time>2019-12-29T08:33:08.000Z</time>
      </trkpt>
      <trkpt lat="47.28362" lon="-2.35356">
        <ele>45.400001525879</ele>
        <time>2019-12-29T08:33:10.000Z</time>
      </trkpt>
      <trkpt lat="47.28365" lon="-2.3536">
        <ele>45.400001525879</ele>
        <time>2019-12-29T08:33:12.000Z</time>
      </trkpt>
      <trkpt lat="47.28368" lon="-2.35361">
        <ele>45.400001525879</ele>
        <time>2019-12-29T08:33:13.000Z</time>
      </trkpt>
      <trkpt lat="47.2837" lon="-2.35362">
        <ele>45.799999237061</ele>
        <time>2019-12-29T08:33:14.000Z</time>
      </trkpt>
      <trkpt lat="47.28372" lon="-2.35363">
        <ele>46.400001525879</ele>
        <time>2019-12-29T08:33:15.000Z</time>
      </trkpt>
      <trkpt lat="47.28374" lon="-2.35365">
        <ele>46.799999237061</ele>
        <time>2019-12-29T08:33:16.000Z</time>
      </trkpt>
      <trkpt lat="47.28375" lon="-2.35367">
        <ele>47.200000762939</ele>
        <time>2019-12-29T08:33:17.000Z</time>
      </trkpt>
      <trkpt lat="47.28377" lon="-2.35369">
        <ele>47.599998474121</ele>
        <time>2019-12-29T08:33:18.000Z</time>
      </trkpt>
      <trkpt lat="47.28379" lon="-2.35372">
        <ele>48</ele>
        <time>2019-12-29T08:33:20.000Z</time>
      </trkpt>
      <trkpt lat="47.2838" lon="-2.35375">
        <ele>48.400001525879</ele>
        <time>2019-12-29T08:33:21.000Z</time>
      </trkpt>
      <trkpt lat="47.2838" lon="-2.35377">
        <ele>48.799999237061</ele>
        <time>2019-12-29T08:33:22.000Z</time>
      </trkpt>
      <trkpt lat="47.28381" lon="-2.3538">
        <ele>49.400001525879</ele>
        <time>2019-12-29T08:33:23.000Z</time>
      </trkpt>
      <trkpt lat="47.28382" lon="-2.35382">
        <ele>49.799999237061</ele>
        <time>2019-12-29T08:33:24.000Z</time>
      </trkpt>
      <trkpt lat="47.28383" lon="-2.35384">
        <ele>50.599998474121</ele>
        <time>2019-12-29T08:33:25.000Z</time>
      </trkpt>
      <trkpt lat="47.28384" lon="-2.35386">
        <ele>51</ele>
        <time>2019-12-29T08:33:26.000Z</time>
      </trkpt>
      <trkpt lat="47.28384" lon="-2.35389">
        <ele>51.599998474121</ele>
        <time>2019-12-29T08:33:27.000Z</time>
      </trkpt>
      <trkpt lat="47.28385" lon="-2.35391">
        <ele>52</ele>
        <time>2019-12-29T08:33:28.000Z</time>
      </trkpt>
      <trkpt lat="47.28385" lon="-2.35394">
        <ele>52.400001525879</ele>
        <time>2019-12-29T08:33:29.000Z</time>
      </trkpt>
      <trkpt lat="47.28386" lon="-2.35397">
        <ele>52.799999237061</ele>
        <time>2019-12-29T08:33:30.000Z</time>
      </trkpt>
      <trkpt lat="47.28387" lon="-2.35399">
        <ele>53.200000762939</ele>
        <time>2019-12-29T08:33:31.000Z</time>
      </trkpt>
      <trkpt lat="47.28388" lon="-2.35401">
        <ele>53.599998474121</ele>
        <time>2019-12-29T08:33:32.000Z</time>
      </trkpt>
      <trkpt lat="47.28389" lon="-2.35403">
        <ele>54</ele>
        <time>2019-12-29T08:33:33.000Z</time>
      </trkpt>
      <trkpt lat="47.2839" lon="-2.35406">
        <ele>54</ele>
        <time>2019-12-29T08:33:34.000Z</time>
      </trkpt>
      <trkpt lat="47.28396" lon="-2.35417">
        <ele>54</ele>
        <time>2019-12-29T08:33:40.000Z</time>
      </trkpt>
      <trkpt lat="47.28405" lon="-2.35426">
        <ele>54</ele>
        <time>2019-12-29T08:33:46.000Z</time>
      </trkpt>
      <trkpt lat="47.28411" lon="-2.35425">
        <ele>54</ele>
        <time>2019-12-29T08:33:50.000Z</time>
      </trkpt>
      <trkpt lat="47.28413" lon="-2.35423">
        <ele>54</ele>
        <time>2019-12-29T08:33:51.000Z</time>
      </trkpt>
      <trkpt lat="47.28416" lon="-2.35418">
        <ele>54</ele>
        <time>2019-12-29T08:33:54.000Z</time>
      </trkpt>
      <trkpt lat="47.28417" lon="-2.35416">
        <ele>54</ele>
        <time>2019-12-29T08:33:55.000Z</time>
      </trkpt>
      <trkpt lat="47.2842" lon="-2.35412">
        <ele>54.400001525879</ele>
        <time>2019-12-29T08:33:58.000Z</time>
      </trkpt>
      <trkpt lat="47.28421" lon="-2.35411">
        <ele>55</ele>
        <time>2019-12-29T08:33:59.000Z</time>
      </trkpt>
      <trkpt lat="47.28423" lon="-2.35411">
        <ele>55.400001525879</ele>
        <time>2019-12-29T08:34:00.000Z</time>
      </trkpt>
      <trkpt lat="47.28424" lon="-2.3541">
        <ele>55.799999237061</ele>
        <time>2019-12-29T08:34:01.000Z</time>
      </trkpt>
      <trkpt lat="47.28425" lon="-2.35409">
        <ele>56.400001525879</ele>
        <time>2019-12-29T08:34:02.000Z</time>
      </trkpt>
      <trkpt lat="47.28438" lon="-2.35407">
        <ele>56.400001525879</ele>
        <time>2019-12-29T08:34:07.000Z</time>
      </trkpt>
      <trkpt lat="47.28441" lon="-2.35405">
        <ele>56.400001525879</ele>
        <time>2019-12-29T08:34:08.000Z</time>
      </trkpt>
      <trkpt lat="47.28446" lon="-2.35396">
        <ele>56.400001525879</ele>
        <time>2019-12-29T08:34:10.000Z</time>
      </trkpt>
      <trkpt lat="47.28447" lon="-2.3538">
        <ele>55.799999237061</ele>
        <time>2019-12-29T08:34:13.000Z</time>
      </trkpt>
      <trkpt lat="47.28447" lon="-2.35377">
        <ele>55.400001525879</ele>
        <time>2019-12-29T08:34:14.000Z</time>
      </trkpt>
      <trkpt lat="47.28448" lon="-2.35373">
        <ele>54.400001525879</ele>
        <time>2019-12-29T08:34:15.000Z</time>
      </trkpt>
      <trkpt lat="47.28449" lon="-2.35368">
        <ele>53.799999237061</ele>
        <time>2019-12-29T08:34:16.000Z</time>
      </trkpt>
      <trkpt lat="47.2845" lon="-2.35364">
        <ele>53.200000762939</ele>
        <time>2019-12-29T08:34:17.000Z</time>
      </trkpt>
      <trkpt lat="47.28451" lon="-2.35361">
        <ele>52.599998474121</ele>
        <time>2019-12-29T08:34:18.000Z</time>
      </trkpt>
      <trkpt lat="47.28452" lon="-2.35358">
        <ele>52.200000762939</ele>
        <time>2019-12-29T08:34:19.000Z</time>
      </trkpt>
      <trkpt lat="47.28452" lon="-2.35354">
        <ele>51.599998474121</ele>
        <time>2019-12-29T08:34:20.000Z</time>
      </trkpt>
      <trkpt lat="47.28453" lon="-2.35351">
        <ele>51</ele>
        <time>2019-12-29T08:34:21.000Z</time>
      </trkpt>
      <trkpt lat="47.28456" lon="-2.35349">
        <ele>50.599998474121</ele>
        <time>2019-12-29T08:34:22.000Z</time>
      </trkpt>
      <trkpt lat="47.28458" lon="-2.35349">
        <ele>50</ele>
        <time>2019-12-29T08:34:23.000Z</time>
      </trkpt>
      <trkpt lat="47.2846" lon="-2.3535">
        <ele>49.599998474121</ele>
        <time>2019-12-29T08:34:24.000Z</time>
      </trkpt>
      <trkpt lat="47.28464" lon="-2.35353">
        <ele>49</ele>
        <time>2019-12-29T08:34:25.000Z</time>
      </trkpt>
      <trkpt lat="47.28468" lon="-2.35358">
        <ele>48.400001525879</ele>
        <time>2019-12-29T08:34:26.000Z</time>
      </trkpt>
      <trkpt lat="47.28471" lon="-2.35363">
        <ele>48</ele>
        <time>2019-12-29T08:34:27.000Z</time>
      </trkpt>
      <trkpt lat="47.28473" lon="-2.35369">
        <ele>47.400001525879</ele>
        <time>2019-12-29T08:34:28.000Z</time>
      </trkpt>
      <trkpt lat="47.2848" lon="-2.35387">
        <ele>47.400001525879</ele>
        <time>2019-12-29T08:34:31.000Z</time>
      </trkpt>
      <trkpt lat="47.28482" lon="-2.35393">
        <ele>47.400001525879</ele>
        <time>2019-12-29T08:34:32.000Z</time>
      </trkpt>
      <trkpt lat="47.28489" lon="-2.35419">
        <ele>47.400001525879</ele>
        <time>2019-12-29T08:34:37.000Z</time>
      </trkpt>
      <trkpt lat="47.28492" lon="-2.35429">
        <ele>47.799999237061</ele>
        <time>2019-12-29T08:34:40.000Z</time>
      </trkpt>
      <trkpt lat="47.28493" lon="-2.35431">
        <ele>48.200000762939</ele>
        <time>2019-12-29T08:34:41.000Z</time>
      </trkpt>
      <trkpt lat="47.28494" lon="-2.35433">
        <ele>48.599998474121</ele>
        <time>2019-12-29T08:34:42.000Z</time>
      </trkpt>
      <trkpt lat="47.28495" lon="-2.35435">
        <ele>49</ele>
        <time>2019-12-29T08:34:43.000Z</time>
      </trkpt>
      <trkpt lat="47.28495" lon="-2.35438">
        <ele>49.599998474121</ele>
        <time>2019-12-29T08:34:44.000Z</time>
      </trkpt>
      <trkpt lat="47.28497" lon="-2.35443">
        <ele>49.599998474121</ele>
        <time>2019-12-29T08:34:47.000Z</time>
      </trkpt>
      <trkpt lat="47.28501" lon="-2.35447">
        <ele>49.599998474121</ele>
        <time>2019-12-29T08:34:49.000Z</time>
      </trkpt>
      <trkpt lat="47.28506" lon="-2.35451">
        <ele>49.599998474121</ele>
        <time>2019-12-29T08:34:51.000Z</time>
      </trkpt>
      <trkpt lat="47.28514" lon="-2.35459">
        <ele>49.599998474121</ele>
        <time>2019-12-29T08:34:55.000Z</time>
      </trkpt>
      <trkpt lat="47.28516" lon="-2.3546">
        <ele>49.599998474121</ele>
        <time>2019-12-29T08:34:56.000Z</time>
      </trkpt>
      <trkpt lat="47.28521" lon="-2.3547">
        <ele>49.599998474121</ele>
        <time>2019-12-29T08:35:01.000Z</time>
      </trkpt>
      <trkpt lat="47.28526" lon="-2.35483">
        <ele>49.599998474121</ele>
        <time>2019-12-29T08:35:16.000Z</time>
      </trkpt>
      <trkpt lat="47.28528" lon="-2.355">
        <ele>49.599998474121</ele>
        <time>2019-12-29T08:35:22.000Z</time>
      </trkpt>
      <trkpt lat="47.28526" lon="-2.35512">
        <ele>50</ele>
        <time>2019-12-29T08:35:26.000Z</time>
      </trkpt>
      <trkpt lat="47.28525" lon="-2.35515">
        <ele>50.400001525879</ele>
        <time>2019-12-29T08:35:27.000Z</time>
      </trkpt>
      <trkpt lat="47.28525" lon="-2.35518">
        <ele>50.799999237061</ele>
        <time>2019-12-29T08:35:28.000Z</time>
      </trkpt>
      <trkpt lat="47.28525" lon="-2.35521">
        <ele>51.799999237061</ele>
        <time>2019-12-29T08:35:29.000Z</time>
      </trkpt>
      <trkpt lat="47.28525" lon="-2.35524">
        <ele>51.799999237061</ele>
        <time>2019-12-29T08:35:30.000Z</time>
      </trkpt>
      <trkpt lat="47.28527" lon="-2.35528">
        <ele>52.200000762939</ele>
        <time>2019-12-29T08:35:32.000Z</time>
      </trkpt>
      <trkpt lat="47.28528" lon="-2.3553">
        <ele>52.599998474121</ele>
        <time>2019-12-29T08:35:33.000Z</time>
      </trkpt>
      <trkpt lat="47.28529" lon="-2.35532">
        <ele>53</ele>
        <time>2019-12-29T08:35:34.000Z</time>
      </trkpt>
      <trkpt lat="47.28529" lon="-2.35535">
        <ele>53.400001525879</ele>
        <time>2019-12-29T08:35:35.000Z</time>
      </trkpt>
      <trkpt lat="47.2853" lon="-2.35538">
        <ele>53.799999237061</ele>
        <time>2019-12-29T08:35:36.000Z</time>
      </trkpt>
      <trkpt lat="47.28531" lon="-2.35545">
        <ele>53.799999237061</ele>
        <time>2019-12-29T08:35:38.000Z</time>
      </trkpt>
      <trkpt lat="47.28533" lon="-2.3557">
        <ele>54.200000762939</ele>
        <time>2019-12-29T08:35:44.000Z</time>
      </trkpt>
      <trkpt lat="47.28532" lon="-2.35574">
        <ele>54.599998474121</ele>
        <time>2019-12-29T08:35:45.000Z</time>
      </trkpt>
      <trkpt lat="47.2853" lon="-2.35577">
        <ele>55</ele>
        <time>2019-12-29T08:35:46.000Z</time>
      </trkpt>
      <trkpt lat="47.28528" lon="-2.35581">
        <ele>55.400001525879</ele>
        <time>2019-12-29T08:35:47.000Z</time>
      </trkpt>
      <trkpt lat="47.28527" lon="-2.35585">
        <ele>55.799999237061</ele>
        <time>2019-12-29T08:35:48.000Z</time>
      </trkpt>
      <trkpt lat="47.28526" lon="-2.35589">
        <ele>55.799999237061</ele>
        <time>2019-12-29T08:35:49.000Z</time>
      </trkpt>
      <trkpt lat="47.28524" lon="-2.35595">
        <ele>56.200000762939</ele>
        <time>2019-12-29T08:35:51.000Z</time>
      </trkpt>
      <trkpt lat="47.28523" lon="-2.35597">
        <ele>56.599998474121</ele>
        <time>2019-12-29T08:35:52.000Z</time>
      </trkpt>
      <trkpt lat="47.28523" lon="-2.35599">
        <ele>57</ele>
        <time>2019-12-29T08:35:53.000Z</time>
      </trkpt>
      <trkpt lat="47.28523" lon="-2.35601">
        <ele>58</ele>
        <time>2019-12-29T08:35:54.000Z</time>
      </trkpt>
      <trkpt lat="47.28523" lon="-2.35602">
        <ele>58</ele>
        <time>2019-12-29T08:35:55.000Z</time>
      </trkpt>
      <trkpt lat="47.28533" lon="-2.35608">
        <ele>58</ele>
        <time>2019-12-29T08:36:03.000Z</time>
      </trkpt>
      <trkpt lat="47.28534" lon="-2.35608">
        <ele>58</ele>
        <time>2019-12-29T08:36:04.000Z</time>
      </trkpt>
      <trkpt lat="47.28543" lon="-2.35609">
        <ele>58</ele>
        <time>2019-12-29T08:36:08.000Z</time>
      </trkpt>
      <trkpt lat="47.28544" lon="-2.35609">
        <ele>58</ele>
        <time>2019-12-29T08:36:09.000Z</time>
      </trkpt>
      <trkpt lat="47.28545" lon="-2.35611">
        <ele>58</ele>
        <time>2019-12-29T08:36:10.000Z</time>
      </trkpt>
      <trkpt lat="47.28547" lon="-2.35615">
        <ele>58</ele>
        <time>2019-12-29T08:36:13.000Z</time>
      </trkpt>
      <trkpt lat="47.28546" lon="-2.35618">
        <ele>58</ele>
        <time>2019-12-29T08:36:14.000Z</time>
      </trkpt>
      <trkpt lat="47.28541" lon="-2.35632">
        <ele>58</ele>
        <time>2019-12-29T08:36:18.000Z</time>
      </trkpt>
      <trkpt lat="47.28543" lon="-2.35645">
        <ele>57.400001525879</ele>
        <time>2019-12-29T08:36:20.000Z</time>
      </trkpt>
      <trkpt lat="47.28544" lon="-2.35653">
        <ele>57</ele>
        <time>2019-12-29T08:36:21.000Z</time>
      </trkpt>
      <trkpt lat="47.28544" lon="-2.3566">
        <ele>56.599998474121</ele>
        <time>2019-12-29T08:36:22.000Z</time>
      </trkpt>
      <trkpt lat="47.28546" lon="-2.35667">
        <ele>56.200000762939</ele>
        <time>2019-12-29T08:36:23.000Z</time>
      </trkpt>
      <trkpt lat="47.28546" lon="-2.35674">
        <ele>55.799999237061</ele>
        <time>2019-12-29T08:36:24.000Z</time>
      </trkpt>
      <trkpt lat="47.28546" lon="-2.3568">
        <ele>55.400001525879</ele>
        <time>2019-12-29T08:36:25.000Z</time>
      </trkpt>
      <trkpt lat="47.28546" lon="-2.35686">
        <ele>54.799999237061</ele>
        <time>2019-12-29T08:36:26.000Z</time>
      </trkpt>
      <trkpt lat="47.28545" lon="-2.3569">
        <ele>54.400001525879</ele>
        <time>2019-12-29T08:36:27.000Z</time>
      </trkpt>
      <trkpt lat="47.28543" lon="-2.35696">
        <ele>54</ele>
        <time>2019-12-29T08:36:28.000Z</time>
      </trkpt>
      <trkpt lat="47.28542" lon="-2.357">
        <ele>53.599998474121</ele>
        <time>2019-12-29T08:36:29.000Z</time>
      </trkpt>
      <trkpt lat="47.28537" lon="-2.35709">
        <ele>53.599998474121</ele>
        <time>2019-12-29T08:36:32.000Z</time>
      </trkpt>
      <trkpt lat="47.28536" lon="-2.35711">
        <ele>53.599998474121</ele>
        <time>2019-12-29T08:36:33.000Z</time>
      </trkpt>
      <trkpt lat="47.2853" lon="-2.35713">
        <ele>53.599998474121</ele>
        <time>2019-12-29T08:41:20.000Z</time>
      </trkpt>
      <trkpt lat="47.28527" lon="-2.35708">
        <ele>53.599998474121</ele>
        <time>2019-12-29T08:41:22.000Z</time>
      </trkpt>
      <trkpt lat="47.28518" lon="-2.35702">
        <ele>53.599998474121</ele>
        <time>2019-12-29T08:41:26.000Z</time>
      </trkpt>
      <trkpt lat="47.28509" lon="-2.357">
        <ele>53.599998474121</ele>
        <time>2019-12-29T08:41:30.000Z</time>
      </trkpt>
      <trkpt lat="47.28506" lon="-2.35696">
        <ele>53.599998474121</ele>
        <time>2019-12-29T08:41:31.000Z</time>
      </trkpt>
      <trkpt lat="47.28496" lon="-2.35678">
        <ele>53.599998474121</ele>
        <time>2019-12-29T08:41:36.000Z</time>
      </trkpt>
      <trkpt lat="47.28477" lon="-2.35656">
        <ele>53.599998474121</ele>
        <time>2019-12-29T08:41:43.000Z</time>
      </trkpt>
      <trkpt lat="47.28461" lon="-2.35643">
        <ele>53.599998474121</ele>
        <time>2019-12-29T08:41:49.000Z</time>
      </trkpt>
      <trkpt lat="47.28454" lon="-2.35637">
        <ele>53.599998474121</ele>
        <time>2019-12-29T08:41:54.000Z</time>
      </trkpt>
      <trkpt lat="47.28451" lon="-2.35638">
        <ele>53.599998474121</ele>
        <time>2019-12-29T08:42:08.000Z</time>
      </trkpt>
      <trkpt lat="47.28442" lon="-2.35649">
        <ele>53.599998474121</ele>
        <time>2019-12-29T08:42:12.000Z</time>
      </trkpt>
      <trkpt lat="47.28439" lon="-2.35654">
        <ele>53.599998474121</ele>
        <time>2019-12-29T08:42:13.000Z</time>
      </trkpt>
      <trkpt lat="47.28429" lon="-2.35673">
        <ele>53.599998474121</ele>
        <time>2019-12-29T08:42:17.000Z</time>
      </trkpt>
      <trkpt lat="47.28423" lon="-2.35686">
        <ele>54</ele>
        <time>2019-12-29T08:42:20.000Z</time>
      </trkpt>
      <trkpt lat="47.28422" lon="-2.35692">
        <ele>54.400001525879</ele>
        <time>2019-12-29T08:42:21.000Z</time>
      </trkpt>
      <trkpt lat="47.2842" lon="-2.35697">
        <ele>54.799999237061</ele>
        <time>2019-12-29T08:42:22.000Z</time>
      </trkpt>
      <trkpt lat="47.28418" lon="-2.35702">
        <ele>55.200000762939</ele>
        <time>2019-12-29T08:42:23.000Z</time>
      </trkpt>
      <trkpt lat="47.28417" lon="-2.35707">
        <ele>55.599998474121</ele>
        <time>2019-12-29T08:42:24.000Z</time>
      </trkpt>
      <trkpt lat="47.28417" lon="-2.35714">
        <ele>55.599998474121</ele>
        <time>2019-12-29T08:42:26.000Z</time>
      </trkpt>
      <trkpt lat="47.28423" lon="-2.3573">
        <ele>55.599998474121</ele>
        <time>2019-12-29T08:42:30.000Z</time>
      </trkpt>
      <trkpt lat="47.28427" lon="-2.35744">
        <ele>55.599998474121</ele>
        <time>2019-12-29T08:42:34.000Z</time>
      </trkpt>
      <trkpt lat="47.28426" lon="-2.35747">
        <ele>55.599998474121</ele>
        <time>2019-12-29T08:42:35.000Z</time>
      </trkpt>
      <trkpt lat="47.2842" lon="-2.3576">
        <ele>55.599998474121</ele>
        <time>2019-12-29T08:42:41.000Z</time>
      </trkpt>
      <trkpt lat="47.28419" lon="-2.35774">
        <ele>55.599998474121</ele>
        <time>2019-12-29T08:42:48.000Z</time>
      </trkpt>
      <trkpt lat="47.28417" lon="-2.35783">
        <ele>55.599998474121</ele>
        <time>2019-12-29T08:44:08.000Z</time>
      </trkpt>
      <trkpt lat="47.28412" lon="-2.35784">
        <ele>55.599998474121</ele>
        <time>2019-12-29T08:44:10.000Z</time>
      </trkpt>
      <trkpt lat="47.28402" lon="-2.35782">
        <ele>55.599998474121</ele>
        <time>2019-12-29T08:44:13.000Z</time>
      </trkpt>
      <trkpt lat="47.28395" lon="-2.35781">
        <ele>55.599998474121</ele>
        <time>2019-12-29T08:44:15.000Z</time>
      </trkpt>
      <trkpt lat="47.28377" lon="-2.35776">
        <ele>55.599998474121</ele>
        <time>2019-12-29T08:44:20.000Z</time>
      </trkpt>
      <trkpt lat="47.28356" lon="-2.35769">
        <ele>55.599998474121</ele>
        <time>2019-12-29T08:44:26.000Z</time>
      </trkpt>
      <trkpt lat="47.28336" lon="-2.35759">
        <ele>55.599998474121</ele>
        <time>2019-12-29T08:44:32.000Z</time>
      </trkpt>
      <trkpt lat="47.28322" lon="-2.3575">
        <ele>55.599998474121</ele>
        <time>2019-12-29T08:44:38.000Z</time>
      </trkpt>
      <trkpt lat="47.2832" lon="-2.35749">
        <ele>55.599998474121</ele>
        <time>2019-12-29T08:44:39.000Z</time>
      </trkpt>
      <trkpt lat="47.28316" lon="-2.35751">
        <ele>55.599998474121</ele>
        <time>2019-12-29T08:44:41.000Z</time>
      </trkpt>
      <trkpt lat="47.2831" lon="-2.35758">
        <ele>55.599998474121</ele>
        <time>2019-12-29T08:44:45.000Z</time>
      </trkpt>
      <trkpt lat="47.28307" lon="-2.35755">
        <ele>55.599998474121</ele>
        <time>2019-12-29T08:44:46.000Z</time>
      </trkpt>
      <trkpt lat="47.28294" lon="-2.35745">
        <ele>55.599998474121</ele>
        <time>2019-12-29T08:44:51.000Z</time>
      </trkpt>
      <trkpt lat="47.28291" lon="-2.35743">
        <ele>55.599998474121</ele>
        <time>2019-12-29T08:44:52.000Z</time>
      </trkpt>
      <trkpt lat="47.28288" lon="-2.35739">
        <ele>55.599998474121</ele>
        <time>2019-12-29T08:44:53.000Z</time>
      </trkpt>
      <trkpt lat="47.28278" lon="-2.35723">
        <ele>55.599998474121</ele>
        <time>2019-12-29T08:44:56.000Z</time>
      </trkpt>
      <trkpt lat="47.28265" lon="-2.35711">
        <ele>55.599998474121</ele>
        <time>2019-12-29T08:44:59.000Z</time>
      </trkpt>
      <trkpt lat="47.28262" lon="-2.35708">
        <ele>55.599998474121</ele>
        <time>2019-12-29T08:45:00.000Z</time>
      </trkpt>
      <trkpt lat="47.28258" lon="-2.35705">
        <ele>55.599998474121</ele>
        <time>2019-12-29T08:45:01.000Z</time>
      </trkpt>
      <trkpt lat="47.28238" lon="-2.3569">
        <ele>55.200000762939</ele>
        <time>2019-12-29T08:45:06.000Z</time>
      </trkpt>
      <trkpt lat="47.28234" lon="-2.35687">
        <ele>54.599998474121</ele>
        <time>2019-12-29T08:45:07.000Z</time>
      </trkpt>
      <trkpt lat="47.2823" lon="-2.35684">
        <ele>54.200000762939</ele>
        <time>2019-12-29T08:45:08.000Z</time>
      </trkpt>
      <trkpt lat="47.28225" lon="-2.35681">
        <ele>53.799999237061</ele>
        <time>2019-12-29T08:45:09.000Z</time>
      </trkpt>
      <trkpt lat="47.28222" lon="-2.35681">
        <ele>53.400001525879</ele>
        <time>2019-12-29T08:45:10.000Z</time>
      </trkpt>
      <trkpt lat="47.28219" lon="-2.35681">
        <ele>53.400001525879</ele>
        <time>2019-12-29T08:45:11.000Z</time>
      </trkpt>
      <trkpt lat="47.28218" lon="-2.35684">
        <ele>53.400001525879</ele>
        <time>2019-12-29T08:45:12.000Z</time>
      </trkpt>
      <trkpt lat="47.28215" lon="-2.35691">
        <ele>53.400001525879</ele>
        <time>2019-12-29T08:45:14.000Z</time>
      </trkpt>
      <trkpt lat="47.28208" lon="-2.35711">
        <ele>53.400001525879</ele>
        <time>2019-12-29T08:45:19.000Z</time>
      </trkpt>
      <trkpt lat="47.28213" lon="-2.35733">
        <ele>53.400001525879</ele>
        <time>2019-12-29T08:45:24.000Z</time>
      </trkpt>
      <trkpt lat="47.28213" lon="-2.35743">
        <ele>53.400001525879</ele>
        <time>2019-12-29T08:45:28.000Z</time>
      </trkpt>
      <trkpt lat="47.28211" lon="-2.35758">
        <ele>53.799999237061</ele>
        <time>2019-12-29T08:45:33.000Z</time>
      </trkpt>
      <trkpt lat="47.2821" lon="-2.35761">
        <ele>54.200000762939</ele>
        <time>2019-12-29T08:45:34.000Z</time>
      </trkpt>
      <trkpt lat="47.28209" lon="-2.35765">
        <ele>54.599998474121</ele>
        <time>2019-12-29T08:45:35.000Z</time>
      </trkpt>
      <trkpt lat="47.28209" lon="-2.35768">
        <ele>55</ele>
        <time>2019-12-29T08:45:36.000Z</time>
      </trkpt>
      <trkpt lat="47.28209" lon="-2.35772">
        <ele>55.400001525879</ele>
        <time>2019-12-29T08:45:37.000Z</time>
      </trkpt>
      <trkpt lat="47.28208" lon="-2.35775">
        <ele>55.400001525879</ele>
        <time>2019-12-29T08:45:38.000Z</time>
      </trkpt>
      <trkpt lat="47.28209" lon="-2.35779">
        <ele>55.400001525879</ele>
        <time>2019-12-29T08:45:41.000Z</time>
      </trkpt>
      <trkpt lat="47.28218" lon="-2.35783">
        <ele>55.400001525879</ele>
        <time>2019-12-29T08:45:56.000Z</time>
      </trkpt>
      <trkpt lat="47.28219" lon="-2.35781">
        <ele>55.400001525879</ele>
        <time>2019-12-29T08:45:57.000Z</time>
      </trkpt>
      <trkpt lat="47.28223" lon="-2.35777">
        <ele>55.400001525879</ele>
        <time>2019-12-29T08:46:00.000Z</time>
      </trkpt>
      <trkpt lat="47.28227" lon="-2.35775">
        <ele>55.400001525879</ele>
        <time>2019-12-29T08:46:02.000Z</time>
      </trkpt>
      <trkpt lat="47.2823" lon="-2.35778">
        <ele>55.400001525879</ele>
        <time>2019-12-29T08:46:04.000Z</time>
      </trkpt>
      <trkpt lat="47.28232" lon="-2.35781">
        <ele>55.400001525879</ele>
        <time>2019-12-29T08:46:05.000Z</time>
      </trkpt>
      <trkpt lat="47.28241" lon="-2.3579">
        <ele>55.400001525879</ele>
        <time>2019-12-29T08:46:09.000Z</time>
      </trkpt>
      <trkpt lat="47.28251" lon="-2.35807">
        <ele>55.400001525879</ele>
        <time>2019-12-29T08:46:13.000Z</time>
      </trkpt>
      <trkpt lat="47.28257" lon="-2.35825">
        <ele>55.400001525879</ele>
        <time>2019-12-29T08:46:16.000Z</time>
      </trkpt>
      <trkpt lat="47.28258" lon="-2.35829">
        <ele>55.400001525879</ele>
        <time>2019-12-29T08:46:17.000Z</time>
      </trkpt>
      <trkpt lat="47.28258" lon="-2.35838">
        <ele>55.400001525879</ele>
        <time>2019-12-29T08:46:20.000Z</time>
      </trkpt>
      <trkpt lat="47.28257" lon="-2.35841">
        <ele>55.400001525879</ele>
        <time>2019-12-29T08:46:22.000Z</time>
      </trkpt>
      <trkpt lat="47.28255" lon="-2.35849">
        <ele>55.400001525879</ele>
        <time>2019-12-29T08:46:26.000Z</time>
      </trkpt>
      <trkpt lat="47.28254" lon="-2.35855">
        <ele>55.400001525879</ele>
        <time>2019-12-29T08:46:30.000Z</time>
      </trkpt>
      <trkpt lat="47.28233" lon="-2.35865">
        <ele>57</ele>
        <time>2019-12-29T08:48:03.000Z</time>
      </trkpt>
      <trkpt lat="47.28231" lon="-2.35865">
        <ele>57.400001525879</ele>
        <time>2019-12-29T08:48:04.000Z</time>
      </trkpt>
      <trkpt lat="47.28222" lon="-2.35862">
        <ele>57.400001525879</ele>
        <time>2019-12-29T08:48:08.000Z</time>
      </trkpt>
      <trkpt lat="47.2822" lon="-2.35862">
        <ele>57.400001525879</ele>
        <time>2019-12-29T08:48:09.000Z</time>
      </trkpt>
      <trkpt lat="47.28219" lon="-2.35861">
        <ele>57</ele>
        <time>2019-12-29T08:48:10.000Z</time>
      </trkpt>
      <trkpt lat="47.28217" lon="-2.3586">
        <ele>56.400001525879</ele>
        <time>2019-12-29T08:48:11.000Z</time>
      </trkpt>
      <trkpt lat="47.28215" lon="-2.35858">
        <ele>56</ele>
        <time>2019-12-29T08:48:12.000Z</time>
      </trkpt>
      <trkpt lat="47.28214" lon="-2.35857">
        <ele>55.400001525879</ele>
        <time>2019-12-29T08:48:13.000Z</time>
      </trkpt>
      <trkpt lat="47.28213" lon="-2.35855">
        <ele>55</ele>
        <time>2019-12-29T08:48:14.000Z</time>
      </trkpt>
      <trkpt lat="47.28211" lon="-2.35854">
        <ele>55</ele>
        <time>2019-12-29T08:48:15.000Z</time>
      </trkpt>
      <trkpt lat="47.28207" lon="-2.35855">
        <ele>55</ele>
        <time>2019-12-29T08:48:17.000Z</time>
      </trkpt>
      <trkpt lat="47.28202" lon="-2.35857">
        <ele>55</ele>
        <time>2019-12-29T08:48:19.000Z</time>
      </trkpt>
      <trkpt lat="47.28195" lon="-2.35862">
        <ele>54.599998474121</ele>
        <time>2019-12-29T08:48:22.000Z</time>
      </trkpt>
      <trkpt lat="47.28192" lon="-2.35863">
        <ele>54.200000762939</ele>
        <time>2019-12-29T08:48:23.000Z</time>
      </trkpt>
      <trkpt lat="47.2819" lon="-2.35866">
        <ele>53.799999237061</ele>
        <time>2019-12-29T08:48:24.000Z</time>
      </trkpt>
      <trkpt lat="47.28188" lon="-2.35868">
        <ele>53.400001525879</ele>
        <time>2019-12-29T08:48:25.000Z</time>
      </trkpt>
      <trkpt lat="47.28185" lon="-2.35871">
        <ele>53</ele>
        <time>2019-12-29T08:48:26.000Z</time>
      </trkpt>
      <trkpt lat="47.28179" lon="-2.35879">
        <ele>53</ele>
        <time>2019-12-29T08:48:30.000Z</time>
      </trkpt>
      <trkpt lat="47.28178" lon="-2.35887">
        <ele>53</ele>
        <time>2019-12-29T08:48:36.000Z</time>
      </trkpt>
      <trkpt lat="47.28178" lon="-2.35892">
        <ele>53</ele>
        <time>2019-12-29T08:48:39.000Z</time>
      </trkpt>
      <trkpt lat="47.28177" lon="-2.35906">
        <ele>52.599998474121</ele>
        <time>2019-12-29T08:48:42.000Z</time>
      </trkpt>
      <trkpt lat="47.28177" lon="-2.35911">
        <ele>52</ele>
        <time>2019-12-29T08:48:43.000Z</time>
      </trkpt>
      <trkpt lat="47.28177" lon="-2.35917">
        <ele>51.599998474121</ele>
        <time>2019-12-29T08:48:44.000Z</time>
      </trkpt>
      <trkpt lat="47.28177" lon="-2.35921">
        <ele>51.200000762939</ele>
        <time>2019-12-29T08:48:45.000Z</time>
      </trkpt>
      <trkpt lat="47.28178" lon="-2.35928">
        <ele>50.799999237061</ele>
        <time>2019-12-29T08:48:46.000Z</time>
      </trkpt>
      <trkpt lat="47.2818" lon="-2.35937">
        <ele>50.799999237061</ele>
        <time>2019-12-29T08:48:48.000Z</time>
      </trkpt>
      <trkpt lat="47.28188" lon="-2.35963">
        <ele>50.799999237061</ele>
        <time>2019-12-29T08:48:52.000Z</time>
      </trkpt>
      <trkpt lat="47.28199" lon="-2.35989">
        <ele>50.400001525879</ele>
        <time>2019-12-29T08:48:56.000Z</time>
      </trkpt>
      <trkpt lat="47.28201" lon="-2.35995">
        <ele>50</ele>
        <time>2019-12-29T08:48:57.000Z</time>
      </trkpt>
      <trkpt lat="47.28204" lon="-2.35999">
        <ele>49.599998474121</ele>
        <time>2019-12-29T08:48:58.000Z</time>
      </trkpt>
      <trkpt lat="47.28205" lon="-2.36003">
        <ele>49.200000762939</ele>
        <time>2019-12-29T08:48:59.000Z</time>
      </trkpt>
      <trkpt lat="47.28206" lon="-2.36007">
        <ele>48.599998474121</ele>
        <time>2019-12-29T08:49:00.000Z</time>
      </trkpt>
      <trkpt lat="47.28209" lon="-2.36011">
        <ele>48.599998474121</ele>
        <time>2019-12-29T08:49:01.000Z</time>
      </trkpt>
      <trkpt lat="47.28216" lon="-2.36018">
        <ele>48.599998474121</ele>
        <time>2019-12-29T08:49:04.000Z</time>
      </trkpt>
      <trkpt lat="47.28217" lon="-2.36019">
        <ele>48.599998474121</ele>
        <time>2019-12-29T08:49:05.000Z</time>
      </trkpt>
      <trkpt lat="47.28222" lon="-2.36018">
        <ele>48.599998474121</ele>
        <time>2019-12-29T08:49:07.000Z</time>
      </trkpt>
      <trkpt lat="47.28232" lon="-2.36015">
        <ele>48.599998474121</ele>
        <time>2019-12-29T08:49:12.000Z</time>
      </trkpt>
      <trkpt lat="47.28238" lon="-2.36014">
        <ele>48.599998474121</ele>
        <time>2019-12-29T08:49:14.000Z</time>
      </trkpt>
      <trkpt lat="47.28243" lon="-2.36015">
        <ele>48.599998474121</ele>
        <time>2019-12-29T08:49:16.000Z</time>
      </trkpt>
      <trkpt lat="47.28248" lon="-2.36022">
        <ele>49.200000762939</ele>
        <time>2019-12-29T08:49:18.000Z</time>
      </trkpt>
      <trkpt lat="47.28249" lon="-2.36025">
        <ele>49.599998474121</ele>
        <time>2019-12-29T08:49:19.000Z</time>
      </trkpt>
      <trkpt lat="47.28249" lon="-2.36029">
        <ele>50</ele>
        <time>2019-12-29T08:49:20.000Z</time>
      </trkpt>
      <trkpt lat="47.28248" lon="-2.36031">
        <ele>50.400001525879</ele>
        <time>2019-12-29T08:49:21.000Z</time>
      </trkpt>
      <trkpt lat="47.28248" lon="-2.36036">
        <ele>50.799999237061</ele>
        <time>2019-12-29T08:49:22.000Z</time>
      </trkpt>
      <trkpt lat="47.28249" lon="-2.36054">
        <ele>51.200000762939</ele>
        <time>2019-12-29T08:49:26.000Z</time>
      </trkpt>
      <trkpt lat="47.28248" lon="-2.36058">
        <ele>51.799999237061</ele>
        <time>2019-12-29T08:49:27.000Z</time>
      </trkpt>
      <trkpt lat="47.28247" lon="-2.36063">
        <ele>52.200000762939</ele>
        <time>2019-12-29T08:49:28.000Z</time>
      </trkpt>
      <trkpt lat="47.28246" lon="-2.36069">
        <ele>52.599998474121</ele>
        <time>2019-12-29T08:49:29.000Z</time>
      </trkpt>
      <trkpt lat="47.28246" lon="-2.36073">
        <ele>53</ele>
        <time>2019-12-29T08:49:30.000Z</time>
      </trkpt>
      <trkpt lat="47.28241" lon="-2.3609">
        <ele>53</ele>
        <time>2019-12-29T08:49:34.000Z</time>
      </trkpt>
      <trkpt lat="47.28245" lon="-2.36112">
        <ele>53</ele>
        <time>2019-12-29T08:49:38.000Z</time>
      </trkpt>
      <trkpt lat="47.28248" lon="-2.36118">
        <ele>53</ele>
        <time>2019-12-29T08:49:39.000Z</time>
      </trkpt>
      <trkpt lat="47.28258" lon="-2.36139">
        <ele>53</ele>
        <time>2019-12-29T08:49:43.000Z</time>
      </trkpt>
      <trkpt lat="47.28265" lon="-2.36162">
        <ele>53</ele>
        <time>2019-12-29T08:49:48.000Z</time>
      </trkpt>
      <trkpt lat="47.28269" lon="-2.36189">
        <ele>53</ele>
        <time>2019-12-29T08:49:53.000Z</time>
      </trkpt>
      <trkpt lat="47.28276" lon="-2.36217">
        <ele>53</ele>
        <time>2019-12-29T08:49:58.000Z</time>
      </trkpt>
      <trkpt lat="47.28279" lon="-2.3622">
        <ele>53</ele>
        <time>2019-12-29T08:49:59.000Z</time>
      </trkpt>
      <trkpt lat="47.28282" lon="-2.36222">
        <ele>53</ele>
        <time>2019-12-29T08:50:01.000Z</time>
      </trkpt>
      <trkpt lat="47.28288" lon="-2.36224">
        <ele>53</ele>
        <time>2019-12-29T08:50:04.000Z</time>
      </trkpt>
      <trkpt lat="47.2829" lon="-2.36222">
        <ele>53</ele>
        <time>2019-12-29T08:50:05.000Z</time>
      </trkpt>
      <trkpt lat="47.28301" lon="-2.36213">
        <ele>53</ele>
        <time>2019-12-29T08:50:12.000Z</time>
      </trkpt>
      <trkpt lat="47.28305" lon="-2.36212">
        <ele>53</ele>
        <time>2019-12-29T08:50:14.000Z</time>
      </trkpt>
      <trkpt lat="47.28312" lon="-2.36207">
        <ele>53</ele>
        <time>2019-12-29T08:50:17.000Z</time>
      </trkpt>
      <trkpt lat="47.28325" lon="-2.36194">
        <ele>53</ele>
        <time>2019-12-29T08:50:24.000Z</time>
      </trkpt>
      <trkpt lat="47.2833" lon="-2.36191">
        <ele>53.400001525879</ele>
        <time>2019-12-29T08:50:27.000Z</time>
      </trkpt>
      <trkpt lat="47.28331" lon="-2.36191">
        <ele>53.799999237061</ele>
        <time>2019-12-29T08:50:28.000Z</time>
      </trkpt>
      <trkpt lat="47.28333" lon="-2.3619">
        <ele>54.200000762939</ele>
        <time>2019-12-29T08:50:29.000Z</time>
      </trkpt>
      <trkpt lat="47.28334" lon="-2.36189">
        <ele>54.599998474121</ele>
        <time>2019-12-29T08:50:30.000Z</time>
      </trkpt>
      <trkpt lat="47.28335" lon="-2.36188">
        <ele>55.200000762939</ele>
        <time>2019-12-29T08:50:31.000Z</time>
      </trkpt>
      <trkpt lat="47.28343" lon="-2.36179">
        <ele>55.599998474121</ele>
        <time>2019-12-29T08:50:38.000Z</time>
      </trkpt>
      <trkpt lat="47.28344" lon="-2.36177">
        <ele>56</ele>
        <time>2019-12-29T08:50:39.000Z</time>
      </trkpt>
      <trkpt lat="47.28345" lon="-2.36176">
        <ele>56.400001525879</ele>
        <time>2019-12-29T08:50:40.000Z</time>
      </trkpt>
      <trkpt lat="47.28346" lon="-2.36175">
        <ele>56.799999237061</ele>
        <time>2019-12-29T08:50:41.000Z</time>
      </trkpt>
      <trkpt lat="47.28348" lon="-2.36173">
        <ele>57.400001525879</ele>
        <time>2019-12-29T08:50:42.000Z</time>
      </trkpt>
      <trkpt lat="47.2835" lon="-2.36169">
        <ele>57.799999237061</ele>
        <time>2019-12-29T08:50:44.000Z</time>
      </trkpt>
      <trkpt lat="47.28351" lon="-2.36168">
        <ele>58.200000762939</ele>
        <time>2019-12-29T08:50:45.000Z</time>
      </trkpt>
      <trkpt lat="47.28352" lon="-2.36166">
        <ele>58.599998474121</ele>
        <time>2019-12-29T08:50:46.000Z</time>
      </trkpt>
      <trkpt lat="47.28353" lon="-2.36165">
        <ele>59</ele>
        <time>2019-12-29T08:50:47.000Z</time>
      </trkpt>
      <trkpt lat="47.28355" lon="-2.36164">
        <ele>59.400001525879</ele>
        <time>2019-12-29T08:50:48.000Z</time>
      </trkpt>
      <trkpt lat="47.28358" lon="-2.36161">
        <ele>59.799999237061</ele>
        <time>2019-12-29T08:50:51.000Z</time>
      </trkpt>
      <trkpt lat="47.28359" lon="-2.36159">
        <ele>60.200000762939</ele>
        <time>2019-12-29T08:50:52.000Z</time>
      </trkpt>
      <trkpt lat="47.2836" lon="-2.36157">
        <ele>60.799999237061</ele>
        <time>2019-12-29T08:50:53.000Z</time>
      </trkpt>
      <trkpt lat="47.28361" lon="-2.36155">
        <ele>61.200000762939</ele>
        <time>2019-12-29T08:50:54.000Z</time>
      </trkpt>
      <trkpt lat="47.28363" lon="-2.36154">
        <ele>61.799999237061</ele>
        <time>2019-12-29T08:50:55.000Z</time>
      </trkpt>
      <trkpt lat="47.28365" lon="-2.36152">
        <ele>62.200000762939</ele>
        <time>2019-12-29T08:50:57.000Z</time>
      </trkpt>
      <trkpt lat="47.28366" lon="-2.36151">
        <ele>62.599998474121</ele>
        <time>2019-12-29T08:50:58.000Z</time>
      </trkpt>
      <trkpt lat="47.28367" lon="-2.36151">
        <ele>63</ele>
        <time>2019-12-29T08:50:59.000Z</time>
      </trkpt>
      <trkpt lat="47.28367" lon="-2.3615">
        <ele>63.400001525879</ele>
        <time>2019-12-29T08:51:00.000Z</time>
      </trkpt>
      <trkpt lat="47.28369" lon="-2.36147">
        <ele>63.799999237061</ele>
        <time>2019-12-29T08:51:01.000Z</time>
      </trkpt>
      <trkpt lat="47.28373" lon="-2.36143">
        <ele>64.199996948242</ele>
        <time>2019-12-29T08:51:05.000Z</time>
      </trkpt>
      <trkpt lat="47.28374" lon="-2.36144">
        <ele>64.599998474121</ele>
        <time>2019-12-29T08:51:06.000Z</time>
      </trkpt>
      <trkpt lat="47.28376" lon="-2.36146">
        <ele>65</ele>
        <time>2019-12-29T08:51:07.000Z</time>
      </trkpt>
      <trkpt lat="47.28378" lon="-2.36149">
        <ele>65.400001525879</ele>
        <time>2019-12-29T08:51:08.000Z</time>
      </trkpt>
      <trkpt lat="47.2838" lon="-2.36153">
        <ele>65.800003051758</ele>
        <time>2019-12-29T08:51:09.000Z</time>
      </trkpt>
      <trkpt lat="47.28382" lon="-2.36155">
        <ele>65.800003051758</ele>
        <time>2019-12-29T08:51:10.000Z</time>
      </trkpt>
      <trkpt lat="47.28384" lon="-2.36159">
        <ele>65.800003051758</ele>
        <time>2019-12-29T08:51:11.000Z</time>
      </trkpt>
      <trkpt lat="47.28388" lon="-2.36167">
        <ele>65.400001525879</ele>
        <time>2019-12-29T08:51:13.000Z</time>
      </trkpt>
      <trkpt lat="47.2839" lon="-2.36169">
        <ele>65</ele>
        <time>2019-12-29T08:51:14.000Z</time>
      </trkpt>
      <trkpt lat="47.28391" lon="-2.36171">
        <ele>64.599998474121</ele>
        <time>2019-12-29T08:51:15.000Z</time>
      </trkpt>
      <trkpt lat="47.28393" lon="-2.36173">
        <ele>64.199996948242</ele>
        <time>2019-12-29T08:51:16.000Z</time>
      </trkpt>
      <trkpt lat="47.28393" lon="-2.36175">
        <ele>63.799999237061</ele>
        <time>2019-12-29T08:51:17.000Z</time>
      </trkpt>
      <trkpt lat="47.28397" lon="-2.3618">
        <ele>63.400001525879</ele>
        <time>2019-12-29T08:51:22.000Z</time>
      </trkpt>
      <trkpt lat="47.28398" lon="-2.36181">
        <ele>63</ele>
        <time>2019-12-29T08:51:23.000Z</time>
      </trkpt>
      <trkpt lat="47.28398" lon="-2.36182">
        <ele>62.599998474121</ele>
        <time>2019-12-29T08:51:24.000Z</time>
      </trkpt>
      <trkpt lat="47.28399" lon="-2.36196">
        <ele>60.799999237061</ele>
        <time>2019-12-29T08:51:53.000Z</time>
      </trkpt>
      <trkpt lat="47.28398" lon="-2.36197">
        <ele>60.400001525879</ele>
        <time>2019-12-29T08:51:54.000Z</time>
      </trkpt>
      <trkpt lat="47.28397" lon="-2.36198">
        <ele>60</ele>
        <time>2019-12-29T08:51:55.000Z</time>
      </trkpt>
      <trkpt lat="47.28397" lon="-2.36198">
        <ele>59.599998474121</ele>
        <time>2019-12-29T08:51:56.000Z</time>
      </trkpt>
      <trkpt lat="47.28396" lon="-2.362">
        <ele>59.599998474121</ele>
        <time>2019-12-29T08:51:58.000Z</time>
      </trkpt>
      <trkpt lat="47.28395" lon="-2.36207">
        <ele>59.599998474121</ele>
        <time>2019-12-29T08:52:12.000Z</time>
      </trkpt>
      <trkpt lat="47.28395" lon="-2.36211">
        <ele>59.599998474121</ele>
        <time>2019-12-29T08:52:14.000Z</time>
      </trkpt>
      <trkpt lat="47.28396" lon="-2.36213">
        <ele>59.200000762939</ele>
        <time>2019-12-29T08:52:15.000Z</time>
      </trkpt>
      <trkpt lat="47.28395" lon="-2.36215">
        <ele>58.799999237061</ele>
        <time>2019-12-29T08:52:16.000Z</time>
      </trkpt>
      <trkpt lat="47.28394" lon="-2.36218">
        <ele>58.400001525879</ele>
        <time>2019-12-29T08:52:17.000Z</time>
      </trkpt>
      <trkpt lat="47.28392" lon="-2.36221">
        <ele>57.799999237061</ele>
        <time>2019-12-29T08:52:18.000Z</time>
      </trkpt>
      <trkpt lat="47.28391" lon="-2.36223">
        <ele>57.400001525879</ele>
        <time>2019-12-29T08:52:19.000Z</time>
      </trkpt>
      <trkpt lat="47.28386" lon="-2.36226">
        <ele>57.400001525879</ele>
        <time>2019-12-29T08:52:21.000Z</time>
      </trkpt>
      <trkpt lat="47.28383" lon="-2.36229">
        <ele>56.599998474121</ele>
        <time>2019-12-29T08:52:22.000Z</time>
      </trkpt>
      <trkpt lat="47.28381" lon="-2.36232">
        <ele>56.200000762939</ele>
        <time>2019-12-29T08:52:23.000Z</time>
      </trkpt>
      <trkpt lat="47.28378" lon="-2.36235">
        <ele>55.799999237061</ele>
        <time>2019-12-29T08:52:24.000Z</time>
      </trkpt>
      <trkpt lat="47.28377" lon="-2.36238">
        <ele>55.400001525879</ele>
        <time>2019-12-29T08:52:25.000Z</time>
      </trkpt>
      <trkpt lat="47.28374" lon="-2.36243">
        <ele>55</ele>
        <time>2019-12-29T08:52:27.000Z</time>
      </trkpt>
      <trkpt lat="47.28373" lon="-2.36245">
        <ele>54.400001525879</ele>
        <time>2019-12-29T08:52:28.000Z</time>
      </trkpt>
      <trkpt lat="47.28372" lon="-2.36247">
        <ele>54</ele>
        <time>2019-12-29T08:52:29.000Z</time>
      </trkpt>
      <trkpt lat="47.28371" lon="-2.36249">
        <ele>53.599998474121</ele>
        <time>2019-12-29T08:52:30.000Z</time>
      </trkpt>
      <trkpt lat="47.2837" lon="-2.36251">
        <ele>53.200000762939</ele>
        <time>2019-12-29T08:52:31.000Z</time>
      </trkpt>
      <trkpt lat="47.28367" lon="-2.36257">
        <ele>53.200000762939</ele>
        <time>2019-12-29T08:52:36.000Z</time>
      </trkpt>
      <trkpt lat="47.28364" lon="-2.36269">
        <ele>53.200000762939</ele>
        <time>2019-12-29T08:53:01.000Z</time>
      </trkpt>
      <trkpt lat="47.28359" lon="-2.36283">
        <ele>53.200000762939</ele>
        <time>2019-12-29T08:53:05.000Z</time>
      </trkpt>
      <trkpt lat="47.28358" lon="-2.36288">
        <ele>53.200000762939</ele>
        <time>2019-12-29T08:53:07.000Z</time>
      </trkpt>
      <trkpt lat="47.2836" lon="-2.36299">
        <ele>53.200000762939</ele>
        <time>2019-12-29T08:53:10.000Z</time>
      </trkpt>
      <trkpt lat="47.28365" lon="-2.36304">
        <ele>53.200000762939</ele>
        <time>2019-12-29T08:53:14.000Z</time>
      </trkpt>
      <trkpt lat="47.28366" lon="-2.36305">
        <ele>53.599998474121</ele>
        <time>2019-12-29T08:53:15.000Z</time>
      </trkpt>
      <trkpt lat="47.28367" lon="-2.36306">
        <ele>54</ele>
        <time>2019-12-29T08:53:16.000Z</time>
      </trkpt>
      <trkpt lat="47.28369" lon="-2.36307">
        <ele>54.400001525879</ele>
        <time>2019-12-29T08:53:17.000Z</time>
      </trkpt>
      <trkpt lat="47.2837" lon="-2.36308">
        <ele>54.799999237061</ele>
        <time>2019-12-29T08:53:18.000Z</time>
      </trkpt>
      <trkpt lat="47.28372" lon="-2.36309">
        <ele>55.200000762939</ele>
        <time>2019-12-29T08:53:19.000Z</time>
      </trkpt>
      <trkpt lat="47.28375" lon="-2.36311">
        <ele>55.200000762939</ele>
        <time>2019-12-29T08:53:20.000Z</time>
      </trkpt>
      <trkpt lat="47.28386" lon="-2.36324">
        <ele>55.200000762939</ele>
        <time>2019-12-29T08:53:25.000Z</time>
      </trkpt>
      <trkpt lat="47.28403" lon="-2.36346">
        <ele>55.200000762939</ele>
        <time>2019-12-29T08:53:30.000Z</time>
      </trkpt>
      <trkpt lat="47.28421" lon="-2.36367">
        <ele>55.200000762939</ele>
        <time>2019-12-29T08:53:35.000Z</time>
      </trkpt>
      <trkpt lat="47.28427" lon="-2.36371">
        <ele>55.599998474121</ele>
        <time>2019-12-29T08:53:37.000Z</time>
      </trkpt>
      <trkpt lat="47.2843" lon="-2.36373">
        <ele>56</ele>
        <time>2019-12-29T08:53:38.000Z</time>
      </trkpt>
      <trkpt lat="47.28433" lon="-2.36375">
        <ele>56.400001525879</ele>
        <time>2019-12-29T08:53:39.000Z</time>
      </trkpt>
      <trkpt lat="47.28436" lon="-2.36378">
        <ele>56.799999237061</ele>
        <time>2019-12-29T08:53:40.000Z</time>
      </trkpt>
      <trkpt lat="47.28439" lon="-2.36381">
        <ele>57.400001525879</ele>
        <time>2019-12-29T08:53:41.000Z</time>
      </trkpt>
      <trkpt lat="47.28453" lon="-2.36398">
        <ele>57.400001525879</ele>
        <time>2019-12-29T08:53:46.000Z</time>
      </trkpt>
      <trkpt lat="47.28459" lon="-2.36406">
        <ele>57.799999237061</ele>
        <time>2019-12-29T08:53:49.000Z</time>
      </trkpt>
      <trkpt lat="47.2846" lon="-2.3641">
        <ele>58.200000762939</ele>
        <time>2019-12-29T08:53:50.000Z</time>
      </trkpt>
      <trkpt lat="47.28463" lon="-2.36412">
        <ele>58.799999237061</ele>
        <time>2019-12-29T08:53:51.000Z</time>
      </trkpt>
      <trkpt lat="47.28466" lon="-2.36416">
        <ele>59.200000762939</ele>
        <time>2019-12-29T08:53:52.000Z</time>
      </trkpt>
      <trkpt lat="47.28469" lon="-2.36419">
        <ele>59.799999237061</ele>
        <time>2019-12-29T08:53:53.000Z</time>
      </trkpt>
      <trkpt lat="47.28477" lon="-2.3643">
        <ele>59.799999237061</ele>
        <time>2019-12-29T08:53:55.000Z</time>
      </trkpt>
      <trkpt lat="47.28496" lon="-2.36444">
        <ele>59.799999237061</ele>
        <time>2019-12-29T08:53:59.000Z</time>
      </trkpt>
      <trkpt lat="47.2851" lon="-2.36465">
        <ele>59.799999237061</ele>
        <time>2019-12-29T08:54:03.000Z</time>
      </trkpt>
      <trkpt lat="47.28514" lon="-2.36476">
        <ele>59.799999237061</ele>
        <time>2019-12-29T08:54:05.000Z</time>
      </trkpt>
      <trkpt lat="47.28515" lon="-2.36488">
        <ele>59.799999237061</ele>
        <time>2019-12-29T08:54:07.000Z</time>
      </trkpt>
      <trkpt lat="47.28516" lon="-2.36509">
        <ele>59.400001525879</ele>
        <time>2019-12-29T08:54:11.000Z</time>
      </trkpt>
      <trkpt lat="47.28514" lon="-2.36512">
        <ele>59</ele>
        <time>2019-12-29T08:54:12.000Z</time>
      </trkpt>
      <trkpt lat="47.28511" lon="-2.36516">
        <ele>58.599998474121</ele>
        <time>2019-12-29T08:54:13.000Z</time>
      </trkpt>
      <trkpt lat="47.28508" lon="-2.3652">
        <ele>58.200000762939</ele>
        <time>2019-12-29T08:54:14.000Z</time>
      </trkpt>
      <trkpt lat="47.28504" lon="-2.36524">
        <ele>57.799999237061</ele>
        <time>2019-12-29T08:54:15.000Z</time>
      </trkpt>
      <trkpt lat="47.28501" lon="-2.3653">
        <ele>57.799999237061</ele>
        <time>2019-12-29T08:54:16.000Z</time>
      </trkpt>
      <trkpt lat="47.28482" lon="-2.36551">
        <ele>57.799999237061</ele>
        <time>2019-12-29T08:54:20.000Z</time>
      </trkpt>
      <trkpt lat="47.28471" lon="-2.36568">
        <ele>57.799999237061</ele>
        <time>2019-12-29T08:54:23.000Z</time>
      </trkpt>
      <trkpt lat="47.28471" lon="-2.36576">
        <ele>57.200000762939</ele>
        <time>2019-12-29T08:54:24.000Z</time>
      </trkpt>
      <trkpt lat="47.28474" lon="-2.36583">
        <ele>56.799999237061</ele>
        <time>2019-12-29T08:54:25.000Z</time>
      </trkpt>
      <trkpt lat="47.28476" lon="-2.3659">
        <ele>56</ele>
        <time>2019-12-29T08:54:26.000Z</time>
      </trkpt>
      <trkpt lat="47.28479" lon="-2.36596">
        <ele>55.599998474121</ele>
        <time>2019-12-29T08:54:27.000Z</time>
      </trkpt>
      <trkpt lat="47.28486" lon="-2.36619">
        <ele>55.599998474121</ele>
        <time>2019-12-29T08:54:31.000Z</time>
      </trkpt>
      <trkpt lat="47.28495" lon="-2.36649">
        <ele>55.599998474121</ele>
        <time>2019-12-29T08:54:36.000Z</time>
      </trkpt>
      <trkpt lat="47.28498" lon="-2.36656">
        <ele>55.599998474121</ele>
        <time>2019-12-29T08:54:37.000Z</time>
      </trkpt>
      <trkpt lat="47.28503" lon="-2.36666">
        <ele>55.599998474121</ele>
        <time>2019-12-29T08:54:40.000Z</time>
      </trkpt>
      <trkpt lat="47.28506" lon="-2.36668">
        <ele>55.599998474121</ele>
        <time>2019-12-29T08:54:41.000Z</time>
      </trkpt>
      <trkpt lat="47.28512" lon="-2.36678">
        <ele>55.599998474121</ele>
        <time>2019-12-29T08:54:44.000Z</time>
      </trkpt>
      <trkpt lat="47.28515" lon="-2.36686">
        <ele>55.599998474121</ele>
        <time>2019-12-29T08:54:46.000Z</time>
      </trkpt>
      <trkpt lat="47.28527" lon="-2.36709">
        <ele>55.599998474121</ele>
        <time>2019-12-29T08:54:50.000Z</time>
      </trkpt>
      <trkpt lat="47.2853" lon="-2.36715">
        <ele>54.599998474121</ele>
        <time>2019-12-29T08:54:51.000Z</time>
      </trkpt>
      <trkpt lat="47.28534" lon="-2.36723">
        <ele>54.200000762939</ele>
        <time>2019-12-29T08:54:52.000Z</time>
      </trkpt>
      <trkpt lat="47.28538" lon="-2.36731">
        <ele>53.799999237061</ele>
        <time>2019-12-29T08:54:53.000Z</time>
      </trkpt>
      <trkpt lat="47.28542" lon="-2.36739">
        <ele>53.400001525879</ele>
        <time>2019-12-29T08:54:54.000Z</time>
      </trkpt>
      <trkpt lat="47.28546" lon="-2.36748">
        <ele>53.400001525879</ele>
        <time>2019-12-29T08:54:55.000Z</time>
      </trkpt>
      <trkpt lat="47.2855" lon="-2.36756">
        <ele>53</ele>
        <time>2019-12-29T08:54:56.000Z</time>
      </trkpt>
      <trkpt lat="47.28555" lon="-2.36764">
        <ele>52.599998474121</ele>
        <time>2019-12-29T08:54:57.000Z</time>
      </trkpt>
      <trkpt lat="47.28559" lon="-2.36773">
        <ele>52.200000762939</ele>
        <time>2019-12-29T08:54:58.000Z</time>
      </trkpt>
      <trkpt lat="47.28564" lon="-2.36781">
        <ele>51.799999237061</ele>
        <time>2019-12-29T08:54:59.000Z</time>
      </trkpt>
      <trkpt lat="47.28569" lon="-2.3679">
        <ele>51.200000762939</ele>
        <time>2019-12-29T08:55:00.000Z</time>
      </trkpt>
      <trkpt lat="47.28582" lon="-2.36814">
        <ele>51.200000762939</ele>
        <time>2019-12-29T08:55:03.000Z</time>
      </trkpt>
      <trkpt lat="47.28591" lon="-2.36829">
        <ele>50.799999237061</ele>
        <time>2019-12-29T08:55:05.000Z</time>
      </trkpt>
      <trkpt lat="47.28594" lon="-2.36835">
        <ele>50.400001525879</ele>
        <time>2019-12-29T08:55:06.000Z</time>
      </trkpt>
      <trkpt lat="47.28599" lon="-2.3684">
        <ele>50</ele>
        <time>2019-12-29T08:55:07.000Z</time>
      </trkpt>
      <trkpt lat="47.28604" lon="-2.36843">
        <ele>49.599998474121</ele>
        <time>2019-12-29T08:55:08.000Z</time>
      </trkpt>
      <trkpt lat="47.28608" lon="-2.36843">
        <ele>49</ele>
        <time>2019-12-29T08:55:09.000Z</time>
      </trkpt>
      <trkpt lat="47.28613" lon="-2.36841">
        <ele>48.599998474121</ele>
        <time>2019-12-29T08:55:10.000Z</time>
      </trkpt>
      <trkpt lat="47.28618" lon="-2.36838">
        <ele>48</ele>
        <time>2019-12-29T08:55:11.000Z</time>
      </trkpt>
      <trkpt lat="47.28622" lon="-2.36833">
        <ele>47.599998474121</ele>
        <time>2019-12-29T08:55:12.000Z</time>
      </trkpt>
      <trkpt lat="47.28625" lon="-2.36829">
        <ele>47</ele>
        <time>2019-12-29T08:55:13.000Z</time>
      </trkpt>
      <trkpt lat="47.28632" lon="-2.3682">
        <ele>47</ele>
        <time>2019-12-29T08:55:15.000Z</time>
      </trkpt>
      <trkpt lat="47.28647" lon="-2.368">
        <ele>47.400001525879</ele>
        <time>2019-12-29T08:55:20.000Z</time>
      </trkpt>
      <trkpt lat="47.2865" lon="-2.36797">
        <ele>47.799999237061</ele>
        <time>2019-12-29T08:55:21.000Z</time>
      </trkpt>
      <trkpt lat="47.28653" lon="-2.36793">
        <ele>48.200000762939</ele>
        <time>2019-12-29T08:55:22.000Z</time>
      </trkpt>
      <trkpt lat="47.28655" lon="-2.36789">
        <ele>48.799999237061</ele>
        <time>2019-12-29T08:55:23.000Z</time>
      </trkpt>
      <trkpt lat="47.28658" lon="-2.36786">
        <ele>49.200000762939</ele>
        <time>2019-12-29T08:55:24.000Z</time>
      </trkpt>
      <trkpt lat="47.28663" lon="-2.36786">
        <ele>49.200000762939</ele>
        <time>2019-12-29T08:55:26.000Z</time>
      </trkpt>
      <trkpt lat="47.28665" lon="-2.36786">
        <ele>49.200000762939</ele>
        <time>2019-12-29T08:55:27.000Z</time>
      </trkpt>
      <trkpt lat="47.28671" lon="-2.36793">
        <ele>49.599998474121</ele>
        <time>2019-12-29T08:55:31.000Z</time>
      </trkpt>
      <trkpt lat="47.28673" lon="-2.36795">
        <ele>50</ele>
        <time>2019-12-29T08:55:32.000Z</time>
      </trkpt>
      <trkpt lat="47.28675" lon="-2.36795">
        <ele>50.400001525879</ele>
        <time>2019-12-29T08:55:33.000Z</time>
      </trkpt>
      <trkpt lat="47.28677" lon="-2.36796">
        <ele>50.799999237061</ele>
        <time>2019-12-29T08:55:34.000Z</time>
      </trkpt>
      <trkpt lat="47.28679" lon="-2.36797">
        <ele>51.200000762939</ele>
        <time>2019-12-29T08:55:35.000Z</time>
      </trkpt>
      <trkpt lat="47.28683" lon="-2.36801">
        <ele>51.200000762939</ele>
        <time>2019-12-29T08:55:37.000Z</time>
      </trkpt>
      <trkpt lat="47.2869" lon="-2.36814">
        <ele>51.200000762939</ele>
        <time>2019-12-29T08:55:40.000Z</time>
      </trkpt>
      <trkpt lat="47.28692" lon="-2.36819">
        <ele>51.200000762939</ele>
        <time>2019-12-29T08:55:41.000Z</time>
      </trkpt>
      <trkpt lat="47.28697" lon="-2.36832">
        <ele>51.200000762939</ele>
        <time>2019-12-29T08:55:43.000Z</time>
      </trkpt>
      <trkpt lat="47.28705" lon="-2.36854">
        <ele>50.799999237061</ele>
        <time>2019-12-29T08:55:46.000Z</time>
      </trkpt>
      <trkpt lat="47.28708" lon="-2.36862">
        <ele>50.400001525879</ele>
        <time>2019-12-29T08:55:47.000Z</time>
      </trkpt>
      <trkpt lat="47.28709" lon="-2.36869">
        <ele>49.799999237061</ele>
        <time>2019-12-29T08:55:48.000Z</time>
      </trkpt>
      <trkpt lat="47.28712" lon="-2.36876">
        <ele>49.400001525879</ele>
        <time>2019-12-29T08:55:49.000Z</time>
      </trkpt>
      <trkpt lat="47.28715" lon="-2.36882">
        <ele>49</ele>
        <time>2019-12-29T08:55:50.000Z</time>
      </trkpt>
      <trkpt lat="47.28718" lon="-2.36887">
        <ele>48.599998474121</ele>
        <time>2019-12-29T08:55:51.000Z</time>
      </trkpt>
      <trkpt lat="47.28721" lon="-2.36899">
        <ele>48.200000762939</ele>
        <time>2019-12-29T08:55:52.000Z</time>
      </trkpt>
      <trkpt lat="47.28726" lon="-2.36908">
        <ele>47.799999237061</ele>
        <time>2019-12-29T08:55:53.000Z</time>
      </trkpt>
      <trkpt lat="47.2873" lon="-2.36911">
        <ele>47.200000762939</ele>
        <time>2019-12-29T08:55:54.000Z</time>
      </trkpt>
      <trkpt lat="47.28734" lon="-2.36917">
        <ele>46.799999237061</ele>
        <time>2019-12-29T08:55:55.000Z</time>
      </trkpt>
      <trkpt lat="47.28744" lon="-2.36931">
        <ele>46.799999237061</ele>
        <time>2019-12-29T08:55:58.000Z</time>
      </trkpt>
      <trkpt lat="47.28747" lon="-2.36933">
        <ele>46.799999237061</ele>
        <time>2019-12-29T08:55:59.000Z</time>
      </trkpt>
      <trkpt lat="47.28748" lon="-2.36937">
        <ele>46.799999237061</ele>
        <time>2019-12-29T08:56:00.000Z</time>
      </trkpt>
      <trkpt lat="47.2875" lon="-2.3694">
        <ele>46.799999237061</ele>
        <time>2019-12-29T08:56:02.000Z</time>
      </trkpt>
      <trkpt lat="47.28752" lon="-2.36947">
        <ele>46.799999237061</ele>
        <time>2019-12-29T08:56:06.000Z</time>
      </trkpt>
      <trkpt lat="47.28751" lon="-2.36958">
        <ele>49.200000762939</ele>
        <time>2019-12-29T08:56:26.000Z</time>
      </trkpt>
      <trkpt lat="47.28751" lon="-2.36962">
        <ele>49.799999237061</ele>
        <time>2019-12-29T08:56:27.000Z</time>
      </trkpt>
      <trkpt lat="47.28753" lon="-2.36966">
        <ele>49.799999237061</ele>
        <time>2019-12-29T08:56:28.000Z</time>
      </trkpt>
      <trkpt lat="47.28755" lon="-2.3697">
        <ele>49.799999237061</ele>
        <time>2019-12-29T08:56:29.000Z</time>
      </trkpt>
      <trkpt lat="47.2876" lon="-2.36985">
        <ele>49.799999237061</ele>
        <time>2019-12-29T08:56:34.000Z</time>
      </trkpt>
      <trkpt lat="47.28762" lon="-2.36987">
        <ele>49.799999237061</ele>
        <time>2019-12-29T08:56:35.000Z</time>
      </trkpt>
      <trkpt lat="47.28768" lon="-2.37003">
        <ele>49.799999237061</ele>
        <time>2019-12-29T08:56:39.000Z</time>
      </trkpt>
      <trkpt lat="47.28775" lon="-2.3702">
        <ele>49.799999237061</ele>
        <time>2019-12-29T08:56:43.000Z</time>
      </trkpt>
      <trkpt lat="47.28778" lon="-2.37026">
        <ele>49.799999237061</ele>
        <time>2019-12-29T08:56:44.000Z</time>
      </trkpt>
      <trkpt lat="47.28787" lon="-2.37047">
        <ele>49.799999237061</ele>
        <time>2019-12-29T08:56:48.000Z</time>
      </trkpt>
      <trkpt lat="47.2879" lon="-2.37052">
        <ele>49.799999237061</ele>
        <time>2019-12-29T08:56:49.000Z</time>
      </trkpt>
      <trkpt lat="47.28795" lon="-2.37065">
        <ele>49.200000762939</ele>
        <time>2019-12-29T08:56:51.000Z</time>
      </trkpt>
      <trkpt lat="47.28796" lon="-2.37075">
        <ele>48.799999237061</ele>
        <time>2019-12-29T08:56:52.000Z</time>
      </trkpt>
      <trkpt lat="47.28797" lon="-2.37084">
        <ele>48.400001525879</ele>
        <time>2019-12-29T08:56:53.000Z</time>
      </trkpt>
      <trkpt lat="47.28798" lon="-2.37092">
        <ele>48</ele>
        <time>2019-12-29T08:56:54.000Z</time>
      </trkpt>
      <trkpt lat="47.288" lon="-2.37098">
        <ele>47</ele>
        <time>2019-12-29T08:56:55.000Z</time>
      </trkpt>
      <trkpt lat="47.28802" lon="-2.37099">
        <ele>46.400001525879</ele>
        <time>2019-12-29T08:56:56.000Z</time>
      </trkpt>
      <trkpt lat="47.28804" lon="-2.37101">
        <ele>46</ele>
        <time>2019-12-29T08:56:57.000Z</time>
      </trkpt>
      <trkpt lat="47.28807" lon="-2.37102">
        <ele>45.400001525879</ele>
        <time>2019-12-29T08:56:58.000Z</time>
      </trkpt>
      <trkpt lat="47.2881" lon="-2.37101">
        <ele>45</ele>
        <time>2019-12-29T08:56:59.000Z</time>
      </trkpt>
      <trkpt lat="47.28813" lon="-2.371">
        <ele>44.599998474121</ele>
        <time>2019-12-29T08:57:00.000Z</time>
      </trkpt>
      <trkpt lat="47.28816" lon="-2.37099">
        <ele>44.200000762939</ele>
        <time>2019-12-29T08:57:01.000Z</time>
      </trkpt>
      <trkpt lat="47.28818" lon="-2.37098">
        <ele>43.599998474121</ele>
        <time>2019-12-29T08:57:02.000Z</time>
      </trkpt>
      <trkpt lat="47.28821" lon="-2.37093">
        <ele>43</ele>
        <time>2019-12-29T08:57:03.000Z</time>
      </trkpt>
      <trkpt lat="47.28824" lon="-2.37086">
        <ele>42.400001525879</ele>
        <time>2019-12-29T08:57:04.000Z</time>
      </trkpt>
      <trkpt lat="47.28826" lon="-2.3708">
        <ele>41.799999237061</ele>
        <time>2019-12-29T08:57:05.000Z</time>
      </trkpt>
      <trkpt lat="47.28825" lon="-2.37075">
        <ele>41.200000762939</ele>
        <time>2019-12-29T08:57:06.000Z</time>
      </trkpt>
      <trkpt lat="47.28825" lon="-2.37072">
        <ele>41.200000762939</ele>
        <time>2019-12-29T08:57:07.000Z</time>
      </trkpt>
      <trkpt lat="47.28825" lon="-2.37069">
        <ele>40.799999237061</ele>
        <time>2019-12-29T08:57:08.000Z</time>
      </trkpt>
      <trkpt lat="47.28826" lon="-2.37065">
        <ele>40.400001525879</ele>
        <time>2019-12-29T08:57:09.000Z</time>
      </trkpt>
      <trkpt lat="47.28826" lon="-2.37061">
        <ele>40</ele>
        <time>2019-12-29T08:57:10.000Z</time>
      </trkpt>
      <trkpt lat="47.28826" lon="-2.37057">
        <ele>39.599998474121</ele>
        <time>2019-12-29T08:57:11.000Z</time>
      </trkpt>
      <trkpt lat="47.28824" lon="-2.37053">
        <ele>39.200000762939</ele>
        <time>2019-12-29T08:57:12.000Z</time>
      </trkpt>
      <trkpt lat="47.28818" lon="-2.3704">
        <ele>39.200000762939</ele>
        <time>2019-12-29T08:57:16.000Z</time>
      </trkpt>
      <trkpt lat="47.28815" lon="-2.37022">
        <ele>39.200000762939</ele>
        <time>2019-12-29T08:57:20.000Z</time>
      </trkpt>
      <trkpt lat="47.28808" lon="-2.36998">
        <ele>39.200000762939</ele>
        <time>2019-12-29T08:57:25.000Z</time>
      </trkpt>
      <trkpt lat="47.28798" lon="-2.36962">
        <ele>39.200000762939</ele>
        <time>2019-12-29T08:57:32.000Z</time>
      </trkpt>
      <trkpt lat="47.28791" lon="-2.36936">
        <ele>39.200000762939</ele>
        <time>2019-12-29T08:57:37.000Z</time>
      </trkpt>
      <trkpt lat="47.28783" lon="-2.36915">
        <ele>39.200000762939</ele>
        <time>2019-12-29T08:57:42.000Z</time>
      </trkpt>
      <trkpt lat="47.28774" lon="-2.36908">
        <ele>39.200000762939</ele>
        <time>2019-12-29T08:57:46.000Z</time>
      </trkpt>
      <trkpt lat="47.28768" lon="-2.36894">
        <ele>39.599998474121</ele>
        <time>2019-12-29T08:57:51.000Z</time>
      </trkpt>
      <trkpt lat="47.28768" lon="-2.3689">
        <ele>40</ele>
        <time>2019-12-29T08:57:52.000Z</time>
      </trkpt>
      <trkpt lat="47.28768" lon="-2.36884">
        <ele>40.400001525879</ele>
        <time>2019-12-29T08:57:53.000Z</time>
      </trkpt>
      <trkpt lat="47.28769" lon="-2.3688">
        <ele>40.799999237061</ele>
        <time>2019-12-29T08:57:54.000Z</time>
      </trkpt>
      <trkpt lat="47.28769" lon="-2.36874">
        <ele>41.200000762939</ele>
        <time>2019-12-29T08:57:55.000Z</time>
      </trkpt>
      <trkpt lat="47.2877" lon="-2.36871">
        <ele>41.200000762939</ele>
        <time>2019-12-29T08:57:56.000Z</time>
      </trkpt>
      <trkpt lat="47.28771" lon="-2.36855">
        <ele>41.200000762939</ele>
        <time>2019-12-29T08:58:00.000Z</time>
      </trkpt>
      <trkpt lat="47.28772" lon="-2.36852">
        <ele>41.599998474121</ele>
        <time>2019-12-29T08:58:01.000Z</time>
      </trkpt>
      <trkpt lat="47.28772" lon="-2.36847">
        <ele>42</ele>
        <time>2019-12-29T08:58:02.000Z</time>
      </trkpt>
      <trkpt lat="47.28773" lon="-2.36842">
        <ele>42.400001525879</ele>
        <time>2019-12-29T08:58:03.000Z</time>
      </trkpt>
      <trkpt lat="47.28773" lon="-2.36837">
        <ele>42.799999237061</ele>
        <time>2019-12-29T08:58:04.000Z</time>
      </trkpt>
      <trkpt lat="47.28774" lon="-2.36834">
        <ele>43.200000762939</ele>
        <time>2019-12-29T08:58:05.000Z</time>
      </trkpt>
      <trkpt lat="47.28777" lon="-2.36824">
        <ele>43.799999237061</ele>
        <time>2019-12-29T08:58:08.000Z</time>
      </trkpt>
      <trkpt lat="47.28778" lon="-2.36821">
        <ele>44.200000762939</ele>
        <time>2019-12-29T08:58:09.000Z</time>
      </trkpt>
      <trkpt lat="47.2878" lon="-2.36818">
        <ele>44.599998474121</ele>
        <time>2019-12-29T08:58:10.000Z</time>
      </trkpt>
      <trkpt lat="47.2878" lon="-2.36815">
        <ele>45</ele>
        <time>2019-12-29T08:58:11.000Z</time>
      </trkpt>
      <trkpt lat="47.28781" lon="-2.36812">
        <ele>45.599998474121</ele>
        <time>2019-12-29T08:58:12.000Z</time>
      </trkpt>
      <trkpt lat="47.28781" lon="-2.36807">
        <ele>45.599998474121</ele>
        <time>2019-12-29T08:58:13.000Z</time>
      </trkpt>
      <trkpt lat="47.28784" lon="-2.36789">
        <ele>45.599998474121</ele>
        <time>2019-12-29T08:58:19.000Z</time>
      </trkpt>
      <trkpt lat="47.28783" lon="-2.36778">
        <ele>46</ele>
        <time>2019-12-29T08:58:22.000Z</time>
      </trkpt>
      <trkpt lat="47.28783" lon="-2.36774">
        <ele>46.400001525879</ele>
        <time>2019-12-29T08:58:23.000Z</time>
      </trkpt>
      <trkpt lat="47.28784" lon="-2.36771">
        <ele>46.799999237061</ele>
        <time>2019-12-29T08:58:24.000Z</time>
      </trkpt>
      <trkpt lat="47.28784" lon="-2.36767">
        <ele>47.200000762939</ele>
        <time>2019-12-29T08:58:25.000Z</time>
      </trkpt>
      <trkpt lat="47.28784" lon="-2.36764">
        <ele>47.599998474121</ele>
        <time>2019-12-29T08:58:26.000Z</time>
      </trkpt>
      <trkpt lat="47.28787" lon="-2.36751">
        <ele>47.599998474121</ele>
        <time>2019-12-29T08:58:30.000Z</time>
      </trkpt>
      <trkpt lat="47.28794" lon="-2.36728">
        <ele>48</ele>
        <time>2019-12-29T08:58:36.000Z</time>
      </trkpt>
      <trkpt lat="47.28796" lon="-2.36725">
        <ele>48.400001525879</ele>
        <time>2019-12-29T08:58:37.000Z</time>
      </trkpt>
      <trkpt lat="47.28797" lon="-2.36723">
        <ele>48.799999237061</ele>
        <time>2019-12-29T08:58:38.000Z</time>
      </trkpt>
      <trkpt lat="47.28798" lon="-2.3672">
        <ele>49.200000762939</ele>
        <time>2019-12-29T08:58:39.000Z</time>
      </trkpt>
      <trkpt lat="47.28799" lon="-2.36717">
        <ele>49.799999237061</ele>
        <time>2019-12-29T08:58:40.000Z</time>
      </trkpt>
      <trkpt lat="47.288" lon="-2.36712">
        <ele>49.799999237061</ele>
        <time>2019-12-29T08:58:41.000Z</time>
      </trkpt>
      <trkpt lat="47.288" lon="-2.36709">
        <ele>50.200000762939</ele>
        <time>2019-12-29T08:58:42.000Z</time>
      </trkpt>
      <trkpt lat="47.28802" lon="-2.36705">
        <ele>50.599998474121</ele>
        <time>2019-12-29T08:58:43.000Z</time>
      </trkpt>
      <trkpt lat="47.28803" lon="-2.36701">
        <ele>51</ele>
        <time>2019-12-29T08:58:44.000Z</time>
      </trkpt>
      <trkpt lat="47.28804" lon="-2.36698">
        <ele>51.400001525879</ele>
        <time>2019-12-29T08:58:45.000Z</time>
      </trkpt>
      <trkpt lat="47.28805" lon="-2.36695">
        <ele>51.799999237061</ele>
        <time>2019-12-29T08:58:46.000Z</time>
      </trkpt>
      <trkpt lat="47.28807" lon="-2.36686">
        <ele>52.200000762939</ele>
        <time>2019-12-29T08:58:48.000Z</time>
      </trkpt>
      <trkpt lat="47.28807" lon="-2.36683">
        <ele>52.599998474121</ele>
        <time>2019-12-29T08:58:49.000Z</time>
      </trkpt>
      <trkpt lat="47.28808" lon="-2.3668">
        <ele>53</ele>
        <time>2019-12-29T08:58:50.000Z</time>
      </trkpt>
      <trkpt lat="47.28809" lon="-2.36678">
        <ele>53.400001525879</ele>
        <time>2019-12-29T08:58:51.000Z</time>
      </trkpt>
      <trkpt lat="47.2881" lon="-2.36675">
        <ele>53.799999237061</ele>
        <time>2019-12-29T08:58:52.000Z</time>
      </trkpt>
      <trkpt lat="47.28813" lon="-2.3667">
        <ele>54.400001525879</ele>
        <time>2019-12-29T08:58:54.000Z</time>
      </trkpt>
      <trkpt lat="47.28815" lon="-2.36666">
        <ele>54.799999237061</ele>
        <time>2019-12-29T08:58:55.000Z</time>
      </trkpt>
      <trkpt lat="47.28816" lon="-2.36663">
        <ele>55.200000762939</ele>
        <time>2019-12-29T08:58:56.000Z</time>
      </trkpt>
      <trkpt lat="47.28817" lon="-2.36662">
        <ele>56.200000762939</ele>
        <time>2019-12-29T08:58:57.000Z</time>
      </trkpt>
      <trkpt lat="47.28823" lon="-2.3665">
        <ele>56.200000762939</ele>
        <time>2019-12-29T08:59:02.000Z</time>
      </trkpt>
      <trkpt lat="47.28824" lon="-2.36647">
        <ele>56.599998474121</ele>
        <time>2019-12-29T08:59:03.000Z</time>
      </trkpt>
      <trkpt lat="47.28825" lon="-2.36645">
        <ele>57</ele>
        <time>2019-12-29T08:59:04.000Z</time>
      </trkpt>
      <trkpt lat="47.28826" lon="-2.36642">
        <ele>57.599998474121</ele>
        <time>2019-12-29T08:59:05.000Z</time>
      </trkpt>
      <trkpt lat="47.28827" lon="-2.36639">
        <ele>58</ele>
        <time>2019-12-29T08:59:06.000Z</time>
      </trkpt>
      <trkpt lat="47.28828" lon="-2.36636">
        <ele>58.400001525879</ele>
        <time>2019-12-29T08:59:07.000Z</time>
      </trkpt>
      <trkpt lat="47.2883" lon="-2.3663">
        <ele>58.400001525879</ele>
        <time>2019-12-29T08:59:09.000Z</time>
      </trkpt>
      <trkpt lat="47.28842" lon="-2.36607">
        <ele>58.400001525879</ele>
        <time>2019-12-29T08:59:14.000Z</time>
      </trkpt>
      <trkpt lat="47.28848" lon="-2.36594">
        <ele>58.400001525879</ele>
        <time>2019-12-29T08:59:16.000Z</time>
      </trkpt>
      <trkpt lat="47.28853" lon="-2.36581">
        <ele>58.400001525879</ele>
        <time>2019-12-29T08:59:18.000Z</time>
      </trkpt>
      <trkpt lat="47.28859" lon="-2.36563">
        <ele>58.400001525879</ele>
        <time>2019-12-29T08:59:21.000Z</time>
      </trkpt>
      <trkpt lat="47.28858" lon="-2.36553">
        <ele>58.400001525879</ele>
        <time>2019-12-29T08:59:23.000Z</time>
      </trkpt>
      <trkpt lat="47.28859" lon="-2.36544">
        <ele>58.400001525879</ele>
        <time>2019-12-29T08:59:25.000Z</time>
      </trkpt>
      <trkpt lat="47.2886" lon="-2.36533">
        <ele>58.799999237061</ele>
        <time>2019-12-29T08:59:27.000Z</time>
      </trkpt>
      <trkpt lat="47.28861" lon="-2.36529">
        <ele>59.200000762939</ele>
        <time>2019-12-29T08:59:28.000Z</time>
      </trkpt>
      <trkpt lat="47.28861" lon="-2.36524">
        <ele>59.599998474121</ele>
        <time>2019-12-29T08:59:29.000Z</time>
      </trkpt>
      <trkpt lat="47.28861" lon="-2.3652">
        <ele>60.200000762939</ele>
        <time>2019-12-29T08:59:30.000Z</time>
      </trkpt>
      <trkpt lat="47.2886" lon="-2.36517">
        <ele>60.599998474121</ele>
        <time>2019-12-29T08:59:31.000Z</time>
      </trkpt>
      <trkpt lat="47.28857" lon="-2.36513">
        <ele>60.599998474121</ele>
        <time>2019-12-29T08:59:33.000Z</time>
      </trkpt>
      <trkpt lat="47.28856" lon="-2.3651">
        <ele>61</ele>
        <time>2019-12-29T08:59:34.000Z</time>
      </trkpt>
      <trkpt lat="47.28855" lon="-2.36507">
        <ele>61.400001525879</ele>
        <time>2019-12-29T08:59:35.000Z</time>
      </trkpt>
      <trkpt lat="47.28855" lon="-2.36504">
        <ele>61.799999237061</ele>
        <time>2019-12-29T08:59:36.000Z</time>
      </trkpt>
      <trkpt lat="47.28855" lon="-2.36499">
        <ele>62.200000762939</ele>
        <time>2019-12-29T08:59:37.000Z</time>
      </trkpt>
      <trkpt lat="47.28854" lon="-2.36494">
        <ele>62.599998474121</ele>
        <time>2019-12-29T08:59:38.000Z</time>
      </trkpt>
      <trkpt lat="47.28854" lon="-2.36465">
        <ele>62.599998474121</ele>
        <time>2019-12-29T08:59:45.000Z</time>
      </trkpt>
      <trkpt lat="47.28853" lon="-2.36455">
        <ele>63.200000762939</ele>
        <time>2019-12-29T08:59:48.000Z</time>
      </trkpt>
      <trkpt lat="47.28852" lon="-2.36452">
        <ele>63.599998474121</ele>
        <time>2019-12-29T08:59:49.000Z</time>
      </trkpt>
      <trkpt lat="47.28851" lon="-2.36449">
        <ele>64</ele>
        <time>2019-12-29T08:59:50.000Z</time>
      </trkpt>
      <trkpt lat="47.2885" lon="-2.36446">
        <ele>64.400001525879</ele>
        <time>2019-12-29T08:59:51.000Z</time>
      </trkpt>
      <trkpt lat="47.2885" lon="-2.36442">
        <ele>64.800003051758</ele>
        <time>2019-12-29T08:59:52.000Z</time>
      </trkpt>
      <trkpt lat="47.2885" lon="-2.36436">
        <ele>65.199996948242</ele>
        <time>2019-12-29T08:59:54.000Z</time>
      </trkpt>
      <trkpt lat="47.2885" lon="-2.36433">
        <ele>65.599998474121</ele>
        <time>2019-12-29T08:59:55.000Z</time>
      </trkpt>
      <trkpt lat="47.28849" lon="-2.3643">
        <ele>66</ele>
        <time>2019-12-29T08:59:56.000Z</time>
      </trkpt>
      <trkpt lat="47.28847" lon="-2.36427">
        <ele>66.400001525879</ele>
        <time>2019-12-29T08:59:57.000Z</time>
      </trkpt>
      <trkpt lat="47.28845" lon="-2.36425">
        <ele>66.800003051758</ele>
        <time>2019-12-29T08:59:58.000Z</time>
      </trkpt>
      <trkpt lat="47.28844" lon="-2.36423">
        <ele>67.199996948242</ele>
        <time>2019-12-29T08:59:59.000Z</time>
      </trkpt>
      <trkpt lat="47.28843" lon="-2.36421">
        <ele>67.599998474121</ele>
        <time>2019-12-29T09:00:00.000Z</time>
      </trkpt>
      <trkpt lat="47.28841" lon="-2.36419">
        <ele>68</ele>
        <time>2019-12-29T09:00:01.000Z</time>
      </trkpt>
      <trkpt lat="47.2884" lon="-2.36418">
        <ele>68.599998474121</ele>
        <time>2019-12-29T09:00:02.000Z</time>
      </trkpt>
      <trkpt lat="47.28839" lon="-2.36417">
        <ele>69</ele>
        <time>2019-12-29T09:00:03.000Z</time>
      </trkpt>
      <trkpt lat="47.28838" lon="-2.36416">
        <ele>69</ele>
        <time>2019-12-29T09:00:04.000Z</time>
      </trkpt>
      <trkpt lat="47.28832" lon="-2.36421">
        <ele>69</ele>
        <time>2019-12-29T09:00:08.000Z</time>
      </trkpt>
      <trkpt lat="47.28821" lon="-2.36422">
        <ele>69</ele>
        <time>2019-12-29T09:00:13.000Z</time>
      </trkpt>
      <trkpt lat="47.28815" lon="-2.36413">
        <ele>69</ele>
        <time>2019-12-29T09:00:17.000Z</time>
      </trkpt>
      <trkpt lat="47.28815" lon="-2.36406">
        <ele>69</ele>
        <time>2019-12-29T09:00:21.000Z</time>
      </trkpt>
      <trkpt lat="47.28815" lon="-2.36403">
        <ele>69</ele>
        <time>2019-12-29T09:00:22.000Z</time>
      </trkpt>
      <trkpt lat="47.2882" lon="-2.36386">
        <ele>69</ele>
        <time>2019-12-29T09:00:28.000Z</time>
      </trkpt>
      <trkpt lat="47.28833" lon="-2.3636">
        <ele>69</ele>
        <time>2019-12-29T09:00:35.000Z</time>
      </trkpt>
      <trkpt lat="47.28841" lon="-2.36346">
        <ele>68.599998474121</ele>
        <time>2019-12-29T09:00:38.000Z</time>
      </trkpt>
      <trkpt lat="47.28844" lon="-2.36341">
        <ele>68.199996948242</ele>
        <time>2019-12-29T09:00:39.000Z</time>
      </trkpt>
      <trkpt lat="47.28846" lon="-2.36337">
        <ele>67.599998474121</ele>
        <time>2019-12-29T09:00:40.000Z</time>
      </trkpt>
      <trkpt lat="47.28847" lon="-2.36335">
        <ele>67.199996948242</ele>
        <time>2019-12-29T09:00:41.000Z</time>
      </trkpt>
      <trkpt lat="47.28849" lon="-2.36332">
        <ele>66.800003051758</ele>
        <time>2019-12-29T09:00:42.000Z</time>
      </trkpt>
      <trkpt lat="47.2885" lon="-2.3633">
        <ele>66.400001525879</ele>
        <time>2019-12-29T09:00:43.000Z</time>
      </trkpt>
      <trkpt lat="47.28852" lon="-2.36328">
        <ele>66</ele>
        <time>2019-12-29T09:00:44.000Z</time>
      </trkpt>
      <trkpt lat="47.28853" lon="-2.36325">
        <ele>65.599998474121</ele>
        <time>2019-12-29T09:00:45.000Z</time>
      </trkpt>
      <trkpt lat="47.28854" lon="-2.36324">
        <ele>65.199996948242</ele>
        <time>2019-12-29T09:00:46.000Z</time>
      </trkpt>
      <trkpt lat="47.28855" lon="-2.36325">
        <ele>64.599998474121</ele>
        <time>2019-12-29T09:00:47.000Z</time>
      </trkpt>
      <trkpt lat="47.28856" lon="-2.36327">
        <ele>64.599998474121</ele>
        <time>2019-12-29T09:00:49.000Z</time>
      </trkpt>
      <trkpt lat="47.28854" lon="-2.36329">
        <ele>64.599998474121</ele>
        <time>2019-12-29T09:00:54.000Z</time>
      </trkpt>
      <trkpt lat="47.28859" lon="-2.3633">
        <ele>64.599998474121</ele>
        <time>2019-12-29T09:01:01.000Z</time>
      </trkpt>
      <trkpt lat="47.28864" lon="-2.36331">
        <ele>64.599998474121</ele>
        <time>2019-12-29T09:01:02.000Z</time>
      </trkpt>
      <trkpt lat="47.2887" lon="-2.36333">
        <ele>64.199996948242</ele>
        <time>2019-12-29T09:01:03.000Z</time>
      </trkpt>
      <trkpt lat="47.28879" lon="-2.36334">
        <ele>63.599998474121</ele>
        <time>2019-12-29T09:01:04.000Z</time>
      </trkpt>
      <trkpt lat="47.28889" lon="-2.36339">
        <ele>63.200000762939</ele>
        <time>2019-12-29T09:01:05.000Z</time>
      </trkpt>
      <trkpt lat="47.28898" lon="-2.36343">
        <ele>62.599998474121</ele>
        <time>2019-12-29T09:01:06.000Z</time>
      </trkpt>
      <trkpt lat="47.28906" lon="-2.36348">
        <ele>61.799999237061</ele>
        <time>2019-12-29T09:01:07.000Z</time>
      </trkpt>
      <trkpt lat="47.28916" lon="-2.36356">
        <ele>61.200000762939</ele>
        <time>2019-12-29T09:01:08.000Z</time>
      </trkpt>
      <trkpt lat="47.28923" lon="-2.36363">
        <ele>60.599998474121</ele>
        <time>2019-12-29T09:01:09.000Z</time>
      </trkpt>
      <trkpt lat="47.28932" lon="-2.3637">
        <ele>60</ele>
        <time>2019-12-29T09:01:10.000Z</time>
      </trkpt>
      <trkpt lat="47.2894" lon="-2.36376">
        <ele>59.400001525879</ele>
        <time>2019-12-29T09:01:11.000Z</time>
      </trkpt>
      <trkpt lat="47.28948" lon="-2.36385">
        <ele>58.799999237061</ele>
        <time>2019-12-29T09:01:12.000Z</time>
      </trkpt>
      <trkpt lat="47.28956" lon="-2.36395">
        <ele>58.200000762939</ele>
        <time>2019-12-29T09:01:13.000Z</time>
      </trkpt>
      <trkpt lat="47.28962" lon="-2.36403">
        <ele>57.599998474121</ele>
        <time>2019-12-29T09:01:14.000Z</time>
      </trkpt>
      <trkpt lat="47.28969" lon="-2.36412">
        <ele>57</ele>
        <time>2019-12-29T09:01:15.000Z</time>
      </trkpt>
      <trkpt lat="47.28974" lon="-2.3642">
        <ele>56.400001525879</ele>
        <time>2019-12-29T09:01:16.000Z</time>
      </trkpt>
      <trkpt lat="47.28979" lon="-2.3643">
        <ele>55.799999237061</ele>
        <time>2019-12-29T09:01:17.000Z</time>
      </trkpt>
      <trkpt lat="47.28985" lon="-2.36439">
        <ele>55.400001525879</ele>
        <time>2019-12-29T09:01:18.000Z</time>
      </trkpt>
      <trkpt lat="47.28991" lon="-2.36448">
        <ele>54.799999237061</ele>
        <time>2019-12-29T09:01:19.000Z</time>
      </trkpt>
      <trkpt lat="47.28998" lon="-2.36455">
        <ele>54.200000762939</ele>
        <time>2019-12-29T09:01:20.000Z</time>
      </trkpt>
      <trkpt lat="47.29003" lon="-2.36462">
        <ele>53.599998474121</ele>
        <time>2019-12-29T09:01:21.000Z</time>
      </trkpt>
      <trkpt lat="47.29008" lon="-2.36468">
        <ele>53.200000762939</ele>
        <time>2019-12-29T09:01:22.000Z</time>
      </trkpt>
      <trkpt lat="47.29017" lon="-2.36486">
        <ele>53.200000762939</ele>
        <time>2019-12-29T09:01:25.000Z</time>
      </trkpt>
      <trkpt lat="47.2902" lon="-2.36494">
        <ele>53.200000762939</ele>
        <time>2019-12-29T09:01:27.000Z</time>
      </trkpt>
      <trkpt lat="47.29023" lon="-2.36499">
        <ele>53.200000762939</ele>
        <time>2019-12-29T09:01:31.000Z</time>
      </trkpt>
      <trkpt lat="47.29026" lon="-2.36498">
        <ele>53.200000762939</ele>
        <time>2019-12-29T09:01:33.000Z</time>
      </trkpt>
      <trkpt lat="47.29027" lon="-2.36497">
        <ele>53.200000762939</ele>
        <time>2019-12-29T09:01:34.000Z</time>
      </trkpt>
      <trkpt lat="47.29029" lon="-2.36501">
        <ele>53.200000762939</ele>
        <time>2019-12-29T09:01:36.000Z</time>
      </trkpt>
      <trkpt lat="47.29028" lon="-2.36525">
        <ele>53.200000762939</ele>
        <time>2019-12-29T09:01:41.000Z</time>
      </trkpt>
      <trkpt lat="47.29029" lon="-2.36532">
        <ele>53.200000762939</ele>
        <time>2019-12-29T09:01:42.000Z</time>
      </trkpt>
      <trkpt lat="47.29031" lon="-2.36538">
        <ele>53.599998474121</ele>
        <time>2019-12-29T09:01:43.000Z</time>
      </trkpt>
      <trkpt lat="47.29032" lon="-2.36543">
        <ele>54</ele>
        <time>2019-12-29T09:01:44.000Z</time>
      </trkpt>
      <trkpt lat="47.29033" lon="-2.36549">
        <ele>54.400001525879</ele>
        <time>2019-12-29T09:01:45.000Z</time>
      </trkpt>
      <trkpt lat="47.29034" lon="-2.36554">
        <ele>54.799999237061</ele>
        <time>2019-12-29T09:01:46.000Z</time>
      </trkpt>
      <trkpt lat="47.29035" lon="-2.36559">
        <ele>55.200000762939</ele>
        <time>2019-12-29T09:01:47.000Z</time>
      </trkpt>
      <trkpt lat="47.29038" lon="-2.36575">
        <ele>55.799999237061</ele>
        <time>2019-12-29T09:01:50.000Z</time>
      </trkpt>
      <trkpt lat="47.2904" lon="-2.3658">
        <ele>56.200000762939</ele>
        <time>2019-12-29T09:01:51.000Z</time>
      </trkpt>
      <trkpt lat="47.29041" lon="-2.36586">
        <ele>56.599998474121</ele>
        <time>2019-12-29T09:01:52.000Z</time>
      </trkpt>
      <trkpt lat="47.29042" lon="-2.36591">
        <ele>57</ele>
        <time>2019-12-29T09:01:53.000Z</time>
      </trkpt>
      <trkpt lat="47.29043" lon="-2.36595">
        <ele>57.599998474121</ele>
        <time>2019-12-29T09:01:54.000Z</time>
      </trkpt>
      <trkpt lat="47.2905" lon="-2.36621">
        <ele>58</ele>
        <time>2019-12-29T09:01:59.000Z</time>
      </trkpt>
      <trkpt lat="47.29051" lon="-2.36626">
        <ele>58.400001525879</ele>
        <time>2019-12-29T09:02:00.000Z</time>
      </trkpt>
      <trkpt lat="47.29052" lon="-2.36631">
        <ele>58.799999237061</ele>
        <time>2019-12-29T09:02:01.000Z</time>
      </trkpt>
      <trkpt lat="47.29053" lon="-2.36636">
        <ele>59.200000762939</ele>
        <time>2019-12-29T09:02:02.000Z</time>
      </trkpt>
      <trkpt lat="47.29054" lon="-2.36641">
        <ele>59.599998474121</ele>
        <time>2019-12-29T09:02:03.000Z</time>
      </trkpt>
      <trkpt lat="47.29058" lon="-2.36666">
        <ele>59.599998474121</ele>
        <time>2019-12-29T09:02:08.000Z</time>
      </trkpt>
      <trkpt lat="47.2906" lon="-2.36677">
        <ele>60</ele>
        <time>2019-12-29T09:02:10.000Z</time>
      </trkpt>
      <trkpt lat="47.29061" lon="-2.36682">
        <ele>60.400001525879</ele>
        <time>2019-12-29T09:02:11.000Z</time>
      </trkpt>
      <trkpt lat="47.29062" lon="-2.36687">
        <ele>60.799999237061</ele>
        <time>2019-12-29T09:02:12.000Z</time>
      </trkpt>
      <trkpt lat="47.29064" lon="-2.36691">
        <ele>61.200000762939</ele>
        <time>2019-12-29T09:02:13.000Z</time>
      </trkpt>
      <trkpt lat="47.29065" lon="-2.36696">
        <ele>61.599998474121</ele>
        <time>2019-12-29T09:02:14.000Z</time>
      </trkpt>
      <trkpt lat="47.29076" lon="-2.36742">
        <ele>61.599998474121</ele>
        <time>2019-12-29T09:02:23.000Z</time>
      </trkpt>
      <trkpt lat="47.2908" lon="-2.36758">
        <ele>62</ele>
        <time>2019-12-29T09:02:26.000Z</time>
      </trkpt>
      <trkpt lat="47.29082" lon="-2.36764">
        <ele>62.400001525879</ele>
        <time>2019-12-29T09:02:27.000Z</time>
      </trkpt>
      <trkpt lat="47.29082" lon="-2.36769">
        <ele>62.799999237061</ele>
        <time>2019-12-29T09:02:28.000Z</time>
      </trkpt>
      <trkpt lat="47.29084" lon="-2.36775">
        <ele>63.200000762939</ele>
        <time>2019-12-29T09:02:29.000Z</time>
      </trkpt>
      <trkpt lat="47.29085" lon="-2.3678">
        <ele>63.599998474121</ele>
        <time>2019-12-29T09:02:30.000Z</time>
      </trkpt>
      <trkpt lat="47.2909" lon="-2.36808">
        <ele>63.599998474121</ele>
        <time>2019-12-29T09:02:35.000Z</time>
      </trkpt>
      <trkpt lat="47.29103" lon="-2.36856">
        <ele>63.599998474121</ele>
        <time>2019-12-29T09:02:43.000Z</time>
      </trkpt>
      <trkpt lat="47.29113" lon="-2.36891">
        <ele>63.599998474121</ele>
        <time>2019-12-29T09:02:49.000Z</time>
      </trkpt>
      <trkpt lat="47.29116" lon="-2.36896">
        <ele>63.599998474121</ele>
        <time>2019-12-29T09:02:50.000Z</time>
      </trkpt>
      <trkpt lat="47.29124" lon="-2.36909">
        <ele>63.599998474121</ele>
        <time>2019-12-29T09:02:53.000Z</time>
      </trkpt>
      <trkpt lat="47.29128" lon="-2.36921">
        <ele>63.599998474121</ele>
        <time>2019-12-29T09:02:55.000Z</time>
      </trkpt>
      <trkpt lat="47.2913" lon="-2.36928">
        <ele>63.599998474121</ele>
        <time>2019-12-29T09:02:56.000Z</time>
      </trkpt>
      <trkpt lat="47.29136" lon="-2.36953">
        <ele>63.599998474121</ele>
        <time>2019-12-29T09:03:00.000Z</time>
      </trkpt>
      <trkpt lat="47.29139" lon="-2.36959">
        <ele>63.599998474121</ele>
        <time>2019-12-29T09:03:01.000Z</time>
      </trkpt>
      <trkpt lat="47.29158" lon="-2.36991">
        <ele>63.599998474121</ele>
        <time>2019-12-29T09:03:07.000Z</time>
      </trkpt>
      <trkpt lat="47.29184" lon="-2.37026">
        <ele>64.199996948242</ele>
        <time>2019-12-29T09:03:15.000Z</time>
      </trkpt>
      <trkpt lat="47.29188" lon="-2.3703">
        <ele>64.599998474121</ele>
        <time>2019-12-29T09:03:16.000Z</time>
      </trkpt>
      <trkpt lat="47.29191" lon="-2.37034">
        <ele>65</ele>
        <time>2019-12-29T09:03:17.000Z</time>
      </trkpt>
      <trkpt lat="47.29195" lon="-2.37039">
        <ele>65.400001525879</ele>
        <time>2019-12-29T09:03:18.000Z</time>
      </trkpt>
      <trkpt lat="47.29198" lon="-2.37043">
        <ele>65.800003051758</ele>
        <time>2019-12-29T09:03:19.000Z</time>
      </trkpt>
      <trkpt lat="47.29202" lon="-2.37047">
        <ele>65.800003051758</ele>
        <time>2019-12-29T09:03:20.000Z</time>
      </trkpt>
      <trkpt lat="47.29205" lon="-2.37052">
        <ele>65.800003051758</ele>
        <time>2019-12-29T09:03:21.000Z</time>
      </trkpt>
      <trkpt lat="47.29212" lon="-2.37061">
        <ele>65.800003051758</ele>
        <time>2019-12-29T09:03:23.000Z</time>
      </trkpt>
      <trkpt lat="47.29224" lon="-2.37073">
        <ele>65.800003051758</ele>
        <time>2019-12-29T09:03:26.000Z</time>
      </trkpt>
      <trkpt lat="47.2925" lon="-2.37103">
        <ele>65.800003051758</ele>
        <time>2019-12-29T09:03:33.000Z</time>
      </trkpt>
      <trkpt lat="47.29278" lon="-2.37134">
        <ele>65.800003051758</ele>
        <time>2019-12-29T09:03:40.000Z</time>
      </trkpt>
      <trkpt lat="47.29306" lon="-2.37166">
        <ele>65.800003051758</ele>
        <time>2019-12-29T09:03:47.000Z</time>
      </trkpt>
      <trkpt lat="47.29315" lon="-2.37174">
        <ele>65.800003051758</ele>
        <time>2019-12-29T09:03:49.000Z</time>
      </trkpt>
      <trkpt lat="47.29323" lon="-2.37183">
        <ele>65.800003051758</ele>
        <time>2019-12-29T09:03:51.000Z</time>
      </trkpt>
      <trkpt lat="47.29328" lon="-2.37187">
        <ele>65.800003051758</ele>
        <time>2019-12-29T09:03:52.000Z</time>
      </trkpt>
      <trkpt lat="47.29351" lon="-2.37201">
        <ele>65.800003051758</ele>
        <time>2019-12-29T09:03:56.000Z</time>
      </trkpt>
      <trkpt lat="47.29363" lon="-2.37208">
        <ele>65.800003051758</ele>
        <time>2019-12-29T09:03:58.000Z</time>
      </trkpt>
      <trkpt lat="47.2938" lon="-2.37216">
        <ele>65.400001525879</ele>
        <time>2019-12-29T09:04:01.000Z</time>
      </trkpt>
      <trkpt lat="47.29385" lon="-2.37219">
        <ele>65</ele>
        <time>2019-12-29T09:04:02.000Z</time>
      </trkpt>
      <trkpt lat="47.2939" lon="-2.37221">
        <ele>64.599998474121</ele>
        <time>2019-12-29T09:04:03.000Z</time>
      </trkpt>
      <trkpt lat="47.29395" lon="-2.37223">
        <ele>64.199996948242</ele>
        <time>2019-12-29T09:04:04.000Z</time>
      </trkpt>
      <trkpt lat="47.29401" lon="-2.37225">
        <ele>63.799999237061</ele>
        <time>2019-12-29T09:04:05.000Z</time>
      </trkpt>
      <trkpt lat="47.2941" lon="-2.3723">
        <ele>63.799999237061</ele>
        <time>2019-12-29T09:04:07.000Z</time>
      </trkpt>
      <trkpt lat="47.29423" lon="-2.37243">
        <ele>63.799999237061</ele>
        <time>2019-12-29T09:04:10.000Z</time>
      </trkpt>
      <trkpt lat="47.29446" lon="-2.37266">
        <ele>63.799999237061</ele>
        <time>2019-12-29T09:04:15.000Z</time>
      </trkpt>
      <trkpt lat="47.29455" lon="-2.37275">
        <ele>63.799999237061</ele>
        <time>2019-12-29T09:04:17.000Z</time>
      </trkpt>
      <trkpt lat="47.29479" lon="-2.37299">
        <ele>64.199996948242</ele>
        <time>2019-12-29T09:04:23.000Z</time>
      </trkpt>
      <trkpt lat="47.29483" lon="-2.37303">
        <ele>64.599998474121</ele>
        <time>2019-12-29T09:04:24.000Z</time>
      </trkpt>
      <trkpt lat="47.29486" lon="-2.37307">
        <ele>65</ele>
        <time>2019-12-29T09:04:25.000Z</time>
      </trkpt>
      <trkpt lat="47.2949" lon="-2.37312">
        <ele>65.400001525879</ele>
        <time>2019-12-29T09:04:26.000Z</time>
      </trkpt>
      <trkpt lat="47.29494" lon="-2.37317">
        <ele>65.800003051758</ele>
        <time>2019-12-29T09:04:27.000Z</time>
      </trkpt>
      <trkpt lat="47.29508" lon="-2.37334">
        <ele>65.800003051758</ele>
        <time>2019-12-29T09:04:31.000Z</time>
      </trkpt>
      <trkpt lat="47.29528" lon="-2.37358">
        <ele>65.800003051758</ele>
        <time>2019-12-29T09:04:37.000Z</time>
      </trkpt>
      <trkpt lat="47.29541" lon="-2.37373">
        <ele>66.199996948242</ele>
        <time>2019-12-29T09:04:41.000Z</time>
      </trkpt>
      <trkpt lat="47.29544" lon="-2.37377">
        <ele>66.599998474121</ele>
        <time>2019-12-29T09:04:42.000Z</time>
      </trkpt>
      <trkpt lat="47.29547" lon="-2.37381">
        <ele>67.599998474121</ele>
        <time>2019-12-29T09:04:43.000Z</time>
      </trkpt>
      <trkpt lat="47.2955" lon="-2.37386">
        <ele>68</ele>
        <time>2019-12-29T09:04:44.000Z</time>
      </trkpt>
      <trkpt lat="47.29569" lon="-2.37414">
        <ele>68</ele>
        <time>2019-12-29T09:04:50.000Z</time>
      </trkpt>
      <trkpt lat="47.29575" lon="-2.37425">
        <ele>68</ele>
        <time>2019-12-29T09:04:52.000Z</time>
      </trkpt>
      <trkpt lat="47.296" lon="-2.3747">
        <ele>68</ele>
        <time>2019-12-29T09:05:00.000Z</time>
      </trkpt>
      <trkpt lat="47.29618" lon="-2.37492">
        <ele>68</ele>
        <time>2019-12-29T09:05:04.000Z</time>
      </trkpt>
      <trkpt lat="47.29624" lon="-2.37496">
        <ele>68</ele>
        <time>2019-12-29T09:05:05.000Z</time>
      </trkpt>
      <trkpt lat="47.29665" lon="-2.37524">
        <ele>68</ele>
        <time>2019-12-29T09:05:11.000Z</time>
      </trkpt>
      <trkpt lat="47.29695" lon="-2.3755">
        <ele>68</ele>
        <time>2019-12-29T09:05:16.000Z</time>
      </trkpt>
      <trkpt lat="47.2971" lon="-2.37565">
        <ele>68</ele>
        <time>2019-12-29T09:05:19.000Z</time>
      </trkpt>
      <trkpt lat="47.29718" lon="-2.37576">
        <ele>68</ele>
        <time>2019-12-29T09:05:21.000Z</time>
      </trkpt>
      <trkpt lat="47.29746" lon="-2.37616">
        <ele>68</ele>
        <time>2019-12-29T09:05:28.000Z</time>
      </trkpt>
      <trkpt lat="47.29754" lon="-2.37629">
        <ele>68</ele>
        <time>2019-12-29T09:05:30.000Z</time>
      </trkpt>
      <trkpt lat="47.29768" lon="-2.37645">
        <ele>68.800003051758</ele>
        <time>2019-12-29T09:05:33.000Z</time>
      </trkpt>
      <trkpt lat="47.29772" lon="-2.3765">
        <ele>69.199996948242</ele>
        <time>2019-12-29T09:05:34.000Z</time>
      </trkpt>
      <trkpt lat="47.29776" lon="-2.37655">
        <ele>69.599998474121</ele>
        <time>2019-12-29T09:05:35.000Z</time>
      </trkpt>
      <trkpt lat="47.2978" lon="-2.37661">
        <ele>70</ele>
        <time>2019-12-29T09:05:36.000Z</time>
      </trkpt>
      <trkpt lat="47.29797" lon="-2.37688">
        <ele>70</ele>
        <time>2019-12-29T09:05:41.000Z</time>
      </trkpt>
      <trkpt lat="47.29823" lon="-2.37728">
        <ele>70</ele>
        <time>2019-12-29T09:05:48.000Z</time>
      </trkpt>
      <trkpt lat="47.29851" lon="-2.37775">
        <ele>70</ele>
        <time>2019-12-29T09:05:56.000Z</time>
      </trkpt>
      <trkpt lat="47.29859" lon="-2.37786">
        <ele>69.599998474121</ele>
        <time>2019-12-29T09:05:58.000Z</time>
      </trkpt>
      <trkpt lat="47.29862" lon="-2.37791">
        <ele>69.199996948242</ele>
        <time>2019-12-29T09:05:59.000Z</time>
      </trkpt>
      <trkpt lat="47.29865" lon="-2.37795">
        <ele>68.800003051758</ele>
        <time>2019-12-29T09:06:00.000Z</time>
      </trkpt>
      <trkpt lat="47.29867" lon="-2.37799">
        <ele>68.199996948242</ele>
        <time>2019-12-29T09:06:01.000Z</time>
      </trkpt>
      <trkpt lat="47.29868" lon="-2.37805">
        <ele>67.800003051758</ele>
        <time>2019-12-29T09:06:02.000Z</time>
      </trkpt>
      <trkpt lat="47.29868" lon="-2.37817">
        <ele>67.800003051758</ele>
        <time>2019-12-29T09:06:04.000Z</time>
      </trkpt>
      <trkpt lat="47.29861" lon="-2.37833">
        <ele>67.800003051758</ele>
        <time>2019-12-29T09:06:08.000Z</time>
      </trkpt>
      <trkpt lat="47.2986" lon="-2.37836">
        <ele>67.800003051758</ele>
        <time>2019-12-29T09:06:09.000Z</time>
      </trkpt>
      <trkpt lat="47.29855" lon="-2.3785">
        <ele>67.800003051758</ele>
        <time>2019-12-29T09:06:13.000Z</time>
      </trkpt>
      <trkpt lat="47.29844" lon="-2.37868">
        <ele>67.800003051758</ele>
        <time>2019-12-29T09:06:17.000Z</time>
      </trkpt>
      <trkpt lat="47.29827" lon="-2.37885">
        <ele>67.800003051758</ele>
        <time>2019-12-29T09:06:23.000Z</time>
      </trkpt>
      <trkpt lat="47.2981" lon="-2.37893">
        <ele>67.800003051758</ele>
        <time>2019-12-29T09:06:28.000Z</time>
      </trkpt>
      <trkpt lat="47.29799" lon="-2.379">
        <ele>67.800003051758</ele>
        <time>2019-12-29T09:06:31.000Z</time>
      </trkpt>
      <trkpt lat="47.2979" lon="-2.37906">
        <ele>67.800003051758</ele>
        <time>2019-12-29T09:06:33.000Z</time>
      </trkpt>
      <trkpt lat="47.29785" lon="-2.37909">
        <ele>67.800003051758</ele>
        <time>2019-12-29T09:06:34.000Z</time>
      </trkpt>
      <trkpt lat="47.29768" lon="-2.37922">
        <ele>67.800003051758</ele>
        <time>2019-12-29T09:06:39.000Z</time>
      </trkpt>
      <trkpt lat="47.29748" lon="-2.37946">
        <ele>67.800003051758</ele>
        <time>2019-12-29T09:06:45.000Z</time>
      </trkpt>
      <trkpt lat="47.29743" lon="-2.37954">
        <ele>67.400001525879</ele>
        <time>2019-12-29T09:06:47.000Z</time>
      </trkpt>
      <trkpt lat="47.29741" lon="-2.37959">
        <ele>67</ele>
        <time>2019-12-29T09:06:48.000Z</time>
      </trkpt>
      <trkpt lat="47.29739" lon="-2.37963">
        <ele>66.599998474121</ele>
        <time>2019-12-29T09:06:49.000Z</time>
      </trkpt>
      <trkpt lat="47.29737" lon="-2.37967">
        <ele>66.199996948242</ele>
        <time>2019-12-29T09:06:50.000Z</time>
      </trkpt>
      <trkpt lat="47.29735" lon="-2.37971">
        <ele>65.599998474121</ele>
        <time>2019-12-29T09:06:51.000Z</time>
      </trkpt>
      <trkpt lat="47.29734" lon="-2.37976">
        <ele>65.199996948242</ele>
        <time>2019-12-29T09:06:52.000Z</time>
      </trkpt>
      <trkpt lat="47.29732" lon="-2.3798">
        <ele>64.800003051758</ele>
        <time>2019-12-29T09:06:53.000Z</time>
      </trkpt>
      <trkpt lat="47.29731" lon="-2.37985">
        <ele>64.400001525879</ele>
        <time>2019-12-29T09:06:54.000Z</time>
      </trkpt>
      <trkpt lat="47.29729" lon="-2.37989">
        <ele>64</ele>
        <time>2019-12-29T09:06:55.000Z</time>
      </trkpt>
      <trkpt lat="47.29729" lon="-2.37994">
        <ele>63.599998474121</ele>
        <time>2019-12-29T09:06:56.000Z</time>
      </trkpt>
      <trkpt lat="47.29729" lon="-2.37999">
        <ele>63.200000762939</ele>
        <time>2019-12-29T09:06:57.000Z</time>
      </trkpt>
      <trkpt lat="47.2973" lon="-2.38004">
        <ele>62.599998474121</ele>
        <time>2019-12-29T09:06:58.000Z</time>
      </trkpt>
      <trkpt lat="47.29731" lon="-2.3801">
        <ele>62.200000762939</ele>
        <time>2019-12-29T09:06:59.000Z</time>
      </trkpt>
      <trkpt lat="47.29732" lon="-2.38016">
        <ele>61.599998474121</ele>
        <time>2019-12-29T09:07:00.000Z</time>
      </trkpt>
      <trkpt lat="47.29733" lon="-2.38022">
        <ele>61</ele>
        <time>2019-12-29T09:07:01.000Z</time>
      </trkpt>
      <trkpt lat="47.29734" lon="-2.38028">
        <ele>60.599998474121</ele>
        <time>2019-12-29T09:07:02.000Z</time>
      </trkpt>
      <trkpt lat="47.29735" lon="-2.38034">
        <ele>60</ele>
        <time>2019-12-29T09:07:03.000Z</time>
      </trkpt>
      <trkpt lat="47.29736" lon="-2.3804">
        <ele>59.400001525879</ele>
        <time>2019-12-29T09:07:04.000Z</time>
      </trkpt>
      <trkpt lat="47.29736" lon="-2.38046">
        <ele>58.799999237061</ele>
        <time>2019-12-29T09:07:05.000Z</time>
      </trkpt>
      <trkpt lat="47.29735" lon="-2.38052">
        <ele>58.200000762939</ele>
        <time>2019-12-29T09:07:06.000Z</time>
      </trkpt>
      <trkpt lat="47.29735" lon="-2.38057">
        <ele>57.599998474121</ele>
        <time>2019-12-29T09:07:07.000Z</time>
      </trkpt>
      <trkpt lat="47.29734" lon="-2.38063">
        <ele>57</ele>
        <time>2019-12-29T09:07:08.000Z</time>
      </trkpt>
      <trkpt lat="47.29733" lon="-2.38068">
        <ele>56.400001525879</ele>
        <time>2019-12-29T09:07:09.000Z</time>
      </trkpt>
      <trkpt lat="47.29732" lon="-2.38073">
        <ele>55.799999237061</ele>
        <time>2019-12-29T09:07:10.000Z</time>
      </trkpt>
      <trkpt lat="47.29731" lon="-2.38077">
        <ele>55.200000762939</ele>
        <time>2019-12-29T09:07:11.000Z</time>
      </trkpt>
      <trkpt lat="47.29731" lon="-2.3808">
        <ele>54</ele>
        <time>2019-12-29T09:07:12.000Z</time>
      </trkpt>
      <trkpt lat="47.2973" lon="-2.38083">
        <ele>53.599998474121</ele>
        <time>2019-12-29T09:07:13.000Z</time>
      </trkpt>
      <trkpt lat="47.29729" lon="-2.38084">
        <ele>53.200000762939</ele>
        <time>2019-12-29T09:07:14.000Z</time>
      </trkpt>
      <trkpt lat="47.29727" lon="-2.38085">
        <ele>52.799999237061</ele>
        <time>2019-12-29T09:07:15.000Z</time>
      </trkpt>
      <trkpt lat="47.29725" lon="-2.38084">
        <ele>52.400001525879</ele>
        <time>2019-12-29T09:07:16.000Z</time>
      </trkpt>
      <trkpt lat="47.29723" lon="-2.38084">
        <ele>52</ele>
        <time>2019-12-29T09:07:17.000Z</time>
      </trkpt>
      <trkpt lat="47.29717" lon="-2.38085">
        <ele>52</ele>
        <time>2019-12-29T09:07:20.000Z</time>
      </trkpt>
      <trkpt lat="47.2971" lon="-2.38095">
        <ele>52</ele>
        <time>2019-12-29T09:07:23.000Z</time>
      </trkpt>
      <trkpt lat="47.29707" lon="-2.38099">
        <ele>52</ele>
        <time>2019-12-29T09:07:24.000Z</time>
      </trkpt>
      <trkpt lat="47.29701" lon="-2.38108">
        <ele>51.599998474121</ele>
        <time>2019-12-29T09:07:26.000Z</time>
      </trkpt>
      <trkpt lat="47.29699" lon="-2.38113">
        <ele>51.200000762939</ele>
        <time>2019-12-29T09:07:27.000Z</time>
      </trkpt>
      <trkpt lat="47.29697" lon="-2.38117">
        <ele>50.799999237061</ele>
        <time>2019-12-29T09:07:28.000Z</time>
      </trkpt>
      <trkpt lat="47.29694" lon="-2.38121">
        <ele>50.200000762939</ele>
        <time>2019-12-29T09:07:29.000Z</time>
      </trkpt>
      <trkpt lat="47.29692" lon="-2.38125">
        <ele>49.799999237061</ele>
        <time>2019-12-29T09:07:30.000Z</time>
      </trkpt>
      <trkpt lat="47.29684" lon="-2.38136">
        <ele>49.400001525879</ele>
        <time>2019-12-29T09:07:33.000Z</time>
      </trkpt>
      <trkpt lat="47.29681" lon="-2.3814">
        <ele>49</ele>
        <time>2019-12-29T09:07:34.000Z</time>
      </trkpt>
      <trkpt lat="47.29678" lon="-2.38144">
        <ele>48.599998474121</ele>
        <time>2019-12-29T09:07:35.000Z</time>
      </trkpt>
      <trkpt lat="47.29676" lon="-2.38147">
        <ele>48.200000762939</ele>
        <time>2019-12-29T09:07:36.000Z</time>
      </trkpt>
      <trkpt lat="47.29673" lon="-2.3815">
        <ele>47.599998474121</ele>
        <time>2019-12-29T09:07:37.000Z</time>
      </trkpt>
      <trkpt lat="47.29656" lon="-2.38169">
        <ele>47.599998474121</ele>
        <time>2019-12-29T09:07:43.000Z</time>
      </trkpt>
      <trkpt lat="47.29642" lon="-2.3818">
        <ele>47.200000762939</ele>
        <time>2019-12-29T09:07:47.000Z</time>
      </trkpt>
      <trkpt lat="47.29638" lon="-2.38182">
        <ele>46.799999237061</ele>
        <time>2019-12-29T09:07:48.000Z</time>
      </trkpt>
      <trkpt lat="47.29634" lon="-2.38185">
        <ele>46.400001525879</ele>
        <time>2019-12-29T09:07:49.000Z</time>
      </trkpt>
      <trkpt lat="47.2963" lon="-2.38187">
        <ele>46</ele>
        <time>2019-12-29T09:07:50.000Z</time>
      </trkpt>
      <trkpt lat="47.29627" lon="-2.3819">
        <ele>45.599998474121</ele>
        <time>2019-12-29T09:07:51.000Z</time>
      </trkpt>
      <trkpt lat="47.29623" lon="-2.38193">
        <ele>45.599998474121</ele>
        <time>2019-12-29T09:07:52.000Z</time>
      </trkpt>
      <trkpt lat="47.29611" lon="-2.382">
        <ele>45.599998474121</ele>
        <time>2019-12-29T09:07:55.000Z</time>
      </trkpt>
      <trkpt lat="47.29596" lon="-2.38211">
        <ele>45.200000762939</ele>
        <time>2019-12-29T09:07:59.000Z</time>
      </trkpt>
      <trkpt lat="47.29593" lon="-2.38213">
        <ele>44.799999237061</ele>
        <time>2019-12-29T09:08:00.000Z</time>
      </trkpt>
      <trkpt lat="47.29589" lon="-2.38215">
        <ele>44.400001525879</ele>
        <time>2019-12-29T09:08:01.000Z</time>
      </trkpt>
      <trkpt lat="47.29585" lon="-2.38218">
        <ele>43.400001525879</ele>
        <time>2019-12-29T09:08:02.000Z</time>
      </trkpt>
      <trkpt lat="47.29575" lon="-2.38233">
        <ele>43.400001525879</ele>
        <time>2019-12-29T09:08:06.000Z</time>
      </trkpt>
      <trkpt lat="47.29558" lon="-2.38263">
        <ele>43.400001525879</ele>
        <time>2019-12-29T09:08:13.000Z</time>
      </trkpt>
      <trkpt lat="47.29555" lon="-2.3827">
        <ele>43</ele>
        <time>2019-12-29T09:08:15.000Z</time>
      </trkpt>
      <trkpt lat="47.29555" lon="-2.38274">
        <ele>42.599998474121</ele>
        <time>2019-12-29T09:08:16.000Z</time>
      </trkpt>
      <trkpt lat="47.29554" lon="-2.38277">
        <ele>42.200000762939</ele>
        <time>2019-12-29T09:08:17.000Z</time>
      </trkpt>
      <trkpt lat="47.29553" lon="-2.3828">
        <ele>41.799999237061</ele>
        <time>2019-12-29T09:08:18.000Z</time>
      </trkpt>
      <trkpt lat="47.29553" lon="-2.38282">
        <ele>41.400001525879</ele>
        <time>2019-12-29T09:08:19.000Z</time>
      </trkpt>
      <trkpt lat="47.29551" lon="-2.3829">
        <ele>41.400001525879</ele>
        <time>2019-12-29T09:08:23.000Z</time>
      </trkpt>
      <trkpt lat="47.29552" lon="-2.38314">
        <ele>41.400001525879</ele>
        <time>2019-12-29T09:08:29.000Z</time>
      </trkpt>
      <trkpt lat="47.29548" lon="-2.38337">
        <ele>41.400001525879</ele>
        <time>2019-12-29T09:08:35.000Z</time>
      </trkpt>
      <trkpt lat="47.29544" lon="-2.38353">
        <ele>41.400001525879</ele>
        <time>2019-12-29T09:08:40.000Z</time>
      </trkpt>
      <trkpt lat="47.29541" lon="-2.3836">
        <ele>41.400001525879</ele>
        <time>2019-12-29T09:08:43.000Z</time>
      </trkpt>
      <trkpt lat="47.29538" lon="-2.38365">
        <ele>41.400001525879</ele>
        <time>2019-12-29T09:08:45.000Z</time>
      </trkpt>
      <trkpt lat="47.29524" lon="-2.38382">
        <ele>41.400001525879</ele>
        <time>2019-12-29T09:08:50.000Z</time>
      </trkpt>
      <trkpt lat="47.29518" lon="-2.3839">
        <ele>41</ele>
        <time>2019-12-29T09:08:52.000Z</time>
      </trkpt>
      <trkpt lat="47.29515" lon="-2.38394">
        <ele>40.599998474121</ele>
        <time>2019-12-29T09:08:53.000Z</time>
      </trkpt>
      <trkpt lat="47.29512" lon="-2.38399">
        <ele>40.200000762939</ele>
        <time>2019-12-29T09:08:54.000Z</time>
      </trkpt>
      <trkpt lat="47.29509" lon="-2.38403">
        <ele>39.599998474121</ele>
        <time>2019-12-29T09:08:55.000Z</time>
      </trkpt>
      <trkpt lat="47.29506" lon="-2.38407">
        <ele>39.200000762939</ele>
        <time>2019-12-29T09:08:56.000Z</time>
      </trkpt>
      <trkpt lat="47.29489" lon="-2.38442">
        <ele>38.799999237061</ele>
        <time>2019-12-29T09:09:04.000Z</time>
      </trkpt>
      <trkpt lat="47.29487" lon="-2.38445">
        <ele>38.400001525879</ele>
        <time>2019-12-29T09:09:05.000Z</time>
      </trkpt>
      <trkpt lat="47.29485" lon="-2.38449">
        <ele>38</ele>
        <time>2019-12-29T09:09:06.000Z</time>
      </trkpt>
      <trkpt lat="47.29483" lon="-2.38453">
        <ele>37.599998474121</ele>
        <time>2019-12-29T09:09:07.000Z</time>
      </trkpt>
      <trkpt lat="47.29481" lon="-2.38457">
        <ele>37</ele>
        <time>2019-12-29T09:09:08.000Z</time>
      </trkpt>
      <trkpt lat="47.29479" lon="-2.38461">
        <ele>37</ele>
        <time>2019-12-29T09:09:09.000Z</time>
      </trkpt>
      <trkpt lat="47.29468" lon="-2.38483">
        <ele>37</ele>
        <time>2019-12-29T09:09:14.000Z</time>
      </trkpt>
      <trkpt lat="47.29465" lon="-2.38495">
        <ele>37</ele>
        <time>2019-12-29T09:09:16.000Z</time>
      </trkpt>
      <trkpt lat="47.29464" lon="-2.38513">
        <ele>37</ele>
        <time>2019-12-29T09:09:19.000Z</time>
      </trkpt>
      <trkpt lat="47.29463" lon="-2.38526">
        <ele>37</ele>
        <time>2019-12-29T09:09:21.000Z</time>
      </trkpt>
      <trkpt lat="47.29465" lon="-2.38532">
        <ele>37</ele>
        <time>2019-12-29T09:09:22.000Z</time>
      </trkpt>
      <trkpt lat="47.29466" lon="-2.38539">
        <ele>37</ele>
        <time>2019-12-29T09:09:23.000Z</time>
      </trkpt>
      <trkpt lat="47.29466" lon="-2.38559">
        <ele>37</ele>
        <time>2019-12-29T09:09:26.000Z</time>
      </trkpt>
      <trkpt lat="47.29466" lon="-2.38574">
        <ele>37</ele>
        <time>2019-12-29T09:09:28.000Z</time>
      </trkpt>
      <trkpt lat="47.2947" lon="-2.38621">
        <ele>37</ele>
        <time>2019-12-29T09:09:35.000Z</time>
      </trkpt>
      <trkpt lat="47.29473" lon="-2.38675">
        <ele>37</ele>
        <time>2019-12-29T09:09:43.000Z</time>
      </trkpt>
      <trkpt lat="47.29477" lon="-2.38717">
        <ele>37</ele>
        <time>2019-12-29T09:09:49.000Z</time>
      </trkpt>
      <trkpt lat="47.29478" lon="-2.38724">
        <ele>37</ele>
        <time>2019-12-29T09:09:50.000Z</time>
      </trkpt>
      <trkpt lat="47.29477" lon="-2.38772">
        <ele>37</ele>
        <time>2019-12-29T09:09:57.000Z</time>
      </trkpt>
      <trkpt lat="47.29477" lon="-2.38779">
        <ele>37.599998474121</ele>
        <time>2019-12-29T09:09:58.000Z</time>
      </trkpt>
      <trkpt lat="47.29477" lon="-2.38786">
        <ele>38</ele>
        <time>2019-12-29T09:09:59.000Z</time>
      </trkpt>
      <trkpt lat="47.29476" lon="-2.38792">
        <ele>38.400001525879</ele>
        <time>2019-12-29T09:10:00.000Z</time>
      </trkpt>
      <trkpt lat="47.29476" lon="-2.38799">
        <ele>38.799999237061</ele>
        <time>2019-12-29T09:10:01.000Z</time>
      </trkpt>
      <trkpt lat="47.29476" lon="-2.38805">
        <ele>39.200000762939</ele>
        <time>2019-12-29T09:10:02.000Z</time>
      </trkpt>
      <trkpt lat="47.29477" lon="-2.38826">
        <ele>39.200000762939</ele>
        <time>2019-12-29T09:10:05.000Z</time>
      </trkpt>
      <trkpt lat="47.29484" lon="-2.38866">
        <ele>39.200000762939</ele>
        <time>2019-12-29T09:10:11.000Z</time>
      </trkpt>
      <trkpt lat="47.29488" lon="-2.3888">
        <ele>39.200000762939</ele>
        <time>2019-12-29T09:10:13.000Z</time>
      </trkpt>
      <trkpt lat="47.29495" lon="-2.38908">
        <ele>39.200000762939</ele>
        <time>2019-12-29T09:10:17.000Z</time>
      </trkpt>
      <trkpt lat="47.295" lon="-2.38922">
        <ele>39.200000762939</ele>
        <time>2019-12-29T09:10:19.000Z</time>
      </trkpt>
      <trkpt lat="47.2951" lon="-2.38941">
        <ele>39.200000762939</ele>
        <time>2019-12-29T09:10:22.000Z</time>
      </trkpt>
      <trkpt lat="47.29522" lon="-2.38956">
        <ele>39.200000762939</ele>
        <time>2019-12-29T09:10:25.000Z</time>
      </trkpt>
      <trkpt lat="47.29536" lon="-2.38968">
        <ele>39.200000762939</ele>
        <time>2019-12-29T09:10:28.000Z</time>
      </trkpt>
      <trkpt lat="47.29566" lon="-2.38987">
        <ele>39.200000762939</ele>
        <time>2019-12-29T09:10:34.000Z</time>
      </trkpt>
      <trkpt lat="47.29576" lon="-2.38991">
        <ele>39.200000762939</ele>
        <time>2019-12-29T09:10:36.000Z</time>
      </trkpt>
      <trkpt lat="47.29605" lon="-2.39005">
        <ele>39.200000762939</ele>
        <time>2019-12-29T09:10:42.000Z</time>
      </trkpt>
      <trkpt lat="47.29615" lon="-2.39011">
        <ele>39.200000762939</ele>
        <time>2019-12-29T09:10:44.000Z</time>
      </trkpt>
      <trkpt lat="47.29624" lon="-2.39027">
        <ele>39.200000762939</ele>
        <time>2019-12-29T09:10:47.000Z</time>
      </trkpt>
      <trkpt lat="47.29628" lon="-2.39051">
        <ele>39.200000762939</ele>
        <time>2019-12-29T09:10:50.000Z</time>
      </trkpt>
      <trkpt lat="47.29629" lon="-2.3906">
        <ele>39.200000762939</ele>
        <time>2019-12-29T09:10:51.000Z</time>
      </trkpt>
      <trkpt lat="47.29629" lon="-2.39114">
        <ele>39.200000762939</ele>
        <time>2019-12-29T09:10:57.000Z</time>
      </trkpt>
      <trkpt lat="47.2963" lon="-2.39122">
        <ele>39.200000762939</ele>
        <time>2019-12-29T09:10:58.000Z</time>
      </trkpt>
      <trkpt lat="47.29635" lon="-2.39147">
        <ele>39.200000762939</ele>
        <time>2019-12-29T09:11:01.000Z</time>
      </trkpt>
      <trkpt lat="47.29638" lon="-2.39155">
        <ele>39.200000762939</ele>
        <time>2019-12-29T09:11:02.000Z</time>
      </trkpt>
      <trkpt lat="47.29655" lon="-2.39179">
        <ele>39.200000762939</ele>
        <time>2019-12-29T09:11:06.000Z</time>
      </trkpt>
      <trkpt lat="47.2966" lon="-2.39182">
        <ele>39.200000762939</ele>
        <time>2019-12-29T09:11:07.000Z</time>
      </trkpt>
      <trkpt lat="47.29664" lon="-2.39187">
        <ele>39.200000762939</ele>
        <time>2019-12-29T09:11:08.000Z</time>
      </trkpt>
      <trkpt lat="47.29666" lon="-2.39199">
        <ele>39.200000762939</ele>
        <time>2019-12-29T09:11:10.000Z</time>
      </trkpt>
      <trkpt lat="47.29661" lon="-2.39218">
        <ele>39.200000762939</ele>
        <time>2019-12-29T09:11:13.000Z</time>
      </trkpt>
      <trkpt lat="47.29659" lon="-2.39225">
        <ele>39.200000762939</ele>
        <time>2019-12-29T09:11:14.000Z</time>
      </trkpt>
      <trkpt lat="47.29655" lon="-2.39241">
        <ele>39.200000762939</ele>
        <time>2019-12-29T09:11:16.000Z</time>
      </trkpt>
      <trkpt lat="47.29652" lon="-2.39258">
        <ele>39.200000762939</ele>
        <time>2019-12-29T09:11:18.000Z</time>
      </trkpt>
      <trkpt lat="47.29651" lon="-2.39266">
        <ele>39.200000762939</ele>
        <time>2019-12-29T09:11:19.000Z</time>
      </trkpt>
      <trkpt lat="47.29645" lon="-2.39339">
        <ele>39.200000762939</ele>
        <time>2019-12-29T09:11:28.000Z</time>
      </trkpt>
      <trkpt lat="47.29644" lon="-2.39348">
        <ele>38.799999237061</ele>
        <time>2019-12-29T09:11:29.000Z</time>
      </trkpt>
      <trkpt lat="47.29644" lon="-2.39356">
        <ele>38.400001525879</ele>
        <time>2019-12-29T09:11:30.000Z</time>
      </trkpt>
      <trkpt lat="47.29643" lon="-2.39365">
        <ele>38</ele>
        <time>2019-12-29T09:11:31.000Z</time>
      </trkpt>
      <trkpt lat="47.29642" lon="-2.39373">
        <ele>37.599998474121</ele>
        <time>2019-12-29T09:11:32.000Z</time>
      </trkpt>
      <trkpt lat="47.29641" lon="-2.39381">
        <ele>37.200000762939</ele>
        <time>2019-12-29T09:11:33.000Z</time>
      </trkpt>
      <trkpt lat="47.29636" lon="-2.39397">
        <ele>37.200000762939</ele>
        <time>2019-12-29T09:11:35.000Z</time>
      </trkpt>
      <trkpt lat="47.29631" lon="-2.39424">
        <ele>37.200000762939</ele>
        <time>2019-12-29T09:11:38.000Z</time>
      </trkpt>
      <trkpt lat="47.2963" lon="-2.39433">
        <ele>37.200000762939</ele>
        <time>2019-12-29T09:11:39.000Z</time>
      </trkpt>
      <trkpt lat="47.29615" lon="-2.39462">
        <ele>37.200000762939</ele>
        <time>2019-12-29T09:11:43.000Z</time>
      </trkpt>
      <trkpt lat="47.29595" lon="-2.39494">
        <ele>37.200000762939</ele>
        <time>2019-12-29T09:11:48.000Z</time>
      </trkpt>
      <trkpt lat="47.29585" lon="-2.395">
        <ele>37.200000762939</ele>
        <time>2019-12-29T09:11:50.000Z</time>
      </trkpt>
      <trkpt lat="47.29571" lon="-2.39496">
        <ele>37.200000762939</ele>
        <time>2019-12-29T09:11:53.000Z</time>
      </trkpt>
      <trkpt lat="47.29558" lon="-2.395">
        <ele>37.200000762939</ele>
        <time>2019-12-29T09:11:56.000Z</time>
      </trkpt>
      <trkpt lat="47.29555" lon="-2.39508">
        <ele>37.200000762939</ele>
        <time>2019-12-29T09:11:58.000Z</time>
      </trkpt>
      <trkpt lat="47.29555" lon="-2.39512">
        <ele>37.200000762939</ele>
        <time>2019-12-29T09:11:59.000Z</time>
      </trkpt>
      <trkpt lat="47.29556" lon="-2.39528">
        <ele>37.200000762939</ele>
        <time>2019-12-29T09:12:04.000Z</time>
      </trkpt>
      <trkpt lat="47.29556" lon="-2.39534">
        <ele>37.599998474121</ele>
        <time>2019-12-29T09:12:06.000Z</time>
      </trkpt>
      <trkpt lat="47.29556" lon="-2.39537">
        <ele>38</ele>
        <time>2019-12-29T09:12:07.000Z</time>
      </trkpt>
      <trkpt lat="47.29556" lon="-2.39541">
        <ele>38.400001525879</ele>
        <time>2019-12-29T09:12:08.000Z</time>
      </trkpt>
      <trkpt lat="47.29558" lon="-2.39544">
        <ele>39.400001525879</ele>
        <time>2019-12-29T09:12:09.000Z</time>
      </trkpt>
      <trkpt lat="47.29566" lon="-2.39544">
        <ele>39.400001525879</ele>
        <time>2019-12-29T09:12:12.000Z</time>
      </trkpt>
      <trkpt lat="47.29569" lon="-2.39545">
        <ele>39.400001525879</ele>
        <time>2019-12-29T09:12:13.000Z</time>
      </trkpt>
      <trkpt lat="47.29574" lon="-2.39547">
        <ele>39.799999237061</ele>
        <time>2019-12-29T09:12:15.000Z</time>
      </trkpt>
      <trkpt lat="47.29576" lon="-2.39548">
        <ele>40.200000762939</ele>
        <time>2019-12-29T09:12:16.000Z</time>
      </trkpt>
      <trkpt lat="47.29579" lon="-2.39548">
        <ele>40.599998474121</ele>
        <time>2019-12-29T09:12:17.000Z</time>
      </trkpt>
      <trkpt lat="47.29581" lon="-2.39548">
        <ele>41</ele>
        <time>2019-12-29T09:12:18.000Z</time>
      </trkpt>
      <trkpt lat="47.29583" lon="-2.39548">
        <ele>41.599998474121</ele>
        <time>2019-12-29T09:12:19.000Z</time>
      </trkpt>
      <trkpt lat="47.29595" lon="-2.3955">
        <ele>41.599998474121</ele>
        <time>2019-12-29T09:12:24.000Z</time>
      </trkpt>
      <trkpt lat="47.29612" lon="-2.39552">
        <ele>41.599998474121</ele>
        <time>2019-12-29T09:12:29.000Z</time>
      </trkpt>
      <trkpt lat="47.29621" lon="-2.39553">
        <ele>41.599998474121</ele>
        <time>2019-12-29T09:12:32.000Z</time>
      </trkpt>
      <trkpt lat="47.29622" lon="-2.39558">
        <ele>41.599998474121</ele>
        <time>2019-12-29T09:12:34.000Z</time>
      </trkpt>
      <trkpt lat="47.29615" lon="-2.39563">
        <ele>41.599998474121</ele>
        <time>2019-12-29T09:12:37.000Z</time>
      </trkpt>
      <trkpt lat="47.29611" lon="-2.39564">
        <ele>41.599998474121</ele>
        <time>2019-12-29T09:12:38.000Z</time>
      </trkpt>
      <trkpt lat="47.29608" lon="-2.39567">
        <ele>41.200000762939</ele>
        <time>2019-12-29T09:12:39.000Z</time>
      </trkpt>
      <trkpt lat="47.29608" lon="-2.3957">
        <ele>40.799999237061</ele>
        <time>2019-12-29T09:12:40.000Z</time>
      </trkpt>
      <trkpt lat="47.29609" lon="-2.39572">
        <ele>40.400001525879</ele>
        <time>2019-12-29T09:12:41.000Z</time>
      </trkpt>
      <trkpt lat="47.29612" lon="-2.39573">
        <ele>40</ele>
        <time>2019-12-29T09:12:42.000Z</time>
      </trkpt>
      <trkpt lat="47.29616" lon="-2.39572">
        <ele>39.599998474121</ele>
        <time>2019-12-29T09:12:43.000Z</time>
      </trkpt>
      <trkpt lat="47.2962" lon="-2.39572">
        <ele>39.599998474121</ele>
        <time>2019-12-29T09:12:44.000Z</time>
      </trkpt>
      <trkpt lat="47.29624" lon="-2.39574">
        <ele>39.599998474121</ele>
        <time>2019-12-29T09:12:45.000Z</time>
      </trkpt>
      <trkpt lat="47.29626" lon="-2.39577">
        <ele>39</ele>
        <time>2019-12-29T09:12:46.000Z</time>
      </trkpt>
      <trkpt lat="47.29627" lon="-2.39582">
        <ele>38.599998474121</ele>
        <time>2019-12-29T09:12:47.000Z</time>
      </trkpt>
      <trkpt lat="47.29628" lon="-2.39588">
        <ele>38</ele>
        <time>2019-12-29T09:12:48.000Z</time>
      </trkpt>
      <trkpt lat="47.29628" lon="-2.39593">
        <ele>37.599998474121</ele>
        <time>2019-12-29T09:12:49.000Z</time>
      </trkpt>
      <trkpt lat="47.29628" lon="-2.39598">
        <ele>37</ele>
        <time>2019-12-29T09:12:50.000Z</time>
      </trkpt>
      <trkpt lat="47.29628" lon="-2.39604">
        <ele>37</ele>
        <time>2019-12-29T09:12:51.000Z</time>
      </trkpt>
      <trkpt lat="47.29626" lon="-2.39633">
        <ele>37</ele>
        <time>2019-12-29T09:12:55.000Z</time>
      </trkpt>
      <trkpt lat="47.29625" lon="-2.39641">
        <ele>37</ele>
        <time>2019-12-29T09:12:56.000Z</time>
      </trkpt>
      <trkpt lat="47.29619" lon="-2.39662">
        <ele>37</ele>
        <time>2019-12-29T09:12:59.000Z</time>
      </trkpt>
      <trkpt lat="47.29615" lon="-2.39669">
        <ele>37</ele>
        <time>2019-12-29T09:13:00.000Z</time>
      </trkpt>
      <trkpt lat="47.29596" lon="-2.39705">
        <ele>37</ele>
        <time>2019-12-29T09:13:06.000Z</time>
      </trkpt>
      <trkpt lat="47.29598" lon="-2.3972">
        <ele>37</ele>
        <time>2019-12-29T09:13:09.000Z</time>
      </trkpt>
      <trkpt lat="47.29602" lon="-2.39729">
        <ele>37</ele>
        <time>2019-12-29T09:13:11.000Z</time>
      </trkpt>
      <trkpt lat="47.29611" lon="-2.3975">
        <ele>37</ele>
        <time>2019-12-29T09:13:15.000Z</time>
      </trkpt>
      <trkpt lat="47.29615" lon="-2.39761">
        <ele>37</ele>
        <time>2019-12-29T09:13:17.000Z</time>
      </trkpt>
      <trkpt lat="47.29614" lon="-2.39778">
        <ele>37</ele>
        <time>2019-12-29T09:13:20.000Z</time>
      </trkpt>
      <trkpt lat="47.29607" lon="-2.39791">
        <ele>37</ele>
        <time>2019-12-29T09:13:23.000Z</time>
      </trkpt>
      <trkpt lat="47.29604" lon="-2.39796">
        <ele>37</ele>
        <time>2019-12-29T09:13:24.000Z</time>
      </trkpt>
      <trkpt lat="47.29601" lon="-2.39801">
        <ele>37</ele>
        <time>2019-12-29T09:13:25.000Z</time>
      </trkpt>
      <trkpt lat="47.29599" lon="-2.39816">
        <ele>37</ele>
        <time>2019-12-29T09:13:28.000Z</time>
      </trkpt>
      <trkpt lat="47.29601" lon="-2.3982">
        <ele>37</ele>
        <time>2019-12-29T09:13:29.000Z</time>
      </trkpt>
      <trkpt lat="47.29606" lon="-2.39835">
        <ele>37</ele>
        <time>2019-12-29T09:13:32.000Z</time>
      </trkpt>
      <trkpt lat="47.29607" lon="-2.39841">
        <ele>37</ele>
        <time>2019-12-29T09:13:33.000Z</time>
      </trkpt>
      <trkpt lat="47.29605" lon="-2.39852">
        <ele>37</ele>
        <time>2019-12-29T09:13:35.000Z</time>
      </trkpt>
      <trkpt lat="47.29601" lon="-2.39862">
        <ele>37</ele>
        <time>2019-12-29T09:13:37.000Z</time>
      </trkpt>
      <trkpt lat="47.296" lon="-2.39868">
        <ele>37</ele>
        <time>2019-12-29T09:13:38.000Z</time>
      </trkpt>
      <trkpt lat="47.296" lon="-2.3988">
        <ele>37</ele>
        <time>2019-12-29T09:13:40.000Z</time>
      </trkpt>
      <trkpt lat="47.29607" lon="-2.39896">
        <ele>37</ele>
        <time>2019-12-29T09:13:43.000Z</time>
      </trkpt>
      <trkpt lat="47.29614" lon="-2.39911">
        <ele>37</ele>
        <time>2019-12-29T09:13:46.000Z</time>
      </trkpt>
      <trkpt lat="47.29622" lon="-2.39924">
        <ele>37</ele>
        <time>2019-12-29T09:13:49.000Z</time>
      </trkpt>
      <trkpt lat="47.2963" lon="-2.39941">
        <ele>37</ele>
        <time>2019-12-29T09:13:53.000Z</time>
      </trkpt>
      <trkpt lat="47.29631" lon="-2.39945">
        <ele>37.400001525879</ele>
        <time>2019-12-29T09:13:54.000Z</time>
      </trkpt>
      <trkpt lat="47.29633" lon="-2.3995">
        <ele>37.799999237061</ele>
        <time>2019-12-29T09:13:55.000Z</time>
      </trkpt>
      <trkpt lat="47.29634" lon="-2.39954">
        <ele>38.400001525879</ele>
        <time>2019-12-29T09:13:56.000Z</time>
      </trkpt>
      <trkpt lat="47.29636" lon="-2.39958">
        <ele>38.799999237061</ele>
        <time>2019-12-29T09:13:57.000Z</time>
      </trkpt>
      <trkpt lat="47.29638" lon="-2.39961">
        <ele>39.200000762939</ele>
        <time>2019-12-29T09:13:58.000Z</time>
      </trkpt>
      <trkpt lat="47.29643" lon="-2.39979">
        <ele>39.200000762939</ele>
        <time>2019-12-29T09:14:02.000Z</time>
      </trkpt>
      <trkpt lat="47.29632" lon="-2.39995">
        <ele>39.200000762939</ele>
        <time>2019-12-29T09:14:06.000Z</time>
      </trkpt>
      <trkpt lat="47.29628" lon="-2.39998">
        <ele>39.200000762939</ele>
        <time>2019-12-29T09:14:07.000Z</time>
      </trkpt>
      <trkpt lat="47.29625" lon="-2.40001">
        <ele>39.200000762939</ele>
        <time>2019-12-29T09:14:08.000Z</time>
      </trkpt>
      <trkpt lat="47.29617" lon="-2.40008">
        <ele>39.200000762939</ele>
        <time>2019-12-29T09:14:10.000Z</time>
      </trkpt>
      <trkpt lat="47.29615" lon="-2.40013">
        <ele>39.200000762939</ele>
        <time>2019-12-29T09:14:11.000Z</time>
      </trkpt>
      <trkpt lat="47.29617" lon="-2.40032">
        <ele>39.200000762939</ele>
        <time>2019-12-29T09:14:14.000Z</time>
      </trkpt>
      <trkpt lat="47.29626" lon="-2.40049">
        <ele>39.200000762939</ele>
        <time>2019-12-29T09:14:18.000Z</time>
      </trkpt>
      <trkpt lat="47.29629" lon="-2.4006">
        <ele>39.200000762939</ele>
        <time>2019-12-29T09:14:22.000Z</time>
      </trkpt>
      <trkpt lat="47.2963" lon="-2.40062">
        <ele>39.200000762939</ele>
        <time>2019-12-29T09:14:23.000Z</time>
      </trkpt>
      <trkpt lat="47.29635" lon="-2.40068">
        <ele>39.200000762939</ele>
        <time>2019-12-29T09:14:27.000Z</time>
      </trkpt>
      <trkpt lat="47.29636" lon="-2.40069">
        <ele>39.200000762939</ele>
        <time>2019-12-29T09:14:28.000Z</time>
      </trkpt>
      <trkpt lat="47.29642" lon="-2.40078">
        <ele>39.200000762939</ele>
        <time>2019-12-29T09:14:33.000Z</time>
      </trkpt>
      <trkpt lat="47.29643" lon="-2.40081">
        <ele>39.599998474121</ele>
        <time>2019-12-29T09:14:34.000Z</time>
      </trkpt>
      <trkpt lat="47.29645" lon="-2.40085">
        <ele>40</ele>
        <time>2019-12-29T09:14:35.000Z</time>
      </trkpt>
      <trkpt lat="47.29646" lon="-2.4009">
        <ele>40.799999237061</ele>
        <time>2019-12-29T09:14:36.000Z</time>
      </trkpt>
      <trkpt lat="47.29647" lon="-2.40094">
        <ele>41.200000762939</ele>
        <time>2019-12-29T09:14:37.000Z</time>
      </trkpt>
      <trkpt lat="47.29649" lon="-2.40105">
        <ele>41.200000762939</ele>
        <time>2019-12-29T09:14:40.000Z</time>
      </trkpt>
      <trkpt lat="47.29653" lon="-2.40126">
        <ele>41.200000762939</ele>
        <time>2019-12-29T09:14:46.000Z</time>
      </trkpt>
      <trkpt lat="47.29654" lon="-2.40133">
        <ele>41.200000762939</ele>
        <time>2019-12-29T09:14:48.000Z</time>
      </trkpt>
      <trkpt lat="47.29659" lon="-2.40139">
        <ele>41.200000762939</ele>
        <time>2019-12-29T09:14:50.000Z</time>
      </trkpt>
      <trkpt lat="47.29661" lon="-2.40143">
        <ele>41.599998474121</ele>
        <time>2019-12-29T09:14:51.000Z</time>
      </trkpt>
      <trkpt lat="47.29662" lon="-2.40148">
        <ele>42</ele>
        <time>2019-12-29T09:14:52.000Z</time>
      </trkpt>
      <trkpt lat="47.29663" lon="-2.40153">
        <ele>42.400001525879</ele>
        <time>2019-12-29T09:14:53.000Z</time>
      </trkpt>
      <trkpt lat="47.29664" lon="-2.40158">
        <ele>42.799999237061</ele>
        <time>2019-12-29T09:14:54.000Z</time>
      </trkpt>
      <trkpt lat="47.29665" lon="-2.40164">
        <ele>43.200000762939</ele>
        <time>2019-12-29T09:14:55.000Z</time>
      </trkpt>
      <trkpt lat="47.29669" lon="-2.40196">
        <ele>43.200000762939</ele>
        <time>2019-12-29T09:15:00.000Z</time>
      </trkpt>
      <trkpt lat="47.29675" lon="-2.40237">
        <ele>43.200000762939</ele>
        <time>2019-12-29T09:15:07.000Z</time>
      </trkpt>
      <trkpt lat="47.29675" lon="-2.40251">
        <ele>43.599998474121</ele>
        <time>2019-12-29T09:15:10.000Z</time>
      </trkpt>
      <trkpt lat="47.29676" lon="-2.40257">
        <ele>44</ele>
        <time>2019-12-29T09:15:11.000Z</time>
      </trkpt>
      <trkpt lat="47.29676" lon="-2.40261">
        <ele>44.400001525879</ele>
        <time>2019-12-29T09:15:12.000Z</time>
      </trkpt>
      <trkpt lat="47.29676" lon="-2.40266">
        <ele>44.799999237061</ele>
        <time>2019-12-29T09:15:13.000Z</time>
      </trkpt>
      <trkpt lat="47.29677" lon="-2.40271">
        <ele>45.400001525879</ele>
        <time>2019-12-29T09:15:14.000Z</time>
      </trkpt>
      <trkpt lat="47.29671" lon="-2.40286">
        <ele>45.400001525879</ele>
        <time>2019-12-29T09:15:18.000Z</time>
      </trkpt>
      <trkpt lat="47.29666" lon="-2.40291">
        <ele>45.799999237061</ele>
        <time>2019-12-29T09:15:20.000Z</time>
      </trkpt>
      <trkpt lat="47.29663" lon="-2.40294">
        <ele>46.200000762939</ele>
        <time>2019-12-29T09:15:21.000Z</time>
      </trkpt>
      <trkpt lat="47.29662" lon="-2.40298">
        <ele>46.599998474121</ele>
        <time>2019-12-29T09:15:22.000Z</time>
      </trkpt>
      <trkpt lat="47.29662" lon="-2.40302">
        <ele>47</ele>
        <time>2019-12-29T09:15:23.000Z</time>
      </trkpt>
      <trkpt lat="47.29663" lon="-2.40306">
        <ele>47.400001525879</ele>
        <time>2019-12-29T09:15:24.000Z</time>
      </trkpt>
      <trkpt lat="47.29665" lon="-2.40316">
        <ele>47.400001525879</ele>
        <time>2019-12-29T09:15:26.000Z</time>
      </trkpt>
      <trkpt lat="47.29666" lon="-2.40321">
        <ele>47.400001525879</ele>
        <time>2019-12-29T09:15:27.000Z</time>
      </trkpt>
      <trkpt lat="47.29675" lon="-2.40337">
        <ele>47.400001525879</ele>
        <time>2019-12-29T09:15:31.000Z</time>
      </trkpt>
      <trkpt lat="47.29676" lon="-2.40343">
        <ele>47.400001525879</ele>
        <time>2019-12-29T09:15:32.000Z</time>
      </trkpt>
      <trkpt lat="47.29678" lon="-2.40354">
        <ele>47.400001525879</ele>
        <time>2019-12-29T09:15:34.000Z</time>
      </trkpt>
      <trkpt lat="47.29686" lon="-2.40375">
        <ele>47.400001525879</ele>
        <time>2019-12-29T09:15:39.000Z</time>
      </trkpt>
      <trkpt lat="47.29701" lon="-2.40384">
        <ele>47.400001525879</ele>
        <time>2019-12-29T09:15:45.000Z</time>
      </trkpt>
      <trkpt lat="47.29717" lon="-2.40378">
        <ele>47.400001525879</ele>
        <time>2019-12-29T09:15:50.000Z</time>
      </trkpt>
      <trkpt lat="47.29737" lon="-2.40363">
        <ele>47.400001525879</ele>
        <time>2019-12-29T09:15:56.000Z</time>
      </trkpt>
      <trkpt lat="47.29757" lon="-2.40351">
        <ele>47.400001525879</ele>
        <time>2019-12-29T09:16:02.000Z</time>
      </trkpt>
      <trkpt lat="47.29776" lon="-2.40347">
        <ele>47.400001525879</ele>
        <time>2019-12-29T09:16:08.000Z</time>
      </trkpt>
      <trkpt lat="47.29779" lon="-2.40364">
        <ele>47.400001525879</ele>
        <time>2019-12-29T09:16:11.000Z</time>
      </trkpt>
      <trkpt lat="47.29778" lon="-2.40392">
        <ele>47.400001525879</ele>
        <time>2019-12-29T09:16:15.000Z</time>
      </trkpt>
      <trkpt lat="47.29778" lon="-2.40399">
        <ele>47.400001525879</ele>
        <time>2019-12-29T09:16:16.000Z</time>
      </trkpt>
      <trkpt lat="47.29778" lon="-2.40407">
        <ele>46.400001525879</ele>
        <time>2019-12-29T09:16:17.000Z</time>
      </trkpt>
      <trkpt lat="47.29778" lon="-2.40415">
        <ele>46</ele>
        <time>2019-12-29T09:16:18.000Z</time>
      </trkpt>
      <trkpt lat="47.29778" lon="-2.40423">
        <ele>45.599998474121</ele>
        <time>2019-12-29T09:16:19.000Z</time>
      </trkpt>
      <trkpt lat="47.29778" lon="-2.40432">
        <ele>45.200000762939</ele>
        <time>2019-12-29T09:16:20.000Z</time>
      </trkpt>
      <trkpt lat="47.29779" lon="-2.40442">
        <ele>45.200000762939</ele>
        <time>2019-12-29T09:16:21.000Z</time>
      </trkpt>
      <trkpt lat="47.2978" lon="-2.40451">
        <ele>45.200000762939</ele>
        <time>2019-12-29T09:16:22.000Z</time>
      </trkpt>
      <trkpt lat="47.29784" lon="-2.40479">
        <ele>44.799999237061</ele>
        <time>2019-12-29T09:16:25.000Z</time>
      </trkpt>
      <trkpt lat="47.29786" lon="-2.40488">
        <ele>44.400001525879</ele>
        <time>2019-12-29T09:16:26.000Z</time>
      </trkpt>
      <trkpt lat="47.29788" lon="-2.40497">
        <ele>44</ele>
        <time>2019-12-29T09:16:27.000Z</time>
      </trkpt>
      <trkpt lat="47.2979" lon="-2.40507">
        <ele>43.599998474121</ele>
        <time>2019-12-29T09:16:28.000Z</time>
      </trkpt>
      <trkpt lat="47.29791" lon="-2.40516">
        <ele>43.200000762939</ele>
        <time>2019-12-29T09:16:29.000Z</time>
      </trkpt>
      <trkpt lat="47.29799" lon="-2.40569">
        <ele>43.200000762939</ele>
        <time>2019-12-29T09:16:35.000Z</time>
      </trkpt>
      <trkpt lat="47.29801" lon="-2.40577">
        <ele>42.799999237061</ele>
        <time>2019-12-29T09:16:36.000Z</time>
      </trkpt>
      <trkpt lat="47.29803" lon="-2.40584">
        <ele>42.200000762939</ele>
        <time>2019-12-29T09:16:37.000Z</time>
      </trkpt>
      <trkpt lat="47.29806" lon="-2.40591">
        <ele>41.799999237061</ele>
        <time>2019-12-29T09:16:38.000Z</time>
      </trkpt>
      <trkpt lat="47.29809" lon="-2.40596">
        <ele>41.400001525879</ele>
        <time>2019-12-29T09:16:39.000Z</time>
      </trkpt>
      <trkpt lat="47.29813" lon="-2.40601">
        <ele>41</ele>
        <time>2019-12-29T09:16:40.000Z</time>
      </trkpt>
      <trkpt lat="47.29828" lon="-2.40612">
        <ele>41</ele>
        <time>2019-12-29T09:16:43.000Z</time>
      </trkpt>
      <trkpt lat="47.29833" lon="-2.40617">
        <ele>41</ele>
        <time>2019-12-29T09:16:44.000Z</time>
      </trkpt>
      <trkpt lat="47.29848" lon="-2.4063">
        <ele>41</ele>
        <time>2019-12-29T09:16:47.000Z</time>
      </trkpt>
      <trkpt lat="47.29859" lon="-2.40638">
        <ele>41</ele>
        <time>2019-12-29T09:16:49.000Z</time>
      </trkpt>
      <trkpt lat="47.29875" lon="-2.40652">
        <ele>41</ele>
        <time>2019-12-29T09:16:52.000Z</time>
      </trkpt>
      <trkpt lat="47.29884" lon="-2.40661">
        <ele>41.400001525879</ele>
        <time>2019-12-29T09:16:54.000Z</time>
      </trkpt>
      <trkpt lat="47.29889" lon="-2.40666">
        <ele>42</ele>
        <time>2019-12-29T09:16:55.000Z</time>
      </trkpt>
      <trkpt lat="47.29894" lon="-2.4067">
        <ele>42.400001525879</ele>
        <time>2019-12-29T09:16:56.000Z</time>
      </trkpt>
      <trkpt lat="47.29899" lon="-2.40675">
        <ele>42.799999237061</ele>
        <time>2019-12-29T09:16:57.000Z</time>
      </trkpt>
      <trkpt lat="47.29905" lon="-2.4068">
        <ele>43.200000762939</ele>
        <time>2019-12-29T09:16:58.000Z</time>
      </trkpt>
      <trkpt lat="47.29915" lon="-2.40689">
        <ele>43.200000762939</ele>
        <time>2019-12-29T09:17:00.000Z</time>
      </trkpt>
      <trkpt lat="47.29964" lon="-2.40734">
        <ele>43.200000762939</ele>
        <time>2019-12-29T09:17:09.000Z</time>
      </trkpt>
      <trkpt lat="47.3" lon="-2.40768">
        <ele>43.200000762939</ele>
        <time>2019-12-29T09:17:16.000Z</time>
      </trkpt>
      <trkpt lat="47.30046" lon="-2.40809">
        <ele>43.200000762939</ele>
        <time>2019-12-29T09:17:24.000Z</time>
      </trkpt>
      <trkpt lat="47.30095" lon="-2.40854">
        <ele>43.200000762939</ele>
        <time>2019-12-29T09:17:32.000Z</time>
      </trkpt>
      <trkpt lat="47.30102" lon="-2.4086">
        <ele>43.200000762939</ele>
        <time>2019-12-29T09:17:33.000Z</time>
      </trkpt>
      <trkpt lat="47.30109" lon="-2.40866">
        <ele>42.799999237061</ele>
        <time>2019-12-29T09:17:34.000Z</time>
      </trkpt>
      <trkpt lat="47.30116" lon="-2.40871">
        <ele>42.400001525879</ele>
        <time>2019-12-29T09:17:35.000Z</time>
      </trkpt>
      <trkpt lat="47.30123" lon="-2.40877">
        <ele>42</ele>
        <time>2019-12-29T09:17:36.000Z</time>
      </trkpt>
      <trkpt lat="47.3013" lon="-2.40883">
        <ele>41.599998474121</ele>
        <time>2019-12-29T09:17:37.000Z</time>
      </trkpt>
      <trkpt lat="47.30137" lon="-2.40888">
        <ele>41.200000762939</ele>
        <time>2019-12-29T09:17:38.000Z</time>
      </trkpt>
      <trkpt lat="47.30152" lon="-2.40898">
        <ele>41.200000762939</ele>
        <time>2019-12-29T09:17:40.000Z</time>
      </trkpt>
      <trkpt lat="47.30197" lon="-2.40919">
        <ele>41.200000762939</ele>
        <time>2019-12-29T09:17:46.000Z</time>
      </trkpt>
      <trkpt lat="47.30248" lon="-2.40931">
        <ele>41.200000762939</ele>
        <time>2019-12-29T09:17:53.000Z</time>
      </trkpt>
      <trkpt lat="47.30295" lon="-2.40931">
        <ele>41.200000762939</ele>
        <time>2019-12-29T09:18:00.000Z</time>
      </trkpt>
      <trkpt lat="47.30347" lon="-2.40918">
        <ele>41.200000762939</ele>
        <time>2019-12-29T09:18:08.000Z</time>
      </trkpt>
      <trkpt lat="47.30404" lon="-2.40897">
        <ele>41.200000762939</ele>
        <time>2019-12-29T09:18:17.000Z</time>
      </trkpt>
      <trkpt lat="47.30454" lon="-2.4088">
        <ele>41.200000762939</ele>
        <time>2019-12-29T09:18:25.000Z</time>
      </trkpt>
      <trkpt lat="47.30504" lon="-2.40863">
        <ele>41.200000762939</ele>
        <time>2019-12-29T09:18:35.000Z</time>
      </trkpt>
      <trkpt lat="47.30524" lon="-2.40854">
        <ele>41.200000762939</ele>
        <time>2019-12-29T09:18:40.000Z</time>
      </trkpt>
      <trkpt lat="47.30552" lon="-2.40847">
        <ele>41.200000762939</ele>
        <time>2019-12-29T09:18:47.000Z</time>
      </trkpt>
      <trkpt lat="47.3058" lon="-2.4084">
        <ele>41.599998474121</ele>
        <time>2019-12-29T09:18:55.000Z</time>
      </trkpt>
      <trkpt lat="47.30582" lon="-2.40839">
        <ele>42</ele>
        <time>2019-12-29T09:18:56.000Z</time>
      </trkpt>
      <trkpt lat="47.30585" lon="-2.40839">
        <ele>42.400001525879</ele>
        <time>2019-12-29T09:18:57.000Z</time>
      </trkpt>
      <trkpt lat="47.30588" lon="-2.40838">
        <ele>42.799999237061</ele>
        <time>2019-12-29T09:18:58.000Z</time>
      </trkpt>
      <trkpt lat="47.3059" lon="-2.40838">
        <ele>43.200000762939</ele>
        <time>2019-12-29T09:18:59.000Z</time>
      </trkpt>
      <trkpt lat="47.30593" lon="-2.40837">
        <ele>43.200000762939</ele>
        <time>2019-12-29T09:19:00.000Z</time>
      </trkpt>
      <trkpt lat="47.306" lon="-2.40824">
        <ele>43.200000762939</ele>
        <time>2019-12-29T09:19:04.000Z</time>
      </trkpt>
      <trkpt lat="47.30595" lon="-2.40809">
        <ele>43.200000762939</ele>
        <time>2019-12-29T09:19:07.000Z</time>
      </trkpt>
      <trkpt lat="47.30592" lon="-2.40803">
        <ele>43.200000762939</ele>
        <time>2019-12-29T09:19:08.000Z</time>
      </trkpt>
      <trkpt lat="47.30584" lon="-2.40783">
        <ele>43.599998474121</ele>
        <time>2019-12-29T09:19:11.000Z</time>
      </trkpt>
      <trkpt lat="47.30581" lon="-2.40776">
        <ele>44</ele>
        <time>2019-12-29T09:19:12.000Z</time>
      </trkpt>
      <trkpt lat="47.30578" lon="-2.40769">
        <ele>44.400001525879</ele>
        <time>2019-12-29T09:19:13.000Z</time>
      </trkpt>
      <trkpt lat="47.30575" lon="-2.40761">
        <ele>45</ele>
        <time>2019-12-29T09:19:14.000Z</time>
      </trkpt>
      <trkpt lat="47.30572" lon="-2.40753">
        <ele>45.400001525879</ele>
        <time>2019-12-29T09:19:15.000Z</time>
      </trkpt>
      <trkpt lat="47.30558" lon="-2.4072">
        <ele>45.400001525879</ele>
        <time>2019-12-29T09:19:19.000Z</time>
      </trkpt>
      <trkpt lat="47.30548" lon="-2.40694">
        <ele>45.400001525879</ele>
        <time>2019-12-29T09:19:22.000Z</time>
      </trkpt>
      <trkpt lat="47.30538" lon="-2.40667">
        <ele>45</ele>
        <time>2019-12-29T09:19:25.000Z</time>
      </trkpt>
      <trkpt lat="47.30535" lon="-2.40658">
        <ele>44.599998474121</ele>
        <time>2019-12-29T09:19:26.000Z</time>
      </trkpt>
      <trkpt lat="47.30531" lon="-2.40649">
        <ele>44.200000762939</ele>
        <time>2019-12-29T09:19:27.000Z</time>
      </trkpt>
      <trkpt lat="47.30528" lon="-2.40641">
        <ele>43.799999237061</ele>
        <time>2019-12-29T09:19:28.000Z</time>
      </trkpt>
      <trkpt lat="47.30524" lon="-2.40633">
        <ele>43.400001525879</ele>
        <time>2019-12-29T09:19:29.000Z</time>
      </trkpt>
      <trkpt lat="47.30521" lon="-2.40624">
        <ele>43.400001525879</ele>
        <time>2019-12-29T09:19:30.000Z</time>
      </trkpt>
      <trkpt lat="47.30513" lon="-2.40608">
        <ele>43.400001525879</ele>
        <time>2019-12-29T09:19:32.000Z</time>
      </trkpt>
      <trkpt lat="47.30504" lon="-2.40585">
        <ele>43.400001525879</ele>
        <time>2019-12-29T09:19:35.000Z</time>
      </trkpt>
      <trkpt lat="47.30489" lon="-2.40541">
        <ele>43.400001525879</ele>
        <time>2019-12-29T09:19:40.000Z</time>
      </trkpt>
      <trkpt lat="47.30475" lon="-2.405">
        <ele>43.400001525879</ele>
        <time>2019-12-29T09:19:45.000Z</time>
      </trkpt>
      <trkpt lat="47.30472" lon="-2.40492">
        <ele>43.400001525879</ele>
        <time>2019-12-29T09:19:46.000Z</time>
      </trkpt>
      <trkpt lat="47.30454" lon="-2.40445">
        <ele>43.400001525879</ele>
        <time>2019-12-29T09:19:52.000Z</time>
      </trkpt>
      <trkpt lat="47.30434" lon="-2.40393">
        <ele>43.400001525879</ele>
        <time>2019-12-29T09:19:59.000Z</time>
      </trkpt>
      <trkpt lat="47.30432" lon="-2.40386">
        <ele>43.799999237061</ele>
        <time>2019-12-29T09:20:00.000Z</time>
      </trkpt>
      <trkpt lat="47.30429" lon="-2.40379">
        <ele>44.200000762939</ele>
        <time>2019-12-29T09:20:01.000Z</time>
      </trkpt>
      <trkpt lat="47.30426" lon="-2.40372">
        <ele>44.599998474121</ele>
        <time>2019-12-29T09:20:02.000Z</time>
      </trkpt>
      <trkpt lat="47.30423" lon="-2.40366">
        <ele>45</ele>
        <time>2019-12-29T09:20:03.000Z</time>
      </trkpt>
      <trkpt lat="47.30421" lon="-2.4036">
        <ele>45.400001525879</ele>
        <time>2019-12-29T09:20:04.000Z</time>
      </trkpt>
      <trkpt lat="47.30405" lon="-2.40322">
        <ele>45.799999237061</ele>
        <time>2019-12-29T09:20:10.000Z</time>
      </trkpt>
      <trkpt lat="47.30403" lon="-2.40317">
        <ele>46.200000762939</ele>
        <time>2019-12-29T09:20:11.000Z</time>
      </trkpt>
      <trkpt lat="47.304" lon="-2.4031">
        <ele>46.599998474121</ele>
        <time>2019-12-29T09:20:12.000Z</time>
      </trkpt>
      <trkpt lat="47.30397" lon="-2.40304">
        <ele>47</ele>
        <time>2019-12-29T09:20:13.000Z</time>
      </trkpt>
      <trkpt lat="47.30395" lon="-2.40298">
        <ele>47.400001525879</ele>
        <time>2019-12-29T09:20:14.000Z</time>
      </trkpt>
      <trkpt lat="47.30387" lon="-2.40278">
        <ele>47.400001525879</ele>
        <time>2019-12-29T09:20:17.000Z</time>
      </trkpt>
      <trkpt lat="47.30369" lon="-2.40226">
        <ele>47.400001525879</ele>
        <time>2019-12-29T09:20:25.000Z</time>
      </trkpt>
      <trkpt lat="47.30362" lon="-2.40206">
        <ele>47.400001525879</ele>
        <time>2019-12-29T09:20:28.000Z</time>
      </trkpt>
      <trkpt lat="47.30354" lon="-2.40196">
        <ele>47.400001525879</ele>
        <time>2019-12-29T09:20:30.000Z</time>
      </trkpt>
      <trkpt lat="47.30342" lon="-2.40181">
        <ele>47.400001525879</ele>
        <time>2019-12-29T09:20:33.000Z</time>
      </trkpt>
      <trkpt lat="47.30337" lon="-2.40168">
        <ele>47.400001525879</ele>
        <time>2019-12-29T09:20:35.000Z</time>
      </trkpt>
      <trkpt lat="47.30326" lon="-2.40131">
        <ele>47.400001525879</ele>
        <time>2019-12-29T09:20:40.000Z</time>
      </trkpt>
      <trkpt lat="47.30325" lon="-2.40123">
        <ele>47.400001525879</ele>
        <time>2019-12-29T09:20:41.000Z</time>
      </trkpt>
      <trkpt lat="47.30309" lon="-2.40068">
        <ele>47.400001525879</ele>
        <time>2019-12-29T09:20:48.000Z</time>
      </trkpt>
      <trkpt lat="47.30292" lon="-2.40022">
        <ele>47.400001525879</ele>
        <time>2019-12-29T09:20:54.000Z</time>
      </trkpt>
      <trkpt lat="47.30279" lon="-2.39975">
        <ele>47.400001525879</ele>
        <time>2019-12-29T09:21:00.000Z</time>
      </trkpt>
      <trkpt lat="47.30263" lon="-2.39918">
        <ele>47.400001525879</ele>
        <time>2019-12-29T09:21:07.000Z</time>
      </trkpt>
      <trkpt lat="47.30247" lon="-2.3987">
        <ele>47.400001525879</ele>
        <time>2019-12-29T09:21:13.000Z</time>
      </trkpt>
      <trkpt lat="47.30228" lon="-2.39809">
        <ele>47.400001525879</ele>
        <time>2019-12-29T09:21:21.000Z</time>
      </trkpt>
      <trkpt lat="47.30209" lon="-2.3975">
        <ele>47.400001525879</ele>
        <time>2019-12-29T09:21:29.000Z</time>
      </trkpt>
      <trkpt lat="47.30206" lon="-2.39742">
        <ele>47.799999237061</ele>
        <time>2019-12-29T09:21:30.000Z</time>
      </trkpt>
      <trkpt lat="47.30204" lon="-2.39735">
        <ele>48.200000762939</ele>
        <time>2019-12-29T09:21:31.000Z</time>
      </trkpt>
      <trkpt lat="47.30202" lon="-2.39728">
        <ele>48.599998474121</ele>
        <time>2019-12-29T09:21:32.000Z</time>
      </trkpt>
      <trkpt lat="47.30199" lon="-2.3972">
        <ele>49</ele>
        <time>2019-12-29T09:21:33.000Z</time>
      </trkpt>
      <trkpt lat="47.30197" lon="-2.39713">
        <ele>49.400001525879</ele>
        <time>2019-12-29T09:21:34.000Z</time>
      </trkpt>
      <trkpt lat="47.30189" lon="-2.39692">
        <ele>49.400001525879</ele>
        <time>2019-12-29T09:21:37.000Z</time>
      </trkpt>
      <trkpt lat="47.30186" lon="-2.39685">
        <ele>49.400001525879</ele>
        <time>2019-12-29T09:21:38.000Z</time>
      </trkpt>
      <trkpt lat="47.30177" lon="-2.39676">
        <ele>49.400001525879</ele>
        <time>2019-12-29T09:21:40.000Z</time>
      </trkpt>
      <trkpt lat="47.30157" lon="-2.39673">
        <ele>49.400001525879</ele>
        <time>2019-12-29T09:21:44.000Z</time>
      </trkpt>
      <trkpt lat="47.30144" lon="-2.39667">
        <ele>49.400001525879</ele>
        <time>2019-12-29T09:21:48.000Z</time>
      </trkpt>
      <trkpt lat="47.30146" lon="-2.39655">
        <ele>49.400001525879</ele>
        <time>2019-12-29T09:21:52.000Z</time>
      </trkpt>
      <trkpt lat="47.30155" lon="-2.39657">
        <ele>49.400001525879</ele>
        <time>2019-12-29T09:21:55.000Z</time>
      </trkpt>
      <trkpt lat="47.30159" lon="-2.39657">
        <ele>49.400001525879</ele>
        <time>2019-12-29T09:21:56.000Z</time>
      </trkpt>
      <trkpt lat="47.30189" lon="-2.39666">
        <ele>49.400001525879</ele>
        <time>2019-12-29T09:22:03.000Z</time>
      </trkpt>
      <trkpt lat="47.30214" lon="-2.3967">
        <ele>49.400001525879</ele>
        <time>2019-12-29T09:22:08.000Z</time>
      </trkpt>
      <trkpt lat="47.30225" lon="-2.39672">
        <ele>49.400001525879</ele>
        <time>2019-12-29T09:22:10.000Z</time>
      </trkpt>
      <trkpt lat="47.3026" lon="-2.39679">
        <ele>49.799999237061</ele>
        <time>2019-12-29T09:22:17.000Z</time>
      </trkpt>
      <trkpt lat="47.30265" lon="-2.3968">
        <ele>50.200000762939</ele>
        <time>2019-12-29T09:22:18.000Z</time>
      </trkpt>
      <trkpt lat="47.30271" lon="-2.39681">
        <ele>50.599998474121</ele>
        <time>2019-12-29T09:22:19.000Z</time>
      </trkpt>
      <trkpt lat="47.30276" lon="-2.39683">
        <ele>51</ele>
        <time>2019-12-29T09:22:20.000Z</time>
      </trkpt>
      <trkpt lat="47.30281" lon="-2.39683">
        <ele>51.400001525879</ele>
        <time>2019-12-29T09:22:21.000Z</time>
      </trkpt>
      <trkpt lat="47.30307" lon="-2.39691">
        <ele>51.400001525879</ele>
        <time>2019-12-29T09:22:26.000Z</time>
      </trkpt>
      <trkpt lat="47.30346" lon="-2.39706">
        <ele>51.400001525879</ele>
        <time>2019-12-29T09:22:34.000Z</time>
      </trkpt>
      <trkpt lat="47.30351" lon="-2.39708">
        <ele>51.400001525879</ele>
        <time>2019-12-29T09:22:35.000Z</time>
      </trkpt>
      <trkpt lat="47.30381" lon="-2.39726">
        <ele>51.799999237061</ele>
        <time>2019-12-29T09:22:41.000Z</time>
      </trkpt>
      <trkpt lat="47.30386" lon="-2.3973">
        <ele>52.400001525879</ele>
        <time>2019-12-29T09:22:42.000Z</time>
      </trkpt>
      <trkpt lat="47.30391" lon="-2.39733">
        <ele>52.799999237061</ele>
        <time>2019-12-29T09:22:43.000Z</time>
      </trkpt>
      <trkpt lat="47.30396" lon="-2.39736">
        <ele>53.200000762939</ele>
        <time>2019-12-29T09:22:44.000Z</time>
      </trkpt>
      <trkpt lat="47.30401" lon="-2.39739">
        <ele>53.599998474121</ele>
        <time>2019-12-29T09:22:45.000Z</time>
      </trkpt>
      <trkpt lat="47.30415" lon="-2.39749">
        <ele>53.599998474121</ele>
        <time>2019-12-29T09:22:48.000Z</time>
      </trkpt>
      <trkpt lat="47.30448" lon="-2.39778">
        <ele>53.599998474121</ele>
        <time>2019-12-29T09:22:55.000Z</time>
      </trkpt>
      <trkpt lat="47.30479" lon="-2.39811">
        <ele>54</ele>
        <time>2019-12-29T09:23:02.000Z</time>
      </trkpt>
      <trkpt lat="47.30484" lon="-2.39817">
        <ele>54.400001525879</ele>
        <time>2019-12-29T09:23:03.000Z</time>
      </trkpt>
      <trkpt lat="47.30488" lon="-2.39822">
        <ele>55</ele>
        <time>2019-12-29T09:23:04.000Z</time>
      </trkpt>
      <trkpt lat="47.30493" lon="-2.39827">
        <ele>55.400001525879</ele>
        <time>2019-12-29T09:23:05.000Z</time>
      </trkpt>
      <trkpt lat="47.30498" lon="-2.39832">
        <ele>55.799999237061</ele>
        <time>2019-12-29T09:23:06.000Z</time>
      </trkpt>
      <trkpt lat="47.30516" lon="-2.39852">
        <ele>55.799999237061</ele>
        <time>2019-12-29T09:23:10.000Z</time>
      </trkpt>
      <trkpt lat="47.30543" lon="-2.39884">
        <ele>56.200000762939</ele>
        <time>2019-12-29T09:23:16.000Z</time>
      </trkpt>
      <trkpt lat="47.30547" lon="-2.3989">
        <ele>56.599998474121</ele>
        <time>2019-12-29T09:23:17.000Z</time>
      </trkpt>
      <trkpt lat="47.30552" lon="-2.39895">
        <ele>57.599998474121</ele>
        <time>2019-12-29T09:23:18.000Z</time>
      </trkpt>
      <trkpt lat="47.30556" lon="-2.399">
        <ele>58</ele>
        <time>2019-12-29T09:23:19.000Z</time>
      </trkpt>
      <trkpt lat="47.30593" lon="-2.39942">
        <ele>58</ele>
        <time>2019-12-29T09:23:27.000Z</time>
      </trkpt>
      <trkpt lat="47.30633" lon="-2.39989">
        <ele>58</ele>
        <time>2019-12-29T09:23:36.000Z</time>
      </trkpt>
      <trkpt lat="47.30661" lon="-2.40017">
        <ele>58.400001525879</ele>
        <time>2019-12-29T09:23:42.000Z</time>
      </trkpt>
      <trkpt lat="47.30665" lon="-2.40022">
        <ele>58.799999237061</ele>
        <time>2019-12-29T09:23:43.000Z</time>
      </trkpt>
      <trkpt lat="47.3067" lon="-2.40026">
        <ele>59.200000762939</ele>
        <time>2019-12-29T09:23:44.000Z</time>
      </trkpt>
      <trkpt lat="47.30674" lon="-2.4003">
        <ele>59.599998474121</ele>
        <time>2019-12-29T09:23:45.000Z</time>
      </trkpt>
      <trkpt lat="47.30679" lon="-2.40034">
        <ele>60</ele>
        <time>2019-12-29T09:23:46.000Z</time>
      </trkpt>
      <trkpt lat="47.30713" lon="-2.4006">
        <ele>60</ele>
        <time>2019-12-29T09:23:53.000Z</time>
      </trkpt>
      <trkpt lat="47.30743" lon="-2.40079">
        <ele>60</ele>
        <time>2019-12-29T09:23:59.000Z</time>
      </trkpt>
      <trkpt lat="47.30759" lon="-2.40088">
        <ele>60.400001525879</ele>
        <time>2019-12-29T09:24:02.000Z</time>
      </trkpt>
      <trkpt lat="47.30764" lon="-2.40091">
        <ele>60.799999237061</ele>
        <time>2019-12-29T09:24:03.000Z</time>
      </trkpt>
      <trkpt lat="47.30769" lon="-2.40093">
        <ele>61.200000762939</ele>
        <time>2019-12-29T09:24:04.000Z</time>
      </trkpt>
      <trkpt lat="47.30775" lon="-2.40096">
        <ele>61.599998474121</ele>
        <time>2019-12-29T09:24:05.000Z</time>
      </trkpt>
      <trkpt lat="47.3078" lon="-2.40098">
        <ele>62</ele>
        <time>2019-12-29T09:24:06.000Z</time>
      </trkpt>
      <trkpt lat="47.30813" lon="-2.40108">
        <ele>62</ele>
        <time>2019-12-29T09:24:12.000Z</time>
      </trkpt>
      <trkpt lat="47.30847" lon="-2.40116">
        <ele>62</ele>
        <time>2019-12-29T09:24:18.000Z</time>
      </trkpt>
      <trkpt lat="47.30859" lon="-2.40118">
        <ele>62.599998474121</ele>
        <time>2019-12-29T09:24:20.000Z</time>
      </trkpt>
      <trkpt lat="47.30865" lon="-2.40118">
        <ele>63</ele>
        <time>2019-12-29T09:24:21.000Z</time>
      </trkpt>
      <trkpt lat="47.3087" lon="-2.40118">
        <ele>63.400001525879</ele>
        <time>2019-12-29T09:24:22.000Z</time>
      </trkpt>
      <trkpt lat="47.30876" lon="-2.40119">
        <ele>63.799999237061</ele>
        <time>2019-12-29T09:24:23.000Z</time>
      </trkpt>
      <trkpt lat="47.30881" lon="-2.4012">
        <ele>64.199996948242</ele>
        <time>2019-12-29T09:24:24.000Z</time>
      </trkpt>
      <trkpt lat="47.30892" lon="-2.4012">
        <ele>64.199996948242</ele>
        <time>2019-12-29T09:24:26.000Z</time>
      </trkpt>
      <trkpt lat="47.30932" lon="-2.4012">
        <ele>64.199996948242</ele>
        <time>2019-12-29T09:24:33.000Z</time>
      </trkpt>
      <trkpt lat="47.30978" lon="-2.40112">
        <ele>64.199996948242</ele>
        <time>2019-12-29T09:24:41.000Z</time>
      </trkpt>
      <trkpt lat="47.31001" lon="-2.40106">
        <ele>64.599998474121</ele>
        <time>2019-12-29T09:24:45.000Z</time>
      </trkpt>
      <trkpt lat="47.31006" lon="-2.40105">
        <ele>65</ele>
        <time>2019-12-29T09:24:46.000Z</time>
      </trkpt>
      <trkpt lat="47.31012" lon="-2.40103">
        <ele>65.400001525879</ele>
        <time>2019-12-29T09:24:47.000Z</time>
      </trkpt>
      <trkpt lat="47.31018" lon="-2.40101">
        <ele>65.800003051758</ele>
        <time>2019-12-29T09:24:48.000Z</time>
      </trkpt>
      <trkpt lat="47.31023" lon="-2.40099">
        <ele>66.199996948242</ele>
        <time>2019-12-29T09:24:49.000Z</time>
      </trkpt>
      <trkpt lat="47.31066" lon="-2.40086">
        <ele>66.199996948242</ele>
        <time>2019-12-29T09:24:57.000Z</time>
      </trkpt>
      <trkpt lat="47.31109" lon="-2.40071">
        <ele>66.199996948242</ele>
        <time>2019-12-29T09:25:05.000Z</time>
      </trkpt>
      <trkpt lat="47.31118" lon="-2.40069">
        <ele>66.599998474121</ele>
        <time>2019-12-29T09:25:07.000Z</time>
      </trkpt>
      <trkpt lat="47.31123" lon="-2.40069">
        <ele>67</ele>
        <time>2019-12-29T09:25:08.000Z</time>
      </trkpt>
      <trkpt lat="47.31128" lon="-2.40068">
        <ele>67.599998474121</ele>
        <time>2019-12-29T09:25:09.000Z</time>
      </trkpt>
      <trkpt lat="47.31132" lon="-2.40067">
        <ele>68</ele>
        <time>2019-12-29T09:25:10.000Z</time>
      </trkpt>
      <trkpt lat="47.31136" lon="-2.40066">
        <ele>68.400001525879</ele>
        <time>2019-12-29T09:25:11.000Z</time>
      </trkpt>
      <trkpt lat="47.3114" lon="-2.40063">
        <ele>68.400001525879</ele>
        <time>2019-12-29T09:25:12.000Z</time>
      </trkpt>
      <trkpt lat="47.31156" lon="-2.40059">
        <ele>68.400001525879</ele>
        <time>2019-12-29T09:25:16.000Z</time>
      </trkpt>
      <trkpt lat="47.31161" lon="-2.4006">
        <ele>68.400001525879</ele>
        <time>2019-12-29T09:25:17.000Z</time>
      </trkpt>
      <trkpt lat="47.31181" lon="-2.40058">
        <ele>68.400001525879</ele>
        <time>2019-12-29T09:25:21.000Z</time>
      </trkpt>
      <trkpt lat="47.31186" lon="-2.40059">
        <ele>68.400001525879</ele>
        <time>2019-12-29T09:25:22.000Z</time>
      </trkpt>
      <trkpt lat="47.31201" lon="-2.40069">
        <ele>68.400001525879</ele>
        <time>2019-12-29T09:25:25.000Z</time>
      </trkpt>
      <trkpt lat="47.31211" lon="-2.40091">
        <ele>68.400001525879</ele>
        <time>2019-12-29T09:25:28.000Z</time>
      </trkpt>
      <trkpt lat="47.31216" lon="-2.40108">
        <ele>68.400001525879</ele>
        <time>2019-12-29T09:25:30.000Z</time>
      </trkpt>
      <trkpt lat="47.31224" lon="-2.40134">
        <ele>68.400001525879</ele>
        <time>2019-12-29T09:25:33.000Z</time>
      </trkpt>
      <trkpt lat="47.31241" lon="-2.4019">
        <ele>68.400001525879</ele>
        <time>2019-12-29T09:25:40.000Z</time>
      </trkpt>
      <trkpt lat="47.31258" lon="-2.40242">
        <ele>68.400001525879</ele>
        <time>2019-12-29T09:25:47.000Z</time>
      </trkpt>
      <trkpt lat="47.31275" lon="-2.40293">
        <ele>68.800003051758</ele>
        <time>2019-12-29T09:25:54.000Z</time>
      </trkpt>
      <trkpt lat="47.31277" lon="-2.403">
        <ele>69.199996948242</ele>
        <time>2019-12-29T09:25:55.000Z</time>
      </trkpt>
      <trkpt lat="47.31279" lon="-2.40307">
        <ele>69.599998474121</ele>
        <time>2019-12-29T09:25:56.000Z</time>
      </trkpt>
      <trkpt lat="47.31282" lon="-2.40313">
        <ele>70.199996948242</ele>
        <time>2019-12-29T09:25:57.000Z</time>
      </trkpt>
      <trkpt lat="47.31284" lon="-2.40319">
        <ele>70.599998474121</ele>
        <time>2019-12-29T09:25:58.000Z</time>
      </trkpt>
      <trkpt lat="47.31291" lon="-2.40339">
        <ele>70.599998474121</ele>
        <time>2019-12-29T09:26:01.000Z</time>
      </trkpt>
      <trkpt lat="47.31293" lon="-2.40345">
        <ele>71</ele>
        <time>2019-12-29T09:26:02.000Z</time>
      </trkpt>
      <trkpt lat="47.31296" lon="-2.40352">
        <ele>71.400001525879</ele>
        <time>2019-12-29T09:26:03.000Z</time>
      </trkpt>
      <trkpt lat="47.31298" lon="-2.40358">
        <ele>71.800003051758</ele>
        <time>2019-12-29T09:26:04.000Z</time>
      </trkpt>
      <trkpt lat="47.31301" lon="-2.40364">
        <ele>72.199996948242</ele>
        <time>2019-12-29T09:26:05.000Z</time>
      </trkpt>
      <trkpt lat="47.31303" lon="-2.40371">
        <ele>72.599998474121</ele>
        <time>2019-12-29T09:26:06.000Z</time>
      </trkpt>
      <trkpt lat="47.31307" lon="-2.40384">
        <ele>72.599998474121</ele>
        <time>2019-12-29T09:26:08.000Z</time>
      </trkpt>
      <trkpt lat="47.31309" lon="-2.4039">
        <ele>73</ele>
        <time>2019-12-29T09:26:09.000Z</time>
      </trkpt>
      <trkpt lat="47.3131" lon="-2.40397">
        <ele>73.400001525879</ele>
        <time>2019-12-29T09:26:10.000Z</time>
      </trkpt>
      <trkpt lat="47.31312" lon="-2.40405">
        <ele>74.199996948242</ele>
        <time>2019-12-29T09:26:11.000Z</time>
      </trkpt>
      <trkpt lat="47.31314" lon="-2.40412">
        <ele>74.800003051758</ele>
        <time>2019-12-29T09:26:12.000Z</time>
      </trkpt>
      <trkpt lat="47.31316" lon="-2.4042">
        <ele>74.800003051758</ele>
        <time>2019-12-29T09:26:13.000Z</time>
      </trkpt>
      <trkpt lat="47.31325" lon="-2.40451">
        <ele>74.800003051758</ele>
        <time>2019-12-29T09:26:17.000Z</time>
      </trkpt>
      <trkpt lat="47.31329" lon="-2.40469">
        <ele>74.800003051758</ele>
        <time>2019-12-29T09:26:19.000Z</time>
      </trkpt>
      <trkpt lat="47.31341" lon="-2.40514">
        <ele>74.800003051758</ele>
        <time>2019-12-29T09:26:24.000Z</time>
      </trkpt>
      <trkpt lat="47.31346" lon="-2.4052">
        <ele>74.400001525879</ele>
        <time>2019-12-29T09:26:25.000Z</time>
      </trkpt>
      <trkpt lat="47.31352" lon="-2.40522">
        <ele>73.800003051758</ele>
        <time>2019-12-29T09:26:26.000Z</time>
      </trkpt>
      <trkpt lat="47.31359" lon="-2.40522">
        <ele>73.400001525879</ele>
        <time>2019-12-29T09:26:27.000Z</time>
      </trkpt>
      <trkpt lat="47.31365" lon="-2.40519">
        <ele>73</ele>
        <time>2019-12-29T09:26:28.000Z</time>
      </trkpt>
      <trkpt lat="47.3137" lon="-2.40516">
        <ele>72.599998474121</ele>
        <time>2019-12-29T09:26:29.000Z</time>
      </trkpt>
      <trkpt lat="47.31376" lon="-2.40513">
        <ele>72.599998474121</ele>
        <time>2019-12-29T09:26:30.000Z</time>
      </trkpt>
      <trkpt lat="47.31404" lon="-2.40497">
        <ele>71.800003051758</ele>
        <time>2019-12-29T09:26:35.000Z</time>
      </trkpt>
      <trkpt lat="47.3141" lon="-2.40494">
        <ele>71.400001525879</ele>
        <time>2019-12-29T09:26:36.000Z</time>
      </trkpt>
      <trkpt lat="47.31416" lon="-2.40491">
        <ele>71</ele>
        <time>2019-12-29T09:26:37.000Z</time>
      </trkpt>
      <trkpt lat="47.31421" lon="-2.40488">
        <ele>70.599998474121</ele>
        <time>2019-12-29T09:26:38.000Z</time>
      </trkpt>
      <trkpt lat="47.31443" lon="-2.40471">
        <ele>70.599998474121</ele>
        <time>2019-12-29T09:26:43.000Z</time>
      </trkpt>
      <trkpt lat="47.31451" lon="-2.40465">
        <ele>71</ele>
        <time>2019-12-29T09:26:45.000Z</time>
      </trkpt>
      <trkpt lat="47.31455" lon="-2.40462">
        <ele>71.599998474121</ele>
        <time>2019-12-29T09:26:46.000Z</time>
      </trkpt>
      <trkpt lat="47.31458" lon="-2.40458">
        <ele>72</ele>
        <time>2019-12-29T09:26:47.000Z</time>
      </trkpt>
      <trkpt lat="47.31462" lon="-2.40455">
        <ele>72.400001525879</ele>
        <time>2019-12-29T09:26:48.000Z</time>
      </trkpt>
      <trkpt lat="47.31465" lon="-2.40452">
        <ele>72.800003051758</ele>
        <time>2019-12-29T09:26:49.000Z</time>
      </trkpt>
      <trkpt lat="47.31471" lon="-2.40446">
        <ele>73.199996948242</ele>
        <time>2019-12-29T09:26:51.000Z</time>
      </trkpt>
      <trkpt lat="47.31474" lon="-2.40442">
        <ele>73.800003051758</ele>
        <time>2019-12-29T09:26:52.000Z</time>
      </trkpt>
      <trkpt lat="47.31477" lon="-2.40439">
        <ele>74.199996948242</ele>
        <time>2019-12-29T09:26:53.000Z</time>
      </trkpt>
      <trkpt lat="47.31481" lon="-2.40436">
        <ele>74.599998474121</ele>
        <time>2019-12-29T09:26:54.000Z</time>
      </trkpt>
      <trkpt lat="47.31484" lon="-2.40432">
        <ele>75</ele>
        <time>2019-12-29T09:26:55.000Z</time>
      </trkpt>
      <trkpt lat="47.31488" lon="-2.40428">
        <ele>75</ele>
        <time>2019-12-29T09:26:56.000Z</time>
      </trkpt>
      <trkpt lat="47.31491" lon="-2.40425">
        <ele>75</ele>
        <time>2019-12-29T09:26:57.000Z</time>
      </trkpt>
      <trkpt lat="47.31495" lon="-2.40422">
        <ele>75.400001525879</ele>
        <time>2019-12-29T09:26:58.000Z</time>
      </trkpt>
      <trkpt lat="47.31498" lon="-2.40418">
        <ele>76</ele>
        <time>2019-12-29T09:26:59.000Z</time>
      </trkpt>
      <trkpt lat="47.31502" lon="-2.40415">
        <ele>76.800003051758</ele>
        <time>2019-12-29T09:27:00.000Z</time>
      </trkpt>
      <trkpt lat="47.31506" lon="-2.40412">
        <ele>77.400001525879</ele>
        <time>2019-12-29T09:27:01.000Z</time>
      </trkpt>
      <trkpt lat="47.31509" lon="-2.40408">
        <ele>77.400001525879</ele>
        <time>2019-12-29T09:27:02.000Z</time>
      </trkpt>
      <trkpt lat="47.31534" lon="-2.40389">
        <ele>77.400001525879</ele>
        <time>2019-12-29T09:27:08.000Z</time>
      </trkpt>
      <trkpt lat="47.31543" lon="-2.40384">
        <ele>77.400001525879</ele>
        <time>2019-12-29T09:27:10.000Z</time>
      </trkpt>
      <trkpt lat="47.31557" lon="-2.40376">
        <ele>77.800003051758</ele>
        <time>2019-12-29T09:27:13.000Z</time>
      </trkpt>
      <trkpt lat="47.31562" lon="-2.40374">
        <ele>78.199996948242</ele>
        <time>2019-12-29T09:27:14.000Z</time>
      </trkpt>
      <trkpt lat="47.31567" lon="-2.40371">
        <ele>78.599998474121</ele>
        <time>2019-12-29T09:27:15.000Z</time>
      </trkpt>
      <trkpt lat="47.31571" lon="-2.40369">
        <ele>79</ele>
        <time>2019-12-29T09:27:16.000Z</time>
      </trkpt>
      <trkpt lat="47.31575" lon="-2.40367">
        <ele>79.400001525879</ele>
        <time>2019-12-29T09:27:17.000Z</time>
      </trkpt>
      <trkpt lat="47.31583" lon="-2.40363">
        <ele>79.400001525879</ele>
        <time>2019-12-29T09:27:19.000Z</time>
      </trkpt>
      <trkpt lat="47.31597" lon="-2.40356">
        <ele>79.400001525879</ele>
        <time>2019-12-29T09:27:23.000Z</time>
      </trkpt>
      <trkpt lat="47.31603" lon="-2.40354">
        <ele>79.400001525879</ele>
        <time>2019-12-29T09:27:24.000Z</time>
      </trkpt>
      <trkpt lat="47.31618" lon="-2.40351">
        <ele>79.400001525879</ele>
        <time>2019-12-29T09:27:27.000Z</time>
      </trkpt>
      <trkpt lat="47.31633" lon="-2.40349">
        <ele>79.400001525879</ele>
        <time>2019-12-29T09:27:30.000Z</time>
      </trkpt>
      <trkpt lat="47.31646" lon="-2.40338">
        <ele>79.400001525879</ele>
        <time>2019-12-29T09:27:34.000Z</time>
      </trkpt>
      <trkpt lat="47.31661" lon="-2.40334">
        <ele>79.400001525879</ele>
        <time>2019-12-29T09:27:39.000Z</time>
      </trkpt>
      <trkpt lat="47.31677" lon="-2.4033">
        <ele>79.400001525879</ele>
        <time>2019-12-29T09:27:44.000Z</time>
      </trkpt>
      <trkpt lat="47.3168" lon="-2.40327">
        <ele>79.400001525879</ele>
        <time>2019-12-29T09:27:47.000Z</time>
      </trkpt>
      <trkpt lat="47.3168" lon="-2.40327">
        <ele>79.400001525879</ele>
        <time>2019-12-29T09:27:48.000Z</time>
      </trkpt>
      <trkpt lat="47.31683" lon="-2.40331">
        <ele>79.400001525879</ele>
        <time>2019-12-29T09:28:31.000Z</time>
      </trkpt>
      <trkpt lat="47.31686" lon="-2.40333">
        <ele>79.400001525879</ele>
        <time>2019-12-29T09:28:33.000Z</time>
      </trkpt>
      <trkpt lat="47.31699" lon="-2.40343">
        <ele>79.400001525879</ele>
        <time>2019-12-29T09:28:40.000Z</time>
      </trkpt>
      <trkpt lat="47.31709" lon="-2.40352">
        <ele>79.400001525879</ele>
        <time>2019-12-29T09:28:45.000Z</time>
      </trkpt>
      <trkpt lat="47.31724" lon="-2.40364">
        <ele>79.400001525879</ele>
        <time>2019-12-29T09:28:50.000Z</time>
      </trkpt>
      <trkpt lat="47.31743" lon="-2.40379">
        <ele>79.400001525879</ele>
        <time>2019-12-29T09:28:55.000Z</time>
      </trkpt>
      <trkpt lat="47.31776" lon="-2.40404">
        <ele>79.400001525879</ele>
        <time>2019-12-29T09:29:02.000Z</time>
      </trkpt>
      <trkpt lat="47.31809" lon="-2.40429">
        <ele>79.400001525879</ele>
        <time>2019-12-29T09:29:09.000Z</time>
      </trkpt>
      <trkpt lat="47.31826" lon="-2.40443">
        <ele>79.400001525879</ele>
        <time>2019-12-29T09:29:13.000Z</time>
      </trkpt>
      <trkpt lat="47.31831" lon="-2.40447">
        <ele>79.400001525879</ele>
        <time>2019-12-29T09:29:14.000Z</time>
      </trkpt>
      <trkpt lat="47.31835" lon="-2.40449">
        <ele>79.800003051758</ele>
        <time>2019-12-29T09:29:15.000Z</time>
      </trkpt>
      <trkpt lat="47.31839" lon="-2.40452">
        <ele>80.400001525879</ele>
        <time>2019-12-29T09:29:16.000Z</time>
      </trkpt>
      <trkpt lat="47.31844" lon="-2.40456">
        <ele>81</ele>
        <time>2019-12-29T09:29:17.000Z</time>
      </trkpt>
      <trkpt lat="47.31848" lon="-2.40459">
        <ele>81.400001525879</ele>
        <time>2019-12-29T09:29:18.000Z</time>
      </trkpt>
      <trkpt lat="47.31852" lon="-2.40463">
        <ele>82</ele>
        <time>2019-12-29T09:29:19.000Z</time>
      </trkpt>
      <trkpt lat="47.31863" lon="-2.40472">
        <ele>82</ele>
        <time>2019-12-29T09:29:22.000Z</time>
      </trkpt>
      <trkpt lat="47.31872" lon="-2.40479">
        <ele>82</ele>
        <time>2019-12-29T09:29:24.000Z</time>
      </trkpt>
      <trkpt lat="47.31899" lon="-2.40502">
        <ele>82</ele>
        <time>2019-12-29T09:29:30.000Z</time>
      </trkpt>
      <trkpt lat="47.31914" lon="-2.40513">
        <ele>82</ele>
        <time>2019-12-29T09:29:33.000Z</time>
      </trkpt>
      <trkpt lat="47.31924" lon="-2.40522">
        <ele>82</ele>
        <time>2019-12-29T09:29:35.000Z</time>
      </trkpt>
      <trkpt lat="47.31948" lon="-2.40541">
        <ele>82</ele>
        <time>2019-12-29T09:29:40.000Z</time>
      </trkpt>
      <trkpt lat="47.31968" lon="-2.40558">
        <ele>82</ele>
        <time>2019-12-29T09:29:44.000Z</time>
      </trkpt>
      <trkpt lat="47.31973" lon="-2.40563">
        <ele>82.400001525879</ele>
        <time>2019-12-29T09:29:45.000Z</time>
      </trkpt>
      <trkpt lat="47.31978" lon="-2.40566">
        <ele>82.800003051758</ele>
        <time>2019-12-29T09:29:46.000Z</time>
      </trkpt>
      <trkpt lat="47.31983" lon="-2.4057">
        <ele>83.199996948242</ele>
        <time>2019-12-29T09:29:47.000Z</time>
      </trkpt>
      <trkpt lat="47.31989" lon="-2.40575">
        <ele>83.599998474121</ele>
        <time>2019-12-29T09:29:48.000Z</time>
      </trkpt>
      <trkpt lat="47.31994" lon="-2.40579">
        <ele>84</ele>
        <time>2019-12-29T09:29:49.000Z</time>
      </trkpt>
      <trkpt lat="47.32015" lon="-2.40596">
        <ele>84</ele>
        <time>2019-12-29T09:29:53.000Z</time>
      </trkpt>
      <trkpt lat="47.32035" lon="-2.40614">
        <ele>84</ele>
        <time>2019-12-29T09:29:57.000Z</time>
      </trkpt>
      <trkpt lat="47.32044" lon="-2.40622">
        <ele>84</ele>
        <time>2019-12-29T09:29:59.000Z</time>
      </trkpt>
      <trkpt lat="47.3206" lon="-2.40635">
        <ele>84.400001525879</ele>
        <time>2019-12-29T09:30:02.000Z</time>
      </trkpt>
      <trkpt lat="47.32065" lon="-2.4064">
        <ele>84.800003051758</ele>
        <time>2019-12-29T09:30:03.000Z</time>
      </trkpt>
      <trkpt lat="47.32071" lon="-2.40645">
        <ele>85.199996948242</ele>
        <time>2019-12-29T09:30:04.000Z</time>
      </trkpt>
      <trkpt lat="47.32076" lon="-2.4065">
        <ele>85.800003051758</ele>
        <time>2019-12-29T09:30:05.000Z</time>
      </trkpt>
      <trkpt lat="47.32082" lon="-2.40656">
        <ele>86.199996948242</ele>
        <time>2019-12-29T09:30:06.000Z</time>
      </trkpt>
      <trkpt lat="47.32121" lon="-2.40698">
        <ele>86.199996948242</ele>
        <time>2019-12-29T09:30:14.000Z</time>
      </trkpt>
      <trkpt lat="47.32143" lon="-2.40723">
        <ele>86.599998474121</ele>
        <time>2019-12-29T09:30:18.000Z</time>
      </trkpt>
      <trkpt lat="47.32147" lon="-2.40729">
        <ele>87</ele>
        <time>2019-12-29T09:30:19.000Z</time>
      </trkpt>
      <trkpt lat="47.32152" lon="-2.40735">
        <ele>87.400001525879</ele>
        <time>2019-12-29T09:30:20.000Z</time>
      </trkpt>
      <trkpt lat="47.32157" lon="-2.40741">
        <ele>87.800003051758</ele>
        <time>2019-12-29T09:30:21.000Z</time>
      </trkpt>
      <trkpt lat="47.32162" lon="-2.40746">
        <ele>88.199996948242</ele>
        <time>2019-12-29T09:30:22.000Z</time>
      </trkpt>
      <trkpt lat="47.32184" lon="-2.40776">
        <ele>88.199996948242</ele>
        <time>2019-12-29T09:30:27.000Z</time>
      </trkpt>
      <trkpt lat="47.32193" lon="-2.40791">
        <ele>88.199996948242</ele>
        <time>2019-12-29T09:30:30.000Z</time>
      </trkpt>
      <trkpt lat="47.32197" lon="-2.40793">
        <ele>88.199996948242</ele>
        <time>2019-12-29T09:30:31.000Z</time>
      </trkpt>
      <trkpt lat="47.32204" lon="-2.40802">
        <ele>88.199996948242</ele>
        <time>2019-12-29T09:30:33.000Z</time>
      </trkpt>
      <trkpt lat="47.32209" lon="-2.40809">
        <ele>88.199996948242</ele>
        <time>2019-12-29T09:30:35.000Z</time>
      </trkpt>
      <trkpt lat="47.32212" lon="-2.40815">
        <ele>88.199996948242</ele>
        <time>2019-12-29T09:30:36.000Z</time>
      </trkpt>
      <trkpt lat="47.32218" lon="-2.40821">
        <ele>88.199996948242</ele>
        <time>2019-12-29T09:30:38.000Z</time>
      </trkpt>
      <trkpt lat="47.3222" lon="-2.40826">
        <ele>88.199996948242</ele>
        <time>2019-12-29T09:30:39.000Z</time>
      </trkpt>
      <trkpt lat="47.32231" lon="-2.40842">
        <ele>88.199996948242</ele>
        <time>2019-12-29T09:30:42.000Z</time>
      </trkpt>
      <trkpt lat="47.32239" lon="-2.40853">
        <ele>88.199996948242</ele>
        <time>2019-12-29T09:30:44.000Z</time>
      </trkpt>
      <trkpt lat="47.32267" lon="-2.409">
        <ele>88.199996948242</ele>
        <time>2019-12-29T09:30:52.000Z</time>
      </trkpt>
      <trkpt lat="47.32289" lon="-2.40941">
        <ele>88.199996948242</ele>
        <time>2019-12-29T09:30:59.000Z</time>
      </trkpt>
      <trkpt lat="47.32315" lon="-2.40988">
        <ele>88.199996948242</ele>
        <time>2019-12-29T09:31:07.000Z</time>
      </trkpt>
      <trkpt lat="47.32324" lon="-2.41005">
        <ele>88.599998474121</ele>
        <time>2019-12-29T09:31:10.000Z</time>
      </trkpt>
      <trkpt lat="47.32328" lon="-2.41011">
        <ele>89</ele>
        <time>2019-12-29T09:31:11.000Z</time>
      </trkpt>
      <trkpt lat="47.32332" lon="-2.41017">
        <ele>89.400001525879</ele>
        <time>2019-12-29T09:31:12.000Z</time>
      </trkpt>
      <trkpt lat="47.32335" lon="-2.41024">
        <ele>89.800003051758</ele>
        <time>2019-12-29T09:31:13.000Z</time>
      </trkpt>
      <trkpt lat="47.32338" lon="-2.4103">
        <ele>90.199996948242</ele>
        <time>2019-12-29T09:31:14.000Z</time>
      </trkpt>
      <trkpt lat="47.32356" lon="-2.41063">
        <ele>90.199996948242</ele>
        <time>2019-12-29T09:31:21.000Z</time>
      </trkpt>
      <trkpt lat="47.32366" lon="-2.4108">
        <ele>90.199996948242</ele>
        <time>2019-12-29T09:31:26.000Z</time>
      </trkpt>
      <trkpt lat="47.32372" lon="-2.41093">
        <ele>90.199996948242</ele>
        <time>2019-12-29T09:31:30.000Z</time>
      </trkpt>
      <trkpt lat="47.32375" lon="-2.41098">
        <ele>90.199996948242</ele>
        <time>2019-12-29T09:31:32.000Z</time>
      </trkpt>
      <trkpt lat="47.32383" lon="-2.41109">
        <ele>90.199996948242</ele>
        <time>2019-12-29T09:31:37.000Z</time>
      </trkpt>
      <trkpt lat="47.32385" lon="-2.41109">
        <ele>90.199996948242</ele>
        <time>2019-12-29T09:31:38.000Z</time>
      </trkpt>
      <trkpt lat="47.3239" lon="-2.41106">
        <ele>90.199996948242</ele>
        <time>2019-12-29T09:31:41.000Z</time>
      </trkpt>
      <trkpt lat="47.32389" lon="-2.41095">
        <ele>90.199996948242</ele>
        <time>2019-12-29T09:31:44.000Z</time>
      </trkpt>
      <trkpt lat="47.32387" lon="-2.41072">
        <ele>90.199996948242</ele>
        <time>2019-12-29T09:31:49.000Z</time>
      </trkpt>
      <trkpt lat="47.32387" lon="-2.41066">
        <ele>90.199996948242</ele>
        <time>2019-12-29T09:31:50.000Z</time>
      </trkpt>
      <trkpt lat="47.32389" lon="-2.41047">
        <ele>90.199996948242</ele>
        <time>2019-12-29T09:31:53.000Z</time>
      </trkpt>
      <trkpt lat="47.32388" lon="-2.4104">
        <ele>90.199996948242</ele>
        <time>2019-12-29T09:31:54.000Z</time>
      </trkpt>
      <trkpt lat="47.32383" lon="-2.41024">
        <ele>91</ele>
        <time>2019-12-29T09:31:57.000Z</time>
      </trkpt>
      <trkpt lat="47.32382" lon="-2.4102">
        <ele>91.400001525879</ele>
        <time>2019-12-29T09:31:58.000Z</time>
      </trkpt>
      <trkpt lat="47.32382" lon="-2.41014">
        <ele>91.800003051758</ele>
        <time>2019-12-29T09:31:59.000Z</time>
      </trkpt>
      <trkpt lat="47.32381" lon="-2.4101">
        <ele>92.199996948242</ele>
        <time>2019-12-29T09:32:00.000Z</time>
      </trkpt>
      <trkpt lat="47.32378" lon="-2.40991">
        <ele>92.199996948242</ele>
        <time>2019-12-29T09:32:04.000Z</time>
      </trkpt>
      <trkpt lat="47.3237" lon="-2.4096">
        <ele>92.199996948242</ele>
        <time>2019-12-29T09:32:11.000Z</time>
      </trkpt>
      <trkpt lat="47.32366" lon="-2.40941">
        <ele>92.199996948242</ele>
        <time>2019-12-29T09:32:16.000Z</time>
      </trkpt>
      <trkpt lat="47.32362" lon="-2.40922">
        <ele>92.199996948242</ele>
        <time>2019-12-29T09:32:22.000Z</time>
      </trkpt>
      <trkpt lat="47.32356" lon="-2.40902">
        <ele>92.199996948242</ele>
        <time>2019-12-29T09:32:28.000Z</time>
      </trkpt>
      <trkpt lat="47.3235" lon="-2.40871">
        <ele>92.199996948242</ele>
        <time>2019-12-29T09:32:36.000Z</time>
      </trkpt>
      <trkpt lat="47.3235" lon="-2.40858">
        <ele>92.199996948242</ele>
        <time>2019-12-29T09:32:42.000Z</time>
      </trkpt>
      <trkpt lat="47.32349" lon="-2.40851">
        <ele>92.199996948242</ele>
        <time>2019-12-29T09:32:47.000Z</time>
      </trkpt>
      <trkpt lat="47.32351" lon="-2.40849">
        <ele>92.199996948242</ele>
        <time>2019-12-29T09:32:49.000Z</time>
      </trkpt>
      <trkpt lat="47.32353" lon="-2.4085">
        <ele>92.199996948242</ele>
        <time>2019-12-29T09:32:51.000Z</time>
      </trkpt>
      <trkpt lat="47.32353" lon="-2.40851">
        <ele>92.199996948242</ele>
        <time>2019-12-29T09:32:53.000Z</time>
      </trkpt>
      <trkpt lat="47.3235" lon="-2.40852">
        <ele>92.199996948242</ele>
        <time>2019-12-29T09:33:25.000Z</time>
      </trkpt>
      <trkpt lat="47.32344" lon="-2.40851">
        <ele>92.199996948242</ele>
        <time>2019-12-29T09:33:28.000Z</time>
      </trkpt>
      <trkpt lat="47.32334" lon="-2.40843">
        <ele>92.199996948242</ele>
        <time>2019-12-29T09:33:34.000Z</time>
      </trkpt>
      <trkpt lat="47.32332" lon="-2.40841">
        <ele>92.199996948242</ele>
        <time>2019-12-29T09:33:36.000Z</time>
      </trkpt>
      <trkpt lat="47.32333" lon="-2.40835">
        <ele>92.199996948242</ele>
        <time>2019-12-29T09:33:39.000Z</time>
      </trkpt>
      <trkpt lat="47.32338" lon="-2.4083">
        <ele>92.199996948242</ele>
        <time>2019-12-29T09:33:43.000Z</time>
      </trkpt>
      <trkpt lat="47.32341" lon="-2.40827">
        <ele>92.199996948242</ele>
        <time>2019-12-29T09:33:45.000Z</time>
      </trkpt>
      <trkpt lat="47.32352" lon="-2.40813">
        <ele>92.199996948242</ele>
        <time>2019-12-29T09:33:51.000Z</time>
      </trkpt>
      <trkpt lat="47.32363" lon="-2.408">
        <ele>92.199996948242</ele>
        <time>2019-12-29T09:33:57.000Z</time>
      </trkpt>
      <trkpt lat="47.32372" lon="-2.40788">
        <ele>92.199996948242</ele>
        <time>2019-12-29T09:34:03.000Z</time>
      </trkpt>
      <trkpt lat="47.32374" lon="-2.40773">
        <ele>92.199996948242</ele>
        <time>2019-12-29T09:34:09.000Z</time>
      </trkpt>
      <trkpt lat="47.32368" lon="-2.40772">
        <ele>92.199996948242</ele>
        <time>2019-12-29T09:34:13.000Z</time>
      </trkpt>
      <trkpt lat="47.32369" lon="-2.40777">
        <ele>92.199996948242</ele>
        <time>2019-12-29T09:34:17.000Z</time>
      </trkpt>
      <trkpt lat="47.32373" lon="-2.40783">
        <ele>92.199996948242</ele>
        <time>2019-12-29T09:34:22.000Z</time>
      </trkpt>
      <trkpt lat="47.32375" lon="-2.40785">
        <ele>92.199996948242</ele>
        <time>2019-12-29T09:34:25.000Z</time>
      </trkpt>
      <trkpt lat="47.32375" lon="-2.40785">
        <ele>92.199996948242</ele>
        <time>2019-12-29T09:34:26.000Z</time>
      </trkpt>
      <trkpt lat="47.32371" lon="-2.40792">
        <ele>92.199996948242</ele>
        <time>2019-12-29T09:34:51.000Z</time>
      </trkpt>
      <trkpt lat="47.32366" lon="-2.40796">
        <ele>92.199996948242</ele>
        <time>2019-12-29T09:34:53.000Z</time>
      </trkpt>
      <trkpt lat="47.32357" lon="-2.40801">
        <ele>92.199996948242</ele>
        <time>2019-12-29T09:34:58.000Z</time>
      </trkpt>
      <trkpt lat="47.32345" lon="-2.4081">
        <ele>92.199996948242</ele>
        <time>2019-12-29T09:35:05.000Z</time>
      </trkpt>
      <trkpt lat="47.32333" lon="-2.40818">
        <ele>92.199996948242</ele>
        <time>2019-12-29T09:35:10.000Z</time>
      </trkpt>
      <trkpt lat="47.32332" lon="-2.40821">
        <ele>92.199996948242</ele>
        <time>2019-12-29T09:35:11.000Z</time>
      </trkpt>
      <trkpt lat="47.32326" lon="-2.40829">
        <ele>92.199996948242</ele>
        <time>2019-12-29T09:35:14.000Z</time>
      </trkpt>
      <trkpt lat="47.32315" lon="-2.40827">
        <ele>92.199996948242</ele>
        <time>2019-12-29T09:35:18.000Z</time>
      </trkpt>
      <trkpt lat="47.32306" lon="-2.40821">
        <ele>92.199996948242</ele>
        <time>2019-12-29T09:35:21.000Z</time>
      </trkpt>
      <trkpt lat="47.32295" lon="-2.4081">
        <ele>92.199996948242</ele>
        <time>2019-12-29T09:35:25.000Z</time>
      </trkpt>
      <trkpt lat="47.32281" lon="-2.40797">
        <ele>92.199996948242</ele>
        <time>2019-12-29T09:35:30.000Z</time>
      </trkpt>
      <trkpt lat="47.32278" lon="-2.40789">
        <ele>91.800003051758</ele>
        <time>2019-12-29T09:35:32.000Z</time>
      </trkpt>
      <trkpt lat="47.32277" lon="-2.40784">
        <ele>91.400001525879</ele>
        <time>2019-12-29T09:35:33.000Z</time>
      </trkpt>
      <trkpt lat="47.32276" lon="-2.40779">
        <ele>91</ele>
        <time>2019-12-29T09:35:34.000Z</time>
      </trkpt>
      <trkpt lat="47.32276" lon="-2.40775">
        <ele>90.599998474121</ele>
        <time>2019-12-29T09:35:35.000Z</time>
      </trkpt>
      <trkpt lat="47.32276" lon="-2.40771">
        <ele>90</ele>
        <time>2019-12-29T09:35:36.000Z</time>
      </trkpt>
      <trkpt lat="47.32277" lon="-2.4076">
        <ele>90</ele>
        <time>2019-12-29T09:35:39.000Z</time>
      </trkpt>
      <trkpt lat="47.32279" lon="-2.40737">
        <ele>90</ele>
        <time>2019-12-29T09:35:46.000Z</time>
      </trkpt>
      <trkpt lat="47.32281" lon="-2.40711">
        <ele>90</ele>
        <time>2019-12-29T09:35:52.000Z</time>
      </trkpt>
      <trkpt lat="47.32283" lon="-2.40674">
        <ele>90</ele>
        <time>2019-12-29T09:35:59.000Z</time>
      </trkpt>
      <trkpt lat="47.32285" lon="-2.40649">
        <ele>90</ele>
        <time>2019-12-29T09:36:05.000Z</time>
      </trkpt>
      <trkpt lat="47.32288" lon="-2.40634">
        <ele>90</ele>
        <time>2019-12-29T09:36:11.000Z</time>
      </trkpt>
      <trkpt lat="47.32299" lon="-2.40624">
        <ele>90</ele>
        <time>2019-12-29T09:36:17.000Z</time>
      </trkpt>
      <trkpt lat="47.32312" lon="-2.40619">
        <ele>90</ele>
        <time>2019-12-29T09:36:23.000Z</time>
      </trkpt>
      <trkpt lat="47.32328" lon="-2.40609">
        <ele>90</ele>
        <time>2019-12-29T09:36:29.000Z</time>
      </trkpt>
      <trkpt lat="47.32346" lon="-2.40603">
        <ele>90</ele>
        <time>2019-12-29T09:36:34.000Z</time>
      </trkpt>
      <trkpt lat="47.3236" lon="-2.40599">
        <ele>90</ele>
        <time>2019-12-29T09:36:37.000Z</time>
      </trkpt>
      <trkpt lat="47.32369" lon="-2.40598">
        <ele>90</ele>
        <time>2019-12-29T09:36:39.000Z</time>
      </trkpt>
      <trkpt lat="47.32382" lon="-2.40597">
        <ele>90</ele>
        <time>2019-12-29T09:36:44.000Z</time>
      </trkpt>
      <trkpt lat="47.32389" lon="-2.40592">
        <ele>90</ele>
        <time>2019-12-29T09:36:50.000Z</time>
      </trkpt>
      <trkpt lat="47.32392" lon="-2.40592">
        <ele>90</ele>
        <time>2019-12-29T09:36:54.000Z</time>
      </trkpt>
      <trkpt lat="47.32392" lon="-2.40591">
        <ele>90</ele>
        <time>2019-12-29T09:36:55.000Z</time>
      </trkpt>
      <trkpt lat="47.32392" lon="-2.40593">
        <ele>90</ele>
        <time>2019-12-29T09:36:59.000Z</time>
      </trkpt>
      <trkpt lat="47.32391" lon="-2.40601">
        <ele>90</ele>
        <time>2019-12-29T09:37:02.000Z</time>
      </trkpt>
      <trkpt lat="47.32387" lon="-2.40609">
        <ele>90</ele>
        <time>2019-12-29T09:37:05.000Z</time>
      </trkpt>
      <trkpt lat="47.32384" lon="-2.40611">
        <ele>90</ele>
        <time>2019-12-29T09:37:06.000Z</time>
      </trkpt>
      <trkpt lat="47.32374" lon="-2.40618">
        <ele>90</ele>
        <time>2019-12-29T09:37:11.000Z</time>
      </trkpt>
      <trkpt lat="47.32374" lon="-2.40619">
        <ele>90</ele>
        <time>2019-12-29T09:37:12.000Z</time>
      </trkpt>
      <trkpt lat="47.32372" lon="-2.40619">
        <ele>90</ele>
        <time>2019-12-29T09:38:11.000Z</time>
      </trkpt>
      <trkpt lat="47.32373" lon="-2.40619">
        <ele>90</ele>
        <time>2019-12-29T09:38:12.000Z</time>
      </trkpt>
      <trkpt lat="47.32377" lon="-2.40616">
        <ele>90</ele>
        <time>2019-12-29T09:38:15.000Z</time>
      </trkpt>
      <trkpt lat="47.32382" lon="-2.40614">
        <ele>90</ele>
        <time>2019-12-29T09:38:17.000Z</time>
      </trkpt>
      <trkpt lat="47.32399" lon="-2.40602">
        <ele>90</ele>
        <time>2019-12-29T09:38:22.000Z</time>
      </trkpt>
      <trkpt lat="47.3242" lon="-2.40591">
        <ele>90.599998474121</ele>
        <time>2019-12-29T09:38:27.000Z</time>
      </trkpt>
      <trkpt lat="47.32424" lon="-2.4059">
        <ele>91</ele>
        <time>2019-12-29T09:38:28.000Z</time>
      </trkpt>
      <trkpt lat="47.32429" lon="-2.40588">
        <ele>91.400001525879</ele>
        <time>2019-12-29T09:38:29.000Z</time>
      </trkpt>
      <trkpt lat="47.32433" lon="-2.40587">
        <ele>92.199996948242</ele>
        <time>2019-12-29T09:38:30.000Z</time>
      </trkpt>
      <trkpt lat="47.32462" lon="-2.40579">
        <ele>92.199996948242</ele>
        <time>2019-12-29T09:38:37.000Z</time>
      </trkpt>
      <trkpt lat="47.32466" lon="-2.40579">
        <ele>92.199996948242</ele>
        <time>2019-12-29T09:38:38.000Z</time>
      </trkpt>
      <trkpt lat="47.32477" lon="-2.40584">
        <ele>92.199996948242</ele>
        <time>2019-12-29T09:38:41.000Z</time>
      </trkpt>
      <trkpt lat="47.3248" lon="-2.40589">
        <ele>92.199996948242</ele>
        <time>2019-12-29T09:38:42.000Z</time>
      </trkpt>
      <trkpt lat="47.32484" lon="-2.40601">
        <ele>92.199996948242</ele>
        <time>2019-12-29T09:38:44.000Z</time>
      </trkpt>
      <trkpt lat="47.32499" lon="-2.40653">
        <ele>92.199996948242</ele>
        <time>2019-12-29T09:38:52.000Z</time>
      </trkpt>
      <trkpt lat="47.32511" lon="-2.40692">
        <ele>92.199996948242</ele>
        <time>2019-12-29T09:38:59.000Z</time>
      </trkpt>
      <trkpt lat="47.32517" lon="-2.40707">
        <ele>92.199996948242</ele>
        <time>2019-12-29T09:39:02.000Z</time>
      </trkpt>
      <trkpt lat="47.32524" lon="-2.40729">
        <ele>92.599998474121</ele>
        <time>2019-12-29T09:39:06.000Z</time>
      </trkpt>
      <trkpt lat="47.32525" lon="-2.40734">
        <ele>93</ele>
        <time>2019-12-29T09:39:07.000Z</time>
      </trkpt>
      <trkpt lat="47.32527" lon="-2.40739">
        <ele>93.400001525879</ele>
        <time>2019-12-29T09:39:08.000Z</time>
      </trkpt>
      <trkpt lat="47.32529" lon="-2.40745">
        <ele>93.800003051758</ele>
        <time>2019-12-29T09:39:09.000Z</time>
      </trkpt>
      <trkpt lat="47.32532" lon="-2.4075">
        <ele>94.199996948242</ele>
        <time>2019-12-29T09:39:10.000Z</time>
      </trkpt>
      <trkpt lat="47.32539" lon="-2.40765">
        <ele>94.199996948242</ele>
        <time>2019-12-29T09:39:13.000Z</time>
      </trkpt>
      <trkpt lat="47.32553" lon="-2.40793">
        <ele>94.199996948242</ele>
        <time>2019-12-29T09:39:19.000Z</time>
      </trkpt>
      <trkpt lat="47.32561" lon="-2.40797">
        <ele>94.199996948242</ele>
        <time>2019-12-29T09:39:23.000Z</time>
      </trkpt>
      <trkpt lat="47.32566" lon="-2.40802">
        <ele>94.199996948242</ele>
        <time>2019-12-29T09:39:27.000Z</time>
      </trkpt>
      <trkpt lat="47.32566" lon="-2.40806">
        <ele>94.199996948242</ele>
        <time>2019-12-29T09:39:29.000Z</time>
      </trkpt>
      <trkpt lat="47.32565" lon="-2.40812">
        <ele>94.199996948242</ele>
        <time>2019-12-29T09:39:31.000Z</time>
      </trkpt>
      <trkpt lat="47.32564" lon="-2.40824">
        <ele>94.199996948242</ele>
        <time>2019-12-29T09:39:34.000Z</time>
      </trkpt>
      <trkpt lat="47.32562" lon="-2.40851">
        <ele>94.199996948242</ele>
        <time>2019-12-29T09:39:41.000Z</time>
      </trkpt>
      <trkpt lat="47.32559" lon="-2.40885">
        <ele>94.199996948242</ele>
        <time>2019-12-29T09:39:49.000Z</time>
      </trkpt>
      <trkpt lat="47.32555" lon="-2.4091">
        <ele>94.199996948242</ele>
        <time>2019-12-29T09:39:54.000Z</time>
      </trkpt>
      <trkpt lat="47.32549" lon="-2.40959">
        <ele>94.199996948242</ele>
        <time>2019-12-29T09:40:03.000Z</time>
      </trkpt>
      <trkpt lat="47.32543" lon="-2.40993">
        <ele>94.199996948242</ele>
        <time>2019-12-29T09:40:10.000Z</time>
      </trkpt>
      <trkpt lat="47.32539" lon="-2.41019">
        <ele>94.199996948242</ele>
        <time>2019-12-29T09:40:15.000Z</time>
      </trkpt>
      <trkpt lat="47.32532" lon="-2.41044">
        <ele>94.199996948242</ele>
        <time>2019-12-29T09:40:20.000Z</time>
      </trkpt>
      <trkpt lat="47.32532" lon="-2.4105">
        <ele>94.199996948242</ele>
        <time>2019-12-29T09:40:21.000Z</time>
      </trkpt>
      <trkpt lat="47.32536" lon="-2.41067">
        <ele>94.199996948242</ele>
        <time>2019-12-29T09:40:24.000Z</time>
      </trkpt>
      <trkpt lat="47.32545" lon="-2.41081">
        <ele>93.800003051758</ele>
        <time>2019-12-29T09:40:27.000Z</time>
      </trkpt>
      <trkpt lat="47.32548" lon="-2.41085">
        <ele>93.400001525879</ele>
        <time>2019-12-29T09:40:28.000Z</time>
      </trkpt>
      <trkpt lat="47.32552" lon="-2.4109">
        <ele>93</ele>
        <time>2019-12-29T09:40:29.000Z</time>
      </trkpt>
      <trkpt lat="47.32556" lon="-2.41094">
        <ele>92.599998474121</ele>
        <time>2019-12-29T09:40:30.000Z</time>
      </trkpt>
      <trkpt lat="47.3256" lon="-2.41098">
        <ele>92.199996948242</ele>
        <time>2019-12-29T09:40:31.000Z</time>
      </trkpt>
      <trkpt lat="47.32577" lon="-2.41114">
        <ele>92.199996948242</ele>
        <time>2019-12-29T09:40:35.000Z</time>
      </trkpt>
      <trkpt lat="47.32608" lon="-2.41149">
        <ele>91.800003051758</ele>
        <time>2019-12-29T09:40:42.000Z</time>
      </trkpt>
      <trkpt lat="47.32611" lon="-2.41152">
        <ele>91.199996948242</ele>
        <time>2019-12-29T09:40:43.000Z</time>
      </trkpt>
      <trkpt lat="47.32615" lon="-2.41153">
        <ele>90.800003051758</ele>
        <time>2019-12-29T09:40:44.000Z</time>
      </trkpt>
      <trkpt lat="47.32618" lon="-2.41151">
        <ele>90.400001525879</ele>
        <time>2019-12-29T09:40:45.000Z</time>
      </trkpt>
      <trkpt lat="47.32621" lon="-2.41148">
        <ele>90</ele>
        <time>2019-12-29T09:40:46.000Z</time>
      </trkpt>
      <trkpt lat="47.32626" lon="-2.4114">
        <ele>90</ele>
        <time>2019-12-29T09:40:48.000Z</time>
      </trkpt>
      <trkpt lat="47.32631" lon="-2.4113">
        <ele>90</ele>
        <time>2019-12-29T09:40:50.000Z</time>
      </trkpt>
      <trkpt lat="47.32633" lon="-2.41124">
        <ele>90</ele>
        <time>2019-12-29T09:40:51.000Z</time>
      </trkpt>
      <trkpt lat="47.32635" lon="-2.41117">
        <ele>90</ele>
        <time>2019-12-29T09:40:52.000Z</time>
      </trkpt>
      <trkpt lat="47.32639" lon="-2.411">
        <ele>90</ele>
        <time>2019-12-29T09:40:55.000Z</time>
      </trkpt>
      <trkpt lat="47.32645" lon="-2.41085">
        <ele>90</ele>
        <time>2019-12-29T09:40:58.000Z</time>
      </trkpt>
      <trkpt lat="47.32651" lon="-2.41077">
        <ele>90</ele>
        <time>2019-12-29T09:41:00.000Z</time>
      </trkpt>
      <trkpt lat="47.3266" lon="-2.41047">
        <ele>90</ele>
        <time>2019-12-29T09:41:05.000Z</time>
      </trkpt>
      <trkpt lat="47.32655" lon="-2.41029">
        <ele>90</ele>
        <time>2019-12-29T09:41:08.000Z</time>
      </trkpt>
      <trkpt lat="47.32653" lon="-2.41023">
        <ele>90</ele>
        <time>2019-12-29T09:41:09.000Z</time>
      </trkpt>
      <trkpt lat="47.32644" lon="-2.41001">
        <ele>90</ele>
        <time>2019-12-29T09:41:14.000Z</time>
      </trkpt>
      <trkpt lat="47.32641" lon="-2.40992">
        <ele>90</ele>
        <time>2019-12-29T09:41:19.000Z</time>
      </trkpt>
      <trkpt lat="47.32641" lon="-2.40989">
        <ele>90</ele>
        <time>2019-12-29T09:41:22.000Z</time>
      </trkpt>
      <trkpt lat="47.32641" lon="-2.4098">
        <ele>90</ele>
        <time>2019-12-29T09:41:46.000Z</time>
      </trkpt>
      <trkpt lat="47.32641" lon="-2.40978">
        <ele>90</ele>
        <time>2019-12-29T09:41:47.000Z</time>
      </trkpt>
      <trkpt lat="47.3264" lon="-2.40971">
        <ele>90</ele>
        <time>2019-12-29T09:41:50.000Z</time>
      </trkpt>
      <trkpt lat="47.32639" lon="-2.40968">
        <ele>90</ele>
        <time>2019-12-29T09:41:52.000Z</time>
      </trkpt>
      <trkpt lat="47.32639" lon="-2.40968">
        <ele>90</ele>
        <time>2019-12-29T09:41:53.000Z</time>
      </trkpt>
      <trkpt lat="47.32639" lon="-2.40968">
        <ele>90</ele>
        <time>2019-12-29T09:41:55.000Z</time>
      </trkpt>
      <trkpt lat="47.32641" lon="-2.40963">
        <ele>90</ele>
        <time>2019-12-29T09:41:57.000Z</time>
      </trkpt>
      <trkpt lat="47.32647" lon="-2.40946">
        <ele>90</ele>
        <time>2019-12-29T09:42:01.000Z</time>
      </trkpt>
      <trkpt lat="47.32653" lon="-2.40932">
        <ele>90.400001525879</ele>
        <time>2019-12-29T09:42:04.000Z</time>
      </trkpt>
      <trkpt lat="47.32655" lon="-2.40927">
        <ele>90.800003051758</ele>
        <time>2019-12-29T09:42:05.000Z</time>
      </trkpt>
      <trkpt lat="47.32657" lon="-2.40921">
        <ele>91.199996948242</ele>
        <time>2019-12-29T09:42:06.000Z</time>
      </trkpt>
      <trkpt lat="47.32659" lon="-2.40916">
        <ele>91.599998474121</ele>
        <time>2019-12-29T09:42:07.000Z</time>
      </trkpt>
      <trkpt lat="47.32661" lon="-2.4091">
        <ele>92</ele>
        <time>2019-12-29T09:42:08.000Z</time>
      </trkpt>
      <trkpt lat="47.32673" lon="-2.40881">
        <ele>92</ele>
        <time>2019-12-29T09:42:13.000Z</time>
      </trkpt>
      <trkpt lat="47.32675" lon="-2.40875">
        <ele>92</ele>
        <time>2019-12-29T09:42:14.000Z</time>
      </trkpt>
      <trkpt lat="47.32687" lon="-2.40831">
        <ele>92</ele>
        <time>2019-12-29T09:42:22.000Z</time>
      </trkpt>
      <trkpt lat="47.3269" lon="-2.40818">
        <ele>92</ele>
        <time>2019-12-29T09:42:26.000Z</time>
      </trkpt>
      <trkpt lat="47.3269" lon="-2.40818">
        <ele>92</ele>
        <time>2019-12-29T09:42:28.000Z</time>
      </trkpt>
      <trkpt lat="47.32691" lon="-2.40817">
        <ele>92</ele>
        <time>2019-12-29T09:42:39.000Z</time>
      </trkpt>
      <trkpt lat="47.32692" lon="-2.40816">
        <ele>92</ele>
        <time>2019-12-29T09:42:40.000Z</time>
      </trkpt>
      <trkpt lat="47.32693" lon="-2.40814">
        <ele>92</ele>
        <time>2019-12-29T09:42:42.000Z</time>
      </trkpt>
      <trkpt lat="47.32695" lon="-2.40814">
        <ele>90.800003051758</ele>
        <time>2019-12-29T09:42:45.000Z</time>
      </trkpt>
      <trkpt lat="47.32696" lon="-2.40813">
        <ele>90.400001525879</ele>
        <time>2019-12-29T09:42:46.000Z</time>
      </trkpt>
      <trkpt lat="47.32698" lon="-2.40811">
        <ele>90</ele>
        <time>2019-12-29T09:42:47.000Z</time>
      </trkpt>
      <trkpt lat="47.32709" lon="-2.40805">
        <ele>90</ele>
        <time>2019-12-29T09:42:51.000Z</time>
      </trkpt>
      <trkpt lat="47.32731" lon="-2.40796">
        <ele>90</ele>
        <time>2019-12-29T09:42:56.000Z</time>
      </trkpt>
      <trkpt lat="47.32756" lon="-2.40786">
        <ele>90</ele>
        <time>2019-12-29T09:43:01.000Z</time>
      </trkpt>
      <trkpt lat="47.3276" lon="-2.40782">
        <ele>90</ele>
        <time>2019-12-29T09:43:02.000Z</time>
      </trkpt>
      <trkpt lat="47.32765" lon="-2.40763">
        <ele>90</ele>
        <time>2019-12-29T09:43:05.000Z</time>
      </trkpt>
      <trkpt lat="47.32763" lon="-2.4075">
        <ele>90</ele>
        <time>2019-12-29T09:43:07.000Z</time>
      </trkpt>
      <trkpt lat="47.32761" lon="-2.40729">
        <ele>90</ele>
        <time>2019-12-29T09:43:10.000Z</time>
      </trkpt>
      <trkpt lat="47.32761" lon="-2.40681">
        <ele>90</ele>
        <time>2019-12-29T09:43:17.000Z</time>
      </trkpt>
      <trkpt lat="47.32763" lon="-2.40671">
        <ele>89.599998474121</ele>
        <time>2019-12-29T09:43:19.000Z</time>
      </trkpt>
      <trkpt lat="47.32765" lon="-2.40669">
        <ele>89.199996948242</ele>
        <time>2019-12-29T09:43:20.000Z</time>
      </trkpt>
      <trkpt lat="47.32767" lon="-2.40667">
        <ele>88.800003051758</ele>
        <time>2019-12-29T09:43:21.000Z</time>
      </trkpt>
      <trkpt lat="47.32769" lon="-2.40664">
        <ele>88.400001525879</ele>
        <time>2019-12-29T09:43:22.000Z</time>
      </trkpt>
      <trkpt lat="47.32771" lon="-2.40662">
        <ele>88</ele>
        <time>2019-12-29T09:43:23.000Z</time>
      </trkpt>
      <trkpt lat="47.32774" lon="-2.4066">
        <ele>88</ele>
        <time>2019-12-29T09:43:24.000Z</time>
      </trkpt>
      <trkpt lat="47.32777" lon="-2.40657">
        <ele>88</ele>
        <time>2019-12-29T09:43:25.000Z</time>
      </trkpt>
      <trkpt lat="47.32791" lon="-2.40644">
        <ele>88</ele>
        <time>2019-12-29T09:43:29.000Z</time>
      </trkpt>
      <trkpt lat="47.32822" lon="-2.40624">
        <ele>88</ele>
        <time>2019-12-29T09:43:36.000Z</time>
      </trkpt>
      <trkpt lat="47.32852" lon="-2.40611">
        <ele>88</ele>
        <time>2019-12-29T09:43:43.000Z</time>
      </trkpt>
      <trkpt lat="47.32856" lon="-2.40608">
        <ele>87.599998474121</ele>
        <time>2019-12-29T09:43:44.000Z</time>
      </trkpt>
      <trkpt lat="47.3286" lon="-2.40606">
        <ele>87.199996948242</ele>
        <time>2019-12-29T09:43:45.000Z</time>
      </trkpt>
      <trkpt lat="47.32863" lon="-2.40604">
        <ele>86.800003051758</ele>
        <time>2019-12-29T09:43:46.000Z</time>
      </trkpt>
      <trkpt lat="47.32866" lon="-2.40602">
        <ele>86.400001525879</ele>
        <time>2019-12-29T09:43:47.000Z</time>
      </trkpt>
      <trkpt lat="47.32869" lon="-2.40602">
        <ele>85.800003051758</ele>
        <time>2019-12-29T09:43:48.000Z</time>
      </trkpt>
      <trkpt lat="47.32875" lon="-2.40599">
        <ele>85.800003051758</ele>
        <time>2019-12-29T09:43:50.000Z</time>
      </trkpt>
      <trkpt lat="47.3288" lon="-2.40596">
        <ele>85.800003051758</ele>
        <time>2019-12-29T09:43:52.000Z</time>
      </trkpt>
      <trkpt lat="47.32887" lon="-2.4059">
        <ele>85.800003051758</ele>
        <time>2019-12-29T09:43:54.000Z</time>
      </trkpt>
      <trkpt lat="47.32899" lon="-2.40581">
        <ele>85.800003051758</ele>
        <time>2019-12-29T09:43:57.000Z</time>
      </trkpt>
      <trkpt lat="47.32903" lon="-2.40578">
        <ele>85.800003051758</ele>
        <time>2019-12-29T09:43:58.000Z</time>
      </trkpt>
      <trkpt lat="47.32917" lon="-2.40569">
        <ele>85.800003051758</ele>
        <time>2019-12-29T09:44:01.000Z</time>
      </trkpt>
      <trkpt lat="47.32927" lon="-2.40566">
        <ele>85.800003051758</ele>
        <time>2019-12-29T09:44:03.000Z</time>
      </trkpt>
      <trkpt lat="47.32942" lon="-2.40567">
        <ele>85.800003051758</ele>
        <time>2019-12-29T09:44:06.000Z</time>
      </trkpt>
      <trkpt lat="47.32947" lon="-2.40568">
        <ele>85.800003051758</ele>
        <time>2019-12-29T09:44:08.000Z</time>
      </trkpt>
      <trkpt lat="47.32949" lon="-2.40568">
        <ele>85.400001525879</ele>
        <time>2019-12-29T09:44:09.000Z</time>
      </trkpt>
      <trkpt lat="47.3295" lon="-2.40569">
        <ele>85</ele>
        <time>2019-12-29T09:44:10.000Z</time>
      </trkpt>
      <trkpt lat="47.32952" lon="-2.40568">
        <ele>84.599998474121</ele>
        <time>2019-12-29T09:44:11.000Z</time>
      </trkpt>
      <trkpt lat="47.32953" lon="-2.40567">
        <ele>84.199996948242</ele>
        <time>2019-12-29T09:44:12.000Z</time>
      </trkpt>
      <trkpt lat="47.32955" lon="-2.40566">
        <ele>83.800003051758</ele>
        <time>2019-12-29T09:44:13.000Z</time>
      </trkpt>
      <trkpt lat="47.32961" lon="-2.40558">
        <ele>83.800003051758</ele>
        <time>2019-12-29T09:44:17.000Z</time>
      </trkpt>
      <trkpt lat="47.32964" lon="-2.40554">
        <ele>83.800003051758</ele>
        <time>2019-12-29T09:44:18.000Z</time>
      </trkpt>
      <trkpt lat="47.32969" lon="-2.40546">
        <ele>83.800003051758</ele>
        <time>2019-12-29T09:44:20.000Z</time>
      </trkpt>
      <trkpt lat="47.32977" lon="-2.40542">
        <ele>83.800003051758</ele>
        <time>2019-12-29T09:44:22.000Z</time>
      </trkpt>
      <trkpt lat="47.32985" lon="-2.4054">
        <ele>83.800003051758</ele>
        <time>2019-12-29T09:44:24.000Z</time>
      </trkpt>
      <trkpt lat="47.3301" lon="-2.40537">
        <ele>83.800003051758</ele>
        <time>2019-12-29T09:44:29.000Z</time>
      </trkpt>
      <trkpt lat="47.33049" lon="-2.40536">
        <ele>83.800003051758</ele>
        <time>2019-12-29T09:44:37.000Z</time>
      </trkpt>
      <trkpt lat="47.33059" lon="-2.40538">
        <ele>83.800003051758</ele>
        <time>2019-12-29T09:44:39.000Z</time>
      </trkpt>
      <trkpt lat="47.33069" lon="-2.40545">
        <ele>83.800003051758</ele>
        <time>2019-12-29T09:44:41.000Z</time>
      </trkpt>
      <trkpt lat="47.33087" lon="-2.40566">
        <ele>83.800003051758</ele>
        <time>2019-12-29T09:44:45.000Z</time>
      </trkpt>
      <trkpt lat="47.33092" lon="-2.40579">
        <ele>83.800003051758</ele>
        <time>2019-12-29T09:44:47.000Z</time>
      </trkpt>
      <trkpt lat="47.33097" lon="-2.4059">
        <ele>83.800003051758</ele>
        <time>2019-12-29T09:44:49.000Z</time>
      </trkpt>
      <trkpt lat="47.33104" lon="-2.40606">
        <ele>83.800003051758</ele>
        <time>2019-12-29T09:44:54.000Z</time>
      </trkpt>
      <trkpt lat="47.33106" lon="-2.40614">
        <ele>83.800003051758</ele>
        <time>2019-12-29T09:45:00.000Z</time>
      </trkpt>
      <trkpt lat="47.33106" lon="-2.40614">
        <ele>83.800003051758</ele>
        <time>2019-12-29T09:45:01.000Z</time>
      </trkpt>
      <trkpt lat="47.33106" lon="-2.40613">
        <ele>83.800003051758</ele>
        <time>2019-12-29T09:45:34.000Z</time>
      </trkpt>
      <trkpt lat="47.33104" lon="-2.40607">
        <ele>83.800003051758</ele>
        <time>2019-12-29T09:45:36.000Z</time>
      </trkpt>
      <trkpt lat="47.33096" lon="-2.40586">
        <ele>83.800003051758</ele>
        <time>2019-12-29T09:45:40.000Z</time>
      </trkpt>
      <trkpt lat="47.33081" lon="-2.4056">
        <ele>83.800003051758</ele>
        <time>2019-12-29T09:45:45.000Z</time>
      </trkpt>
      <trkpt lat="47.33073" lon="-2.40552">
        <ele>83.800003051758</ele>
        <time>2019-12-29T09:45:47.000Z</time>
      </trkpt>
      <trkpt lat="47.33059" lon="-2.40544">
        <ele>83.800003051758</ele>
        <time>2019-12-29T09:45:50.000Z</time>
      </trkpt>
      <trkpt lat="47.3304" lon="-2.40541">
        <ele>83.800003051758</ele>
        <time>2019-12-29T09:45:54.000Z</time>
      </trkpt>
      <trkpt lat="47.33035" lon="-2.40541">
        <ele>83.800003051758</ele>
        <time>2019-12-29T09:45:55.000Z</time>
      </trkpt>
      <trkpt lat="47.32995" lon="-2.40544">
        <ele>83.800003051758</ele>
        <time>2019-12-29T09:46:03.000Z</time>
      </trkpt>
      <trkpt lat="47.32971" lon="-2.40547">
        <ele>83.800003051758</ele>
        <time>2019-12-29T09:46:08.000Z</time>
      </trkpt>
      <trkpt lat="47.32967" lon="-2.40551">
        <ele>83.800003051758</ele>
        <time>2019-12-29T09:46:09.000Z</time>
      </trkpt>
      <trkpt lat="47.32961" lon="-2.40567">
        <ele>83.800003051758</ele>
        <time>2019-12-29T09:46:12.000Z</time>
      </trkpt>
      <trkpt lat="47.3296" lon="-2.40573">
        <ele>83.800003051758</ele>
        <time>2019-12-29T09:46:13.000Z</time>
      </trkpt>
      <trkpt lat="47.32951" lon="-2.40625">
        <ele>83.800003051758</ele>
        <time>2019-12-29T09:46:21.000Z</time>
      </trkpt>
      <trkpt lat="47.32943" lon="-2.40672">
        <ele>84.199996948242</ele>
        <time>2019-12-29T09:46:28.000Z</time>
      </trkpt>
      <trkpt lat="47.32944" lon="-2.40679">
        <ele>84.599998474121</ele>
        <time>2019-12-29T09:46:29.000Z</time>
      </trkpt>
      <trkpt lat="47.32944" lon="-2.40686">
        <ele>85.199996948242</ele>
        <time>2019-12-29T09:46:30.000Z</time>
      </trkpt>
      <trkpt lat="47.32944" lon="-2.40693">
        <ele>85.599998474121</ele>
        <time>2019-12-29T09:46:31.000Z</time>
      </trkpt>
      <trkpt lat="47.32944" lon="-2.407">
        <ele>86</ele>
        <time>2019-12-29T09:46:32.000Z</time>
      </trkpt>
      <trkpt lat="47.32945" lon="-2.40707">
        <ele>86</ele>
        <time>2019-12-29T09:46:33.000Z</time>
      </trkpt>
      <trkpt lat="47.32946" lon="-2.40714">
        <ele>86</ele>
        <time>2019-12-29T09:46:34.000Z</time>
      </trkpt>
      <trkpt lat="47.32948" lon="-2.40734">
        <ele>86.400001525879</ele>
        <time>2019-12-29T09:46:37.000Z</time>
      </trkpt>
      <trkpt lat="47.32949" lon="-2.40741">
        <ele>86.800003051758</ele>
        <time>2019-12-29T09:46:38.000Z</time>
      </trkpt>
      <trkpt lat="47.32949" lon="-2.40747">
        <ele>87.199996948242</ele>
        <time>2019-12-29T09:46:39.000Z</time>
      </trkpt>
      <trkpt lat="47.3295" lon="-2.40754">
        <ele>87.599998474121</ele>
        <time>2019-12-29T09:46:40.000Z</time>
      </trkpt>
      <trkpt lat="47.32951" lon="-2.4076">
        <ele>88</ele>
        <time>2019-12-29T09:46:41.000Z</time>
      </trkpt>
      <trkpt lat="47.32957" lon="-2.40816">
        <ele>88</ele>
        <time>2019-12-29T09:46:49.000Z</time>
      </trkpt>
      <trkpt lat="47.32959" lon="-2.40831">
        <ele>88.400001525879</ele>
        <time>2019-12-29T09:46:51.000Z</time>
      </trkpt>
      <trkpt lat="47.3296" lon="-2.40839">
        <ele>88.800003051758</ele>
        <time>2019-12-29T09:46:52.000Z</time>
      </trkpt>
      <trkpt lat="47.32961" lon="-2.40847">
        <ele>89.199996948242</ele>
        <time>2019-12-29T09:46:53.000Z</time>
      </trkpt>
      <trkpt lat="47.32962" lon="-2.40855">
        <ele>89.599998474121</ele>
        <time>2019-12-29T09:46:54.000Z</time>
      </trkpt>
      <trkpt lat="47.32963" lon="-2.40863">
        <ele>90</ele>
        <time>2019-12-29T09:46:55.000Z</time>
      </trkpt>
      <trkpt lat="47.32964" lon="-2.40871">
        <ele>90</ele>
        <time>2019-12-29T09:46:56.000Z</time>
      </trkpt>
      <trkpt lat="47.3297" lon="-2.40934">
        <ele>90</ele>
        <time>2019-12-29T09:47:03.000Z</time>
      </trkpt>
      <trkpt lat="47.32978" lon="-2.41014">
        <ele>90</ele>
        <time>2019-12-29T09:47:11.000Z</time>
      </trkpt>
      <trkpt lat="47.3298" lon="-2.41025">
        <ele>90</ele>
        <time>2019-12-29T09:47:12.000Z</time>
      </trkpt>
      <trkpt lat="47.32985" lon="-2.41082">
        <ele>89.599998474121</ele>
        <time>2019-12-29T09:47:17.000Z</time>
      </trkpt>
      <trkpt lat="47.32987" lon="-2.41094">
        <ele>89.199996948242</ele>
        <time>2019-12-29T09:47:18.000Z</time>
      </trkpt>
      <trkpt lat="47.32988" lon="-2.41105">
        <ele>88.800003051758</ele>
        <time>2019-12-29T09:47:19.000Z</time>
      </trkpt>
      <trkpt lat="47.3299" lon="-2.41117">
        <ele>88.400001525879</ele>
        <time>2019-12-29T09:47:20.000Z</time>
      </trkpt>
      <trkpt lat="47.32991" lon="-2.41129">
        <ele>88</ele>
        <time>2019-12-29T09:47:21.000Z</time>
      </trkpt>
      <trkpt lat="47.32998" lon="-2.41199">
        <ele>88</ele>
        <time>2019-12-29T09:47:27.000Z</time>
      </trkpt>
      <trkpt lat="47.33" lon="-2.41238">
        <ele>88</ele>
        <time>2019-12-29T09:47:31.000Z</time>
      </trkpt>
      <trkpt lat="47.32999" lon="-2.41248">
        <ele>88</ele>
        <time>2019-12-29T09:47:32.000Z</time>
      </trkpt>
      <trkpt lat="47.32998" lon="-2.41259">
        <ele>87.599998474121</ele>
        <time>2019-12-29T09:47:33.000Z</time>
      </trkpt>
      <trkpt lat="47.32997" lon="-2.41269">
        <ele>87.199996948242</ele>
        <time>2019-12-29T09:47:34.000Z</time>
      </trkpt>
      <trkpt lat="47.32996" lon="-2.41282">
        <ele>86.199996948242</ele>
        <time>2019-12-29T09:47:35.000Z</time>
      </trkpt>
      <trkpt lat="47.32995" lon="-2.41293">
        <ele>85.800003051758</ele>
        <time>2019-12-29T09:47:36.000Z</time>
      </trkpt>
      <trkpt lat="47.32992" lon="-2.41318">
        <ele>85.800003051758</ele>
        <time>2019-12-29T09:47:38.000Z</time>
      </trkpt>
      <trkpt lat="47.32991" lon="-2.41332">
        <ele>85.400001525879</ele>
        <time>2019-12-29T09:47:39.000Z</time>
      </trkpt>
      <trkpt lat="47.32988" lon="-2.41344">
        <ele>85</ele>
        <time>2019-12-29T09:47:40.000Z</time>
      </trkpt>
      <trkpt lat="47.32986" lon="-2.41358">
        <ele>84.599998474121</ele>
        <time>2019-12-29T09:47:41.000Z</time>
      </trkpt>
      <trkpt lat="47.32983" lon="-2.41371">
        <ele>84.199996948242</ele>
        <time>2019-12-29T09:47:42.000Z</time>
      </trkpt>
      <trkpt lat="47.32981" lon="-2.41386">
        <ele>83.800003051758</ele>
        <time>2019-12-29T09:47:43.000Z</time>
      </trkpt>
      <trkpt lat="47.32978" lon="-2.41399">
        <ele>83.800003051758</ele>
        <time>2019-12-29T09:47:44.000Z</time>
      </trkpt>
      <trkpt lat="47.32971" lon="-2.41454">
        <ele>83.400001525879</ele>
        <time>2019-12-29T09:47:48.000Z</time>
      </trkpt>
      <trkpt lat="47.32969" lon="-2.41468">
        <ele>83</ele>
        <time>2019-12-29T09:47:49.000Z</time>
      </trkpt>
      <trkpt lat="47.32967" lon="-2.41482">
        <ele>82.599998474121</ele>
        <time>2019-12-29T09:47:50.000Z</time>
      </trkpt>
      <trkpt lat="47.32966" lon="-2.41495">
        <ele>82.199996948242</ele>
        <time>2019-12-29T09:47:51.000Z</time>
      </trkpt>
      <trkpt lat="47.32964" lon="-2.41507">
        <ele>81.800003051758</ele>
        <time>2019-12-29T09:47:52.000Z</time>
      </trkpt>
      <trkpt lat="47.32955" lon="-2.41563">
        <ele>81.800003051758</ele>
        <time>2019-12-29T09:47:57.000Z</time>
      </trkpt>
      <trkpt lat="47.32953" lon="-2.41573">
        <ele>81.800003051758</ele>
        <time>2019-12-29T09:47:58.000Z</time>
      </trkpt>
      <trkpt lat="47.32953" lon="-2.41601">
        <ele>81.800003051758</ele>
        <time>2019-12-29T09:48:01.000Z</time>
      </trkpt>
      <trkpt lat="47.32955" lon="-2.4161">
        <ele>81.800003051758</ele>
        <time>2019-12-29T09:48:02.000Z</time>
      </trkpt>
      <trkpt lat="47.32955" lon="-2.41618">
        <ele>81.800003051758</ele>
        <time>2019-12-29T09:48:03.000Z</time>
      </trkpt>
      <trkpt lat="47.32953" lon="-2.41635">
        <ele>81.800003051758</ele>
        <time>2019-12-29T09:48:05.000Z</time>
      </trkpt>
      <trkpt lat="47.32938" lon="-2.41648">
        <ele>81.800003051758</ele>
        <time>2019-12-29T09:48:08.000Z</time>
      </trkpt>
      <trkpt lat="47.32928" lon="-2.41646">
        <ele>81.800003051758</ele>
        <time>2019-12-29T09:48:10.000Z</time>
      </trkpt>
      <trkpt lat="47.32923" lon="-2.41647">
        <ele>81.800003051758</ele>
        <time>2019-12-29T09:48:11.000Z</time>
      </trkpt>
      <trkpt lat="47.32915" lon="-2.41656">
        <ele>81.400001525879</ele>
        <time>2019-12-29T09:48:14.000Z</time>
      </trkpt>
      <trkpt lat="47.32912" lon="-2.41659">
        <ele>81</ele>
        <time>2019-12-29T09:48:15.000Z</time>
      </trkpt>
      <trkpt lat="47.32911" lon="-2.41664">
        <ele>80.599998474121</ele>
        <time>2019-12-29T09:48:16.000Z</time>
      </trkpt>
      <trkpt lat="47.32909" lon="-2.41671">
        <ele>80.199996948242</ele>
        <time>2019-12-29T09:48:17.000Z</time>
      </trkpt>
      <trkpt lat="47.32908" lon="-2.41677">
        <ele>79.800003051758</ele>
        <time>2019-12-29T09:48:18.000Z</time>
      </trkpt>
      <trkpt lat="47.32906" lon="-2.4169">
        <ele>79.800003051758</ele>
        <time>2019-12-29T09:48:20.000Z</time>
      </trkpt>
      <trkpt lat="47.32909" lon="-2.41702">
        <ele>79.800003051758</ele>
        <time>2019-12-29T09:48:22.000Z</time>
      </trkpt>
      <trkpt lat="47.32916" lon="-2.41706">
        <ele>79.800003051758</ele>
        <time>2019-12-29T09:48:24.000Z</time>
      </trkpt>
      <trkpt lat="47.32917" lon="-2.4171">
        <ele>79.800003051758</ele>
        <time>2019-12-29T09:48:25.000Z</time>
      </trkpt>
      <trkpt lat="47.32911" lon="-2.41722">
        <ele>79.800003051758</ele>
        <time>2019-12-29T09:48:28.000Z</time>
      </trkpt>
      <trkpt lat="47.3291" lon="-2.41742">
        <ele>79.800003051758</ele>
        <time>2019-12-29T09:48:31.000Z</time>
      </trkpt>
      <trkpt lat="47.32909" lon="-2.41749">
        <ele>79.800003051758</ele>
        <time>2019-12-29T09:48:32.000Z</time>
      </trkpt>
      <trkpt lat="47.3291" lon="-2.41773">
        <ele>79.800003051758</ele>
        <time>2019-12-29T09:48:35.000Z</time>
      </trkpt>
      <trkpt lat="47.32912" lon="-2.4179">
        <ele>79.800003051758</ele>
        <time>2019-12-29T09:48:37.000Z</time>
      </trkpt>
      <trkpt lat="47.32915" lon="-2.41839">
        <ele>79.800003051758</ele>
        <time>2019-12-29T09:48:43.000Z</time>
      </trkpt>
      <trkpt lat="47.3291" lon="-2.41887">
        <ele>79.800003051758</ele>
        <time>2019-12-29T09:48:49.000Z</time>
      </trkpt>
      <trkpt lat="47.32907" lon="-2.41902">
        <ele>79.800003051758</ele>
        <time>2019-12-29T09:48:51.000Z</time>
      </trkpt>
      <trkpt lat="47.329" lon="-2.41929">
        <ele>79.800003051758</ele>
        <time>2019-12-29T09:48:55.000Z</time>
      </trkpt>
      <trkpt lat="47.32889" lon="-2.41975">
        <ele>79.800003051758</ele>
        <time>2019-12-29T09:49:02.000Z</time>
      </trkpt>
      <trkpt lat="47.32884" lon="-2.41998">
        <ele>79.800003051758</ele>
        <time>2019-12-29T09:49:05.000Z</time>
      </trkpt>
      <trkpt lat="47.32882" lon="-2.42023">
        <ele>79.800003051758</ele>
        <time>2019-12-29T09:49:08.000Z</time>
      </trkpt>
      <trkpt lat="47.32885" lon="-2.42071">
        <ele>79.800003051758</ele>
        <time>2019-12-29T09:49:14.000Z</time>
      </trkpt>
      <trkpt lat="47.32888" lon="-2.42094">
        <ele>79.800003051758</ele>
        <time>2019-12-29T09:49:17.000Z</time>
      </trkpt>
      <trkpt lat="47.3289" lon="-2.42107">
        <ele>79.800003051758</ele>
        <time>2019-12-29T09:49:19.000Z</time>
      </trkpt>
      <trkpt lat="47.32891" lon="-2.42114">
        <ele>79.800003051758</ele>
        <time>2019-12-29T09:49:20.000Z</time>
      </trkpt>
      <trkpt lat="47.32894" lon="-2.42126">
        <ele>80.199996948242</ele>
        <time>2019-12-29T09:49:22.000Z</time>
      </trkpt>
      <trkpt lat="47.32896" lon="-2.42132">
        <ele>80.599998474121</ele>
        <time>2019-12-29T09:49:23.000Z</time>
      </trkpt>
      <trkpt lat="47.32898" lon="-2.42138">
        <ele>81</ele>
        <time>2019-12-29T09:49:24.000Z</time>
      </trkpt>
      <trkpt lat="47.329" lon="-2.42143">
        <ele>81.400001525879</ele>
        <time>2019-12-29T09:49:25.000Z</time>
      </trkpt>
      <trkpt lat="47.32902" lon="-2.42149">
        <ele>81.800003051758</ele>
        <time>2019-12-29T09:49:26.000Z</time>
      </trkpt>
      <trkpt lat="47.32913" lon="-2.4218">
        <ele>81.800003051758</ele>
        <time>2019-12-29T09:49:31.000Z</time>
      </trkpt>
      <trkpt lat="47.32915" lon="-2.42186">
        <ele>81.800003051758</ele>
        <time>2019-12-29T09:49:32.000Z</time>
      </trkpt>
      <trkpt lat="47.32921" lon="-2.42203">
        <ele>82.199996948242</ele>
        <time>2019-12-29T09:49:35.000Z</time>
      </trkpt>
      <trkpt lat="47.32923" lon="-2.42208">
        <ele>82.599998474121</ele>
        <time>2019-12-29T09:49:36.000Z</time>
      </trkpt>
      <trkpt lat="47.32926" lon="-2.42212">
        <ele>83</ele>
        <time>2019-12-29T09:49:37.000Z</time>
      </trkpt>
      <trkpt lat="47.32928" lon="-2.42217">
        <ele>83.800003051758</ele>
        <time>2019-12-29T09:49:38.000Z</time>
      </trkpt>
      <trkpt lat="47.32942" lon="-2.42249">
        <ele>83.800003051758</ele>
        <time>2019-12-29T09:49:44.000Z</time>
      </trkpt>
      <trkpt lat="47.32948" lon="-2.42263">
        <ele>83.800003051758</ele>
        <time>2019-12-29T09:49:46.000Z</time>
      </trkpt>
      <trkpt lat="47.32956" lon="-2.42282">
        <ele>83.800003051758</ele>
        <time>2019-12-29T09:49:49.000Z</time>
      </trkpt>
      <trkpt lat="47.32962" lon="-2.42294">
        <ele>83.800003051758</ele>
        <time>2019-12-29T09:49:51.000Z</time>
      </trkpt>
      <trkpt lat="47.32973" lon="-2.42318">
        <ele>83.800003051758</ele>
        <time>2019-12-29T09:49:55.000Z</time>
      </trkpt>
      <trkpt lat="47.32987" lon="-2.42353">
        <ele>83.800003051758</ele>
        <time>2019-12-29T09:50:01.000Z</time>
      </trkpt>
      <trkpt lat="47.32992" lon="-2.42365">
        <ele>84.199996948242</ele>
        <time>2019-12-29T09:50:03.000Z</time>
      </trkpt>
      <trkpt lat="47.32995" lon="-2.42371">
        <ele>84.599998474121</ele>
        <time>2019-12-29T09:50:04.000Z</time>
      </trkpt>
      <trkpt lat="47.32997" lon="-2.42377">
        <ele>85</ele>
        <time>2019-12-29T09:50:05.000Z</time>
      </trkpt>
      <trkpt lat="47.33" lon="-2.42383">
        <ele>85.400001525879</ele>
        <time>2019-12-29T09:50:06.000Z</time>
      </trkpt>
      <trkpt lat="47.33002" lon="-2.42389">
        <ele>85.800003051758</ele>
        <time>2019-12-29T09:50:07.000Z</time>
      </trkpt>
      <trkpt lat="47.33006" lon="-2.424">
        <ele>85.800003051758</ele>
        <time>2019-12-29T09:50:09.000Z</time>
      </trkpt>
      <trkpt lat="47.33011" lon="-2.42415">
        <ele>85.800003051758</ele>
        <time>2019-12-29T09:50:12.000Z</time>
      </trkpt>
      <trkpt lat="47.33021" lon="-2.42423">
        <ele>85.800003051758</ele>
        <time>2019-12-29T09:50:16.000Z</time>
      </trkpt>
      <trkpt lat="47.33034" lon="-2.42431">
        <ele>85.800003051758</ele>
        <time>2019-12-29T09:50:21.000Z</time>
      </trkpt>
      <trkpt lat="47.33038" lon="-2.42438">
        <ele>85.800003051758</ele>
        <time>2019-12-29T09:50:24.000Z</time>
      </trkpt>
      <trkpt lat="47.33039" lon="-2.42441">
        <ele>85.800003051758</ele>
        <time>2019-12-29T09:50:25.000Z</time>
      </trkpt>
      <trkpt lat="47.33046" lon="-2.42464">
        <ele>85.800003051758</ele>
        <time>2019-12-29T09:50:29.000Z</time>
      </trkpt>
      <trkpt lat="47.33049" lon="-2.4247">
        <ele>85.800003051758</ele>
        <time>2019-12-29T09:50:30.000Z</time>
      </trkpt>
      <trkpt lat="47.33064" lon="-2.42507">
        <ele>85.800003051758</ele>
        <time>2019-12-29T09:50:35.000Z</time>
      </trkpt>
      <trkpt lat="47.33073" lon="-2.4253">
        <ele>85.800003051758</ele>
        <time>2019-12-29T09:50:38.000Z</time>
      </trkpt>
      <trkpt lat="47.3308" lon="-2.42543">
        <ele>85.800003051758</ele>
        <time>2019-12-29T09:50:40.000Z</time>
      </trkpt>
      <trkpt lat="47.33091" lon="-2.42571">
        <ele>85.800003051758</ele>
        <time>2019-12-29T09:50:44.000Z</time>
      </trkpt>
      <trkpt lat="47.33093" lon="-2.42578">
        <ele>85.800003051758</ele>
        <time>2019-12-29T09:50:45.000Z</time>
      </trkpt>
      <trkpt lat="47.3311" lon="-2.42612">
        <ele>85.800003051758</ele>
        <time>2019-12-29T09:50:50.000Z</time>
      </trkpt>
      <trkpt lat="47.33128" lon="-2.42647">
        <ele>85.800003051758</ele>
        <time>2019-12-29T09:50:55.000Z</time>
      </trkpt>
      <trkpt lat="47.33129" lon="-2.42655">
        <ele>85.800003051758</ele>
        <time>2019-12-29T09:50:56.000Z</time>
      </trkpt>
      <trkpt lat="47.33134" lon="-2.42671">
        <ele>85.800003051758</ele>
        <time>2019-12-29T09:50:58.000Z</time>
      </trkpt>
      <trkpt lat="47.33144" lon="-2.42693">
        <ele>85.800003051758</ele>
        <time>2019-12-29T09:51:01.000Z</time>
      </trkpt>
      <trkpt lat="47.33147" lon="-2.42699">
        <ele>85.800003051758</ele>
        <time>2019-12-29T09:51:02.000Z</time>
      </trkpt>
      <trkpt lat="47.33154" lon="-2.42712">
        <ele>85.800003051758</ele>
        <time>2019-12-29T09:51:04.000Z</time>
      </trkpt>
      <trkpt lat="47.33161" lon="-2.42737">
        <ele>85.800003051758</ele>
        <time>2019-12-29T09:51:05.000Z</time>
      </trkpt>
      <trkpt lat="47.33161" lon="-2.42737">
        <ele>85.800003051758</ele>
        <time>2019-12-29T09:51:08.000Z</time>
      </trkpt>
      <trkpt lat="47.33163" lon="-2.42763">
        <ele>85.800003051758</ele>
        <time>2019-12-29T09:51:11.000Z</time>
      </trkpt>
      <trkpt lat="47.33163" lon="-2.42781">
        <ele>85.800003051758</ele>
        <time>2019-12-29T09:51:13.000Z</time>
      </trkpt>
      <trkpt lat="47.33165" lon="-2.42839">
        <ele>85.800003051758</ele>
        <time>2019-12-29T09:51:20.000Z</time>
      </trkpt>
      <trkpt lat="47.33165" lon="-2.42848">
        <ele>85.800003051758</ele>
        <time>2019-12-29T09:51:21.000Z</time>
      </trkpt>
      <trkpt lat="47.33168" lon="-2.42871">
        <ele>85.800003051758</ele>
        <time>2019-12-29T09:51:24.000Z</time>
      </trkpt>
      <trkpt lat="47.33176" lon="-2.42901">
        <ele>85.800003051758</ele>
        <time>2019-12-29T09:51:28.000Z</time>
      </trkpt>
      <trkpt lat="47.33173" lon="-2.42925">
        <ele>85.800003051758</ele>
        <time>2019-12-29T09:51:31.000Z</time>
      </trkpt>
      <trkpt lat="47.33172" lon="-2.42933">
        <ele>85.800003051758</ele>
        <time>2019-12-29T09:51:32.000Z</time>
      </trkpt>
      <trkpt lat="47.33177" lon="-2.42968">
        <ele>85.800003051758</ele>
        <time>2019-12-29T09:51:36.000Z</time>
      </trkpt>
      <trkpt lat="47.33182" lon="-2.43042">
        <ele>85.800003051758</ele>
        <time>2019-12-29T09:51:44.000Z</time>
      </trkpt>
      <trkpt lat="47.33183" lon="-2.4307">
        <ele>85.800003051758</ele>
        <time>2019-12-29T09:51:48.000Z</time>
      </trkpt>
      <trkpt lat="47.33183" lon="-2.43083">
        <ele>85.800003051758</ele>
        <time>2019-12-29T09:51:53.000Z</time>
      </trkpt>
      <trkpt lat="47.33183" lon="-2.43083">
        <ele>85.800003051758</ele>
        <time>2019-12-29T09:51:54.000Z</time>
      </trkpt>
      <trkpt lat="47.33183" lon="-2.43087">
        <ele>85.800003051758</ele>
        <time>2019-12-29T09:52:07.000Z</time>
      </trkpt>
      <trkpt lat="47.33183" lon="-2.43088">
        <ele>85.800003051758</ele>
        <time>2019-12-29T09:52:08.000Z</time>
      </trkpt>
      <trkpt lat="47.33183" lon="-2.43088">
        <ele>85.800003051758</ele>
        <time>2019-12-29T09:52:09.000Z</time>
      </trkpt>
      <trkpt lat="47.33183" lon="-2.43091">
        <ele>85.800003051758</ele>
        <time>2019-12-29T09:52:17.000Z</time>
      </trkpt>
      <trkpt lat="47.33182" lon="-2.43096">
        <ele>85.800003051758</ele>
        <time>2019-12-29T09:52:19.000Z</time>
      </trkpt>
      <trkpt lat="47.33182" lon="-2.43096">
        <ele>85.800003051758</ele>
        <time>2019-12-29T09:52:20.000Z</time>
      </trkpt>
      <trkpt lat="47.33182" lon="-2.43097">
        <ele>85.800003051758</ele>
        <time>2019-12-29T09:52:22.000Z</time>
      </trkpt>
      <trkpt lat="47.33181" lon="-2.43105">
        <ele>85.800003051758</ele>
        <time>2019-12-29T09:52:24.000Z</time>
      </trkpt>
      <trkpt lat="47.33177" lon="-2.43128">
        <ele>85.800003051758</ele>
        <time>2019-12-29T09:52:28.000Z</time>
      </trkpt>
      <trkpt lat="47.33177" lon="-2.43135">
        <ele>85.800003051758</ele>
        <time>2019-12-29T09:52:29.000Z</time>
      </trkpt>
      <trkpt lat="47.33172" lon="-2.43171">
        <ele>85.800003051758</ele>
        <time>2019-12-29T09:52:34.000Z</time>
      </trkpt>
      <trkpt lat="47.3316" lon="-2.43217">
        <ele>85.800003051758</ele>
        <time>2019-12-29T09:52:40.000Z</time>
      </trkpt>
      <trkpt lat="47.33139" lon="-2.43264">
        <ele>85.800003051758</ele>
        <time>2019-12-29T09:52:46.000Z</time>
      </trkpt>
      <trkpt lat="47.33117" lon="-2.43311">
        <ele>85.800003051758</ele>
        <time>2019-12-29T09:52:52.000Z</time>
      </trkpt>
      <trkpt lat="47.33089" lon="-2.43373">
        <ele>85.800003051758</ele>
        <time>2019-12-29T09:53:00.000Z</time>
      </trkpt>
      <trkpt lat="47.33061" lon="-2.43434">
        <ele>85.800003051758</ele>
        <time>2019-12-29T09:53:08.000Z</time>
      </trkpt>
      <trkpt lat="47.33038" lon="-2.43481">
        <ele>85.800003051758</ele>
        <time>2019-12-29T09:53:14.000Z</time>
      </trkpt>
      <trkpt lat="47.3303" lon="-2.43498">
        <ele>86.400001525879</ele>
        <time>2019-12-29T09:53:16.000Z</time>
      </trkpt>
      <trkpt lat="47.33026" lon="-2.43506">
        <ele>86.800003051758</ele>
        <time>2019-12-29T09:53:17.000Z</time>
      </trkpt>
      <trkpt lat="47.33023" lon="-2.43515">
        <ele>87.199996948242</ele>
        <time>2019-12-29T09:53:18.000Z</time>
      </trkpt>
      <trkpt lat="47.33019" lon="-2.43524">
        <ele>87.599998474121</ele>
        <time>2019-12-29T09:53:19.000Z</time>
      </trkpt>
      <trkpt lat="47.33015" lon="-2.43533">
        <ele>88</ele>
        <time>2019-12-29T09:53:20.000Z</time>
      </trkpt>
      <trkpt lat="47.33011" lon="-2.43542">
        <ele>88</ele>
        <time>2019-12-29T09:53:21.000Z</time>
      </trkpt>
      <trkpt lat="47.32984" lon="-2.436">
        <ele>88</ele>
        <time>2019-12-29T09:53:28.000Z</time>
      </trkpt>
      <trkpt lat="47.32955" lon="-2.43665">
        <ele>88</ele>
        <time>2019-12-29T09:53:36.000Z</time>
      </trkpt>
      <trkpt lat="47.32926" lon="-2.43732">
        <ele>88</ele>
        <time>2019-12-29T09:53:44.000Z</time>
      </trkpt>
      <trkpt lat="47.32894" lon="-2.43801">
        <ele>88</ele>
        <time>2019-12-29T09:53:52.000Z</time>
      </trkpt>
      <trkpt lat="47.32865" lon="-2.43862">
        <ele>88</ele>
        <time>2019-12-29T09:53:59.000Z</time>
      </trkpt>
      <trkpt lat="47.32843" lon="-2.43925">
        <ele>88</ele>
        <time>2019-12-29T09:54:06.000Z</time>
      </trkpt>
      <trkpt lat="47.32839" lon="-2.43943">
        <ele>87.599998474121</ele>
        <time>2019-12-29T09:54:08.000Z</time>
      </trkpt>
      <trkpt lat="47.32837" lon="-2.43952">
        <ele>87</ele>
        <time>2019-12-29T09:54:09.000Z</time>
      </trkpt>
      <trkpt lat="47.32835" lon="-2.43962">
        <ele>86.599998474121</ele>
        <time>2019-12-29T09:54:10.000Z</time>
      </trkpt>
      <trkpt lat="47.32833" lon="-2.43971">
        <ele>85.800003051758</ele>
        <time>2019-12-29T09:54:11.000Z</time>
      </trkpt>
      <trkpt lat="47.3283" lon="-2.4399">
        <ele>85.800003051758</ele>
        <time>2019-12-29T09:54:13.000Z</time>
      </trkpt>
      <trkpt lat="47.32819" lon="-2.44045">
        <ele>85.800003051758</ele>
        <time>2019-12-29T09:54:19.000Z</time>
      </trkpt>
      <trkpt lat="47.32818" lon="-2.44054">
        <ele>85.800003051758</ele>
        <time>2019-12-29T09:54:20.000Z</time>
      </trkpt>
      <trkpt lat="47.32805" lon="-2.44122">
        <ele>85.800003051758</ele>
        <time>2019-12-29T09:54:28.000Z</time>
      </trkpt>
      <trkpt lat="47.32799" lon="-2.44149">
        <ele>85.400001525879</ele>
        <time>2019-12-29T09:54:31.000Z</time>
      </trkpt>
      <trkpt lat="47.32798" lon="-2.44158">
        <ele>85</ele>
        <time>2019-12-29T09:54:32.000Z</time>
      </trkpt>
      <trkpt lat="47.32796" lon="-2.44168">
        <ele>84.599998474121</ele>
        <time>2019-12-29T09:54:33.000Z</time>
      </trkpt>
      <trkpt lat="47.32794" lon="-2.44178">
        <ele>84</ele>
        <time>2019-12-29T09:54:34.000Z</time>
      </trkpt>
      <trkpt lat="47.32792" lon="-2.44188">
        <ele>83.599998474121</ele>
        <time>2019-12-29T09:54:35.000Z</time>
      </trkpt>
      <trkpt lat="47.32776" lon="-2.4427">
        <ele>83.599998474121</ele>
        <time>2019-12-29T09:54:43.000Z</time>
      </trkpt>
      <trkpt lat="47.32764" lon="-2.44338">
        <ele>83.599998474121</ele>
        <time>2019-12-29T09:54:50.000Z</time>
      </trkpt>
      <trkpt lat="47.32765" lon="-2.44358">
        <ele>83.599998474121</ele>
        <time>2019-12-29T09:54:52.000Z</time>
      </trkpt>
      <trkpt lat="47.32769" lon="-2.44386">
        <ele>83.599998474121</ele>
        <time>2019-12-29T09:54:55.000Z</time>
      </trkpt>
      <trkpt lat="47.32779" lon="-2.44417">
        <ele>83.599998474121</ele>
        <time>2019-12-29T09:54:59.000Z</time>
      </trkpt>
      <trkpt lat="47.32773" lon="-2.44436">
        <ele>83.599998474121</ele>
        <time>2019-12-29T09:55:02.000Z</time>
      </trkpt>
      <trkpt lat="47.32761" lon="-2.44437">
        <ele>83.599998474121</ele>
        <time>2019-12-29T09:55:05.000Z</time>
      </trkpt>
      <trkpt lat="47.32749" lon="-2.44442">
        <ele>83.599998474121</ele>
        <time>2019-12-29T09:55:09.000Z</time>
      </trkpt>
      <trkpt lat="47.32746" lon="-2.44445">
        <ele>83.599998474121</ele>
        <time>2019-12-29T09:55:10.000Z</time>
      </trkpt>
      <trkpt lat="47.32734" lon="-2.44457">
        <ele>83.599998474121</ele>
        <time>2019-12-29T09:55:13.000Z</time>
      </trkpt>
      <trkpt lat="47.32714" lon="-2.44472">
        <ele>83.599998474121</ele>
        <time>2019-12-29T09:55:18.000Z</time>
      </trkpt>
      <trkpt lat="47.3271" lon="-2.44474">
        <ele>83.599998474121</ele>
        <time>2019-12-29T09:55:19.000Z</time>
      </trkpt>
      <trkpt lat="47.32706" lon="-2.44477">
        <ele>83.599998474121</ele>
        <time>2019-12-29T09:55:20.000Z</time>
      </trkpt>
      <trkpt lat="47.3269" lon="-2.44489">
        <ele>83.599998474121</ele>
        <time>2019-12-29T09:55:24.000Z</time>
      </trkpt>
      <trkpt lat="47.3267" lon="-2.44503">
        <ele>83.199996948242</ele>
        <time>2019-12-29T09:55:30.000Z</time>
      </trkpt>
      <trkpt lat="47.32669" lon="-2.44505">
        <ele>82.800003051758</ele>
        <time>2019-12-29T09:55:31.000Z</time>
      </trkpt>
      <trkpt lat="47.32668" lon="-2.44508">
        <ele>82.400001525879</ele>
        <time>2019-12-29T09:55:32.000Z</time>
      </trkpt>
      <trkpt lat="47.32667" lon="-2.44511">
        <ele>82</ele>
        <time>2019-12-29T09:55:33.000Z</time>
      </trkpt>
      <trkpt lat="47.32666" lon="-2.44514">
        <ele>81.599998474121</ele>
        <time>2019-12-29T09:55:34.000Z</time>
      </trkpt>
      <trkpt lat="47.32663" lon="-2.4452">
        <ele>81.599998474121</ele>
        <time>2019-12-29T09:55:36.000Z</time>
      </trkpt>
      <trkpt lat="47.32654" lon="-2.44537">
        <ele>81.599998474121</ele>
        <time>2019-12-29T09:55:40.000Z</time>
      </trkpt>
      <trkpt lat="47.3265" lon="-2.44542">
        <ele>81.599998474121</ele>
        <time>2019-12-29T09:55:41.000Z</time>
      </trkpt>
      <trkpt lat="47.32641" lon="-2.44557">
        <ele>81.599998474121</ele>
        <time>2019-12-29T09:55:44.000Z</time>
      </trkpt>
      <trkpt lat="47.32627" lon="-2.44582">
        <ele>81.199996948242</ele>
        <time>2019-12-29T09:55:49.000Z</time>
      </trkpt>
      <trkpt lat="47.32624" lon="-2.44587">
        <ele>80.199996948242</ele>
        <time>2019-12-29T09:55:50.000Z</time>
      </trkpt>
      <trkpt lat="47.3262" lon="-2.44592">
        <ele>79.800003051758</ele>
        <time>2019-12-29T09:55:51.000Z</time>
      </trkpt>
      <trkpt lat="47.32618" lon="-2.44596">
        <ele>79.400001525879</ele>
        <time>2019-12-29T09:55:52.000Z</time>
      </trkpt>
      <trkpt lat="47.32607" lon="-2.44615">
        <ele>79.400001525879</ele>
        <time>2019-12-29T09:55:56.000Z</time>
      </trkpt>
      <trkpt lat="47.32601" lon="-2.44624">
        <ele>79</ele>
        <time>2019-12-29T09:55:58.000Z</time>
      </trkpt>
      <trkpt lat="47.32598" lon="-2.44628">
        <ele>78.599998474121</ele>
        <time>2019-12-29T09:55:59.000Z</time>
      </trkpt>
      <trkpt lat="47.32595" lon="-2.44632">
        <ele>78.199996948242</ele>
        <time>2019-12-29T09:56:00.000Z</time>
      </trkpt>
      <trkpt lat="47.32592" lon="-2.44636">
        <ele>77.599998474121</ele>
        <time>2019-12-29T09:56:01.000Z</time>
      </trkpt>
      <trkpt lat="47.32589" lon="-2.44639">
        <ele>77.199996948242</ele>
        <time>2019-12-29T09:56:02.000Z</time>
      </trkpt>
      <trkpt lat="47.32583" lon="-2.44647">
        <ele>77.199996948242</ele>
        <time>2019-12-29T09:56:04.000Z</time>
      </trkpt>
      <trkpt lat="47.32575" lon="-2.44656">
        <ele>77.199996948242</ele>
        <time>2019-12-29T09:56:06.000Z</time>
      </trkpt>
      <trkpt lat="47.32568" lon="-2.44668">
        <ele>77.199996948242</ele>
        <time>2019-12-29T09:56:08.000Z</time>
      </trkpt>
      <trkpt lat="47.32564" lon="-2.44675">
        <ele>76.800003051758</ele>
        <time>2019-12-29T09:56:09.000Z</time>
      </trkpt>
      <trkpt lat="47.3256" lon="-2.44681">
        <ele>76.400001525879</ele>
        <time>2019-12-29T09:56:10.000Z</time>
      </trkpt>
      <trkpt lat="47.32556" lon="-2.44686">
        <ele>76</ele>
        <time>2019-12-29T09:56:11.000Z</time>
      </trkpt>
      <trkpt lat="47.32551" lon="-2.44692">
        <ele>75.599998474121</ele>
        <time>2019-12-29T09:56:12.000Z</time>
      </trkpt>
      <trkpt lat="47.32547" lon="-2.44698">
        <ele>75.199996948242</ele>
        <time>2019-12-29T09:56:13.000Z</time>
      </trkpt>
      <trkpt lat="47.32543" lon="-2.44702">
        <ele>75.199996948242</ele>
        <time>2019-12-29T09:56:14.000Z</time>
      </trkpt>
      <trkpt lat="47.3254" lon="-2.44707">
        <ele>74.800003051758</ele>
        <time>2019-12-29T09:56:15.000Z</time>
      </trkpt>
      <trkpt lat="47.32538" lon="-2.44713">
        <ele>74.199996948242</ele>
        <time>2019-12-29T09:56:16.000Z</time>
      </trkpt>
      <trkpt lat="47.32535" lon="-2.44718">
        <ele>73.800003051758</ele>
        <time>2019-12-29T09:56:17.000Z</time>
      </trkpt>
      <trkpt lat="47.32532" lon="-2.44724">
        <ele>73.400001525879</ele>
        <time>2019-12-29T09:56:18.000Z</time>
      </trkpt>
      <trkpt lat="47.32531" lon="-2.44729">
        <ele>72.800003051758</ele>
        <time>2019-12-29T09:56:19.000Z</time>
      </trkpt>
      <trkpt lat="47.32528" lon="-2.44739">
        <ele>72.800003051758</ele>
        <time>2019-12-29T09:56:21.000Z</time>
      </trkpt>
      <trkpt lat="47.32524" lon="-2.44742">
        <ele>72.400001525879</ele>
        <time>2019-12-29T09:56:22.000Z</time>
      </trkpt>
      <trkpt lat="47.3252" lon="-2.44745">
        <ele>72</ele>
        <time>2019-12-29T09:56:23.000Z</time>
      </trkpt>
      <trkpt lat="47.32516" lon="-2.44748">
        <ele>71.599998474121</ele>
        <time>2019-12-29T09:56:24.000Z</time>
      </trkpt>
      <trkpt lat="47.32512" lon="-2.44751">
        <ele>71.199996948242</ele>
        <time>2019-12-29T09:56:25.000Z</time>
      </trkpt>
      <trkpt lat="47.32508" lon="-2.44754">
        <ele>70.800003051758</ele>
        <time>2019-12-29T09:56:26.000Z</time>
      </trkpt>
      <trkpt lat="47.32497" lon="-2.44762">
        <ele>70.800003051758</ele>
        <time>2019-12-29T09:56:28.000Z</time>
      </trkpt>
      <trkpt lat="47.32469" lon="-2.44784">
        <ele>70.400001525879</ele>
        <time>2019-12-29T09:56:32.000Z</time>
      </trkpt>
      <trkpt lat="47.32461" lon="-2.44789">
        <ele>69.800003051758</ele>
        <time>2019-12-29T09:56:33.000Z</time>
      </trkpt>
      <trkpt lat="47.32454" lon="-2.44795">
        <ele>69.400001525879</ele>
        <time>2019-12-29T09:56:34.000Z</time>
      </trkpt>
      <trkpt lat="47.32445" lon="-2.448">
        <ele>69</ele>
        <time>2019-12-29T09:56:35.000Z</time>
      </trkpt>
      <trkpt lat="47.32437" lon="-2.44805">
        <ele>68.599998474121</ele>
        <time>2019-12-29T09:56:36.000Z</time>
      </trkpt>
      <trkpt lat="47.32429" lon="-2.4481">
        <ele>68.599998474121</ele>
        <time>2019-12-29T09:56:37.000Z</time>
      </trkpt>
      <trkpt lat="47.32421" lon="-2.44815">
        <ele>68</ele>
        <time>2019-12-29T09:56:38.000Z</time>
      </trkpt>
      <trkpt lat="47.32414" lon="-2.4482">
        <ele>67.199996948242</ele>
        <time>2019-12-29T09:56:39.000Z</time>
      </trkpt>
      <trkpt lat="47.32406" lon="-2.44825">
        <ele>66.800003051758</ele>
        <time>2019-12-29T09:56:40.000Z</time>
      </trkpt>
      <trkpt lat="47.32398" lon="-2.44829">
        <ele>66.400001525879</ele>
        <time>2019-12-29T09:56:41.000Z</time>
      </trkpt>
      <trkpt lat="47.32385" lon="-2.4484">
        <ele>66</ele>
        <time>2019-12-29T09:56:43.000Z</time>
      </trkpt>
      <trkpt lat="47.32378" lon="-2.44846">
        <ele>65.599998474121</ele>
        <time>2019-12-29T09:56:44.000Z</time>
      </trkpt>
      <trkpt lat="47.32372" lon="-2.4485">
        <ele>65.199996948242</ele>
        <time>2019-12-29T09:56:45.000Z</time>
      </trkpt>
      <trkpt lat="47.32365" lon="-2.44855">
        <ele>64.800003051758</ele>
        <time>2019-12-29T09:56:46.000Z</time>
      </trkpt>
      <trkpt lat="47.32359" lon="-2.4486">
        <ele>64.400001525879</ele>
        <time>2019-12-29T09:56:47.000Z</time>
      </trkpt>
      <trkpt lat="47.32353" lon="-2.44866">
        <ele>64.400001525879</ele>
        <time>2019-12-29T09:56:48.000Z</time>
      </trkpt>
      <trkpt lat="47.32329" lon="-2.44897">
        <ele>64</ele>
        <time>2019-12-29T09:56:53.000Z</time>
      </trkpt>
      <trkpt lat="47.32324" lon="-2.44903">
        <ele>63.400001525879</ele>
        <time>2019-12-29T09:56:54.000Z</time>
      </trkpt>
      <trkpt lat="47.3232" lon="-2.44908">
        <ele>63</ele>
        <time>2019-12-29T09:56:55.000Z</time>
      </trkpt>
      <trkpt lat="47.32317" lon="-2.44913">
        <ele>62.599998474121</ele>
        <time>2019-12-29T09:56:56.000Z</time>
      </trkpt>
      <trkpt lat="47.32315" lon="-2.44916">
        <ele>62.200000762939</ele>
        <time>2019-12-29T09:56:57.000Z</time>
      </trkpt>
      <trkpt lat="47.32313" lon="-2.44918">
        <ele>62.200000762939</ele>
        <time>2019-12-29T09:56:58.000Z</time>
      </trkpt>
      <trkpt lat="47.32305" lon="-2.44928">
        <ele>62.200000762939</ele>
        <time>2019-12-29T09:57:03.000Z</time>
      </trkpt>
      <trkpt lat="47.323" lon="-2.44934">
        <ele>62.200000762939</ele>
        <time>2019-12-29T09:57:08.000Z</time>
      </trkpt>
      <trkpt lat="47.3229" lon="-2.44943">
        <ele>62.200000762939</ele>
        <time>2019-12-29T09:57:12.000Z</time>
      </trkpt>
      <trkpt lat="47.32287" lon="-2.44947">
        <ele>62.200000762939</ele>
        <time>2019-12-29T09:57:13.000Z</time>
      </trkpt>
      <trkpt lat="47.32275" lon="-2.44961">
        <ele>62.200000762939</ele>
        <time>2019-12-29T09:57:16.000Z</time>
      </trkpt>
      <trkpt lat="47.32251" lon="-2.44989">
        <ele>61.799999237061</ele>
        <time>2019-12-29T09:57:21.000Z</time>
      </trkpt>
      <trkpt lat="47.32245" lon="-2.44996">
        <ele>61.400001525879</ele>
        <time>2019-12-29T09:57:22.000Z</time>
      </trkpt>
      <trkpt lat="47.32239" lon="-2.45004">
        <ele>61</ele>
        <time>2019-12-29T09:57:23.000Z</time>
      </trkpt>
      <trkpt lat="47.32233" lon="-2.45011">
        <ele>60.599998474121</ele>
        <time>2019-12-29T09:57:24.000Z</time>
      </trkpt>
      <trkpt lat="47.32227" lon="-2.45018">
        <ele>59.799999237061</ele>
        <time>2019-12-29T09:57:25.000Z</time>
      </trkpt>
      <trkpt lat="47.32223" lon="-2.45022">
        <ele>59.200000762939</ele>
        <time>2019-12-29T09:57:26.000Z</time>
      </trkpt>
      <trkpt lat="47.3222" lon="-2.45026">
        <ele>58.200000762939</ele>
        <time>2019-12-29T09:57:27.000Z</time>
      </trkpt>
      <trkpt lat="47.32219" lon="-2.45031">
        <ele>57.200000762939</ele>
        <time>2019-12-29T09:57:28.000Z</time>
      </trkpt>
      <trkpt lat="47.3222" lon="-2.45037">
        <ele>55.400001525879</ele>
        <time>2019-12-29T09:57:29.000Z</time>
      </trkpt>
      <trkpt lat="47.32222" lon="-2.45043">
        <ele>54.400001525879</ele>
        <time>2019-12-29T09:57:30.000Z</time>
      </trkpt>
      <trkpt lat="47.32225" lon="-2.45049">
        <ele>54</ele>
        <time>2019-12-29T09:57:31.000Z</time>
      </trkpt>
      <trkpt lat="47.32228" lon="-2.45055">
        <ele>53.599998474121</ele>
        <time>2019-12-29T09:57:32.000Z</time>
      </trkpt>
      <trkpt lat="47.32231" lon="-2.45062">
        <ele>53.200000762939</ele>
        <time>2019-12-29T09:57:33.000Z</time>
      </trkpt>
      <trkpt lat="47.32234" lon="-2.45069">
        <ele>52.799999237061</ele>
        <time>2019-12-29T09:57:34.000Z</time>
      </trkpt>
      <trkpt lat="47.32237" lon="-2.45075">
        <ele>52.400001525879</ele>
        <time>2019-12-29T09:57:35.000Z</time>
      </trkpt>
      <trkpt lat="47.32248" lon="-2.45103">
        <ele>52.400001525879</ele>
        <time>2019-12-29T09:57:39.000Z</time>
      </trkpt>
      <trkpt lat="47.32265" lon="-2.4516">
        <ele>52.400001525879</ele>
        <time>2019-12-29T09:57:46.000Z</time>
      </trkpt>
      <trkpt lat="47.32271" lon="-2.45188">
        <ele>52.400001525879</ele>
        <time>2019-12-29T09:57:49.000Z</time>
      </trkpt>
      <trkpt lat="47.32275" lon="-2.45197">
        <ele>51.799999237061</ele>
        <time>2019-12-29T09:57:50.000Z</time>
      </trkpt>
      <trkpt lat="47.32279" lon="-2.45206">
        <ele>51.400001525879</ele>
        <time>2019-12-29T09:57:51.000Z</time>
      </trkpt>
      <trkpt lat="47.32282" lon="-2.45213">
        <ele>51</ele>
        <time>2019-12-29T09:57:52.000Z</time>
      </trkpt>
      <trkpt lat="47.32286" lon="-2.4522">
        <ele>49.799999237061</ele>
        <time>2019-12-29T09:57:53.000Z</time>
      </trkpt>
      <trkpt lat="47.32289" lon="-2.45227">
        <ele>49.200000762939</ele>
        <time>2019-12-29T09:57:54.000Z</time>
      </trkpt>
      <trkpt lat="47.32292" lon="-2.45233">
        <ele>48.599998474121</ele>
        <time>2019-12-29T09:57:55.000Z</time>
      </trkpt>
      <trkpt lat="47.32295" lon="-2.45238">
        <ele>48</ele>
        <time>2019-12-29T09:57:56.000Z</time>
      </trkpt>
      <trkpt lat="47.32301" lon="-2.45254">
        <ele>48</ele>
        <time>2019-12-29T09:57:59.000Z</time>
      </trkpt>
      <trkpt lat="47.32309" lon="-2.45281">
        <ele>48</ele>
        <time>2019-12-29T09:58:04.000Z</time>
      </trkpt>
      <trkpt lat="47.32311" lon="-2.45287">
        <ele>48</ele>
        <time>2019-12-29T09:58:05.000Z</time>
      </trkpt>
      <trkpt lat="47.32312" lon="-2.45293">
        <ele>48.400001525879</ele>
        <time>2019-12-29T09:58:06.000Z</time>
      </trkpt>
      <trkpt lat="47.32314" lon="-2.45299">
        <ele>48.799999237061</ele>
        <time>2019-12-29T09:58:07.000Z</time>
      </trkpt>
      <trkpt lat="47.32315" lon="-2.45305">
        <ele>49.400001525879</ele>
        <time>2019-12-29T09:58:08.000Z</time>
      </trkpt>
      <trkpt lat="47.32317" lon="-2.45311">
        <ele>49.799999237061</ele>
        <time>2019-12-29T09:58:09.000Z</time>
      </trkpt>
      <trkpt lat="47.32317" lon="-2.45317">
        <ele>50.200000762939</ele>
        <time>2019-12-29T09:58:10.000Z</time>
      </trkpt>
      <trkpt lat="47.32318" lon="-2.4534">
        <ele>50.200000762939</ele>
        <time>2019-12-29T09:58:14.000Z</time>
      </trkpt>
      <trkpt lat="47.32319" lon="-2.45365">
        <ele>50.200000762939</ele>
        <time>2019-12-29T09:58:17.000Z</time>
      </trkpt>
      <trkpt lat="47.3232" lon="-2.45374">
        <ele>50.200000762939</ele>
        <time>2019-12-29T09:58:18.000Z</time>
      </trkpt>
      <trkpt lat="47.32321" lon="-2.45388">
        <ele>49.799999237061</ele>
        <time>2019-12-29T09:58:20.000Z</time>
      </trkpt>
      <trkpt lat="47.3232" lon="-2.45394">
        <ele>49.400001525879</ele>
        <time>2019-12-29T09:58:21.000Z</time>
      </trkpt>
      <trkpt lat="47.32319" lon="-2.45399">
        <ele>49</ele>
        <time>2019-12-29T09:58:22.000Z</time>
      </trkpt>
      <trkpt lat="47.32316" lon="-2.45405">
        <ele>48.400001525879</ele>
        <time>2019-12-29T09:58:23.000Z</time>
      </trkpt>
      <trkpt lat="47.32315" lon="-2.45413">
        <ele>48</ele>
        <time>2019-12-29T09:58:24.000Z</time>
      </trkpt>
      <trkpt lat="47.32317" lon="-2.45421">
        <ele>47.599998474121</ele>
        <time>2019-12-29T09:58:25.000Z</time>
      </trkpt>
      <trkpt lat="47.3232" lon="-2.45429">
        <ele>47.200000762939</ele>
        <time>2019-12-29T09:58:26.000Z</time>
      </trkpt>
      <trkpt lat="47.32323" lon="-2.45436">
        <ele>46.799999237061</ele>
        <time>2019-12-29T09:58:27.000Z</time>
      </trkpt>
      <trkpt lat="47.32326" lon="-2.45443">
        <ele>46.400001525879</ele>
        <time>2019-12-29T09:58:28.000Z</time>
      </trkpt>
      <trkpt lat="47.3233" lon="-2.4545">
        <ele>46</ele>
        <time>2019-12-29T09:58:29.000Z</time>
      </trkpt>
      <trkpt lat="47.32341" lon="-2.45468">
        <ele>46</ele>
        <time>2019-12-29T09:58:32.000Z</time>
      </trkpt>
      <trkpt lat="47.32349" lon="-2.45481">
        <ele>46</ele>
        <time>2019-12-29T09:58:34.000Z</time>
      </trkpt>
      <trkpt lat="47.32357" lon="-2.45493">
        <ele>46</ele>
        <time>2019-12-29T09:58:36.000Z</time>
      </trkpt>
      <trkpt lat="47.32375" lon="-2.45523">
        <ele>46</ele>
        <time>2019-12-29T09:58:41.000Z</time>
      </trkpt>
      <trkpt lat="47.32378" lon="-2.4553">
        <ele>46</ele>
        <time>2019-12-29T09:58:42.000Z</time>
      </trkpt>
      <trkpt lat="47.32385" lon="-2.45542">
        <ele>46.400001525879</ele>
        <time>2019-12-29T09:58:44.000Z</time>
      </trkpt>
      <trkpt lat="47.32388" lon="-2.45548">
        <ele>46.799999237061</ele>
        <time>2019-12-29T09:58:45.000Z</time>
      </trkpt>
      <trkpt lat="47.32391" lon="-2.45554">
        <ele>47.200000762939</ele>
        <time>2019-12-29T09:58:46.000Z</time>
      </trkpt>
      <trkpt lat="47.32395" lon="-2.4556">
        <ele>47.599998474121</ele>
        <time>2019-12-29T09:58:47.000Z</time>
      </trkpt>
      <trkpt lat="47.32398" lon="-2.45565">
        <ele>48</ele>
        <time>2019-12-29T09:58:48.000Z</time>
      </trkpt>
      <trkpt lat="47.32405" lon="-2.45576">
        <ele>48</ele>
        <time>2019-12-29T09:58:50.000Z</time>
      </trkpt>
      <trkpt lat="47.32408" lon="-2.45582">
        <ele>48</ele>
        <time>2019-12-29T09:58:51.000Z</time>
      </trkpt>
      <trkpt lat="47.32411" lon="-2.45587">
        <ele>48</ele>
        <time>2019-12-29T09:58:52.000Z</time>
      </trkpt>
      <trkpt lat="47.32418" lon="-2.45609">
        <ele>48</ele>
        <time>2019-12-29T09:58:55.000Z</time>
      </trkpt>
      <trkpt lat="47.32421" lon="-2.45617">
        <ele>48</ele>
        <time>2019-12-29T09:58:56.000Z</time>
      </trkpt>
      <trkpt lat="47.32431" lon="-2.45636">
        <ele>48</ele>
        <time>2019-12-29T09:58:59.000Z</time>
      </trkpt>
      <trkpt lat="47.32455" lon="-2.45672">
        <ele>48</ele>
        <time>2019-12-29T09:59:05.000Z</time>
      </trkpt>
      <trkpt lat="47.32483" lon="-2.45716">
        <ele>47.599998474121</ele>
        <time>2019-12-29T09:59:12.000Z</time>
      </trkpt>
      <trkpt lat="47.32487" lon="-2.45724">
        <ele>47.200000762939</ele>
        <time>2019-12-29T09:59:13.000Z</time>
      </trkpt>
      <trkpt lat="47.3249" lon="-2.4573">
        <ele>46.799999237061</ele>
        <time>2019-12-29T09:59:14.000Z</time>
      </trkpt>
      <trkpt lat="47.32494" lon="-2.45737">
        <ele>46.400001525879</ele>
        <time>2019-12-29T09:59:15.000Z</time>
      </trkpt>
      <trkpt lat="47.32498" lon="-2.45743">
        <ele>46</ele>
        <time>2019-12-29T09:59:16.000Z</time>
      </trkpt>
      <trkpt lat="47.32504" lon="-2.45756">
        <ele>46</ele>
        <time>2019-12-29T09:59:18.000Z</time>
      </trkpt>
      <trkpt lat="47.32529" lon="-2.45799">
        <ele>46</ele>
        <time>2019-12-29T09:59:25.000Z</time>
      </trkpt>
      <trkpt lat="47.32536" lon="-2.45811">
        <ele>46</ele>
        <time>2019-12-29T09:59:27.000Z</time>
      </trkpt>
      <trkpt lat="47.32544" lon="-2.45822">
        <ele>46</ele>
        <time>2019-12-29T09:59:29.000Z</time>
      </trkpt>
      <trkpt lat="47.32547" lon="-2.45827">
        <ele>46</ele>
        <time>2019-12-29T09:59:30.000Z</time>
      </trkpt>
      <trkpt lat="47.32554" lon="-2.45835">
        <ele>46</ele>
        <time>2019-12-29T09:59:32.000Z</time>
      </trkpt>
      <trkpt lat="47.32563" lon="-2.45852">
        <ele>46</ele>
        <time>2019-12-29T09:59:35.000Z</time>
      </trkpt>
      <trkpt lat="47.32574" lon="-2.45875">
        <ele>46</ele>
        <time>2019-12-29T09:59:39.000Z</time>
      </trkpt>
      <trkpt lat="47.32581" lon="-2.45884">
        <ele>46</ele>
        <time>2019-12-29T09:59:41.000Z</time>
      </trkpt>
      <trkpt lat="47.32608" lon="-2.45917">
        <ele>46</ele>
        <time>2019-12-29T09:59:48.000Z</time>
      </trkpt>
      <trkpt lat="47.32611" lon="-2.45923">
        <ele>46</ele>
        <time>2019-12-29T09:59:49.000Z</time>
      </trkpt>
      <trkpt lat="47.32629" lon="-2.45951">
        <ele>46</ele>
        <time>2019-12-29T09:59:55.000Z</time>
      </trkpt>
      <trkpt lat="47.32632" lon="-2.45956">
        <ele>46</ele>
        <time>2019-12-29T09:59:56.000Z</time>
      </trkpt>
      <trkpt lat="47.32645" lon="-2.4597">
        <ele>46</ele>
        <time>2019-12-29T10:00:00.000Z</time>
      </trkpt>
      <trkpt lat="47.32655" lon="-2.45978">
        <ele>46</ele>
        <time>2019-12-29T10:00:05.000Z</time>
      </trkpt>
      <trkpt lat="47.32662" lon="-2.45984">
        <ele>46</ele>
        <time>2019-12-29T10:00:12.000Z</time>
      </trkpt>
      <trkpt lat="47.32663" lon="-2.45985">
        <ele>46</ele>
        <time>2019-12-29T10:00:13.000Z</time>
      </trkpt>
      <trkpt lat="47.32669" lon="-2.45987">
        <ele>46</ele>
        <time>2019-12-29T10:00:17.000Z</time>
      </trkpt>
      <trkpt lat="47.32671" lon="-2.45989">
        <ele>46</ele>
        <time>2019-12-29T10:00:18.000Z</time>
      </trkpt>
      <trkpt lat="47.32678" lon="-2.45996">
        <ele>46</ele>
        <time>2019-12-29T10:00:24.000Z</time>
      </trkpt>
      <trkpt lat="47.32683" lon="-2.46009">
        <ele>46</ele>
        <time>2019-12-29T10:00:30.000Z</time>
      </trkpt>
      <trkpt lat="47.32688" lon="-2.46018">
        <ele>46</ele>
        <time>2019-12-29T10:00:35.000Z</time>
      </trkpt>
      <trkpt lat="47.32696" lon="-2.4603">
        <ele>46</ele>
        <time>2019-12-29T10:00:41.000Z</time>
      </trkpt>
      <trkpt lat="47.32699" lon="-2.46035">
        <ele>46</ele>
        <time>2019-12-29T10:00:44.000Z</time>
      </trkpt>
      <trkpt lat="47.327" lon="-2.46037">
        <ele>46</ele>
        <time>2019-12-29T10:00:45.000Z</time>
      </trkpt>
      <trkpt lat="47.32701" lon="-2.4604">
        <ele>46.400001525879</ele>
        <time>2019-12-29T10:00:46.000Z</time>
      </trkpt>
      <trkpt lat="47.32702" lon="-2.46042">
        <ele>46.799999237061</ele>
        <time>2019-12-29T10:00:47.000Z</time>
      </trkpt>
      <trkpt lat="47.32704" lon="-2.46043">
        <ele>47.200000762939</ele>
        <time>2019-12-29T10:00:48.000Z</time>
      </trkpt>
      <trkpt lat="47.32706" lon="-2.46044">
        <ele>47.799999237061</ele>
        <time>2019-12-29T10:00:49.000Z</time>
      </trkpt>
      <trkpt lat="47.32707" lon="-2.46045">
        <ele>48.200000762939</ele>
        <time>2019-12-29T10:00:50.000Z</time>
      </trkpt>
      <trkpt lat="47.3271" lon="-2.46047">
        <ele>48.200000762939</ele>
        <time>2019-12-29T10:00:52.000Z</time>
      </trkpt>
      <trkpt lat="47.32715" lon="-2.46052">
        <ele>48.200000762939</ele>
        <time>2019-12-29T10:00:56.000Z</time>
      </trkpt>
      <trkpt lat="47.32722" lon="-2.4606">
        <ele>48.200000762939</ele>
        <time>2019-12-29T10:01:01.000Z</time>
      </trkpt>
      <trkpt lat="47.32727" lon="-2.46065">
        <ele>48.200000762939</ele>
        <time>2019-12-29T10:01:06.000Z</time>
      </trkpt>
      <trkpt lat="47.3273" lon="-2.46069">
        <ele>48.200000762939</ele>
        <time>2019-12-29T10:01:08.000Z</time>
      </trkpt>
      <trkpt lat="47.32736" lon="-2.46075">
        <ele>48.200000762939</ele>
        <time>2019-12-29T10:01:12.000Z</time>
      </trkpt>
      <trkpt lat="47.32743" lon="-2.46084">
        <ele>48.200000762939</ele>
        <time>2019-12-29T10:01:19.000Z</time>
      </trkpt>
      <trkpt lat="47.32745" lon="-2.46086">
        <ele>48.200000762939</ele>
        <time>2019-12-29T10:01:21.000Z</time>
      </trkpt>
      <trkpt lat="47.3275" lon="-2.46094">
        <ele>48.599998474121</ele>
        <time>2019-12-29T10:01:26.000Z</time>
      </trkpt>
      <trkpt lat="47.32751" lon="-2.46095">
        <ele>49</ele>
        <time>2019-12-29T10:01:27.000Z</time>
      </trkpt>
      <trkpt lat="47.32752" lon="-2.46097">
        <ele>49.400001525879</ele>
        <time>2019-12-29T10:01:28.000Z</time>
      </trkpt>
      <trkpt lat="47.32754" lon="-2.46099">
        <ele>49.799999237061</ele>
        <time>2019-12-29T10:01:29.000Z</time>
      </trkpt>
      <trkpt lat="47.32755" lon="-2.461">
        <ele>50.200000762939</ele>
        <time>2019-12-29T10:01:30.000Z</time>
      </trkpt>
      <trkpt lat="47.32759" lon="-2.46111">
        <ele>50.200000762939</ele>
        <time>2019-12-29T10:01:36.000Z</time>
      </trkpt>
      <trkpt lat="47.32761" lon="-2.4612">
        <ele>50.200000762939</ele>
        <time>2019-12-29T10:01:40.000Z</time>
      </trkpt>
      <trkpt lat="47.32763" lon="-2.46125">
        <ele>50.200000762939</ele>
        <time>2019-12-29T10:01:42.000Z</time>
      </trkpt>
      <trkpt lat="47.32763" lon="-2.46131">
        <ele>50.200000762939</ele>
        <time>2019-12-29T10:01:45.000Z</time>
      </trkpt>
      <trkpt lat="47.32763" lon="-2.46136">
        <ele>50.599998474121</ele>
        <time>2019-12-29T10:01:48.000Z</time>
      </trkpt>
      <trkpt lat="47.32766" lon="-2.46142">
        <ele>52.200000762939</ele>
        <time>2019-12-29T10:11:10.000Z</time>
      </trkpt>
      <trkpt lat="47.3277" lon="-2.46147">
        <ele>52.200000762939</ele>
        <time>2019-12-29T10:11:12.000Z</time>
      </trkpt>
      <trkpt lat="47.32781" lon="-2.46164">
        <ele>52.200000762939</ele>
        <time>2019-12-29T10:11:17.000Z</time>
      </trkpt>
      <trkpt lat="47.32799" lon="-2.46182">
        <ele>52.200000762939</ele>
        <time>2019-12-29T10:11:23.000Z</time>
      </trkpt>
      <trkpt lat="47.32815" lon="-2.46194">
        <ele>52.200000762939</ele>
        <time>2019-12-29T10:11:27.000Z</time>
      </trkpt>
      <trkpt lat="47.32819" lon="-2.46193">
        <ele>52.599998474121</ele>
        <time>2019-12-29T10:11:28.000Z</time>
      </trkpt>
      <trkpt lat="47.32823" lon="-2.46193">
        <ele>53</ele>
        <time>2019-12-29T10:11:29.000Z</time>
      </trkpt>
      <trkpt lat="47.32827" lon="-2.46191">
        <ele>53.400001525879</ele>
        <time>2019-12-29T10:11:30.000Z</time>
      </trkpt>
      <trkpt lat="47.32831" lon="-2.46189">
        <ele>53.799999237061</ele>
        <time>2019-12-29T10:11:31.000Z</time>
      </trkpt>
      <trkpt lat="47.32834" lon="-2.46187">
        <ele>54.200000762939</ele>
        <time>2019-12-29T10:11:32.000Z</time>
      </trkpt>
      <trkpt lat="47.32841" lon="-2.46182">
        <ele>54.200000762939</ele>
        <time>2019-12-29T10:11:34.000Z</time>
      </trkpt>
      <trkpt lat="47.32854" lon="-2.46174">
        <ele>54.799999237061</ele>
        <time>2019-12-29T10:11:38.000Z</time>
      </trkpt>
      <trkpt lat="47.32857" lon="-2.46172">
        <ele>55.599998474121</ele>
        <time>2019-12-29T10:11:39.000Z</time>
      </trkpt>
      <trkpt lat="47.3286" lon="-2.4617">
        <ele>56.200000762939</ele>
        <time>2019-12-29T10:11:40.000Z</time>
      </trkpt>
      <trkpt lat="47.32863" lon="-2.46168">
        <ele>56.599998474121</ele>
        <time>2019-12-29T10:11:41.000Z</time>
      </trkpt>
      <trkpt lat="47.32871" lon="-2.46164">
        <ele>56.599998474121</ele>
        <time>2019-12-29T10:11:44.000Z</time>
      </trkpt>
      <trkpt lat="47.32873" lon="-2.46162">
        <ele>57</ele>
        <time>2019-12-29T10:11:45.000Z</time>
      </trkpt>
      <trkpt lat="47.32876" lon="-2.4616">
        <ele>57.400001525879</ele>
        <time>2019-12-29T10:11:46.000Z</time>
      </trkpt>
      <trkpt lat="47.32878" lon="-2.46159">
        <ele>58</ele>
        <time>2019-12-29T10:11:47.000Z</time>
      </trkpt>
      <trkpt lat="47.32881" lon="-2.46157">
        <ele>58.400001525879</ele>
        <time>2019-12-29T10:11:48.000Z</time>
      </trkpt>
      <trkpt lat="47.32883" lon="-2.46156">
        <ele>58.799999237061</ele>
        <time>2019-12-29T10:11:49.000Z</time>
      </trkpt>
      <trkpt lat="47.32891" lon="-2.4615">
        <ele>58.799999237061</ele>
        <time>2019-12-29T10:11:52.000Z</time>
      </trkpt>
      <trkpt lat="47.32903" lon="-2.46155">
        <ele>58.799999237061</ele>
        <time>2019-12-29T10:11:57.000Z</time>
      </trkpt>
      <trkpt lat="47.32914" lon="-2.46184">
        <ele>58.799999237061</ele>
        <time>2019-12-29T10:12:03.000Z</time>
      </trkpt>
      <trkpt lat="47.32926" lon="-2.46223">
        <ele>58.799999237061</ele>
        <time>2019-12-29T10:12:09.000Z</time>
      </trkpt>
      <trkpt lat="47.32941" lon="-2.46275">
        <ele>58.799999237061</ele>
        <time>2019-12-29T10:12:16.000Z</time>
      </trkpt>
      <trkpt lat="47.32958" lon="-2.46333">
        <ele>58.799999237061</ele>
        <time>2019-12-29T10:12:23.000Z</time>
      </trkpt>
      <trkpt lat="47.32965" lon="-2.46367">
        <ele>58.799999237061</ele>
        <time>2019-12-29T10:12:26.000Z</time>
      </trkpt>
      <trkpt lat="47.32966" lon="-2.46379">
        <ele>58.799999237061</ele>
        <time>2019-12-29T10:12:27.000Z</time>
      </trkpt>
      <trkpt lat="47.32968" lon="-2.46407">
        <ele>58.400001525879</ele>
        <time>2019-12-29T10:12:29.000Z</time>
      </trkpt>
      <trkpt lat="47.32968" lon="-2.46422">
        <ele>57.799999237061</ele>
        <time>2019-12-29T10:12:30.000Z</time>
      </trkpt>
      <trkpt lat="47.32968" lon="-2.46438">
        <ele>57.200000762939</ele>
        <time>2019-12-29T10:12:31.000Z</time>
      </trkpt>
      <trkpt lat="47.32967" lon="-2.46455">
        <ele>56.599998474121</ele>
        <time>2019-12-29T10:12:32.000Z</time>
      </trkpt>
      <trkpt lat="47.32967" lon="-2.46471">
        <ele>56</ele>
        <time>2019-12-29T10:12:33.000Z</time>
      </trkpt>
      <trkpt lat="47.32966" lon="-2.46489">
        <ele>55.400001525879</ele>
        <time>2019-12-29T10:12:34.000Z</time>
      </trkpt>
      <trkpt lat="47.32965" lon="-2.46505">
        <ele>54.799999237061</ele>
        <time>2019-12-29T10:12:35.000Z</time>
      </trkpt>
      <trkpt lat="47.32964" lon="-2.46521">
        <ele>54.200000762939</ele>
        <time>2019-12-29T10:12:36.000Z</time>
      </trkpt>
      <trkpt lat="47.32963" lon="-2.46534">
        <ele>53.599998474121</ele>
        <time>2019-12-29T10:12:37.000Z</time>
      </trkpt>
      <trkpt lat="47.32962" lon="-2.46545">
        <ele>52.599998474121</ele>
        <time>2019-12-29T10:12:38.000Z</time>
      </trkpt>
      <trkpt lat="47.32963" lon="-2.46554">
        <ele>51.599998474121</ele>
        <time>2019-12-29T10:12:39.000Z</time>
      </trkpt>
      <trkpt lat="47.32965" lon="-2.46562">
        <ele>50.599998474121</ele>
        <time>2019-12-29T10:12:40.000Z</time>
      </trkpt>
      <trkpt lat="47.32968" lon="-2.46566">
        <ele>49.599998474121</ele>
        <time>2019-12-29T10:12:41.000Z</time>
      </trkpt>
      <trkpt lat="47.32972" lon="-2.46566">
        <ele>48.400001525879</ele>
        <time>2019-12-29T10:12:42.000Z</time>
      </trkpt>
      <trkpt lat="47.32975" lon="-2.46565">
        <ele>47.400001525879</ele>
        <time>2019-12-29T10:12:43.000Z</time>
      </trkpt>
      <trkpt lat="47.32978" lon="-2.46563">
        <ele>46.400001525879</ele>
        <time>2019-12-29T10:12:44.000Z</time>
      </trkpt>
      <trkpt lat="47.32988" lon="-2.46555">
        <ele>46.400001525879</ele>
        <time>2019-12-29T10:12:47.000Z</time>
      </trkpt>
      <trkpt lat="47.32991" lon="-2.46553">
        <ele>46.400001525879</ele>
        <time>2019-12-29T10:12:48.000Z</time>
      </trkpt>
      <trkpt lat="47.32999" lon="-2.46549">
        <ele>46.799999237061</ele>
        <time>2019-12-29T10:12:50.000Z</time>
      </trkpt>
      <trkpt lat="47.33003" lon="-2.46547">
        <ele>47.200000762939</ele>
        <time>2019-12-29T10:12:51.000Z</time>
      </trkpt>
      <trkpt lat="47.33007" lon="-2.46545">
        <ele>47.799999237061</ele>
        <time>2019-12-29T10:12:52.000Z</time>
      </trkpt>
      <trkpt lat="47.33011" lon="-2.46542">
        <ele>48.599998474121</ele>
        <time>2019-12-29T10:12:53.000Z</time>
      </trkpt>
      <trkpt lat="47.33015" lon="-2.4654">
        <ele>49</ele>
        <time>2019-12-29T10:12:54.000Z</time>
      </trkpt>
      <trkpt lat="47.3302" lon="-2.46539">
        <ele>49.400001525879</ele>
        <time>2019-12-29T10:12:55.000Z</time>
      </trkpt>
      <trkpt lat="47.33024" lon="-2.46538">
        <ele>50</ele>
        <time>2019-12-29T10:12:56.000Z</time>
      </trkpt>
      <trkpt lat="47.33028" lon="-2.46537">
        <ele>50.400001525879</ele>
        <time>2019-12-29T10:12:57.000Z</time>
      </trkpt>
      <trkpt lat="47.33033" lon="-2.46537">
        <ele>50.799999237061</ele>
        <time>2019-12-29T10:12:58.000Z</time>
      </trkpt>
      <trkpt lat="47.33038" lon="-2.46536">
        <ele>50.799999237061</ele>
        <time>2019-12-29T10:12:59.000Z</time>
      </trkpt>
      <trkpt lat="47.3305" lon="-2.46533">
        <ele>50.799999237061</ele>
        <time>2019-12-29T10:13:02.000Z</time>
      </trkpt>
      <trkpt lat="47.33061" lon="-2.4653">
        <ele>51.200000762939</ele>
        <time>2019-12-29T10:13:05.000Z</time>
      </trkpt>
      <trkpt lat="47.33065" lon="-2.46528">
        <ele>51.599998474121</ele>
        <time>2019-12-29T10:13:06.000Z</time>
      </trkpt>
      <trkpt lat="47.33068" lon="-2.46527">
        <ele>52</ele>
        <time>2019-12-29T10:13:07.000Z</time>
      </trkpt>
      <trkpt lat="47.33071" lon="-2.46527">
        <ele>52.400001525879</ele>
        <time>2019-12-29T10:13:08.000Z</time>
      </trkpt>
      <trkpt lat="47.33073" lon="-2.46528">
        <ele>52.799999237061</ele>
        <time>2019-12-29T10:13:09.000Z</time>
      </trkpt>
      <trkpt lat="47.33076" lon="-2.46536">
        <ele>52.799999237061</ele>
        <time>2019-12-29T10:13:11.000Z</time>
      </trkpt>
      <trkpt lat="47.33085" lon="-2.46571">
        <ele>52.799999237061</ele>
        <time>2019-12-29T10:13:17.000Z</time>
      </trkpt>
      <trkpt lat="47.33086" lon="-2.46578">
        <ele>52.799999237061</ele>
        <time>2019-12-29T10:13:18.000Z</time>
      </trkpt>
      <trkpt lat="47.33089" lon="-2.46591">
        <ele>52.799999237061</ele>
        <time>2019-12-29T10:13:20.000Z</time>
      </trkpt>
      <trkpt lat="47.33096" lon="-2.46614">
        <ele>52.799999237061</ele>
        <time>2019-12-29T10:13:24.000Z</time>
      </trkpt>
      <trkpt lat="47.33098" lon="-2.46619">
        <ele>53.200000762939</ele>
        <time>2019-12-29T10:13:25.000Z</time>
      </trkpt>
      <trkpt lat="47.33101" lon="-2.46625">
        <ele>53.599998474121</ele>
        <time>2019-12-29T10:13:26.000Z</time>
      </trkpt>
      <trkpt lat="47.33103" lon="-2.46631">
        <ele>54</ele>
        <time>2019-12-29T10:13:27.000Z</time>
      </trkpt>
      <trkpt lat="47.33106" lon="-2.46637">
        <ele>54.400001525879</ele>
        <time>2019-12-29T10:13:28.000Z</time>
      </trkpt>
      <trkpt lat="47.33109" lon="-2.46642">
        <ele>54.799999237061</ele>
        <time>2019-12-29T10:13:29.000Z</time>
      </trkpt>
      <trkpt lat="47.33114" lon="-2.46652">
        <ele>54.799999237061</ele>
        <time>2019-12-29T10:13:31.000Z</time>
      </trkpt>
      <trkpt lat="47.33136" lon="-2.46691">
        <ele>54.799999237061</ele>
        <time>2019-12-29T10:13:38.000Z</time>
      </trkpt>
      <trkpt lat="47.33163" lon="-2.46732">
        <ele>54.799999237061</ele>
        <time>2019-12-29T10:13:46.000Z</time>
      </trkpt>
      <trkpt lat="47.33174" lon="-2.46745">
        <ele>55.200000762939</ele>
        <time>2019-12-29T10:13:49.000Z</time>
      </trkpt>
      <trkpt lat="47.33177" lon="-2.46749">
        <ele>55.799999237061</ele>
        <time>2019-12-29T10:13:50.000Z</time>
      </trkpt>
      <trkpt lat="47.33181" lon="-2.46753">
        <ele>56.200000762939</ele>
        <time>2019-12-29T10:13:51.000Z</time>
      </trkpt>
      <trkpt lat="47.33184" lon="-2.46758">
        <ele>56.599998474121</ele>
        <time>2019-12-29T10:13:52.000Z</time>
      </trkpt>
      <trkpt lat="47.33188" lon="-2.46762">
        <ele>57</ele>
        <time>2019-12-29T10:13:53.000Z</time>
      </trkpt>
      <trkpt lat="47.33195" lon="-2.4677">
        <ele>57</ele>
        <time>2019-12-29T10:13:55.000Z</time>
      </trkpt>
      <trkpt lat="47.33218" lon="-2.46789">
        <ele>57</ele>
        <time>2019-12-29T10:14:01.000Z</time>
      </trkpt>
      <trkpt lat="47.33223" lon="-2.4679">
        <ele>57</ele>
        <time>2019-12-29T10:14:02.000Z</time>
      </trkpt>
      <trkpt lat="47.33242" lon="-2.46787">
        <ele>57</ele>
        <time>2019-12-29T10:14:06.000Z</time>
      </trkpt>
      <trkpt lat="47.3325" lon="-2.46784">
        <ele>57.400001525879</ele>
        <time>2019-12-29T10:14:08.000Z</time>
      </trkpt>
      <trkpt lat="47.33254" lon="-2.46783">
        <ele>57.799999237061</ele>
        <time>2019-12-29T10:14:09.000Z</time>
      </trkpt>
      <trkpt lat="47.33258" lon="-2.46782">
        <ele>58.400001525879</ele>
        <time>2019-12-29T10:14:10.000Z</time>
      </trkpt>
      <trkpt lat="47.33262" lon="-2.46783">
        <ele>58.799999237061</ele>
        <time>2019-12-29T10:14:11.000Z</time>
      </trkpt>
      <trkpt lat="47.33267" lon="-2.46785">
        <ele>59.200000762939</ele>
        <time>2019-12-29T10:14:12.000Z</time>
      </trkpt>
      <trkpt lat="47.33271" lon="-2.46789">
        <ele>59.200000762939</ele>
        <time>2019-12-29T10:14:13.000Z</time>
      </trkpt>
      <trkpt lat="47.33283" lon="-2.46808">
        <ele>59.200000762939</ele>
        <time>2019-12-29T10:14:17.000Z</time>
      </trkpt>
      <trkpt lat="47.33285" lon="-2.46814">
        <ele>59.200000762939</ele>
        <time>2019-12-29T10:14:18.000Z</time>
      </trkpt>
      <trkpt lat="47.33294" lon="-2.46839">
        <ele>59.200000762939</ele>
        <time>2019-12-29T10:14:22.000Z</time>
      </trkpt>
      <trkpt lat="47.33298" lon="-2.46853">
        <ele>59.200000762939</ele>
        <time>2019-12-29T10:14:24.000Z</time>
      </trkpt>
      <trkpt lat="47.33306" lon="-2.46874">
        <ele>59.200000762939</ele>
        <time>2019-12-29T10:14:28.000Z</time>
      </trkpt>
      <trkpt lat="47.33307" lon="-2.4688">
        <ele>59.200000762939</ele>
        <time>2019-12-29T10:14:29.000Z</time>
      </trkpt>
      <trkpt lat="47.33313" lon="-2.46907">
        <ele>59.200000762939</ele>
        <time>2019-12-29T10:14:33.000Z</time>
      </trkpt>
      <trkpt lat="47.33315" lon="-2.46914">
        <ele>59.200000762939</ele>
        <time>2019-12-29T10:14:34.000Z</time>
      </trkpt>
      <trkpt lat="47.33317" lon="-2.46921">
        <ele>58.799999237061</ele>
        <time>2019-12-29T10:14:35.000Z</time>
      </trkpt>
      <trkpt lat="47.33319" lon="-2.46928">
        <ele>58.400001525879</ele>
        <time>2019-12-29T10:14:36.000Z</time>
      </trkpt>
      <trkpt lat="47.33321" lon="-2.46935">
        <ele>58</ele>
        <time>2019-12-29T10:14:37.000Z</time>
      </trkpt>
      <trkpt lat="47.33323" lon="-2.46943">
        <ele>57.599998474121</ele>
        <time>2019-12-29T10:14:38.000Z</time>
      </trkpt>
      <trkpt lat="47.33325" lon="-2.46951">
        <ele>57.200000762939</ele>
        <time>2019-12-29T10:14:39.000Z</time>
      </trkpt>
      <trkpt lat="47.33337" lon="-2.46997">
        <ele>57.200000762939</ele>
        <time>2019-12-29T10:14:44.000Z</time>
      </trkpt>
      <trkpt lat="47.33339" lon="-2.47007">
        <ele>57.200000762939</ele>
        <time>2019-12-29T10:14:45.000Z</time>
      </trkpt>
      <trkpt lat="47.33344" lon="-2.4703">
        <ele>56.799999237061</ele>
        <time>2019-12-29T10:14:47.000Z</time>
      </trkpt>
      <trkpt lat="47.33345" lon="-2.47041">
        <ele>56.200000762939</ele>
        <time>2019-12-29T10:14:48.000Z</time>
      </trkpt>
      <trkpt lat="47.33347" lon="-2.47054">
        <ele>55.799999237061</ele>
        <time>2019-12-29T10:14:49.000Z</time>
      </trkpt>
      <trkpt lat="47.33348" lon="-2.47065">
        <ele>55.400001525879</ele>
        <time>2019-12-29T10:14:50.000Z</time>
      </trkpt>
      <trkpt lat="47.3335" lon="-2.47077">
        <ele>55</ele>
        <time>2019-12-29T10:14:51.000Z</time>
      </trkpt>
      <trkpt lat="47.33358" lon="-2.47118">
        <ele>55</ele>
        <time>2019-12-29T10:14:55.000Z</time>
      </trkpt>
      <trkpt lat="47.33364" lon="-2.47146">
        <ele>55</ele>
        <time>2019-12-29T10:14:58.000Z</time>
      </trkpt>
      <trkpt lat="47.33367" lon="-2.47162">
        <ele>55</ele>
        <time>2019-12-29T10:15:00.000Z</time>
      </trkpt>
      <trkpt lat="47.33372" lon="-2.47193">
        <ele>55.400001525879</ele>
        <time>2019-12-29T10:15:04.000Z</time>
      </trkpt>
      <trkpt lat="47.33373" lon="-2.472">
        <ele>55.799999237061</ele>
        <time>2019-12-29T10:15:05.000Z</time>
      </trkpt>
      <trkpt lat="47.33374" lon="-2.47208">
        <ele>56.200000762939</ele>
        <time>2019-12-29T10:15:06.000Z</time>
      </trkpt>
      <trkpt lat="47.33375" lon="-2.47216">
        <ele>56.599998474121</ele>
        <time>2019-12-29T10:15:07.000Z</time>
      </trkpt>
      <trkpt lat="47.33377" lon="-2.47224">
        <ele>57</ele>
        <time>2019-12-29T10:15:08.000Z</time>
      </trkpt>
      <trkpt lat="47.33383" lon="-2.47285">
        <ele>57</ele>
        <time>2019-12-29T10:15:15.000Z</time>
      </trkpt>
      <trkpt lat="47.33388" lon="-2.47331">
        <ele>57</ele>
        <time>2019-12-29T10:15:21.000Z</time>
      </trkpt>
      <trkpt lat="47.33394" lon="-2.47354">
        <ele>57</ele>
        <time>2019-12-29T10:15:24.000Z</time>
      </trkpt>
      <trkpt lat="47.33398" lon="-2.4737">
        <ele>57</ele>
        <time>2019-12-29T10:15:26.000Z</time>
      </trkpt>
      <trkpt lat="47.3341" lon="-2.47408">
        <ele>57</ele>
        <time>2019-12-29T10:15:31.000Z</time>
      </trkpt>
      <trkpt lat="47.33412" lon="-2.47416">
        <ele>57</ele>
        <time>2019-12-29T10:15:32.000Z</time>
      </trkpt>
      <trkpt lat="47.33414" lon="-2.47424">
        <ele>57</ele>
        <time>2019-12-29T10:15:33.000Z</time>
      </trkpt>
      <trkpt lat="47.33423" lon="-2.47462">
        <ele>57</ele>
        <time>2019-12-29T10:15:38.000Z</time>
      </trkpt>
      <trkpt lat="47.33432" lon="-2.47491">
        <ele>57</ele>
        <time>2019-12-29T10:15:42.000Z</time>
      </trkpt>
      <trkpt lat="47.3344" lon="-2.47513">
        <ele>57</ele>
        <time>2019-12-29T10:15:45.000Z</time>
      </trkpt>
      <trkpt lat="47.33464" lon="-2.47566">
        <ele>57</ele>
        <time>2019-12-29T10:15:52.000Z</time>
      </trkpt>
      <trkpt lat="47.33485" lon="-2.47602">
        <ele>57</ele>
        <time>2019-12-29T10:15:57.000Z</time>
      </trkpt>
      <trkpt lat="47.33491" lon="-2.47607">
        <ele>57</ele>
        <time>2019-12-29T10:15:58.000Z</time>
      </trkpt>
      <trkpt lat="47.33502" lon="-2.47617">
        <ele>57</ele>
        <time>2019-12-29T10:16:00.000Z</time>
      </trkpt>
      <trkpt lat="47.33509" lon="-2.47631">
        <ele>57</ele>
        <time>2019-12-29T10:16:02.000Z</time>
      </trkpt>
      <trkpt lat="47.33525" lon="-2.47668">
        <ele>57</ele>
        <time>2019-12-29T10:16:07.000Z</time>
      </trkpt>
      <trkpt lat="47.33529" lon="-2.47673">
        <ele>57</ele>
        <time>2019-12-29T10:16:08.000Z</time>
      </trkpt>
      <trkpt lat="47.33549" lon="-2.47684">
        <ele>57</ele>
        <time>2019-12-29T10:16:12.000Z</time>
      </trkpt>
      <trkpt lat="47.33557" lon="-2.47691">
        <ele>57</ele>
        <time>2019-12-29T10:16:14.000Z</time>
      </trkpt>
      <trkpt lat="47.33565" lon="-2.47697">
        <ele>57.400001525879</ele>
        <time>2019-12-29T10:16:16.000Z</time>
      </trkpt>
      <trkpt lat="47.33569" lon="-2.47698">
        <ele>57.799999237061</ele>
        <time>2019-12-29T10:16:17.000Z</time>
      </trkpt>
      <trkpt lat="47.33573" lon="-2.47698">
        <ele>58.200000762939</ele>
        <time>2019-12-29T10:16:18.000Z</time>
      </trkpt>
      <trkpt lat="47.33577" lon="-2.47699">
        <ele>58.799999237061</ele>
        <time>2019-12-29T10:16:19.000Z</time>
      </trkpt>
      <trkpt lat="47.3358" lon="-2.477">
        <ele>59.200000762939</ele>
        <time>2019-12-29T10:16:20.000Z</time>
      </trkpt>
      <trkpt lat="47.33596" lon="-2.47694">
        <ele>59.200000762939</ele>
        <time>2019-12-29T10:16:25.000Z</time>
      </trkpt>
      <trkpt lat="47.33608" lon="-2.47682">
        <ele>59.200000762939</ele>
        <time>2019-12-29T10:16:29.000Z</time>
      </trkpt>
      <trkpt lat="47.33625" lon="-2.47666">
        <ele>59.200000762939</ele>
        <time>2019-12-29T10:16:34.000Z</time>
      </trkpt>
      <trkpt lat="47.33632" lon="-2.47659">
        <ele>59.200000762939</ele>
        <time>2019-12-29T10:16:36.000Z</time>
      </trkpt>
      <trkpt lat="47.33664" lon="-2.47637">
        <ele>59.200000762939</ele>
        <time>2019-12-29T10:16:43.000Z</time>
      </trkpt>
      <trkpt lat="47.33686" lon="-2.47623">
        <ele>59.200000762939</ele>
        <time>2019-12-29T10:16:48.000Z</time>
      </trkpt>
      <trkpt lat="47.33695" lon="-2.4762">
        <ele>59.200000762939</ele>
        <time>2019-12-29T10:16:50.000Z</time>
      </trkpt>
      <trkpt lat="47.33709" lon="-2.47619">
        <ele>59.200000762939</ele>
        <time>2019-12-29T10:16:53.000Z</time>
      </trkpt>
      <trkpt lat="47.33722" lon="-2.4762">
        <ele>59.200000762939</ele>
        <time>2019-12-29T10:16:56.000Z</time>
      </trkpt>
      <trkpt lat="47.33741" lon="-2.47628">
        <ele>59.200000762939</ele>
        <time>2019-12-29T10:17:01.000Z</time>
      </trkpt>
      <trkpt lat="47.33757" lon="-2.47645">
        <ele>59.200000762939</ele>
        <time>2019-12-29T10:17:06.000Z</time>
      </trkpt>
      <trkpt lat="47.33766" lon="-2.47668">
        <ele>59.200000762939</ele>
        <time>2019-12-29T10:17:10.000Z</time>
      </trkpt>
      <trkpt lat="47.33783" lon="-2.4769">
        <ele>59.200000762939</ele>
        <time>2019-12-29T10:17:14.000Z</time>
      </trkpt>
      <trkpt lat="47.33792" lon="-2.47703">
        <ele>59.200000762939</ele>
        <time>2019-12-29T10:17:16.000Z</time>
      </trkpt>
      <trkpt lat="47.33806" lon="-2.4772">
        <ele>58.799999237061</ele>
        <time>2019-12-29T10:17:19.000Z</time>
      </trkpt>
      <trkpt lat="47.3381" lon="-2.47725">
        <ele>58.400001525879</ele>
        <time>2019-12-29T10:17:20.000Z</time>
      </trkpt>
      <trkpt lat="47.33814" lon="-2.47731">
        <ele>58</ele>
        <time>2019-12-29T10:17:21.000Z</time>
      </trkpt>
      <trkpt lat="47.33818" lon="-2.47736">
        <ele>57.599998474121</ele>
        <time>2019-12-29T10:17:22.000Z</time>
      </trkpt>
      <trkpt lat="47.33822" lon="-2.47741">
        <ele>57.200000762939</ele>
        <time>2019-12-29T10:17:23.000Z</time>
      </trkpt>
      <trkpt lat="47.33827" lon="-2.47745">
        <ele>57.200000762939</ele>
        <time>2019-12-29T10:17:24.000Z</time>
      </trkpt>
      <trkpt lat="47.33835" lon="-2.47753">
        <ele>57.200000762939</ele>
        <time>2019-12-29T10:17:26.000Z</time>
      </trkpt>
      <trkpt lat="47.33848" lon="-2.47773">
        <ele>57.200000762939</ele>
        <time>2019-12-29T10:17:30.000Z</time>
      </trkpt>
      <trkpt lat="47.3385" lon="-2.47789">
        <ele>56.799999237061</ele>
        <time>2019-12-29T10:17:33.000Z</time>
      </trkpt>
      <trkpt lat="47.33848" lon="-2.47795">
        <ele>56.200000762939</ele>
        <time>2019-12-29T10:17:34.000Z</time>
      </trkpt>
      <trkpt lat="47.33845" lon="-2.47801">
        <ele>55.799999237061</ele>
        <time>2019-12-29T10:17:35.000Z</time>
      </trkpt>
      <trkpt lat="47.33843" lon="-2.47807">
        <ele>55.400001525879</ele>
        <time>2019-12-29T10:17:36.000Z</time>
      </trkpt>
      <trkpt lat="47.33841" lon="-2.47812">
        <ele>55</ele>
        <time>2019-12-29T10:17:37.000Z</time>
      </trkpt>
      <trkpt lat="47.33837" lon="-2.47818">
        <ele>55</ele>
        <time>2019-12-29T10:17:38.000Z</time>
      </trkpt>
      <trkpt lat="47.33828" lon="-2.47835">
        <ele>55</ele>
        <time>2019-12-29T10:17:41.000Z</time>
      </trkpt>
      <trkpt lat="47.33824" lon="-2.47841">
        <ele>55</ele>
        <time>2019-12-29T10:17:42.000Z</time>
      </trkpt>
      <trkpt lat="47.33814" lon="-2.47858">
        <ele>55</ele>
        <time>2019-12-29T10:17:45.000Z</time>
      </trkpt>
      <trkpt lat="47.3379" lon="-2.47901">
        <ele>55</ele>
        <time>2019-12-29T10:17:51.000Z</time>
      </trkpt>
      <trkpt lat="47.33783" lon="-2.47915">
        <ele>54.599998474121</ele>
        <time>2019-12-29T10:17:53.000Z</time>
      </trkpt>
      <trkpt lat="47.3378" lon="-2.47923">
        <ele>54.200000762939</ele>
        <time>2019-12-29T10:17:54.000Z</time>
      </trkpt>
      <trkpt lat="47.33776" lon="-2.4793">
        <ele>53.799999237061</ele>
        <time>2019-12-29T10:17:55.000Z</time>
      </trkpt>
      <trkpt lat="47.33772" lon="-2.47938">
        <ele>53.400001525879</ele>
        <time>2019-12-29T10:17:56.000Z</time>
      </trkpt>
      <trkpt lat="47.33769" lon="-2.47946">
        <ele>53</ele>
        <time>2019-12-29T10:17:57.000Z</time>
      </trkpt>
      <trkpt lat="47.33756" lon="-2.47992">
        <ele>53</ele>
        <time>2019-12-29T10:18:02.000Z</time>
      </trkpt>
      <trkpt lat="47.33754" lon="-2.48001">
        <ele>53</ele>
        <time>2019-12-29T10:18:03.000Z</time>
      </trkpt>
      <trkpt lat="47.33745" lon="-2.48053">
        <ele>52.599998474121</ele>
        <time>2019-12-29T10:18:09.000Z</time>
      </trkpt>
      <trkpt lat="47.33743" lon="-2.48061">
        <ele>52.200000762939</ele>
        <time>2019-12-29T10:18:10.000Z</time>
      </trkpt>
      <trkpt lat="47.33741" lon="-2.48069">
        <ele>51.799999237061</ele>
        <time>2019-12-29T10:18:11.000Z</time>
      </trkpt>
      <trkpt lat="47.33739" lon="-2.48078">
        <ele>51.400001525879</ele>
        <time>2019-12-29T10:18:12.000Z</time>
      </trkpt>
      <trkpt lat="47.33737" lon="-2.48087">
        <ele>51</ele>
        <time>2019-12-29T10:18:13.000Z</time>
      </trkpt>
      <trkpt lat="47.33732" lon="-2.48115">
        <ele>50.599998474121</ele>
        <time>2019-12-29T10:18:16.000Z</time>
      </trkpt>
      <trkpt lat="47.33731" lon="-2.48125">
        <ele>50</ele>
        <time>2019-12-29T10:18:17.000Z</time>
      </trkpt>
      <trkpt lat="47.3373" lon="-2.48136">
        <ele>49.599998474121</ele>
        <time>2019-12-29T10:18:18.000Z</time>
      </trkpt>
      <trkpt lat="47.33729" lon="-2.48145">
        <ele>49.200000762939</ele>
        <time>2019-12-29T10:18:19.000Z</time>
      </trkpt>
      <trkpt lat="47.33728" lon="-2.48155">
        <ele>48.799999237061</ele>
        <time>2019-12-29T10:18:20.000Z</time>
      </trkpt>
      <trkpt lat="47.33728" lon="-2.48165">
        <ele>48.799999237061</ele>
        <time>2019-12-29T10:18:21.000Z</time>
      </trkpt>
      <trkpt lat="47.33724" lon="-2.48224">
        <ele>48.799999237061</ele>
        <time>2019-12-29T10:18:27.000Z</time>
      </trkpt>
      <trkpt lat="47.33722" lon="-2.48275">
        <ele>48.400001525879</ele>
        <time>2019-12-29T10:18:32.000Z</time>
      </trkpt>
      <trkpt lat="47.33722" lon="-2.48285">
        <ele>47.799999237061</ele>
        <time>2019-12-29T10:18:33.000Z</time>
      </trkpt>
      <trkpt lat="47.33722" lon="-2.48295">
        <ele>47.400001525879</ele>
        <time>2019-12-29T10:18:34.000Z</time>
      </trkpt>
      <trkpt lat="47.33722" lon="-2.48304">
        <ele>47</ele>
        <time>2019-12-29T10:18:35.000Z</time>
      </trkpt>
      <trkpt lat="47.33722" lon="-2.48312">
        <ele>46.599998474121</ele>
        <time>2019-12-29T10:18:36.000Z</time>
      </trkpt>
      <trkpt lat="47.33723" lon="-2.4832">
        <ele>46.599998474121</ele>
        <time>2019-12-29T10:18:38.000Z</time>
      </trkpt>
      <trkpt lat="47.33723" lon="-2.48323">
        <ele>45.599998474121</ele>
        <time>2019-12-29T10:18:39.000Z</time>
      </trkpt>
      <trkpt lat="47.33723" lon="-2.48325">
        <ele>45.200000762939</ele>
        <time>2019-12-29T10:18:40.000Z</time>
      </trkpt>
      <trkpt lat="47.33723" lon="-2.48327">
        <ele>44.799999237061</ele>
        <time>2019-12-29T10:18:41.000Z</time>
      </trkpt>
      <trkpt lat="47.33721" lon="-2.4833">
        <ele>44.400001525879</ele>
        <time>2019-12-29T10:18:42.000Z</time>
      </trkpt>
      <trkpt lat="47.33709" lon="-2.48335">
        <ele>44.400001525879</ele>
        <time>2019-12-29T10:18:45.000Z</time>
      </trkpt>
      <trkpt lat="47.33704" lon="-2.48336">
        <ele>44.400001525879</ele>
        <time>2019-12-29T10:18:46.000Z</time>
      </trkpt>
      <trkpt lat="47.33683" lon="-2.4834">
        <ele>44.400001525879</ele>
        <time>2019-12-29T10:18:49.000Z</time>
      </trkpt>
      <trkpt lat="47.33659" lon="-2.48349">
        <ele>44.400001525879</ele>
        <time>2019-12-29T10:18:52.000Z</time>
      </trkpt>
      <trkpt lat="47.33651" lon="-2.48355">
        <ele>44.400001525879</ele>
        <time>2019-12-29T10:18:53.000Z</time>
      </trkpt>
      <trkpt lat="47.33643" lon="-2.48362">
        <ele>44</ele>
        <time>2019-12-29T10:18:54.000Z</time>
      </trkpt>
      <trkpt lat="47.33637" lon="-2.48371">
        <ele>43.599998474121</ele>
        <time>2019-12-29T10:18:55.000Z</time>
      </trkpt>
      <trkpt lat="47.33631" lon="-2.48382">
        <ele>43.200000762939</ele>
        <time>2019-12-29T10:18:56.000Z</time>
      </trkpt>
      <trkpt lat="47.33627" lon="-2.48393">
        <ele>42.799999237061</ele>
        <time>2019-12-29T10:18:57.000Z</time>
      </trkpt>
      <trkpt lat="47.33623" lon="-2.48404">
        <ele>42.400001525879</ele>
        <time>2019-12-29T10:18:58.000Z</time>
      </trkpt>
      <trkpt lat="47.3362" lon="-2.48417">
        <ele>42.400001525879</ele>
        <time>2019-12-29T10:18:59.000Z</time>
      </trkpt>
      <trkpt lat="47.33618" lon="-2.48429">
        <ele>42.400001525879</ele>
        <time>2019-12-29T10:19:00.000Z</time>
      </trkpt>
      <trkpt lat="47.33606" lon="-2.48474">
        <ele>42</ele>
        <time>2019-12-29T10:19:04.000Z</time>
      </trkpt>
      <trkpt lat="47.33602" lon="-2.48485">
        <ele>41.400001525879</ele>
        <time>2019-12-29T10:19:05.000Z</time>
      </trkpt>
      <trkpt lat="47.33598" lon="-2.48495">
        <ele>41</ele>
        <time>2019-12-29T10:19:06.000Z</time>
      </trkpt>
      <trkpt lat="47.33593" lon="-2.48506">
        <ele>40.599998474121</ele>
        <time>2019-12-29T10:19:07.000Z</time>
      </trkpt>
      <trkpt lat="47.33588" lon="-2.48515">
        <ele>40.200000762939</ele>
        <time>2019-12-29T10:19:08.000Z</time>
      </trkpt>
      <trkpt lat="47.33583" lon="-2.48525">
        <ele>40.200000762939</ele>
        <time>2019-12-29T10:19:09.000Z</time>
      </trkpt>
      <trkpt lat="47.3355" lon="-2.48589">
        <ele>40.200000762939</ele>
        <time>2019-12-29T10:19:16.000Z</time>
      </trkpt>
      <trkpt lat="47.33546" lon="-2.48598">
        <ele>40.200000762939</ele>
        <time>2019-12-29T10:19:17.000Z</time>
      </trkpt>
      <trkpt lat="47.33507" lon="-2.48661">
        <ele>40.200000762939</ele>
        <time>2019-12-29T10:19:25.000Z</time>
      </trkpt>
      <trkpt lat="47.33502" lon="-2.48668">
        <ele>40.200000762939</ele>
        <time>2019-12-29T10:19:26.000Z</time>
      </trkpt>
      <trkpt lat="47.33481" lon="-2.48694">
        <ele>40.200000762939</ele>
        <time>2019-12-29T10:19:30.000Z</time>
      </trkpt>
      <trkpt lat="47.33444" lon="-2.48739">
        <ele>40.200000762939</ele>
        <time>2019-12-29T10:19:37.000Z</time>
      </trkpt>
      <trkpt lat="47.33402" lon="-2.4879">
        <ele>40.200000762939</ele>
        <time>2019-12-29T10:19:45.000Z</time>
      </trkpt>
      <trkpt lat="47.33397" lon="-2.48796">
        <ele>40.200000762939</ele>
        <time>2019-12-29T10:19:46.000Z</time>
      </trkpt>
      <trkpt lat="47.33371" lon="-2.48824">
        <ele>40.200000762939</ele>
        <time>2019-12-29T10:19:51.000Z</time>
      </trkpt>
      <trkpt lat="47.33365" lon="-2.48827">
        <ele>40.200000762939</ele>
        <time>2019-12-29T10:19:52.000Z</time>
      </trkpt>
      <trkpt lat="47.33346" lon="-2.48832">
        <ele>40.200000762939</ele>
        <time>2019-12-29T10:19:55.000Z</time>
      </trkpt>
      <trkpt lat="47.3334" lon="-2.48832">
        <ele>40.200000762939</ele>
        <time>2019-12-29T10:19:56.000Z</time>
      </trkpt>
      <trkpt lat="47.33305" lon="-2.4883">
        <ele>40.200000762939</ele>
        <time>2019-12-29T10:20:02.000Z</time>
      </trkpt>
      <trkpt lat="47.33295" lon="-2.48833">
        <ele>40.200000762939</ele>
        <time>2019-12-29T10:20:04.000Z</time>
      </trkpt>
      <trkpt lat="47.33285" lon="-2.48841">
        <ele>40.200000762939</ele>
        <time>2019-12-29T10:20:06.000Z</time>
      </trkpt>
      <trkpt lat="47.33275" lon="-2.4885">
        <ele>40.200000762939</ele>
        <time>2019-12-29T10:20:08.000Z</time>
      </trkpt>
      <trkpt lat="47.33271" lon="-2.48855">
        <ele>40.200000762939</ele>
        <time>2019-12-29T10:20:09.000Z</time>
      </trkpt>
      <trkpt lat="47.33265" lon="-2.48863">
        <ele>40.200000762939</ele>
        <time>2019-12-29T10:20:11.000Z</time>
      </trkpt>
      <trkpt lat="47.33255" lon="-2.48875">
        <ele>40.200000762939</ele>
        <time>2019-12-29T10:20:16.000Z</time>
      </trkpt>
      <trkpt lat="47.33251" lon="-2.48884">
        <ele>40.200000762939</ele>
        <time>2019-12-29T10:20:20.000Z</time>
      </trkpt>
      <trkpt lat="47.3325" lon="-2.48888">
        <ele>40.200000762939</ele>
        <time>2019-12-29T10:20:21.000Z</time>
      </trkpt>
      <trkpt lat="47.33254" lon="-2.48907">
        <ele>40.200000762939</ele>
        <time>2019-12-29T10:20:25.000Z</time>
      </trkpt>
      <trkpt lat="47.33263" lon="-2.48951">
        <ele>40.200000762939</ele>
        <time>2019-12-29T10:20:32.000Z</time>
      </trkpt>
      <trkpt lat="47.33278" lon="-2.49006">
        <ele>40.200000762939</ele>
        <time>2019-12-29T10:20:40.000Z</time>
      </trkpt>
      <trkpt lat="47.33296" lon="-2.4906">
        <ele>40.200000762939</ele>
        <time>2019-12-29T10:20:47.000Z</time>
      </trkpt>
      <trkpt lat="47.33314" lon="-2.49089">
        <ele>40.200000762939</ele>
        <time>2019-12-29T10:20:51.000Z</time>
      </trkpt>
      <trkpt lat="47.33318" lon="-2.49096">
        <ele>40.200000762939</ele>
        <time>2019-12-29T10:20:52.000Z</time>
      </trkpt>
      <trkpt lat="47.33346" lon="-2.49137">
        <ele>40.200000762939</ele>
        <time>2019-12-29T10:20:58.000Z</time>
      </trkpt>
      <trkpt lat="47.33365" lon="-2.49173">
        <ele>40.200000762939</ele>
        <time>2019-12-29T10:21:03.000Z</time>
      </trkpt>
      <trkpt lat="47.33382" lon="-2.49222">
        <ele>40.200000762939</ele>
        <time>2019-12-29T10:21:09.000Z</time>
      </trkpt>
      <trkpt lat="47.33384" lon="-2.49231">
        <ele>40.200000762939</ele>
        <time>2019-12-29T10:21:10.000Z</time>
      </trkpt>
      <trkpt lat="47.33388" lon="-2.49271">
        <ele>40.200000762939</ele>
        <time>2019-12-29T10:21:14.000Z</time>
      </trkpt>
      <trkpt lat="47.33391" lon="-2.49281">
        <ele>40.200000762939</ele>
        <time>2019-12-29T10:21:15.000Z</time>
      </trkpt>
      <trkpt lat="47.33403" lon="-2.49308">
        <ele>40.200000762939</ele>
        <time>2019-12-29T10:21:18.000Z</time>
      </trkpt>
      <trkpt lat="47.33416" lon="-2.49345">
        <ele>40.200000762939</ele>
        <time>2019-12-29T10:21:22.000Z</time>
      </trkpt>
      <trkpt lat="47.3342" lon="-2.49364">
        <ele>40.200000762939</ele>
        <time>2019-12-29T10:21:24.000Z</time>
      </trkpt>
      <trkpt lat="47.33427" lon="-2.49423">
        <ele>39.799999237061</ele>
        <time>2019-12-29T10:21:30.000Z</time>
      </trkpt>
      <trkpt lat="47.33428" lon="-2.49432">
        <ele>39.400001525879</ele>
        <time>2019-12-29T10:21:31.000Z</time>
      </trkpt>
      <trkpt lat="47.33429" lon="-2.49442">
        <ele>39</ele>
        <time>2019-12-29T10:21:32.000Z</time>
      </trkpt>
      <trkpt lat="47.3343" lon="-2.49452">
        <ele>38.200000762939</ele>
        <time>2019-12-29T10:21:33.000Z</time>
      </trkpt>
      <trkpt lat="47.33437" lon="-2.49507">
        <ele>38.200000762939</ele>
        <time>2019-12-29T10:21:39.000Z</time>
      </trkpt>
      <trkpt lat="47.33447" lon="-2.49592">
        <ele>38.200000762939</ele>
        <time>2019-12-29T10:21:48.000Z</time>
      </trkpt>
      <trkpt lat="47.33448" lon="-2.49602">
        <ele>38.200000762939</ele>
        <time>2019-12-29T10:21:49.000Z</time>
      </trkpt>
      <trkpt lat="47.33457" lon="-2.49648">
        <ele>38.200000762939</ele>
        <time>2019-12-29T10:21:54.000Z</time>
      </trkpt>
      <trkpt lat="47.33463" lon="-2.49666">
        <ele>38.200000762939</ele>
        <time>2019-12-29T10:21:56.000Z</time>
      </trkpt>
      <trkpt lat="47.33489" lon="-2.49731">
        <ele>38.200000762939</ele>
        <time>2019-12-29T10:22:04.000Z</time>
      </trkpt>
      <trkpt lat="47.33518" lon="-2.49804">
        <ele>38.200000762939</ele>
        <time>2019-12-29T10:22:13.000Z</time>
      </trkpt>
      <trkpt lat="47.33522" lon="-2.49813">
        <ele>38.200000762939</ele>
        <time>2019-12-29T10:22:14.000Z</time>
      </trkpt>
      <trkpt lat="47.33547" lon="-2.49882">
        <ele>38.200000762939</ele>
        <time>2019-12-29T10:22:22.000Z</time>
      </trkpt>
      <trkpt lat="47.33573" lon="-2.49957">
        <ele>38.200000762939</ele>
        <time>2019-12-29T10:22:30.000Z</time>
      </trkpt>
      <trkpt lat="47.33576" lon="-2.49966">
        <ele>38.200000762939</ele>
        <time>2019-12-29T10:22:31.000Z</time>
      </trkpt>
      <trkpt lat="47.33601" lon="-2.50036">
        <ele>38.200000762939</ele>
        <time>2019-12-29T10:22:39.000Z</time>
      </trkpt>
      <trkpt lat="47.33617" lon="-2.50076">
        <ele>38.200000762939</ele>
        <time>2019-12-29T10:22:45.000Z</time>
      </trkpt>
      <trkpt lat="47.33625" lon="-2.50097">
        <ele>38.200000762939</ele>
        <time>2019-12-29T10:22:50.000Z</time>
      </trkpt>
      <trkpt lat="47.33625" lon="-2.501">
        <ele>38.200000762939</ele>
        <time>2019-12-29T10:22:51.000Z</time>
      </trkpt>
      <trkpt lat="47.33624" lon="-2.50102">
        <ele>38.200000762939</ele>
        <time>2019-12-29T10:22:52.000Z</time>
      </trkpt>
      <trkpt lat="47.3362" lon="-2.50105">
        <ele>38.200000762939</ele>
        <time>2019-12-29T10:22:55.000Z</time>
      </trkpt>
      <trkpt lat="47.33617" lon="-2.50105">
        <ele>38.200000762939</ele>
        <time>2019-12-29T10:22:57.000Z</time>
      </trkpt>
      <trkpt lat="47.33615" lon="-2.50103">
        <ele>38.200000762939</ele>
        <time>2019-12-29T10:22:59.000Z</time>
      </trkpt>
      <trkpt lat="47.33614" lon="-2.50101">
        <ele>38.200000762939</ele>
        <time>2019-12-29T10:23:00.000Z</time>
      </trkpt>
      <trkpt lat="47.33601" lon="-2.5009">
        <ele>38.200000762939</ele>
        <time>2019-12-29T10:23:05.000Z</time>
      </trkpt>
      <trkpt lat="47.33586" lon="-2.50079">
        <ele>38.200000762939</ele>
        <time>2019-12-29T10:23:09.000Z</time>
      </trkpt>
      <trkpt lat="47.33582" lon="-2.50075">
        <ele>38.200000762939</ele>
        <time>2019-12-29T10:23:10.000Z</time>
      </trkpt>
      <trkpt lat="47.33565" lon="-2.50057">
        <ele>38.200000762939</ele>
        <time>2019-12-29T10:23:15.000Z</time>
      </trkpt>
      <trkpt lat="47.33561" lon="-2.50053">
        <ele>38.200000762939</ele>
        <time>2019-12-29T10:23:16.000Z</time>
      </trkpt>
      <trkpt lat="47.33557" lon="-2.5005">
        <ele>38.599998474121</ele>
        <time>2019-12-29T10:23:17.000Z</time>
      </trkpt>
      <trkpt lat="47.33554" lon="-2.50046">
        <ele>39</ele>
        <time>2019-12-29T10:23:18.000Z</time>
      </trkpt>
      <trkpt lat="47.3355" lon="-2.50043">
        <ele>39.400001525879</ele>
        <time>2019-12-29T10:23:19.000Z</time>
      </trkpt>
      <trkpt lat="47.33546" lon="-2.50039">
        <ele>39.799999237061</ele>
        <time>2019-12-29T10:23:20.000Z</time>
      </trkpt>
      <trkpt lat="47.33542" lon="-2.50035">
        <ele>40.200000762939</ele>
        <time>2019-12-29T10:23:21.000Z</time>
      </trkpt>
      <trkpt lat="47.33539" lon="-2.50031">
        <ele>40.200000762939</ele>
        <time>2019-12-29T10:23:22.000Z</time>
      </trkpt>
      <trkpt lat="47.33535" lon="-2.50026">
        <ele>40.200000762939</ele>
        <time>2019-12-29T10:23:23.000Z</time>
      </trkpt>
      <trkpt lat="47.33516" lon="-2.49999">
        <ele>40.200000762939</ele>
        <time>2019-12-29T10:23:28.000Z</time>
      </trkpt>
      <trkpt lat="47.33512" lon="-2.49996">
        <ele>40.200000762939</ele>
        <time>2019-12-29T10:23:29.000Z</time>
      </trkpt>
      <trkpt lat="47.33494" lon="-2.49992">
        <ele>40.200000762939</ele>
        <time>2019-12-29T10:23:33.000Z</time>
      </trkpt>
      <trkpt lat="47.33475" lon="-2.49994">
        <ele>39.400001525879</ele>
        <time>2019-12-29T10:23:37.000Z</time>
      </trkpt>
      <trkpt lat="47.33471" lon="-2.49995">
        <ele>39</ele>
        <time>2019-12-29T10:23:38.000Z</time>
      </trkpt>
      <trkpt lat="47.33466" lon="-2.49996">
        <ele>38.599998474121</ele>
        <time>2019-12-29T10:23:39.000Z</time>
      </trkpt>
      <trkpt lat="47.33461" lon="-2.49997">
        <ele>38.200000762939</ele>
        <time>2019-12-29T10:23:40.000Z</time>
      </trkpt>
      <trkpt lat="47.33452" lon="-2.49998">
        <ele>38.200000762939</ele>
        <time>2019-12-29T10:23:42.000Z</time>
      </trkpt>
      <trkpt lat="47.33448" lon="-2.49998">
        <ele>38.200000762939</ele>
        <time>2019-12-29T10:23:43.000Z</time>
      </trkpt>
      <trkpt lat="47.33429" lon="-2.49989">
        <ele>38.200000762939</ele>
        <time>2019-12-29T10:23:47.000Z</time>
      </trkpt>
      <trkpt lat="47.33421" lon="-2.49982">
        <ele>38.200000762939</ele>
        <time>2019-12-29T10:23:49.000Z</time>
      </trkpt>
      <trkpt lat="47.33412" lon="-2.49976">
        <ele>38.200000762939</ele>
        <time>2019-12-29T10:23:51.000Z</time>
      </trkpt>
      <trkpt lat="47.33404" lon="-2.49971">
        <ele>38.200000762939</ele>
        <time>2019-12-29T10:23:53.000Z</time>
      </trkpt>
      <trkpt lat="47.33379" lon="-2.49954">
        <ele>38.200000762939</ele>
        <time>2019-12-29T10:23:59.000Z</time>
      </trkpt>
      <trkpt lat="47.33361" lon="-2.49937">
        <ele>38.200000762939</ele>
        <time>2019-12-29T10:24:05.000Z</time>
      </trkpt>
      <trkpt lat="47.33352" lon="-2.49929">
        <ele>38.200000762939</ele>
        <time>2019-12-29T10:24:10.000Z</time>
      </trkpt>
      <trkpt lat="47.33339" lon="-2.49916">
        <ele>38.200000762939</ele>
        <time>2019-12-29T10:24:14.000Z</time>
      </trkpt>
      <trkpt lat="47.33316" lon="-2.49893">
        <ele>38.200000762939</ele>
        <time>2019-12-29T10:24:20.000Z</time>
      </trkpt>
      <trkpt lat="47.33313" lon="-2.4989">
        <ele>38.200000762939</ele>
        <time>2019-12-29T10:24:21.000Z</time>
      </trkpt>
      <trkpt lat="47.33292" lon="-2.49869">
        <ele>38.200000762939</ele>
        <time>2019-12-29T10:24:27.000Z</time>
      </trkpt>
      <trkpt lat="47.33274" lon="-2.49851">
        <ele>38.200000762939</ele>
        <time>2019-12-29T10:24:32.000Z</time>
      </trkpt>
      <trkpt lat="47.3327" lon="-2.49847">
        <ele>38.200000762939</ele>
        <time>2019-12-29T10:24:33.000Z</time>
      </trkpt>
      <trkpt lat="47.3325" lon="-2.49824">
        <ele>38.200000762939</ele>
        <time>2019-12-29T10:24:38.000Z</time>
      </trkpt>
      <trkpt lat="47.33239" lon="-2.49811">
        <ele>38.200000762939</ele>
        <time>2019-12-29T10:24:41.000Z</time>
      </trkpt>
      <trkpt lat="47.33232" lon="-2.49804">
        <ele>38.200000762939</ele>
        <time>2019-12-29T10:24:43.000Z</time>
      </trkpt>
      <trkpt lat="47.33206" lon="-2.49777">
        <ele>38.200000762939</ele>
        <time>2019-12-29T10:24:50.000Z</time>
      </trkpt>
      <trkpt lat="47.33182" lon="-2.49753">
        <ele>38.200000762939</ele>
        <time>2019-12-29T10:24:56.000Z</time>
      </trkpt>
      <trkpt lat="47.33163" lon="-2.49733">
        <ele>38.200000762939</ele>
        <time>2019-12-29T10:25:02.000Z</time>
      </trkpt>
      <trkpt lat="47.33141" lon="-2.49717">
        <ele>38.200000762939</ele>
        <time>2019-12-29T10:25:08.000Z</time>
      </trkpt>
      <trkpt lat="47.33116" lon="-2.497">
        <ele>38.200000762939</ele>
        <time>2019-12-29T10:25:14.000Z</time>
      </trkpt>
      <trkpt lat="47.33108" lon="-2.49696">
        <ele>38.200000762939</ele>
        <time>2019-12-29T10:25:16.000Z</time>
      </trkpt>
      <trkpt lat="47.3309" lon="-2.49686">
        <ele>38.200000762939</ele>
        <time>2019-12-29T10:25:20.000Z</time>
      </trkpt>
      <trkpt lat="47.33057" lon="-2.49671">
        <ele>38.200000762939</ele>
        <time>2019-12-29T10:25:28.000Z</time>
      </trkpt>
      <trkpt lat="47.33027" lon="-2.4966">
        <ele>38.200000762939</ele>
        <time>2019-12-29T10:25:35.000Z</time>
      </trkpt>
      <trkpt lat="47.33005" lon="-2.49644">
        <ele>38.200000762939</ele>
        <time>2019-12-29T10:25:41.000Z</time>
      </trkpt>
      <trkpt lat="47.32999" lon="-2.49636">
        <ele>38.200000762939</ele>
        <time>2019-12-29T10:25:43.000Z</time>
      </trkpt>
      <trkpt lat="47.32995" lon="-2.49619">
        <ele>38.200000762939</ele>
        <time>2019-12-29T10:25:46.000Z</time>
      </trkpt>
      <trkpt lat="47.32994" lon="-2.49614">
        <ele>38.200000762939</ele>
        <time>2019-12-29T10:25:47.000Z</time>
      </trkpt>
      <trkpt lat="47.32986" lon="-2.49603">
        <ele>38.200000762939</ele>
        <time>2019-12-29T10:25:50.000Z</time>
      </trkpt>
      <trkpt lat="47.32965" lon="-2.49597">
        <ele>38.200000762939</ele>
        <time>2019-12-29T10:25:56.000Z</time>
      </trkpt>
      <trkpt lat="47.32957" lon="-2.49611">
        <ele>38.200000762939</ele>
        <time>2019-12-29T10:25:59.000Z</time>
      </trkpt>
      <trkpt lat="47.32947" lon="-2.49607">
        <ele>38.200000762939</ele>
        <time>2019-12-29T10:26:02.000Z</time>
      </trkpt>
      <trkpt lat="47.32934" lon="-2.49602">
        <ele>38.200000762939</ele>
        <time>2019-12-29T10:26:05.000Z</time>
      </trkpt>
      <trkpt lat="47.32925" lon="-2.49601">
        <ele>38.200000762939</ele>
        <time>2019-12-29T10:26:07.000Z</time>
      </trkpt>
      <trkpt lat="47.32908" lon="-2.49598">
        <ele>38.200000762939</ele>
        <time>2019-12-29T10:26:11.000Z</time>
      </trkpt>
      <trkpt lat="47.32904" lon="-2.49596">
        <ele>38.200000762939</ele>
        <time>2019-12-29T10:26:12.000Z</time>
      </trkpt>
      <trkpt lat="47.32885" lon="-2.49591">
        <ele>38.200000762939</ele>
        <time>2019-12-29T10:26:17.000Z</time>
      </trkpt>
      <trkpt lat="47.32873" lon="-2.49587">
        <ele>38.200000762939</ele>
        <time>2019-12-29T10:26:20.000Z</time>
      </trkpt>
      <trkpt lat="47.32866" lon="-2.4958">
        <ele>38.200000762939</ele>
        <time>2019-12-29T10:26:22.000Z</time>
      </trkpt>
      <trkpt lat="47.3286" lon="-2.49571">
        <ele>38.200000762939</ele>
        <time>2019-12-29T10:26:24.000Z</time>
      </trkpt>
      <trkpt lat="47.3285" lon="-2.49554">
        <ele>38.200000762939</ele>
        <time>2019-12-29T10:26:28.000Z</time>
      </trkpt>
      <trkpt lat="47.32833" lon="-2.49532">
        <ele>38.200000762939</ele>
        <time>2019-12-29T10:26:32.000Z</time>
      </trkpt>
      <trkpt lat="47.32822" lon="-2.49517">
        <ele>38.200000762939</ele>
        <time>2019-12-29T10:26:35.000Z</time>
      </trkpt>
      <trkpt lat="47.32817" lon="-2.49504">
        <ele>38.200000762939</ele>
        <time>2019-12-29T10:26:37.000Z</time>
      </trkpt>
      <trkpt lat="47.32813" lon="-2.49491">
        <ele>38.200000762939</ele>
        <time>2019-12-29T10:26:39.000Z</time>
      </trkpt>
      <trkpt lat="47.32808" lon="-2.49473">
        <ele>38.200000762939</ele>
        <time>2019-12-29T10:26:42.000Z</time>
      </trkpt>
      <trkpt lat="47.32805" lon="-2.49468">
        <ele>38.200000762939</ele>
        <time>2019-12-29T10:26:43.000Z</time>
      </trkpt>
      <trkpt lat="47.32793" lon="-2.4945">
        <ele>38.200000762939</ele>
        <time>2019-12-29T10:26:47.000Z</time>
      </trkpt>
      <trkpt lat="47.32773" lon="-2.49443">
        <ele>38.200000762939</ele>
        <time>2019-12-29T10:26:51.000Z</time>
      </trkpt>
      <trkpt lat="47.32744" lon="-2.49426">
        <ele>38.200000762939</ele>
        <time>2019-12-29T10:26:57.000Z</time>
      </trkpt>
      <trkpt lat="47.32739" lon="-2.49425">
        <ele>38.200000762939</ele>
        <time>2019-12-29T10:26:58.000Z</time>
      </trkpt>
      <trkpt lat="47.32724" lon="-2.49415">
        <ele>38.200000762939</ele>
        <time>2019-12-29T10:27:01.000Z</time>
      </trkpt>
      <trkpt lat="47.32707" lon="-2.49402">
        <ele>38.200000762939</ele>
        <time>2019-12-29T10:27:05.000Z</time>
      </trkpt>
      <trkpt lat="47.32698" lon="-2.49394">
        <ele>38.200000762939</ele>
        <time>2019-12-29T10:27:07.000Z</time>
      </trkpt>
      <trkpt lat="47.32683" lon="-2.49383">
        <ele>38.200000762939</ele>
        <time>2019-12-29T10:27:10.000Z</time>
      </trkpt>
      <trkpt lat="47.3268" lon="-2.49377">
        <ele>38.200000762939</ele>
        <time>2019-12-29T10:27:11.000Z</time>
      </trkpt>
      <trkpt lat="47.32673" lon="-2.49365">
        <ele>38.200000762939</ele>
        <time>2019-12-29T10:27:13.000Z</time>
      </trkpt>
      <trkpt lat="47.32667" lon="-2.49352">
        <ele>38.200000762939</ele>
        <time>2019-12-29T10:27:15.000Z</time>
      </trkpt>
      <trkpt lat="47.32663" lon="-2.49337">
        <ele>38.200000762939</ele>
        <time>2019-12-29T10:27:17.000Z</time>
      </trkpt>
      <trkpt lat="47.32661" lon="-2.49322">
        <ele>38.200000762939</ele>
        <time>2019-12-29T10:27:19.000Z</time>
      </trkpt>
      <trkpt lat="47.32657" lon="-2.49308">
        <ele>38.200000762939</ele>
        <time>2019-12-29T10:27:21.000Z</time>
      </trkpt>
      <trkpt lat="47.32654" lon="-2.49302">
        <ele>38.200000762939</ele>
        <time>2019-12-29T10:27:22.000Z</time>
      </trkpt>
      <trkpt lat="47.32644" lon="-2.49288">
        <ele>38.200000762939</ele>
        <time>2019-12-29T10:27:25.000Z</time>
      </trkpt>
      <trkpt lat="47.32641" lon="-2.49283">
        <ele>38.200000762939</ele>
        <time>2019-12-29T10:27:26.000Z</time>
      </trkpt>
      <trkpt lat="47.32639" lon="-2.49278">
        <ele>38.200000762939</ele>
        <time>2019-12-29T10:27:27.000Z</time>
      </trkpt>
      <trkpt lat="47.32632" lon="-2.49263">
        <ele>38.200000762939</ele>
        <time>2019-12-29T10:27:30.000Z</time>
      </trkpt>
      <trkpt lat="47.32622" lon="-2.49236">
        <ele>38.200000762939</ele>
        <time>2019-12-29T10:27:36.000Z</time>
      </trkpt>
      <trkpt lat="47.32613" lon="-2.49229">
        <ele>38.200000762939</ele>
        <time>2019-12-29T10:27:40.000Z</time>
      </trkpt>
      <trkpt lat="47.326" lon="-2.49238">
        <ele>38.200000762939</ele>
        <time>2019-12-29T10:27:44.000Z</time>
      </trkpt>
      <trkpt lat="47.32594" lon="-2.49244">
        <ele>38.200000762939</ele>
        <time>2019-12-29T10:27:46.000Z</time>
      </trkpt>
      <trkpt lat="47.32586" lon="-2.49248">
        <ele>38.200000762939</ele>
        <time>2019-12-29T10:27:48.000Z</time>
      </trkpt>
      <trkpt lat="47.32581" lon="-2.49249">
        <ele>38.200000762939</ele>
        <time>2019-12-29T10:27:49.000Z</time>
      </trkpt>
      <trkpt lat="47.32565" lon="-2.4924">
        <ele>38.200000762939</ele>
        <time>2019-12-29T10:27:53.000Z</time>
      </trkpt>
      <trkpt lat="47.32556" lon="-2.49229">
        <ele>38.200000762939</ele>
        <time>2019-12-29T10:27:56.000Z</time>
      </trkpt>
      <trkpt lat="47.3255" lon="-2.49222">
        <ele>38.200000762939</ele>
        <time>2019-12-29T10:27:58.000Z</time>
      </trkpt>
      <trkpt lat="47.32544" lon="-2.49213">
        <ele>38.200000762939</ele>
        <time>2019-12-29T10:28:00.000Z</time>
      </trkpt>
      <trkpt lat="47.32534" lon="-2.49204">
        <ele>38.200000762939</ele>
        <time>2019-12-29T10:28:03.000Z</time>
      </trkpt>
      <trkpt lat="47.32525" lon="-2.49211">
        <ele>38.200000762939</ele>
        <time>2019-12-29T10:28:06.000Z</time>
      </trkpt>
      <trkpt lat="47.32521" lon="-2.49214">
        <ele>38.200000762939</ele>
        <time>2019-12-29T10:28:07.000Z</time>
      </trkpt>
      <trkpt lat="47.32513" lon="-2.49218">
        <ele>38.200000762939</ele>
        <time>2019-12-29T10:28:09.000Z</time>
      </trkpt>
      <trkpt lat="47.32505" lon="-2.49218">
        <ele>38.200000762939</ele>
        <time>2019-12-29T10:28:11.000Z</time>
      </trkpt>
      <trkpt lat="47.32489" lon="-2.49204">
        <ele>38.200000762939</ele>
        <time>2019-12-29T10:28:15.000Z</time>
      </trkpt>
      <trkpt lat="47.32486" lon="-2.4918">
        <ele>38.200000762939</ele>
        <time>2019-12-29T10:28:18.000Z</time>
      </trkpt>
      <trkpt lat="47.32483" lon="-2.49173">
        <ele>38.200000762939</ele>
        <time>2019-12-29T10:28:19.000Z</time>
      </trkpt>
      <trkpt lat="47.32474" lon="-2.49153">
        <ele>38.200000762939</ele>
        <time>2019-12-29T10:28:22.000Z</time>
      </trkpt>
      <trkpt lat="47.32455" lon="-2.49134">
        <ele>38.200000762939</ele>
        <time>2019-12-29T10:28:27.000Z</time>
      </trkpt>
      <trkpt lat="47.32437" lon="-2.49137">
        <ele>38.200000762939</ele>
        <time>2019-12-29T10:28:31.000Z</time>
      </trkpt>
      <trkpt lat="47.32433" lon="-2.49138">
        <ele>38.200000762939</ele>
        <time>2019-12-29T10:28:32.000Z</time>
      </trkpt>
      <trkpt lat="47.32429" lon="-2.4914">
        <ele>38.200000762939</ele>
        <time>2019-12-29T10:28:33.000Z</time>
      </trkpt>
      <trkpt lat="47.32416" lon="-2.49148">
        <ele>38.200000762939</ele>
        <time>2019-12-29T10:28:36.000Z</time>
      </trkpt>
      <trkpt lat="47.32412" lon="-2.4915">
        <ele>38.200000762939</ele>
        <time>2019-12-29T10:28:37.000Z</time>
      </trkpt>
      <trkpt lat="47.32398" lon="-2.49151">
        <ele>38.200000762939</ele>
        <time>2019-12-29T10:28:40.000Z</time>
      </trkpt>
      <trkpt lat="47.32389" lon="-2.4915">
        <ele>38.200000762939</ele>
        <time>2019-12-29T10:28:42.000Z</time>
      </trkpt>
      <trkpt lat="47.32375" lon="-2.49136">
        <ele>38.200000762939</ele>
        <time>2019-12-29T10:28:46.000Z</time>
      </trkpt>
      <trkpt lat="47.32372" lon="-2.49131">
        <ele>38.599998474121</ele>
        <time>2019-12-29T10:28:47.000Z</time>
      </trkpt>
      <trkpt lat="47.3237" lon="-2.49125">
        <ele>39</ele>
        <time>2019-12-29T10:28:48.000Z</time>
      </trkpt>
      <trkpt lat="47.32368" lon="-2.49118">
        <ele>39.400001525879</ele>
        <time>2019-12-29T10:28:49.000Z</time>
      </trkpt>
      <trkpt lat="47.32366" lon="-2.49111">
        <ele>39.799999237061</ele>
        <time>2019-12-29T10:28:50.000Z</time>
      </trkpt>
      <trkpt lat="47.32364" lon="-2.49104">
        <ele>40.400001525879</ele>
        <time>2019-12-29T10:28:51.000Z</time>
      </trkpt>
      <trkpt lat="47.32358" lon="-2.49085">
        <ele>40.400001525879</ele>
        <time>2019-12-29T10:28:54.000Z</time>
      </trkpt>
      <trkpt lat="47.32351" lon="-2.49077">
        <ele>40.400001525879</ele>
        <time>2019-12-29T10:28:56.000Z</time>
      </trkpt>
      <trkpt lat="47.32347" lon="-2.49076">
        <ele>40.400001525879</ele>
        <time>2019-12-29T10:28:57.000Z</time>
      </trkpt>
      <trkpt lat="47.32322" lon="-2.49069">
        <ele>40.400001525879</ele>
        <time>2019-12-29T10:29:03.000Z</time>
      </trkpt>
      <trkpt lat="47.32295" lon="-2.49057">
        <ele>40.400001525879</ele>
        <time>2019-12-29T10:29:10.000Z</time>
      </trkpt>
      <trkpt lat="47.32291" lon="-2.49056">
        <ele>40.400001525879</ele>
        <time>2019-12-29T10:29:11.000Z</time>
      </trkpt>
      <trkpt lat="47.3227" lon="-2.49055">
        <ele>40.400001525879</ele>
        <time>2019-12-29T10:29:16.000Z</time>
      </trkpt>
      <trkpt lat="47.32237" lon="-2.49052">
        <ele>40.400001525879</ele>
        <time>2019-12-29T10:29:24.000Z</time>
      </trkpt>
      <trkpt lat="47.32222" lon="-2.49045">
        <ele>40.400001525879</ele>
        <time>2019-12-29T10:29:29.000Z</time>
      </trkpt>
      <trkpt lat="47.32213" lon="-2.4904">
        <ele>40</ele>
        <time>2019-12-29T10:29:33.000Z</time>
      </trkpt>
      <trkpt lat="47.32211" lon="-2.4904">
        <ele>39.400001525879</ele>
        <time>2019-12-29T10:29:34.000Z</time>
      </trkpt>
      <trkpt lat="47.32208" lon="-2.4904">
        <ele>39</ele>
        <time>2019-12-29T10:29:35.000Z</time>
      </trkpt>
      <trkpt lat="47.32205" lon="-2.49041">
        <ele>38.599998474121</ele>
        <time>2019-12-29T10:29:36.000Z</time>
      </trkpt>
      <trkpt lat="47.32202" lon="-2.49043">
        <ele>38.200000762939</ele>
        <time>2019-12-29T10:29:37.000Z</time>
      </trkpt>
      <trkpt lat="47.32196" lon="-2.49045">
        <ele>38.200000762939</ele>
        <time>2019-12-29T10:29:39.000Z</time>
      </trkpt>
      <trkpt lat="47.32193" lon="-2.49042">
        <ele>38.200000762939</ele>
        <time>2019-12-29T10:29:40.000Z</time>
      </trkpt>
      <trkpt lat="47.32188" lon="-2.4904">
        <ele>38.200000762939</ele>
        <time>2019-12-29T10:29:42.000Z</time>
      </trkpt>
      <trkpt lat="47.32176" lon="-2.49036">
        <ele>38.200000762939</ele>
        <time>2019-12-29T10:29:45.000Z</time>
      </trkpt>
      <trkpt lat="47.32172" lon="-2.49034">
        <ele>38.200000762939</ele>
        <time>2019-12-29T10:29:46.000Z</time>
      </trkpt>
      <trkpt lat="47.32167" lon="-2.49031">
        <ele>38.200000762939</ele>
        <time>2019-12-29T10:29:47.000Z</time>
      </trkpt>
      <trkpt lat="47.32149" lon="-2.49022">
        <ele>38.200000762939</ele>
        <time>2019-12-29T10:29:52.000Z</time>
      </trkpt>
      <trkpt lat="47.32146" lon="-2.49021">
        <ele>38.200000762939</ele>
        <time>2019-12-29T10:29:55.000Z</time>
      </trkpt>
      <trkpt lat="47.3214" lon="-2.49018">
        <ele>38.200000762939</ele>
        <time>2019-12-29T10:29:59.000Z</time>
      </trkpt>
      <trkpt lat="47.32139" lon="-2.49012">
        <ele>38.200000762939</ele>
        <time>2019-12-29T10:30:00.000Z</time>
      </trkpt>
      <trkpt lat="47.32139" lon="-2.48995">
        <ele>38.200000762939</ele>
        <time>2019-12-29T10:30:03.000Z</time>
      </trkpt>
      <trkpt lat="47.32138" lon="-2.48983">
        <ele>38.200000762939</ele>
        <time>2019-12-29T10:30:05.000Z</time>
      </trkpt>
      <trkpt lat="47.32136" lon="-2.48943">
        <ele>38.200000762939</ele>
        <time>2019-12-29T10:30:11.000Z</time>
      </trkpt>
      <trkpt lat="47.32137" lon="-2.48937">
        <ele>38.200000762939</ele>
        <time>2019-12-29T10:30:12.000Z</time>
      </trkpt>
      <trkpt lat="47.32144" lon="-2.48915">
        <ele>38.200000762939</ele>
        <time>2019-12-29T10:30:16.000Z</time>
      </trkpt>
      <trkpt lat="47.32164" lon="-2.4887">
        <ele>38.200000762939</ele>
        <time>2019-12-29T10:30:23.000Z</time>
      </trkpt>
      <trkpt lat="47.32183" lon="-2.48833">
        <ele>38.200000762939</ele>
        <time>2019-12-29T10:30:29.000Z</time>
      </trkpt>
      <trkpt lat="47.32197" lon="-2.4881">
        <ele>38.200000762939</ele>
        <time>2019-12-29T10:30:33.000Z</time>
      </trkpt>
      <trkpt lat="47.32205" lon="-2.48799">
        <ele>38.200000762939</ele>
        <time>2019-12-29T10:30:35.000Z</time>
      </trkpt>
      <trkpt lat="47.32218" lon="-2.48774">
        <ele>38.200000762939</ele>
        <time>2019-12-29T10:30:39.000Z</time>
      </trkpt>
      <trkpt lat="47.32235" lon="-2.48721">
        <ele>38.200000762939</ele>
        <time>2019-12-29T10:30:46.000Z</time>
      </trkpt>
      <trkpt lat="47.32249" lon="-2.48673">
        <ele>38.200000762939</ele>
        <time>2019-12-29T10:30:52.000Z</time>
      </trkpt>
      <trkpt lat="47.32253" lon="-2.48667">
        <ele>38.200000762939</ele>
        <time>2019-12-29T10:30:53.000Z</time>
      </trkpt>
      <trkpt lat="47.32271" lon="-2.48647">
        <ele>38.200000762939</ele>
        <time>2019-12-29T10:30:57.000Z</time>
      </trkpt>
      <trkpt lat="47.32281" lon="-2.48639">
        <ele>38.200000762939</ele>
        <time>2019-12-29T10:30:59.000Z</time>
      </trkpt>
      <trkpt lat="47.32303" lon="-2.48622">
        <ele>38.200000762939</ele>
        <time>2019-12-29T10:31:03.000Z</time>
      </trkpt>
      <trkpt lat="47.32348" lon="-2.48591">
        <ele>38.200000762939</ele>
        <time>2019-12-29T10:31:11.000Z</time>
      </trkpt>
      <trkpt lat="47.3239" lon="-2.48568">
        <ele>38.200000762939</ele>
        <time>2019-12-29T10:31:18.000Z</time>
      </trkpt>
      <trkpt lat="47.32397" lon="-2.48566">
        <ele>38.200000762939</ele>
        <time>2019-12-29T10:31:19.000Z</time>
      </trkpt>
      <trkpt lat="47.32422" lon="-2.48567">
        <ele>38.200000762939</ele>
        <time>2019-12-29T10:31:23.000Z</time>
      </trkpt>
      <trkpt lat="47.32458" lon="-2.48579">
        <ele>38.200000762939</ele>
        <time>2019-12-29T10:31:29.000Z</time>
      </trkpt>
      <trkpt lat="47.32486" lon="-2.48597">
        <ele>38.200000762939</ele>
        <time>2019-12-29T10:31:34.000Z</time>
      </trkpt>
      <trkpt lat="47.32516" lon="-2.48629">
        <ele>38.200000762939</ele>
        <time>2019-12-29T10:31:40.000Z</time>
      </trkpt>
      <trkpt lat="47.32527" lon="-2.48639">
        <ele>38.200000762939</ele>
        <time>2019-12-29T10:31:42.000Z</time>
      </trkpt>
      <trkpt lat="47.32549" lon="-2.48659">
        <ele>38.200000762939</ele>
        <time>2019-12-29T10:31:46.000Z</time>
      </trkpt>
      <trkpt lat="47.32567" lon="-2.4867">
        <ele>38.200000762939</ele>
        <time>2019-12-29T10:31:49.000Z</time>
      </trkpt>
      <trkpt lat="47.32579" lon="-2.48673">
        <ele>38.200000762939</ele>
        <time>2019-12-29T10:31:51.000Z</time>
      </trkpt>
      <trkpt lat="47.32586" lon="-2.48674">
        <ele>38.200000762939</ele>
        <time>2019-12-29T10:31:52.000Z</time>
      </trkpt>
      <trkpt lat="47.32599" lon="-2.48673">
        <ele>38.200000762939</ele>
        <time>2019-12-29T10:31:54.000Z</time>
      </trkpt>
      <trkpt lat="47.32612" lon="-2.4867">
        <ele>38.200000762939</ele>
        <time>2019-12-29T10:31:56.000Z</time>
      </trkpt>
      <trkpt lat="47.32656" lon="-2.48653">
        <ele>38.200000762939</ele>
        <time>2019-12-29T10:32:03.000Z</time>
      </trkpt>
      <trkpt lat="47.32704" lon="-2.48628">
        <ele>38.200000762939</ele>
        <time>2019-12-29T10:32:11.000Z</time>
      </trkpt>
      <trkpt lat="47.32739" lon="-2.48608">
        <ele>38.200000762939</ele>
        <time>2019-12-29T10:32:17.000Z</time>
      </trkpt>
      <trkpt lat="47.32779" lon="-2.4859">
        <ele>38.200000762939</ele>
        <time>2019-12-29T10:32:24.000Z</time>
      </trkpt>
      <trkpt lat="47.32818" lon="-2.4859">
        <ele>38.200000762939</ele>
        <time>2019-12-29T10:32:30.000Z</time>
      </trkpt>
      <trkpt lat="47.32871" lon="-2.48592">
        <ele>38.200000762939</ele>
        <time>2019-12-29T10:32:38.000Z</time>
      </trkpt>
      <trkpt lat="47.32884" lon="-2.4859">
        <ele>38.200000762939</ele>
        <time>2019-12-29T10:32:40.000Z</time>
      </trkpt>
      <trkpt lat="47.32903" lon="-2.4858">
        <ele>38.200000762939</ele>
        <time>2019-12-29T10:32:43.000Z</time>
      </trkpt>
      <trkpt lat="47.32924" lon="-2.48556">
        <ele>38.200000762939</ele>
        <time>2019-12-29T10:32:47.000Z</time>
      </trkpt>
      <trkpt lat="47.32964" lon="-2.48509">
        <ele>38.200000762939</ele>
        <time>2019-12-29T10:32:55.000Z</time>
      </trkpt>
      <trkpt lat="47.3301" lon="-2.48474">
        <ele>38.200000762939</ele>
        <time>2019-12-29T10:33:03.000Z</time>
      </trkpt>
      <trkpt lat="47.3305" lon="-2.48448">
        <ele>38.200000762939</ele>
        <time>2019-12-29T10:33:10.000Z</time>
      </trkpt>
      <trkpt lat="47.33101" lon="-2.48414">
        <ele>38.200000762939</ele>
        <time>2019-12-29T10:33:19.000Z</time>
      </trkpt>
      <trkpt lat="47.33122" lon="-2.48397">
        <ele>38.200000762939</ele>
        <time>2019-12-29T10:33:23.000Z</time>
      </trkpt>
      <trkpt lat="47.33135" lon="-2.48375">
        <ele>38.200000762939</ele>
        <time>2019-12-29T10:33:26.000Z</time>
      </trkpt>
      <trkpt lat="47.33144" lon="-2.48341">
        <ele>38.200000762939</ele>
        <time>2019-12-29T10:33:30.000Z</time>
      </trkpt>
      <trkpt lat="47.33144" lon="-2.48331">
        <ele>38.200000762939</ele>
        <time>2019-12-29T10:33:31.000Z</time>
      </trkpt>
      <trkpt lat="47.33143" lon="-2.48302">
        <ele>38.200000762939</ele>
        <time>2019-12-29T10:33:34.000Z</time>
      </trkpt>
      <trkpt lat="47.33141" lon="-2.48227">
        <ele>38.200000762939</ele>
        <time>2019-12-29T10:33:42.000Z</time>
      </trkpt>
      <trkpt lat="47.33141" lon="-2.48163">
        <ele>38.200000762939</ele>
        <time>2019-12-29T10:33:49.000Z</time>
      </trkpt>
      <trkpt lat="47.33143" lon="-2.48087">
        <ele>38.200000762939</ele>
        <time>2019-12-29T10:33:57.000Z</time>
      </trkpt>
      <trkpt lat="47.33146" lon="-2.48014">
        <ele>38.200000762939</ele>
        <time>2019-12-29T10:34:05.000Z</time>
      </trkpt>
      <trkpt lat="47.33149" lon="-2.47944">
        <ele>38.200000762939</ele>
        <time>2019-12-29T10:34:13.000Z</time>
      </trkpt>
      <trkpt lat="47.33146" lon="-2.47917">
        <ele>38.200000762939</ele>
        <time>2019-12-29T10:34:16.000Z</time>
      </trkpt>
      <trkpt lat="47.33142" lon="-2.47901">
        <ele>38.200000762939</ele>
        <time>2019-12-29T10:34:18.000Z</time>
      </trkpt>
      <trkpt lat="47.33139" lon="-2.47892">
        <ele>38.200000762939</ele>
        <time>2019-12-29T10:34:19.000Z</time>
      </trkpt>
      <trkpt lat="47.33134" lon="-2.47877">
        <ele>38.599998474121</ele>
        <time>2019-12-29T10:34:21.000Z</time>
      </trkpt>
      <trkpt lat="47.33132" lon="-2.47869">
        <ele>39</ele>
        <time>2019-12-29T10:34:22.000Z</time>
      </trkpt>
      <trkpt lat="47.33128" lon="-2.47862">
        <ele>39.599998474121</ele>
        <time>2019-12-29T10:34:23.000Z</time>
      </trkpt>
      <trkpt lat="47.33125" lon="-2.47854">
        <ele>40</ele>
        <time>2019-12-29T10:34:24.000Z</time>
      </trkpt>
      <trkpt lat="47.33121" lon="-2.47847">
        <ele>40.400001525879</ele>
        <time>2019-12-29T10:34:25.000Z</time>
      </trkpt>
      <trkpt lat="47.33112" lon="-2.47834">
        <ele>40.400001525879</ele>
        <time>2019-12-29T10:34:27.000Z</time>
      </trkpt>
      <trkpt lat="47.33108" lon="-2.47828">
        <ele>40.400001525879</ele>
        <time>2019-12-29T10:34:28.000Z</time>
      </trkpt>
      <trkpt lat="47.33086" lon="-2.47813">
        <ele>40.400001525879</ele>
        <time>2019-12-29T10:34:32.000Z</time>
      </trkpt>
      <trkpt lat="47.3308" lon="-2.4781">
        <ele>40.400001525879</ele>
        <time>2019-12-29T10:34:33.000Z</time>
      </trkpt>
      <trkpt lat="47.33045" lon="-2.47799">
        <ele>40.400001525879</ele>
        <time>2019-12-29T10:34:39.000Z</time>
      </trkpt>
      <trkpt lat="47.3301" lon="-2.47784">
        <ele>40.400001525879</ele>
        <time>2019-12-29T10:34:45.000Z</time>
      </trkpt>
      <trkpt lat="47.3298" lon="-2.4776">
        <ele>40.400001525879</ele>
        <time>2019-12-29T10:34:51.000Z</time>
      </trkpt>
      <trkpt lat="47.32949" lon="-2.47723">
        <ele>40.400001525879</ele>
        <time>2019-12-29T10:34:58.000Z</time>
      </trkpt>
      <trkpt lat="47.32945" lon="-2.47716">
        <ele>40.400001525879</ele>
        <time>2019-12-29T10:34:59.000Z</time>
      </trkpt>
      <trkpt lat="47.32937" lon="-2.47691">
        <ele>40.400001525879</ele>
        <time>2019-12-29T10:35:02.000Z</time>
      </trkpt>
      <trkpt lat="47.32933" lon="-2.47672">
        <ele>40.400001525879</ele>
        <time>2019-12-29T10:35:04.000Z</time>
      </trkpt>
      <trkpt lat="47.32926" lon="-2.47637">
        <ele>40.400001525879</ele>
        <time>2019-12-29T10:35:08.000Z</time>
      </trkpt>
      <trkpt lat="47.32918" lon="-2.47574">
        <ele>40.400001525879</ele>
        <time>2019-12-29T10:35:15.000Z</time>
      </trkpt>
      <trkpt lat="47.32918" lon="-2.47565">
        <ele>40.400001525879</ele>
        <time>2019-12-29T10:35:16.000Z</time>
      </trkpt>
      <trkpt lat="47.3292" lon="-2.47534">
        <ele>40.400001525879</ele>
        <time>2019-12-29T10:35:20.000Z</time>
      </trkpt>
      <trkpt lat="47.3292" lon="-2.47519">
        <ele>40.400001525879</ele>
        <time>2019-12-29T10:35:22.000Z</time>
      </trkpt>
      <trkpt lat="47.32917" lon="-2.47499">
        <ele>40.400001525879</ele>
        <time>2019-12-29T10:35:25.000Z</time>
      </trkpt>
      <trkpt lat="47.32913" lon="-2.4748">
        <ele>40.400001525879</ele>
        <time>2019-12-29T10:35:29.000Z</time>
      </trkpt>
      <trkpt lat="47.32912" lon="-2.47473">
        <ele>39.599998474121</ele>
        <time>2019-12-29T10:35:31.000Z</time>
      </trkpt>
      <trkpt lat="47.32911" lon="-2.4747">
        <ele>39.200000762939</ele>
        <time>2019-12-29T10:35:32.000Z</time>
      </trkpt>
      <trkpt lat="47.32911" lon="-2.47468">
        <ele>38.799999237061</ele>
        <time>2019-12-29T10:35:33.000Z</time>
      </trkpt>
      <trkpt lat="47.3291" lon="-2.47466">
        <ele>38.400001525879</ele>
        <time>2019-12-29T10:35:34.000Z</time>
      </trkpt>
      <trkpt lat="47.32907" lon="-2.47448">
        <ele>38.400001525879</ele>
        <time>2019-12-29T10:35:39.000Z</time>
      </trkpt>
      <trkpt lat="47.329" lon="-2.47416">
        <ele>38.400001525879</ele>
        <time>2019-12-29T10:35:44.000Z</time>
      </trkpt>
      <trkpt lat="47.32892" lon="-2.47369">
        <ele>38.400001525879</ele>
        <time>2019-12-29T10:35:51.000Z</time>
      </trkpt>
      <trkpt lat="47.32885" lon="-2.4732">
        <ele>38.400001525879</ele>
        <time>2019-12-29T10:35:58.000Z</time>
      </trkpt>
      <trkpt lat="47.32881" lon="-2.47291">
        <ele>38.400001525879</ele>
        <time>2019-12-29T10:36:02.000Z</time>
      </trkpt>
      <trkpt lat="47.32878" lon="-2.47277">
        <ele>38.400001525879</ele>
        <time>2019-12-29T10:36:04.000Z</time>
      </trkpt>
      <trkpt lat="47.32869" lon="-2.4722">
        <ele>38.400001525879</ele>
        <time>2019-12-29T10:36:11.000Z</time>
      </trkpt>
      <trkpt lat="47.3286" lon="-2.47157">
        <ele>38.400001525879</ele>
        <time>2019-12-29T10:36:18.000Z</time>
      </trkpt>
      <trkpt lat="47.3285" lon="-2.47102">
        <ele>38.400001525879</ele>
        <time>2019-12-29T10:36:24.000Z</time>
      </trkpt>
      <trkpt lat="47.32844" lon="-2.47068">
        <ele>38.400001525879</ele>
        <time>2019-12-29T10:36:28.000Z</time>
      </trkpt>
      <trkpt lat="47.32839" lon="-2.47051">
        <ele>38.400001525879</ele>
        <time>2019-12-29T10:36:30.000Z</time>
      </trkpt>
      <trkpt lat="47.32818" lon="-2.46996">
        <ele>38.400001525879</ele>
        <time>2019-12-29T10:36:37.000Z</time>
      </trkpt>
      <trkpt lat="47.32795" lon="-2.46939">
        <ele>38.400001525879</ele>
        <time>2019-12-29T10:36:44.000Z</time>
      </trkpt>
      <trkpt lat="47.32782" lon="-2.46888">
        <ele>38.400001525879</ele>
        <time>2019-12-29T10:36:50.000Z</time>
      </trkpt>
      <trkpt lat="47.32766" lon="-2.46823">
        <ele>38.400001525879</ele>
        <time>2019-12-29T10:36:58.000Z</time>
      </trkpt>
      <trkpt lat="47.32747" lon="-2.46785">
        <ele>38.400001525879</ele>
        <time>2019-12-29T10:37:04.000Z</time>
      </trkpt>
      <trkpt lat="47.32728" lon="-2.46748">
        <ele>38.400001525879</ele>
        <time>2019-12-29T10:37:10.000Z</time>
      </trkpt>
      <trkpt lat="47.32701" lon="-2.46713">
        <ele>38.400001525879</ele>
        <time>2019-12-29T10:37:16.000Z</time>
      </trkpt>
      <trkpt lat="47.32671" lon="-2.46688">
        <ele>38.400001525879</ele>
        <time>2019-12-29T10:37:22.000Z</time>
      </trkpt>
      <trkpt lat="47.32639" lon="-2.46665">
        <ele>38.799999237061</ele>
        <time>2019-12-29T10:37:28.000Z</time>
      </trkpt>
      <trkpt lat="47.32633" lon="-2.4666">
        <ele>39.200000762939</ele>
        <time>2019-12-29T10:37:29.000Z</time>
      </trkpt>
      <trkpt lat="47.32628" lon="-2.46654">
        <ele>39.599998474121</ele>
        <time>2019-12-29T10:37:30.000Z</time>
      </trkpt>
      <trkpt lat="47.32623" lon="-2.46649">
        <ele>40</ele>
        <time>2019-12-29T10:37:31.000Z</time>
      </trkpt>
      <trkpt lat="47.32619" lon="-2.46643">
        <ele>40.400001525879</ele>
        <time>2019-12-29T10:37:32.000Z</time>
      </trkpt>
      <trkpt lat="47.3261" lon="-2.46631">
        <ele>40.400001525879</ele>
        <time>2019-12-29T10:37:34.000Z</time>
      </trkpt>
      <trkpt lat="47.32574" lon="-2.4657">
        <ele>40.400001525879</ele>
        <time>2019-12-29T10:37:43.000Z</time>
      </trkpt>
      <trkpt lat="47.32542" lon="-2.46529">
        <ele>40.400001525879</ele>
        <time>2019-12-29T10:37:50.000Z</time>
      </trkpt>
      <trkpt lat="47.32538" lon="-2.46522">
        <ele>40.400001525879</ele>
        <time>2019-12-29T10:37:51.000Z</time>
      </trkpt>
      <trkpt lat="47.32525" lon="-2.46491">
        <ele>40.400001525879</ele>
        <time>2019-12-29T10:37:55.000Z</time>
      </trkpt>
      <trkpt lat="47.32509" lon="-2.46451">
        <ele>40.400001525879</ele>
        <time>2019-12-29T10:38:00.000Z</time>
      </trkpt>
      <trkpt lat="47.32501" lon="-2.46437">
        <ele>40.400001525879</ele>
        <time>2019-12-29T10:38:02.000Z</time>
      </trkpt>
      <trkpt lat="47.32497" lon="-2.46431">
        <ele>40.400001525879</ele>
        <time>2019-12-29T10:38:03.000Z</time>
      </trkpt>
      <trkpt lat="47.32476" lon="-2.46401">
        <ele>40.400001525879</ele>
        <time>2019-12-29T10:38:08.000Z</time>
      </trkpt>
      <trkpt lat="47.32447" lon="-2.46352">
        <ele>40.400001525879</ele>
        <time>2019-12-29T10:38:15.000Z</time>
      </trkpt>
      <trkpt lat="47.32427" lon="-2.46297">
        <ele>40.400001525879</ele>
        <time>2019-12-29T10:38:22.000Z</time>
      </trkpt>
      <trkpt lat="47.32407" lon="-2.46255">
        <ele>40.400001525879</ele>
        <time>2019-12-29T10:38:28.000Z</time>
      </trkpt>
      <trkpt lat="47.32381" lon="-2.4621">
        <ele>40.400001525879</ele>
        <time>2019-12-29T10:38:35.000Z</time>
      </trkpt>
      <trkpt lat="47.32347" lon="-2.46155">
        <ele>40.400001525879</ele>
        <time>2019-12-29T10:38:43.000Z</time>
      </trkpt>
      <trkpt lat="47.32309" lon="-2.46095">
        <ele>40.400001525879</ele>
        <time>2019-12-29T10:38:52.000Z</time>
      </trkpt>
      <trkpt lat="47.3228" lon="-2.46039">
        <ele>40.400001525879</ele>
        <time>2019-12-29T10:39:00.000Z</time>
      </trkpt>
      <trkpt lat="47.32257" lon="-2.45988">
        <ele>40.400001525879</ele>
        <time>2019-12-29T10:39:07.000Z</time>
      </trkpt>
      <trkpt lat="47.32228" lon="-2.45953">
        <ele>40.400001525879</ele>
        <time>2019-12-29T10:39:13.000Z</time>
      </trkpt>
      <trkpt lat="47.32211" lon="-2.45916">
        <ele>40.400001525879</ele>
        <time>2019-12-29T10:39:18.000Z</time>
      </trkpt>
      <trkpt lat="47.3219" lon="-2.45859">
        <ele>40.400001525879</ele>
        <time>2019-12-29T10:39:25.000Z</time>
      </trkpt>
      <trkpt lat="47.32164" lon="-2.4581">
        <ele>40.400001525879</ele>
        <time>2019-12-29T10:39:32.000Z</time>
      </trkpt>
      <trkpt lat="47.32135" lon="-2.45765">
        <ele>40.400001525879</ele>
        <time>2019-12-29T10:39:39.000Z</time>
      </trkpt>
      <trkpt lat="47.32109" lon="-2.45747">
        <ele>40.400001525879</ele>
        <time>2019-12-29T10:39:44.000Z</time>
      </trkpt>
      <trkpt lat="47.32073" lon="-2.45735">
        <ele>40.400001525879</ele>
        <time>2019-12-29T10:39:50.000Z</time>
      </trkpt>
      <trkpt lat="47.32045" lon="-2.45715">
        <ele>40.400001525879</ele>
        <time>2019-12-29T10:39:55.000Z</time>
      </trkpt>
      <trkpt lat="47.32001" lon="-2.45679">
        <ele>40.400001525879</ele>
        <time>2019-12-29T10:40:03.000Z</time>
      </trkpt>
      <trkpt lat="47.31996" lon="-2.45673">
        <ele>40.400001525879</ele>
        <time>2019-12-29T10:40:04.000Z</time>
      </trkpt>
      <trkpt lat="47.31978" lon="-2.45648">
        <ele>40.400001525879</ele>
        <time>2019-12-29T10:40:08.000Z</time>
      </trkpt>
      <trkpt lat="47.31953" lon="-2.45595">
        <ele>40.400001525879</ele>
        <time>2019-12-29T10:40:15.000Z</time>
      </trkpt>
      <trkpt lat="47.31925" lon="-2.45533">
        <ele>40.400001525879</ele>
        <time>2019-12-29T10:40:23.000Z</time>
      </trkpt>
      <trkpt lat="47.31894" lon="-2.45491">
        <ele>40.400001525879</ele>
        <time>2019-12-29T10:40:30.000Z</time>
      </trkpt>
      <trkpt lat="47.31858" lon="-2.45438">
        <ele>40.400001525879</ele>
        <time>2019-12-29T10:40:38.000Z</time>
      </trkpt>
      <trkpt lat="47.31825" lon="-2.45386">
        <ele>40.400001525879</ele>
        <time>2019-12-29T10:40:46.000Z</time>
      </trkpt>
      <trkpt lat="47.31805" lon="-2.45358">
        <ele>40.400001525879</ele>
        <time>2019-12-29T10:40:51.000Z</time>
      </trkpt>
      <trkpt lat="47.31801" lon="-2.45354">
        <ele>40.400001525879</ele>
        <time>2019-12-29T10:40:52.000Z</time>
      </trkpt>
      <trkpt lat="47.31777" lon="-2.45338">
        <ele>40.400001525879</ele>
        <time>2019-12-29T10:40:58.000Z</time>
      </trkpt>
      <trkpt lat="47.31774" lon="-2.45336">
        <ele>40.400001525879</ele>
        <time>2019-12-29T10:40:59.000Z</time>
      </trkpt>
      <trkpt lat="47.31764" lon="-2.45333">
        <ele>40.400001525879</ele>
        <time>2019-12-29T10:41:01.000Z</time>
      </trkpt>
      <trkpt lat="47.31753" lon="-2.45335">
        <ele>40.400001525879</ele>
        <time>2019-12-29T10:41:03.000Z</time>
      </trkpt>
      <trkpt lat="47.31714" lon="-2.45355">
        <ele>40.400001525879</ele>
        <time>2019-12-29T10:41:10.000Z</time>
      </trkpt>
      <trkpt lat="47.31709" lon="-2.45355">
        <ele>40.400001525879</ele>
        <time>2019-12-29T10:41:11.000Z</time>
      </trkpt>
      <trkpt lat="47.31698" lon="-2.45349">
        <ele>40.400001525879</ele>
        <time>2019-12-29T10:41:13.000Z</time>
      </trkpt>
      <trkpt lat="47.31678" lon="-2.45324">
        <ele>40.400001525879</ele>
        <time>2019-12-29T10:41:17.000Z</time>
      </trkpt>
      <trkpt lat="47.31668" lon="-2.45311">
        <ele>40.400001525879</ele>
        <time>2019-12-29T10:41:19.000Z</time>
      </trkpt>
      <trkpt lat="47.31657" lon="-2.45303">
        <ele>40.400001525879</ele>
        <time>2019-12-29T10:41:21.000Z</time>
      </trkpt>
      <trkpt lat="47.31633" lon="-2.45297">
        <ele>40.400001525879</ele>
        <time>2019-12-29T10:41:25.000Z</time>
      </trkpt>
      <trkpt lat="47.31595" lon="-2.45293">
        <ele>40.400001525879</ele>
        <time>2019-12-29T10:41:31.000Z</time>
      </trkpt>
      <trkpt lat="47.31577" lon="-2.45289">
        <ele>40.400001525879</ele>
        <time>2019-12-29T10:41:34.000Z</time>
      </trkpt>
      <trkpt lat="47.31565" lon="-2.45283">
        <ele>40.400001525879</ele>
        <time>2019-12-29T10:41:36.000Z</time>
      </trkpt>
      <trkpt lat="47.31529" lon="-2.45267">
        <ele>40.400001525879</ele>
        <time>2019-12-29T10:41:42.000Z</time>
      </trkpt>
      <trkpt lat="47.31505" lon="-2.4527">
        <ele>40.400001525879</ele>
        <time>2019-12-29T10:41:46.000Z</time>
      </trkpt>
      <trkpt lat="47.31486" lon="-2.45274">
        <ele>40.400001525879</ele>
        <time>2019-12-29T10:41:49.000Z</time>
      </trkpt>
      <trkpt lat="47.31467" lon="-2.45276">
        <ele>40.400001525879</ele>
        <time>2019-12-29T10:41:52.000Z</time>
      </trkpt>
      <trkpt lat="47.31429" lon="-2.45272">
        <ele>40.400001525879</ele>
        <time>2019-12-29T10:41:58.000Z</time>
      </trkpt>
      <trkpt lat="47.31387" lon="-2.45271">
        <ele>40.400001525879</ele>
        <time>2019-12-29T10:42:05.000Z</time>
      </trkpt>
      <trkpt lat="47.31349" lon="-2.45274">
        <ele>40.400001525879</ele>
        <time>2019-12-29T10:42:11.000Z</time>
      </trkpt>
      <trkpt lat="47.31307" lon="-2.45284">
        <ele>40.400001525879</ele>
        <time>2019-12-29T10:42:18.000Z</time>
      </trkpt>
      <trkpt lat="47.31273" lon="-2.45301">
        <ele>40.400001525879</ele>
        <time>2019-12-29T10:42:24.000Z</time>
      </trkpt>
      <trkpt lat="47.31241" lon="-2.45326">
        <ele>40.400001525879</ele>
        <time>2019-12-29T10:42:30.000Z</time>
      </trkpt>
      <trkpt lat="47.31226" lon="-2.45356">
        <ele>40.400001525879</ele>
        <time>2019-12-29T10:42:34.000Z</time>
      </trkpt>
      <trkpt lat="47.31221" lon="-2.45373">
        <ele>40.400001525879</ele>
        <time>2019-12-29T10:42:36.000Z</time>
      </trkpt>
      <trkpt lat="47.31211" lon="-2.4541">
        <ele>40.400001525879</ele>
        <time>2019-12-29T10:42:40.000Z</time>
      </trkpt>
      <trkpt lat="47.31187" lon="-2.4547">
        <ele>40.400001525879</ele>
        <time>2019-12-29T10:42:47.000Z</time>
      </trkpt>
      <trkpt lat="47.31175" lon="-2.45491">
        <ele>40.400001525879</ele>
        <time>2019-12-29T10:42:50.000Z</time>
      </trkpt>
      <trkpt lat="47.31164" lon="-2.45502">
        <ele>40.400001525879</ele>
        <time>2019-12-29T10:42:52.000Z</time>
      </trkpt>
      <trkpt lat="47.31152" lon="-2.45508">
        <ele>40.400001525879</ele>
        <time>2019-12-29T10:42:54.000Z</time>
      </trkpt>
      <trkpt lat="47.31135" lon="-2.45519">
        <ele>40.400001525879</ele>
        <time>2019-12-29T10:42:57.000Z</time>
      </trkpt>
      <trkpt lat="47.31114" lon="-2.45534">
        <ele>40.400001525879</ele>
        <time>2019-12-29T10:43:01.000Z</time>
      </trkpt>
      <trkpt lat="47.31102" lon="-2.45538">
        <ele>40.400001525879</ele>
        <time>2019-12-29T10:43:03.000Z</time>
      </trkpt>
      <trkpt lat="47.3107" lon="-2.45549">
        <ele>40.400001525879</ele>
        <time>2019-12-29T10:43:08.000Z</time>
      </trkpt>
      <trkpt lat="47.31033" lon="-2.45567">
        <ele>40.400001525879</ele>
        <time>2019-12-29T10:43:14.000Z</time>
      </trkpt>
      <trkpt lat="47.31027" lon="-2.45568">
        <ele>40.400001525879</ele>
        <time>2019-12-29T10:43:15.000Z</time>
      </trkpt>
      <trkpt lat="47.31002" lon="-2.45567">
        <ele>40.400001525879</ele>
        <time>2019-12-29T10:43:19.000Z</time>
      </trkpt>
      <trkpt lat="47.30952" lon="-2.45566">
        <ele>40.400001525879</ele>
        <time>2019-12-29T10:43:27.000Z</time>
      </trkpt>
      <trkpt lat="47.30918" lon="-2.45581">
        <ele>40.400001525879</ele>
        <time>2019-12-29T10:43:33.000Z</time>
      </trkpt>
      <trkpt lat="47.30877" lon="-2.45605">
        <ele>40.400001525879</ele>
        <time>2019-12-29T10:43:40.000Z</time>
      </trkpt>
      <trkpt lat="47.30837" lon="-2.45632">
        <ele>40.400001525879</ele>
        <time>2019-12-29T10:43:47.000Z</time>
      </trkpt>
      <trkpt lat="47.30792" lon="-2.4566">
        <ele>40.400001525879</ele>
        <time>2019-12-29T10:43:55.000Z</time>
      </trkpt>
      <trkpt lat="47.30786" lon="-2.45662">
        <ele>40.400001525879</ele>
        <time>2019-12-29T10:43:56.000Z</time>
      </trkpt>
      <trkpt lat="47.30767" lon="-2.45661">
        <ele>40.400001525879</ele>
        <time>2019-12-29T10:43:59.000Z</time>
      </trkpt>
      <trkpt lat="47.30751" lon="-2.45651">
        <ele>40.400001525879</ele>
        <time>2019-12-29T10:44:02.000Z</time>
      </trkpt>
      <trkpt lat="47.30745" lon="-2.45647">
        <ele>40.400001525879</ele>
        <time>2019-12-29T10:44:03.000Z</time>
      </trkpt>
      <trkpt lat="47.30709" lon="-2.45616">
        <ele>40.400001525879</ele>
        <time>2019-12-29T10:44:10.000Z</time>
      </trkpt>
      <trkpt lat="47.30676" lon="-2.45582">
        <ele>40.400001525879</ele>
        <time>2019-12-29T10:44:17.000Z</time>
      </trkpt>
      <trkpt lat="47.30656" lon="-2.45566">
        <ele>40.400001525879</ele>
        <time>2019-12-29T10:44:21.000Z</time>
      </trkpt>
      <trkpt lat="47.30651" lon="-2.45564">
        <ele>40.400001525879</ele>
        <time>2019-12-29T10:44:22.000Z</time>
      </trkpt>
      <trkpt lat="47.30626" lon="-2.45563">
        <ele>40.400001525879</ele>
        <time>2019-12-29T10:44:26.000Z</time>
      </trkpt>
      <trkpt lat="47.30613" lon="-2.45568">
        <ele>40.400001525879</ele>
        <time>2019-12-29T10:44:28.000Z</time>
      </trkpt>
      <trkpt lat="47.30596" lon="-2.45579">
        <ele>40.400001525879</ele>
        <time>2019-12-29T10:44:31.000Z</time>
      </trkpt>
      <trkpt lat="47.30585" lon="-2.45588">
        <ele>40.400001525879</ele>
        <time>2019-12-29T10:44:33.000Z</time>
      </trkpt>
      <trkpt lat="47.30567" lon="-2.45596">
        <ele>40.400001525879</ele>
        <time>2019-12-29T10:44:36.000Z</time>
      </trkpt>
      <trkpt lat="47.30549" lon="-2.45594">
        <ele>40.400001525879</ele>
        <time>2019-12-29T10:44:39.000Z</time>
      </trkpt>
      <trkpt lat="47.30538" lon="-2.45588">
        <ele>40.400001525879</ele>
        <time>2019-12-29T10:44:41.000Z</time>
      </trkpt>
      <trkpt lat="47.30521" lon="-2.45576">
        <ele>40.400001525879</ele>
        <time>2019-12-29T10:44:44.000Z</time>
      </trkpt>
      <trkpt lat="47.30479" lon="-2.45553">
        <ele>40.400001525879</ele>
        <time>2019-12-29T10:44:51.000Z</time>
      </trkpt>
      <trkpt lat="47.30473" lon="-2.45552">
        <ele>40.400001525879</ele>
        <time>2019-12-29T10:44:52.000Z</time>
      </trkpt>
      <trkpt lat="47.30454" lon="-2.45554">
        <ele>40.400001525879</ele>
        <time>2019-12-29T10:44:55.000Z</time>
      </trkpt>
      <trkpt lat="47.30436" lon="-2.45567">
        <ele>40.400001525879</ele>
        <time>2019-12-29T10:44:58.000Z</time>
      </trkpt>
      <trkpt lat="47.3043" lon="-2.45571">
        <ele>40.400001525879</ele>
        <time>2019-12-29T10:44:59.000Z</time>
      </trkpt>
      <trkpt lat="47.30391" lon="-2.45598">
        <ele>40.400001525879</ele>
        <time>2019-12-29T10:45:06.000Z</time>
      </trkpt>
      <trkpt lat="47.30356" lon="-2.45616">
        <ele>40.400001525879</ele>
        <time>2019-12-29T10:45:12.000Z</time>
      </trkpt>
      <trkpt lat="47.30324" lon="-2.45643">
        <ele>40.400001525879</ele>
        <time>2019-12-29T10:45:18.000Z</time>
      </trkpt>
      <trkpt lat="47.30306" lon="-2.45645">
        <ele>40.400001525879</ele>
        <time>2019-12-29T10:45:21.000Z</time>
      </trkpt>
      <trkpt lat="47.30288" lon="-2.45635">
        <ele>40.400001525879</ele>
        <time>2019-12-29T10:45:24.000Z</time>
      </trkpt>
      <trkpt lat="47.30283" lon="-2.4563">
        <ele>40.400001525879</ele>
        <time>2019-12-29T10:45:25.000Z</time>
      </trkpt>
      <trkpt lat="47.30252" lon="-2.45601">
        <ele>40.400001525879</ele>
        <time>2019-12-29T10:45:31.000Z</time>
      </trkpt>
      <trkpt lat="47.30247" lon="-2.45598">
        <ele>40.400001525879</ele>
        <time>2019-12-29T10:45:32.000Z</time>
      </trkpt>
      <trkpt lat="47.30223" lon="-2.45593">
        <ele>40.400001525879</ele>
        <time>2019-12-29T10:45:36.000Z</time>
      </trkpt>
      <trkpt lat="47.30217" lon="-2.45593">
        <ele>40.400001525879</ele>
        <time>2019-12-29T10:45:37.000Z</time>
      </trkpt>
      <trkpt lat="47.30174" lon="-2.45595">
        <ele>40.400001525879</ele>
        <time>2019-12-29T10:45:44.000Z</time>
      </trkpt>
      <trkpt lat="47.30129" lon="-2.45602">
        <ele>40.400001525879</ele>
        <time>2019-12-29T10:45:51.000Z</time>
      </trkpt>
      <trkpt lat="47.30077" lon="-2.45609">
        <ele>40.400001525879</ele>
        <time>2019-12-29T10:45:59.000Z</time>
      </trkpt>
      <trkpt lat="47.30033" lon="-2.45614">
        <ele>40.400001525879</ele>
        <time>2019-12-29T10:46:06.000Z</time>
      </trkpt>
      <trkpt lat="47.29996" lon="-2.45612">
        <ele>40.400001525879</ele>
        <time>2019-12-29T10:46:12.000Z</time>
      </trkpt>
      <trkpt lat="47.29989" lon="-2.4561">
        <ele>40.400001525879</ele>
        <time>2019-12-29T10:46:13.000Z</time>
      </trkpt>
      <trkpt lat="47.29946" lon="-2.45592">
        <ele>40.400001525879</ele>
        <time>2019-12-29T10:46:20.000Z</time>
      </trkpt>
      <trkpt lat="47.29903" lon="-2.45574">
        <ele>40.400001525879</ele>
        <time>2019-12-29T10:46:27.000Z</time>
      </trkpt>
      <trkpt lat="47.29862" lon="-2.45555">
        <ele>40.400001525879</ele>
        <time>2019-12-29T10:46:34.000Z</time>
      </trkpt>
      <trkpt lat="47.29856" lon="-2.4555">
        <ele>40.400001525879</ele>
        <time>2019-12-29T10:46:35.000Z</time>
      </trkpt>
      <trkpt lat="47.29843" lon="-2.45531">
        <ele>40.400001525879</ele>
        <time>2019-12-29T10:46:38.000Z</time>
      </trkpt>
      <trkpt lat="47.29819" lon="-2.45497">
        <ele>40.400001525879</ele>
        <time>2019-12-29T10:46:43.000Z</time>
      </trkpt>
      <trkpt lat="47.29813" lon="-2.45492">
        <ele>40.400001525879</ele>
        <time>2019-12-29T10:46:44.000Z</time>
      </trkpt>
      <trkpt lat="47.2977" lon="-2.45461">
        <ele>40.400001525879</ele>
        <time>2019-12-29T10:46:51.000Z</time>
      </trkpt>
      <trkpt lat="47.29764" lon="-2.45457">
        <ele>40.799999237061</ele>
        <time>2019-12-29T10:46:52.000Z</time>
      </trkpt>
      <trkpt lat="47.29758" lon="-2.45454">
        <ele>41.400001525879</ele>
        <time>2019-12-29T10:46:53.000Z</time>
      </trkpt>
      <trkpt lat="47.29751" lon="-2.4545">
        <ele>41.799999237061</ele>
        <time>2019-12-29T10:46:54.000Z</time>
      </trkpt>
      <trkpt lat="47.29745" lon="-2.45446">
        <ele>42.200000762939</ele>
        <time>2019-12-29T10:46:55.000Z</time>
      </trkpt>
      <trkpt lat="47.29739" lon="-2.45444">
        <ele>42.599998474121</ele>
        <time>2019-12-29T10:46:56.000Z</time>
      </trkpt>
      <trkpt lat="47.29732" lon="-2.45442">
        <ele>42.599998474121</ele>
        <time>2019-12-29T10:46:57.000Z</time>
      </trkpt>
      <trkpt lat="47.29704" lon="-2.45449">
        <ele>42.200000762939</ele>
        <time>2019-12-29T10:47:01.000Z</time>
      </trkpt>
      <trkpt lat="47.29698" lon="-2.45452">
        <ele>41.799999237061</ele>
        <time>2019-12-29T10:47:02.000Z</time>
      </trkpt>
      <trkpt lat="47.29691" lon="-2.45453">
        <ele>41.400001525879</ele>
        <time>2019-12-29T10:47:03.000Z</time>
      </trkpt>
      <trkpt lat="47.29684" lon="-2.45453">
        <ele>40.599998474121</ele>
        <time>2019-12-29T10:47:04.000Z</time>
      </trkpt>
      <trkpt lat="47.29678" lon="-2.45451">
        <ele>40.599998474121</ele>
        <time>2019-12-29T10:47:05.000Z</time>
      </trkpt>
      <trkpt lat="47.2966" lon="-2.45439">
        <ele>40.599998474121</ele>
        <time>2019-12-29T10:47:08.000Z</time>
      </trkpt>
      <trkpt lat="47.29653" lon="-2.45436">
        <ele>40.599998474121</ele>
        <time>2019-12-29T10:47:09.000Z</time>
      </trkpt>
      <trkpt lat="47.29626" lon="-2.45436">
        <ele>40.599998474121</ele>
        <time>2019-12-29T10:47:13.000Z</time>
      </trkpt>
      <trkpt lat="47.2962" lon="-2.45438">
        <ele>40.599998474121</ele>
        <time>2019-12-29T10:47:14.000Z</time>
      </trkpt>
      <trkpt lat="47.29588" lon="-2.45453">
        <ele>40.599998474121</ele>
        <time>2019-12-29T10:47:19.000Z</time>
      </trkpt>
      <trkpt lat="47.29559" lon="-2.45478">
        <ele>40.599998474121</ele>
        <time>2019-12-29T10:47:24.000Z</time>
      </trkpt>
      <trkpt lat="47.29538" lon="-2.45498">
        <ele>40.599998474121</ele>
        <time>2019-12-29T10:47:28.000Z</time>
      </trkpt>
      <trkpt lat="47.29526" lon="-2.45505">
        <ele>40.599998474121</ele>
        <time>2019-12-29T10:47:30.000Z</time>
      </trkpt>
      <trkpt lat="47.29478" lon="-2.45538">
        <ele>40.599998474121</ele>
        <time>2019-12-29T10:47:38.000Z</time>
      </trkpt>
      <trkpt lat="47.29443" lon="-2.45565">
        <ele>40.599998474121</ele>
        <time>2019-12-29T10:47:44.000Z</time>
      </trkpt>
      <trkpt lat="47.29404" lon="-2.45593">
        <ele>40.599998474121</ele>
        <time>2019-12-29T10:47:51.000Z</time>
      </trkpt>
      <trkpt lat="47.29391" lon="-2.45598">
        <ele>40.599998474121</ele>
        <time>2019-12-29T10:47:53.000Z</time>
      </trkpt>
      <trkpt lat="47.29372" lon="-2.456">
        <ele>40.599998474121</ele>
        <time>2019-12-29T10:47:56.000Z</time>
      </trkpt>
      <trkpt lat="47.29365" lon="-2.45599">
        <ele>40.599998474121</ele>
        <time>2019-12-29T10:47:57.000Z</time>
      </trkpt>
      <trkpt lat="47.29327" lon="-2.45596">
        <ele>40.599998474121</ele>
        <time>2019-12-29T10:48:03.000Z</time>
      </trkpt>
      <trkpt lat="47.29288" lon="-2.45587">
        <ele>40.599998474121</ele>
        <time>2019-12-29T10:48:09.000Z</time>
      </trkpt>
      <trkpt lat="47.29282" lon="-2.45584">
        <ele>40.599998474121</ele>
        <time>2019-12-29T10:48:10.000Z</time>
      </trkpt>
      <trkpt lat="47.29239" lon="-2.45562">
        <ele>40.599998474121</ele>
        <time>2019-12-29T10:48:17.000Z</time>
      </trkpt>
      <trkpt lat="47.29215" lon="-2.45555">
        <ele>40.599998474121</ele>
        <time>2019-12-29T10:48:21.000Z</time>
      </trkpt>
      <trkpt lat="47.29203" lon="-2.45555">
        <ele>40.599998474121</ele>
        <time>2019-12-29T10:48:23.000Z</time>
      </trkpt>
      <trkpt lat="47.29158" lon="-2.45544">
        <ele>40.599998474121</ele>
        <time>2019-12-29T10:48:30.000Z</time>
      </trkpt>
      <trkpt lat="47.29139" lon="-2.45537">
        <ele>40.200000762939</ele>
        <time>2019-12-29T10:48:33.000Z</time>
      </trkpt>
      <trkpt lat="47.29133" lon="-2.45534">
        <ele>39.799999237061</ele>
        <time>2019-12-29T10:48:34.000Z</time>
      </trkpt>
      <trkpt lat="47.29126" lon="-2.45532">
        <ele>39.400001525879</ele>
        <time>2019-12-29T10:48:35.000Z</time>
      </trkpt>
      <trkpt lat="47.2912" lon="-2.4553">
        <ele>39</ele>
        <time>2019-12-29T10:48:36.000Z</time>
      </trkpt>
      <trkpt lat="47.29114" lon="-2.45528">
        <ele>38.599998474121</ele>
        <time>2019-12-29T10:48:37.000Z</time>
      </trkpt>
      <trkpt lat="47.29101" lon="-2.45524">
        <ele>38.599998474121</ele>
        <time>2019-12-29T10:48:39.000Z</time>
      </trkpt>
      <trkpt lat="47.29057" lon="-2.45512">
        <ele>38.599998474121</ele>
        <time>2019-12-29T10:48:46.000Z</time>
      </trkpt>
      <trkpt lat="47.2903" lon="-2.45511">
        <ele>38.599998474121</ele>
        <time>2019-12-29T10:48:50.000Z</time>
      </trkpt>
      <trkpt lat="47.29024" lon="-2.45513">
        <ele>38.599998474121</ele>
        <time>2019-12-29T10:48:51.000Z</time>
      </trkpt>
      <trkpt lat="47.28994" lon="-2.45525">
        <ele>38.599998474121</ele>
        <time>2019-12-29T10:48:56.000Z</time>
      </trkpt>
      <trkpt lat="47.28937" lon="-2.45543">
        <ele>38.599998474121</ele>
        <time>2019-12-29T10:49:05.000Z</time>
      </trkpt>
      <trkpt lat="47.28893" lon="-2.45562">
        <ele>38.599998474121</ele>
        <time>2019-12-29T10:49:12.000Z</time>
      </trkpt>
      <trkpt lat="47.28888" lon="-2.45566">
        <ele>38.599998474121</ele>
        <time>2019-12-29T10:49:13.000Z</time>
      </trkpt>
      <trkpt lat="47.28867" lon="-2.45588">
        <ele>38.599998474121</ele>
        <time>2019-12-29T10:49:17.000Z</time>
      </trkpt>
      <trkpt lat="47.28822" lon="-2.45629">
        <ele>38.599998474121</ele>
        <time>2019-12-29T10:49:25.000Z</time>
      </trkpt>
      <trkpt lat="47.2879" lon="-2.45661">
        <ele>38.599998474121</ele>
        <time>2019-12-29T10:49:31.000Z</time>
      </trkpt>
      <trkpt lat="47.28772" lon="-2.45671">
        <ele>38.599998474121</ele>
        <time>2019-12-29T10:49:34.000Z</time>
      </trkpt>
      <trkpt lat="47.2876" lon="-2.45675">
        <ele>38.599998474121</ele>
        <time>2019-12-29T10:49:36.000Z</time>
      </trkpt>
      <trkpt lat="47.28722" lon="-2.45687">
        <ele>38.599998474121</ele>
        <time>2019-12-29T10:49:42.000Z</time>
      </trkpt>
      <trkpt lat="47.2869" lon="-2.45693">
        <ele>38.599998474121</ele>
        <time>2019-12-29T10:49:48.000Z</time>
      </trkpt>
      <trkpt lat="47.28662" lon="-2.45698">
        <ele>38.599998474121</ele>
        <time>2019-12-29T10:49:52.000Z</time>
      </trkpt>
      <trkpt lat="47.28635" lon="-2.45701">
        <ele>39</ele>
        <time>2019-12-29T10:49:56.000Z</time>
      </trkpt>
      <trkpt lat="47.28629" lon="-2.45701">
        <ele>39.400001525879</ele>
        <time>2019-12-29T10:49:57.000Z</time>
      </trkpt>
      <trkpt lat="47.28622" lon="-2.457">
        <ele>39.799999237061</ele>
        <time>2019-12-29T10:49:58.000Z</time>
      </trkpt>
      <trkpt lat="47.28615" lon="-2.457">
        <ele>40.200000762939</ele>
        <time>2019-12-29T10:49:59.000Z</time>
      </trkpt>
      <trkpt lat="47.28608" lon="-2.457">
        <ele>40.799999237061</ele>
        <time>2019-12-29T10:50:00.000Z</time>
      </trkpt>
      <trkpt lat="47.28574" lon="-2.45702">
        <ele>40.799999237061</ele>
        <time>2019-12-29T10:50:05.000Z</time>
      </trkpt>
      <trkpt lat="47.2853" lon="-2.45714">
        <ele>40.799999237061</ele>
        <time>2019-12-29T10:50:12.000Z</time>
      </trkpt>
      <trkpt lat="47.28487" lon="-2.45738">
        <ele>40.799999237061</ele>
        <time>2019-12-29T10:50:19.000Z</time>
      </trkpt>
      <trkpt lat="47.28443" lon="-2.45755">
        <ele>40.799999237061</ele>
        <time>2019-12-29T10:50:26.000Z</time>
      </trkpt>
      <trkpt lat="47.28401" lon="-2.4577">
        <ele>40.799999237061</ele>
        <time>2019-12-29T10:50:33.000Z</time>
      </trkpt>
      <trkpt lat="47.28365" lon="-2.45788">
        <ele>40.799999237061</ele>
        <time>2019-12-29T10:50:39.000Z</time>
      </trkpt>
      <trkpt lat="47.2833" lon="-2.4581">
        <ele>40.799999237061</ele>
        <time>2019-12-29T10:50:45.000Z</time>
      </trkpt>
      <trkpt lat="47.28291" lon="-2.45847">
        <ele>40.799999237061</ele>
        <time>2019-12-29T10:50:52.000Z</time>
      </trkpt>
      <trkpt lat="47.28248" lon="-2.45889">
        <ele>40.799999237061</ele>
        <time>2019-12-29T10:51:00.000Z</time>
      </trkpt>
      <trkpt lat="47.28242" lon="-2.45894">
        <ele>40.400001525879</ele>
        <time>2019-12-29T10:51:01.000Z</time>
      </trkpt>
      <trkpt lat="47.28237" lon="-2.459">
        <ele>40</ele>
        <time>2019-12-29T10:51:02.000Z</time>
      </trkpt>
      <trkpt lat="47.28232" lon="-2.45905">
        <ele>39.400001525879</ele>
        <time>2019-12-29T10:51:03.000Z</time>
      </trkpt>
      <trkpt lat="47.28227" lon="-2.45911">
        <ele>39</ele>
        <time>2019-12-29T10:51:04.000Z</time>
      </trkpt>
      <trkpt lat="47.28223" lon="-2.45918">
        <ele>38.599998474121</ele>
        <time>2019-12-29T10:51:05.000Z</time>
      </trkpt>
      <trkpt lat="47.28214" lon="-2.45933">
        <ele>38.599998474121</ele>
        <time>2019-12-29T10:51:07.000Z</time>
      </trkpt>
      <trkpt lat="47.28191" lon="-2.4598">
        <ele>38.599998474121</ele>
        <time>2019-12-29T10:51:13.000Z</time>
      </trkpt>
      <trkpt lat="47.28161" lon="-2.46032">
        <ele>38.599998474121</ele>
        <time>2019-12-29T10:51:20.000Z</time>
      </trkpt>
      <trkpt lat="47.28133" lon="-2.46082">
        <ele>38.599998474121</ele>
        <time>2019-12-29T10:51:27.000Z</time>
      </trkpt>
      <trkpt lat="47.28107" lon="-2.46121">
        <ele>38.599998474121</ele>
        <time>2019-12-29T10:51:33.000Z</time>
      </trkpt>
      <trkpt lat="47.28102" lon="-2.46126">
        <ele>38.599998474121</ele>
        <time>2019-12-29T10:51:34.000Z</time>
      </trkpt>
      <trkpt lat="47.28085" lon="-2.46137">
        <ele>38.599998474121</ele>
        <time>2019-12-29T10:51:37.000Z</time>
      </trkpt>
      <trkpt lat="47.28079" lon="-2.46136">
        <ele>38.599998474121</ele>
        <time>2019-12-29T10:51:38.000Z</time>
      </trkpt>
      <trkpt lat="47.28065" lon="-2.46126">
        <ele>39</ele>
        <time>2019-12-29T10:51:41.000Z</time>
      </trkpt>
      <trkpt lat="47.28061" lon="-2.46123">
        <ele>39.599998474121</ele>
        <time>2019-12-29T10:51:42.000Z</time>
      </trkpt>
      <trkpt lat="47.28059" lon="-2.46121">
        <ele>40</ele>
        <time>2019-12-29T10:51:43.000Z</time>
      </trkpt>
      <trkpt lat="47.28056" lon="-2.4612">
        <ele>40.400001525879</ele>
        <time>2019-12-29T10:51:45.000Z</time>
      </trkpt>
      <trkpt lat="47.28053" lon="-2.4612">
        <ele>40.799999237061</ele>
        <time>2019-12-29T10:51:46.000Z</time>
      </trkpt>
      <trkpt lat="47.2805" lon="-2.4612">
        <ele>40.799999237061</ele>
        <time>2019-12-29T10:51:47.000Z</time>
      </trkpt>
      <trkpt lat="47.28038" lon="-2.46125">
        <ele>40.799999237061</ele>
        <time>2019-12-29T10:51:51.000Z</time>
      </trkpt>
      <trkpt lat="47.28026" lon="-2.46132">
        <ele>40.799999237061</ele>
        <time>2019-12-29T10:51:56.000Z</time>
      </trkpt>
      <trkpt lat="47.28011" lon="-2.46135">
        <ele>40.799999237061</ele>
        <time>2019-12-29T10:52:02.000Z</time>
      </trkpt>
      <trkpt lat="47.27997" lon="-2.46139">
        <ele>40.799999237061</ele>
        <time>2019-12-29T10:52:08.000Z</time>
      </trkpt>
      <trkpt lat="47.27982" lon="-2.46145">
        <ele>40.799999237061</ele>
        <time>2019-12-29T10:52:15.000Z</time>
      </trkpt>
      <trkpt lat="47.27963" lon="-2.46151">
        <ele>40.799999237061</ele>
        <time>2019-12-29T10:52:21.000Z</time>
      </trkpt>
      <trkpt lat="47.2794" lon="-2.46165">
        <ele>40.799999237061</ele>
        <time>2019-12-29T10:52:26.000Z</time>
      </trkpt>
      <trkpt lat="47.27927" lon="-2.46179">
        <ele>40.799999237061</ele>
        <time>2019-12-29T10:52:29.000Z</time>
      </trkpt>
      <trkpt lat="47.27922" lon="-2.4618">
        <ele>40.799999237061</ele>
        <time>2019-12-29T10:52:30.000Z</time>
      </trkpt>
      <trkpt lat="47.27893" lon="-2.46181">
        <ele>40.799999237061</ele>
        <time>2019-12-29T10:52:36.000Z</time>
      </trkpt>
      <trkpt lat="47.27891" lon="-2.46177">
        <ele>40.799999237061</ele>
        <time>2019-12-29T10:52:37.000Z</time>
      </trkpt>
      <trkpt lat="47.2789" lon="-2.46166">
        <ele>40.799999237061</ele>
        <time>2019-12-29T10:52:39.000Z</time>
      </trkpt>
      <trkpt lat="47.27891" lon="-2.46149">
        <ele>40.799999237061</ele>
        <time>2019-12-29T10:52:42.000Z</time>
      </trkpt>
      <trkpt lat="47.27893" lon="-2.46135">
        <ele>40.799999237061</ele>
        <time>2019-12-29T10:52:44.000Z</time>
      </trkpt>
      <trkpt lat="47.27894" lon="-2.46128">
        <ele>40.799999237061</ele>
        <time>2019-12-29T10:52:45.000Z</time>
      </trkpt>
      <trkpt lat="47.27905" lon="-2.46071">
        <ele>40.799999237061</ele>
        <time>2019-12-29T10:52:53.000Z</time>
      </trkpt>
      <trkpt lat="47.27913" lon="-2.46022">
        <ele>40.799999237061</ele>
        <time>2019-12-29T10:53:01.000Z</time>
      </trkpt>
      <trkpt lat="47.27922" lon="-2.45987">
        <ele>40.799999237061</ele>
        <time>2019-12-29T10:53:07.000Z</time>
      </trkpt>
      <trkpt lat="47.2793" lon="-2.45955">
        <ele>40.400001525879</ele>
        <time>2019-12-29T10:53:13.000Z</time>
      </trkpt>
      <trkpt lat="47.27932" lon="-2.4595">
        <ele>39.799999237061</ele>
        <time>2019-12-29T10:53:14.000Z</time>
      </trkpt>
      <trkpt lat="47.27933" lon="-2.45944">
        <ele>39</ele>
        <time>2019-12-29T10:53:15.000Z</time>
      </trkpt>
      <trkpt lat="47.27935" lon="-2.45939">
        <ele>38.599998474121</ele>
        <time>2019-12-29T10:53:16.000Z</time>
      </trkpt>
      <trkpt lat="47.27945" lon="-2.45908">
        <ele>38.599998474121</ele>
        <time>2019-12-29T10:53:22.000Z</time>
      </trkpt>
      <trkpt lat="47.27956" lon="-2.45872">
        <ele>38.599998474121</ele>
        <time>2019-12-29T10:53:30.000Z</time>
      </trkpt>
      <trkpt lat="47.27962" lon="-2.45852">
        <ele>38.599998474121</ele>
        <time>2019-12-29T10:53:36.000Z</time>
      </trkpt>
      <trkpt lat="47.27961" lon="-2.45846">
        <ele>38.599998474121</ele>
        <time>2019-12-29T10:53:38.000Z</time>
      </trkpt>
      <trkpt lat="47.27956" lon="-2.45844">
        <ele>38.599998474121</ele>
        <time>2019-12-29T10:53:40.000Z</time>
      </trkpt>
      <trkpt lat="47.27938" lon="-2.45846">
        <ele>38.599998474121</ele>
        <time>2019-12-29T10:53:45.000Z</time>
      </trkpt>
      <trkpt lat="47.27933" lon="-2.45849">
        <ele>38.599998474121</ele>
        <time>2019-12-29T10:53:46.000Z</time>
      </trkpt>
      <trkpt lat="47.27917" lon="-2.45858">
        <ele>38.200000762939</ele>
        <time>2019-12-29T10:53:49.000Z</time>
      </trkpt>
      <trkpt lat="47.27911" lon="-2.45862">
        <ele>37.799999237061</ele>
        <time>2019-12-29T10:53:50.000Z</time>
      </trkpt>
      <trkpt lat="47.27904" lon="-2.45865">
        <ele>37.200000762939</ele>
        <time>2019-12-29T10:53:51.000Z</time>
      </trkpt>
      <trkpt lat="47.27897" lon="-2.45868">
        <ele>36.799999237061</ele>
        <time>2019-12-29T10:53:52.000Z</time>
      </trkpt>
      <trkpt lat="47.27891" lon="-2.45872">
        <ele>36.400001525879</ele>
        <time>2019-12-29T10:53:53.000Z</time>
      </trkpt>
      <trkpt lat="47.2787" lon="-2.45882">
        <ele>36</ele>
        <time>2019-12-29T10:53:56.000Z</time>
      </trkpt>
      <trkpt lat="47.27864" lon="-2.45885">
        <ele>35.599998474121</ele>
        <time>2019-12-29T10:53:57.000Z</time>
      </trkpt>
      <trkpt lat="47.27857" lon="-2.45888">
        <ele>35.200000762939</ele>
        <time>2019-12-29T10:53:58.000Z</time>
      </trkpt>
      <trkpt lat="47.27851" lon="-2.45891">
        <ele>34.799999237061</ele>
        <time>2019-12-29T10:53:59.000Z</time>
      </trkpt>
      <trkpt lat="47.27846" lon="-2.45895">
        <ele>34.400001525879</ele>
        <time>2019-12-29T10:54:00.000Z</time>
      </trkpt>
      <trkpt lat="47.27836" lon="-2.459">
        <ele>34.400001525879</ele>
        <time>2019-12-29T10:54:02.000Z</time>
      </trkpt>
      <trkpt lat="47.27827" lon="-2.45904">
        <ele>34.400001525879</ele>
        <time>2019-12-29T10:54:04.000Z</time>
      </trkpt>
      <trkpt lat="47.27814" lon="-2.45911">
        <ele>34.400001525879</ele>
        <time>2019-12-29T10:54:07.000Z</time>
      </trkpt>
      <trkpt lat="47.2781" lon="-2.45913">
        <ele>34.400001525879</ele>
        <time>2019-12-29T10:54:08.000Z</time>
      </trkpt>
      <trkpt lat="47.27793" lon="-2.45921">
        <ele>34.799999237061</ele>
        <time>2019-12-29T10:54:12.000Z</time>
      </trkpt>
      <trkpt lat="47.27789" lon="-2.45924">
        <ele>35.200000762939</ele>
        <time>2019-12-29T10:54:13.000Z</time>
      </trkpt>
      <trkpt lat="47.27785" lon="-2.45927">
        <ele>35.599998474121</ele>
        <time>2019-12-29T10:54:14.000Z</time>
      </trkpt>
      <trkpt lat="47.27781" lon="-2.4593">
        <ele>36</ele>
        <time>2019-12-29T10:54:15.000Z</time>
      </trkpt>
      <trkpt lat="47.27777" lon="-2.45933">
        <ele>36.400001525879</ele>
        <time>2019-12-29T10:54:16.000Z</time>
      </trkpt>
      <trkpt lat="47.27769" lon="-2.45941">
        <ele>36.400001525879</ele>
        <time>2019-12-29T10:54:18.000Z</time>
      </trkpt>
      <trkpt lat="47.27761" lon="-2.45963">
        <ele>36.400001525879</ele>
        <time>2019-12-29T10:54:22.000Z</time>
      </trkpt>
      <trkpt lat="47.2776" lon="-2.45969">
        <ele>36.799999237061</ele>
        <time>2019-12-29T10:54:23.000Z</time>
      </trkpt>
      <trkpt lat="47.2776" lon="-2.45975">
        <ele>37.400001525879</ele>
        <time>2019-12-29T10:54:24.000Z</time>
      </trkpt>
      <trkpt lat="47.2776" lon="-2.45981">
        <ele>37.799999237061</ele>
        <time>2019-12-29T10:54:25.000Z</time>
      </trkpt>
      <trkpt lat="47.27761" lon="-2.45986">
        <ele>38.200000762939</ele>
        <time>2019-12-29T10:54:26.000Z</time>
      </trkpt>
      <trkpt lat="47.27759" lon="-2.45991">
        <ele>38.599998474121</ele>
        <time>2019-12-29T10:54:27.000Z</time>
      </trkpt>
      <trkpt lat="47.27749" lon="-2.45999">
        <ele>38.599998474121</ele>
        <time>2019-12-29T10:54:31.000Z</time>
      </trkpt>
      <trkpt lat="47.27733" lon="-2.45993">
        <ele>38.599998474121</ele>
        <time>2019-12-29T10:54:35.000Z</time>
      </trkpt>
      <trkpt lat="47.27729" lon="-2.4599">
        <ele>38.599998474121</ele>
        <time>2019-12-29T10:54:36.000Z</time>
      </trkpt>
      <trkpt lat="47.27721" lon="-2.45983">
        <ele>38.599998474121</ele>
        <time>2019-12-29T10:54:38.000Z</time>
      </trkpt>
      <trkpt lat="47.2771" lon="-2.45968">
        <ele>38.599998474121</ele>
        <time>2019-12-29T10:54:41.000Z</time>
      </trkpt>
      <trkpt lat="47.27706" lon="-2.45941">
        <ele>38.599998474121</ele>
        <time>2019-12-29T10:54:45.000Z</time>
      </trkpt>
      <trkpt lat="47.27712" lon="-2.45913">
        <ele>38.599998474121</ele>
        <time>2019-12-29T10:54:49.000Z</time>
      </trkpt>
      <trkpt lat="47.2772" lon="-2.45902">
        <ele>38.599998474121</ele>
        <time>2019-12-29T10:54:51.000Z</time>
      </trkpt>
      <trkpt lat="47.27727" lon="-2.45891">
        <ele>38.599998474121</ele>
        <time>2019-12-29T10:54:53.000Z</time>
      </trkpt>
      <trkpt lat="47.27729" lon="-2.45885">
        <ele>38.599998474121</ele>
        <time>2019-12-29T10:54:54.000Z</time>
      </trkpt>
      <trkpt lat="47.27735" lon="-2.45863">
        <ele>38.599998474121</ele>
        <time>2019-12-29T10:54:57.000Z</time>
      </trkpt>
      <trkpt lat="47.27753" lon="-2.45832">
        <ele>38.599998474121</ele>
        <time>2019-12-29T10:55:02.000Z</time>
      </trkpt>
      <trkpt lat="47.2776" lon="-2.45817">
        <ele>38.599998474121</ele>
        <time>2019-12-29T10:55:04.000Z</time>
      </trkpt>
      <trkpt lat="47.27764" lon="-2.45801">
        <ele>39</ele>
        <time>2019-12-29T10:55:06.000Z</time>
      </trkpt>
      <trkpt lat="47.27766" lon="-2.45793">
        <ele>39.400001525879</ele>
        <time>2019-12-29T10:55:07.000Z</time>
      </trkpt>
      <trkpt lat="47.27767" lon="-2.45785">
        <ele>39.799999237061</ele>
        <time>2019-12-29T10:55:08.000Z</time>
      </trkpt>
      <trkpt lat="47.27771" lon="-2.45778">
        <ele>40.200000762939</ele>
        <time>2019-12-29T10:55:09.000Z</time>
      </trkpt>
      <trkpt lat="47.27774" lon="-2.45771">
        <ele>40.599998474121</ele>
        <time>2019-12-29T10:55:10.000Z</time>
      </trkpt>
      <trkpt lat="47.27778" lon="-2.45766">
        <ele>40.599998474121</ele>
        <time>2019-12-29T10:55:11.000Z</time>
      </trkpt>
      <trkpt lat="47.278" lon="-2.45752">
        <ele>40.599998474121</ele>
        <time>2019-12-29T10:55:15.000Z</time>
      </trkpt>
      <trkpt lat="47.27806" lon="-2.4575">
        <ele>40.599998474121</ele>
        <time>2019-12-29T10:55:16.000Z</time>
      </trkpt>
      <trkpt lat="47.2783" lon="-2.4574">
        <ele>40.599998474121</ele>
        <time>2019-12-29T10:55:21.000Z</time>
      </trkpt>
      <trkpt lat="47.27838" lon="-2.45735">
        <ele>40.599998474121</ele>
        <time>2019-12-29T10:55:24.000Z</time>
      </trkpt>
      <trkpt lat="47.27839" lon="-2.4573">
        <ele>40.599998474121</ele>
        <time>2019-12-29T10:55:25.000Z</time>
      </trkpt>
      <trkpt lat="47.27847" lon="-2.45713">
        <ele>40.599998474121</ele>
        <time>2019-12-29T10:55:29.000Z</time>
      </trkpt>
      <trkpt lat="47.27852" lon="-2.45695">
        <ele>40.599998474121</ele>
        <time>2019-12-29T10:55:32.000Z</time>
      </trkpt>
      <trkpt lat="47.27857" lon="-2.45674">
        <ele>40.599998474121</ele>
        <time>2019-12-29T10:55:35.000Z</time>
      </trkpt>
      <trkpt lat="47.27858" lon="-2.45667">
        <ele>40.599998474121</ele>
        <time>2019-12-29T10:55:36.000Z</time>
      </trkpt>
      <trkpt lat="47.27858" lon="-2.4564">
        <ele>40.599998474121</ele>
        <time>2019-12-29T10:55:40.000Z</time>
      </trkpt>
      <trkpt lat="47.27859" lon="-2.4561">
        <ele>40.599998474121</ele>
        <time>2019-12-29T10:55:45.000Z</time>
      </trkpt>
      <trkpt lat="47.27858" lon="-2.45576">
        <ele>40.599998474121</ele>
        <time>2019-12-29T10:55:50.000Z</time>
      </trkpt>
      <trkpt lat="47.27855" lon="-2.4557">
        <ele>40.599998474121</ele>
        <time>2019-12-29T10:55:51.000Z</time>
      </trkpt>
      <trkpt lat="47.2785" lon="-2.45554">
        <ele>40.599998474121</ele>
        <time>2019-12-29T10:55:55.000Z</time>
      </trkpt>
      <trkpt lat="47.2785" lon="-2.45542">
        <ele>40.599998474121</ele>
        <time>2019-12-29T10:56:00.000Z</time>
      </trkpt>
      <trkpt lat="47.27851" lon="-2.45527">
        <ele>40.599998474121</ele>
        <time>2019-12-29T10:56:03.000Z</time>
      </trkpt>
      <trkpt lat="47.2785" lon="-2.4552">
        <ele>40.599998474121</ele>
        <time>2019-12-29T10:56:04.000Z</time>
      </trkpt>
      <trkpt lat="47.27847" lon="-2.45482">
        <ele>40.599998474121</ele>
        <time>2019-12-29T10:56:09.000Z</time>
      </trkpt>
      <trkpt lat="47.27846" lon="-2.45474">
        <ele>40.599998474121</ele>
        <time>2019-12-29T10:56:10.000Z</time>
      </trkpt>
      <trkpt lat="47.27837" lon="-2.45454">
        <ele>40.599998474121</ele>
        <time>2019-12-29T10:56:13.000Z</time>
      </trkpt>
      <trkpt lat="47.27828" lon="-2.45434">
        <ele>40.599998474121</ele>
        <time>2019-12-29T10:56:16.000Z</time>
      </trkpt>
      <trkpt lat="47.27818" lon="-2.45412">
        <ele>40.599998474121</ele>
        <time>2019-12-29T10:56:19.000Z</time>
      </trkpt>
      <trkpt lat="47.27813" lon="-2.45397">
        <ele>40.599998474121</ele>
        <time>2019-12-29T10:56:21.000Z</time>
      </trkpt>
      <trkpt lat="47.27804" lon="-2.45366">
        <ele>40.599998474121</ele>
        <time>2019-12-29T10:56:25.000Z</time>
      </trkpt>
      <trkpt lat="47.27791" lon="-2.45316">
        <ele>40.599998474121</ele>
        <time>2019-12-29T10:56:31.000Z</time>
      </trkpt>
      <trkpt lat="47.27777" lon="-2.45255">
        <ele>40.599998474121</ele>
        <time>2019-12-29T10:56:38.000Z</time>
      </trkpt>
      <trkpt lat="47.27777" lon="-2.45245">
        <ele>40.599998474121</ele>
        <time>2019-12-29T10:56:39.000Z</time>
      </trkpt>
      <trkpt lat="47.27775" lon="-2.45174">
        <ele>40.599998474121</ele>
        <time>2019-12-29T10:56:46.000Z</time>
      </trkpt>
      <trkpt lat="47.27774" lon="-2.45164">
        <ele>40.599998474121</ele>
        <time>2019-12-29T10:56:47.000Z</time>
      </trkpt>
      <trkpt lat="47.27769" lon="-2.45125">
        <ele>40.599998474121</ele>
        <time>2019-12-29T10:56:51.000Z</time>
      </trkpt>
      <trkpt lat="47.2776" lon="-2.45091">
        <ele>40.599998474121</ele>
        <time>2019-12-29T10:56:55.000Z</time>
      </trkpt>
      <trkpt lat="47.27756" lon="-2.45074">
        <ele>40.599998474121</ele>
        <time>2019-12-29T10:56:57.000Z</time>
      </trkpt>
      <trkpt lat="47.27754" lon="-2.45057">
        <ele>40.599998474121</ele>
        <time>2019-12-29T10:56:59.000Z</time>
      </trkpt>
      <trkpt lat="47.2775" lon="-2.45033">
        <ele>40.200000762939</ele>
        <time>2019-12-29T10:57:02.000Z</time>
      </trkpt>
      <trkpt lat="47.27749" lon="-2.45025">
        <ele>39.799999237061</ele>
        <time>2019-12-29T10:57:03.000Z</time>
      </trkpt>
      <trkpt lat="47.27748" lon="-2.45016">
        <ele>39.400001525879</ele>
        <time>2019-12-29T10:57:04.000Z</time>
      </trkpt>
      <trkpt lat="47.27747" lon="-2.45008">
        <ele>39</ele>
        <time>2019-12-29T10:57:05.000Z</time>
      </trkpt>
      <trkpt lat="47.27746" lon="-2.45">
        <ele>38.599998474121</ele>
        <time>2019-12-29T10:57:06.000Z</time>
      </trkpt>
      <trkpt lat="47.27739" lon="-2.44961">
        <ele>38.599998474121</ele>
        <time>2019-12-29T10:57:11.000Z</time>
      </trkpt>
      <trkpt lat="47.27733" lon="-2.44914">
        <ele>38.599998474121</ele>
        <time>2019-12-29T10:57:17.000Z</time>
      </trkpt>
      <trkpt lat="47.27726" lon="-2.44861">
        <ele>38.599998474121</ele>
        <time>2019-12-29T10:57:24.000Z</time>
      </trkpt>
      <trkpt lat="47.27717" lon="-2.44798">
        <ele>38.599998474121</ele>
        <time>2019-12-29T10:57:32.000Z</time>
      </trkpt>
      <trkpt lat="47.27715" lon="-2.44773">
        <ele>38.599998474121</ele>
        <time>2019-12-29T10:57:35.000Z</time>
      </trkpt>
      <trkpt lat="47.27716" lon="-2.44738">
        <ele>38.599998474121</ele>
        <time>2019-12-29T10:57:39.000Z</time>
      </trkpt>
      <trkpt lat="47.2772" lon="-2.44702">
        <ele>38.599998474121</ele>
        <time>2019-12-29T10:57:43.000Z</time>
      </trkpt>
      <trkpt lat="47.27723" lon="-2.44684">
        <ele>38.599998474121</ele>
        <time>2019-12-29T10:57:45.000Z</time>
      </trkpt>
      <trkpt lat="47.2773" lon="-2.44618">
        <ele>38.599998474121</ele>
        <time>2019-12-29T10:57:53.000Z</time>
      </trkpt>
      <trkpt lat="47.27737" lon="-2.44562">
        <ele>38.599998474121</ele>
        <time>2019-12-29T10:58:00.000Z</time>
      </trkpt>
      <trkpt lat="47.27741" lon="-2.44526">
        <ele>38.599998474121</ele>
        <time>2019-12-29T10:58:04.000Z</time>
      </trkpt>
      <trkpt lat="47.2774" lon="-2.44507">
        <ele>38.599998474121</ele>
        <time>2019-12-29T10:58:06.000Z</time>
      </trkpt>
      <trkpt lat="47.27731" lon="-2.44442">
        <ele>38.599998474121</ele>
        <time>2019-12-29T10:58:13.000Z</time>
      </trkpt>
      <trkpt lat="47.27724" lon="-2.44363">
        <ele>38.599998474121</ele>
        <time>2019-12-29T10:58:22.000Z</time>
      </trkpt>
      <trkpt lat="47.27722" lon="-2.44295">
        <ele>38.599998474121</ele>
        <time>2019-12-29T10:58:30.000Z</time>
      </trkpt>
      <trkpt lat="47.27721" lon="-2.4423">
        <ele>38.599998474121</ele>
        <time>2019-12-29T10:58:38.000Z</time>
      </trkpt>
      <trkpt lat="47.27719" lon="-2.44181">
        <ele>38.599998474121</ele>
        <time>2019-12-29T10:58:45.000Z</time>
      </trkpt>
      <trkpt lat="47.27712" lon="-2.44126">
        <ele>38.599998474121</ele>
        <time>2019-12-29T10:58:53.000Z</time>
      </trkpt>
      <trkpt lat="47.27708" lon="-2.44102">
        <ele>38.599998474121</ele>
        <time>2019-12-29T10:58:57.000Z</time>
      </trkpt>
      <trkpt lat="47.27702" lon="-2.44089">
        <ele>38.599998474121</ele>
        <time>2019-12-29T10:59:00.000Z</time>
      </trkpt>
      <trkpt lat="47.27693" lon="-2.4408">
        <ele>38.599998474121</ele>
        <time>2019-12-29T10:59:05.000Z</time>
      </trkpt>
      <trkpt lat="47.27692" lon="-2.44077">
        <ele>38.599998474121</ele>
        <time>2019-12-29T10:59:06.000Z</time>
      </trkpt>
      <trkpt lat="47.27693" lon="-2.44067">
        <ele>38.599998474121</ele>
        <time>2019-12-29T10:59:09.000Z</time>
      </trkpt>
      <trkpt lat="47.27694" lon="-2.44062">
        <ele>38.599998474121</ele>
        <time>2019-12-29T10:59:10.000Z</time>
      </trkpt>
      <trkpt lat="47.27697" lon="-2.44058">
        <ele>38.599998474121</ele>
        <time>2019-12-29T10:59:11.000Z</time>
      </trkpt>
      <trkpt lat="47.27703" lon="-2.4405">
        <ele>38.599998474121</ele>
        <time>2019-12-29T10:59:13.000Z</time>
      </trkpt>
      <trkpt lat="47.27706" lon="-2.44047">
        <ele>38.599998474121</ele>
        <time>2019-12-29T10:59:14.000Z</time>
      </trkpt>
      <trkpt lat="47.27714" lon="-2.44038">
        <ele>38.599998474121</ele>
        <time>2019-12-29T10:59:16.000Z</time>
      </trkpt>
      <trkpt lat="47.27717" lon="-2.44031">
        <ele>38.599998474121</ele>
        <time>2019-12-29T10:59:17.000Z</time>
      </trkpt>
      <trkpt lat="47.27723" lon="-2.4401">
        <ele>38.599998474121</ele>
        <time>2019-12-29T10:59:20.000Z</time>
      </trkpt>
      <trkpt lat="47.27731" lon="-2.4399">
        <ele>38.599998474121</ele>
        <time>2019-12-29T10:59:23.000Z</time>
      </trkpt>
      <trkpt lat="47.27743" lon="-2.43947">
        <ele>38.599998474121</ele>
        <time>2019-12-29T10:59:29.000Z</time>
      </trkpt>
      <trkpt lat="47.27755" lon="-2.43899">
        <ele>38.599998474121</ele>
        <time>2019-12-29T10:59:35.000Z</time>
      </trkpt>
      <trkpt lat="47.27764" lon="-2.43854">
        <ele>38.599998474121</ele>
        <time>2019-12-29T10:59:41.000Z</time>
      </trkpt>
      <trkpt lat="47.27763" lon="-2.43822">
        <ele>38.599998474121</ele>
        <time>2019-12-29T10:59:45.000Z</time>
      </trkpt>
      <trkpt lat="47.27773" lon="-2.43802">
        <ele>38.599998474121</ele>
        <time>2019-12-29T10:59:48.000Z</time>
      </trkpt>
      <trkpt lat="47.27784" lon="-2.43783">
        <ele>38.599998474121</ele>
        <time>2019-12-29T10:59:51.000Z</time>
      </trkpt>
      <trkpt lat="47.2779" lon="-2.43769">
        <ele>38.599998474121</ele>
        <time>2019-12-29T10:59:53.000Z</time>
      </trkpt>
      <trkpt lat="47.27802" lon="-2.4373">
        <ele>38.599998474121</ele>
        <time>2019-12-29T10:59:58.000Z</time>
      </trkpt>
      <trkpt lat="47.27815" lon="-2.43669">
        <ele>38.599998474121</ele>
        <time>2019-12-29T11:00:05.000Z</time>
      </trkpt>
      <trkpt lat="47.27831" lon="-2.43605">
        <ele>38.599998474121</ele>
        <time>2019-12-29T11:00:13.000Z</time>
      </trkpt>
      <trkpt lat="47.27847" lon="-2.43544">
        <ele>38.599998474121</ele>
        <time>2019-12-29T11:00:21.000Z</time>
      </trkpt>
      <trkpt lat="47.27855" lon="-2.43476">
        <ele>38.599998474121</ele>
        <time>2019-12-29T11:00:29.000Z</time>
      </trkpt>
      <trkpt lat="47.2786" lon="-2.43432">
        <ele>38.599998474121</ele>
        <time>2019-12-29T11:00:35.000Z</time>
      </trkpt>
      <trkpt lat="47.27862" lon="-2.43398">
        <ele>38.599998474121</ele>
        <time>2019-12-29T11:00:40.000Z</time>
      </trkpt>
      <trkpt lat="47.27861" lon="-2.43392">
        <ele>38.599998474121</ele>
        <time>2019-12-29T11:00:41.000Z</time>
      </trkpt>
      <trkpt lat="47.27856" lon="-2.43366">
        <ele>38.599998474121</ele>
        <time>2019-12-29T11:00:46.000Z</time>
      </trkpt>
      <trkpt lat="47.27857" lon="-2.4336">
        <ele>38.599998474121</ele>
        <time>2019-12-29T11:00:47.000Z</time>
      </trkpt>
      <trkpt lat="47.27863" lon="-2.43349">
        <ele>38.599998474121</ele>
        <time>2019-12-29T11:00:49.000Z</time>
      </trkpt>
      <trkpt lat="47.27872" lon="-2.43321">
        <ele>38.599998474121</ele>
        <time>2019-12-29T11:00:53.000Z</time>
      </trkpt>
      <trkpt lat="47.2787" lon="-2.43288">
        <ele>38.599998474121</ele>
        <time>2019-12-29T11:00:57.000Z</time>
      </trkpt>
      <trkpt lat="47.2787" lon="-2.43279">
        <ele>38.599998474121</ele>
        <time>2019-12-29T11:00:58.000Z</time>
      </trkpt>
      <trkpt lat="47.27868" lon="-2.43234">
        <ele>38.599998474121</ele>
        <time>2019-12-29T11:01:03.000Z</time>
      </trkpt>
      <trkpt lat="47.27862" lon="-2.43173">
        <ele>38.599998474121</ele>
        <time>2019-12-29T11:01:10.000Z</time>
      </trkpt>
      <trkpt lat="47.27857" lon="-2.43121">
        <ele>38.599998474121</ele>
        <time>2019-12-29T11:01:16.000Z</time>
      </trkpt>
      <trkpt lat="47.27852" lon="-2.43066">
        <ele>38.599998474121</ele>
        <time>2019-12-29T11:01:23.000Z</time>
      </trkpt>
      <trkpt lat="47.27849" lon="-2.43044">
        <ele>38.599998474121</ele>
        <time>2019-12-29T11:01:27.000Z</time>
      </trkpt>
      <trkpt lat="47.27845" lon="-2.4304">
        <ele>38.599998474121</ele>
        <time>2019-12-29T11:01:28.000Z</time>
      </trkpt>
      <trkpt lat="47.27834" lon="-2.43034">
        <ele>38.599998474121</ele>
        <time>2019-12-29T11:01:31.000Z</time>
      </trkpt>
      <trkpt lat="47.27824" lon="-2.43027">
        <ele>38.599998474121</ele>
        <time>2019-12-29T11:01:34.000Z</time>
      </trkpt>
      <trkpt lat="47.27816" lon="-2.4302">
        <ele>38.599998474121</ele>
        <time>2019-12-29T11:01:37.000Z</time>
      </trkpt>
      <trkpt lat="47.27813" lon="-2.43014">
        <ele>38.599998474121</ele>
        <time>2019-12-29T11:01:39.000Z</time>
      </trkpt>
      <trkpt lat="47.27814" lon="-2.43004">
        <ele>38.599998474121</ele>
        <time>2019-12-29T11:01:41.000Z</time>
      </trkpt>
      <trkpt lat="47.27814" lon="-2.42992">
        <ele>38.599998474121</ele>
        <time>2019-12-29T11:01:43.000Z</time>
      </trkpt>
      <trkpt lat="47.27813" lon="-2.42978">
        <ele>38.599998474121</ele>
        <time>2019-12-29T11:01:45.000Z</time>
      </trkpt>
      <trkpt lat="47.27812" lon="-2.42971">
        <ele>38.599998474121</ele>
        <time>2019-12-29T11:01:46.000Z</time>
      </trkpt>
      <trkpt lat="47.27804" lon="-2.42917">
        <ele>38.599998474121</ele>
        <time>2019-12-29T11:01:54.000Z</time>
      </trkpt>
      <trkpt lat="47.27801" lon="-2.42904">
        <ele>38.599998474121</ele>
        <time>2019-12-29T11:01:56.000Z</time>
      </trkpt>
      <trkpt lat="47.27797" lon="-2.42881">
        <ele>38.599998474121</ele>
        <time>2019-12-29T11:02:00.000Z</time>
      </trkpt>
      <trkpt lat="47.27796" lon="-2.42875">
        <ele>38.599998474121</ele>
        <time>2019-12-29T11:02:01.000Z</time>
      </trkpt>
      <trkpt lat="47.27798" lon="-2.42857">
        <ele>38.599998474121</ele>
        <time>2019-12-29T11:02:04.000Z</time>
      </trkpt>
      <trkpt lat="47.27799" lon="-2.42832">
        <ele>38.599998474121</ele>
        <time>2019-12-29T11:02:10.000Z</time>
      </trkpt>
      <trkpt lat="47.27803" lon="-2.42822">
        <ele>38.599998474121</ele>
        <time>2019-12-29T11:02:15.000Z</time>
      </trkpt>
      <trkpt lat="47.27812" lon="-2.4282">
        <ele>38.599998474121</ele>
        <time>2019-12-29T11:02:19.000Z</time>
      </trkpt>
      <trkpt lat="47.27819" lon="-2.42821">
        <ele>38.599998474121</ele>
        <time>2019-12-29T11:02:22.000Z</time>
      </trkpt>
      <trkpt lat="47.27824" lon="-2.42817">
        <ele>38.599998474121</ele>
        <time>2019-12-29T11:02:24.000Z</time>
      </trkpt>
      <trkpt lat="47.27828" lon="-2.42798">
        <ele>38.599998474121</ele>
        <time>2019-12-29T11:02:28.000Z</time>
      </trkpt>
      <trkpt lat="47.27828" lon="-2.42788">
        <ele>39</ele>
        <time>2019-12-29T11:02:30.000Z</time>
      </trkpt>
      <trkpt lat="47.27827" lon="-2.42783">
        <ele>39.599998474121</ele>
        <time>2019-12-29T11:02:31.000Z</time>
      </trkpt>
      <trkpt lat="47.27827" lon="-2.42777">
        <ele>40</ele>
        <time>2019-12-29T11:02:32.000Z</time>
      </trkpt>
      <trkpt lat="47.27826" lon="-2.42771">
        <ele>40.400001525879</ele>
        <time>2019-12-29T11:02:33.000Z</time>
      </trkpt>
      <trkpt lat="47.27826" lon="-2.42765">
        <ele>40.799999237061</ele>
        <time>2019-12-29T11:02:34.000Z</time>
      </trkpt>
      <trkpt lat="47.27825" lon="-2.42729">
        <ele>40.799999237061</ele>
        <time>2019-12-29T11:02:41.000Z</time>
      </trkpt>
      <trkpt lat="47.27824" lon="-2.42698">
        <ele>40.799999237061</ele>
        <time>2019-12-29T11:02:46.000Z</time>
      </trkpt>
      <trkpt lat="47.27824" lon="-2.42682">
        <ele>40.799999237061</ele>
        <time>2019-12-29T11:02:48.000Z</time>
      </trkpt>
      <trkpt lat="47.27821" lon="-2.42656">
        <ele>40.799999237061</ele>
        <time>2019-12-29T11:02:51.000Z</time>
      </trkpt>
      <trkpt lat="47.27819" lon="-2.42646">
        <ele>40.799999237061</ele>
        <time>2019-12-29T11:02:52.000Z</time>
      </trkpt>
      <trkpt lat="47.27807" lon="-2.42589">
        <ele>40.799999237061</ele>
        <time>2019-12-29T11:02:58.000Z</time>
      </trkpt>
      <trkpt lat="47.27788" lon="-2.42536">
        <ele>40.799999237061</ele>
        <time>2019-12-29T11:03:04.000Z</time>
      </trkpt>
      <trkpt lat="47.27767" lon="-2.42476">
        <ele>40.799999237061</ele>
        <time>2019-12-29T11:03:11.000Z</time>
      </trkpt>
      <trkpt lat="47.27754" lon="-2.42414">
        <ele>40.799999237061</ele>
        <time>2019-12-29T11:03:18.000Z</time>
      </trkpt>
      <trkpt lat="47.27746" lon="-2.4236">
        <ele>40.799999237061</ele>
        <time>2019-12-29T11:03:24.000Z</time>
      </trkpt>
      <trkpt lat="47.27745" lon="-2.42352">
        <ele>40.799999237061</ele>
        <time>2019-12-29T11:03:25.000Z</time>
      </trkpt>
      <trkpt lat="47.27741" lon="-2.42315">
        <ele>40.799999237061</ele>
        <time>2019-12-29T11:03:29.000Z</time>
      </trkpt>
      <trkpt lat="47.27737" lon="-2.42261">
        <ele>40.799999237061</ele>
        <time>2019-12-29T11:03:35.000Z</time>
      </trkpt>
      <trkpt lat="47.27737" lon="-2.42243">
        <ele>40.799999237061</ele>
        <time>2019-12-29T11:03:37.000Z</time>
      </trkpt>
      <trkpt lat="47.27734" lon="-2.42188">
        <ele>40.799999237061</ele>
        <time>2019-12-29T11:03:43.000Z</time>
      </trkpt>
      <trkpt lat="47.27735" lon="-2.42135">
        <ele>40.799999237061</ele>
        <time>2019-12-29T11:03:49.000Z</time>
      </trkpt>
      <trkpt lat="47.27741" lon="-2.42072">
        <ele>40.799999237061</ele>
        <time>2019-12-29T11:03:56.000Z</time>
      </trkpt>
      <trkpt lat="47.27751" lon="-2.42021">
        <ele>40.799999237061</ele>
        <time>2019-12-29T11:04:02.000Z</time>
      </trkpt>
      <trkpt lat="47.27756" lon="-2.41996">
        <ele>40.799999237061</ele>
        <time>2019-12-29T11:04:05.000Z</time>
      </trkpt>
      <trkpt lat="47.27759" lon="-2.41981">
        <ele>40.799999237061</ele>
        <time>2019-12-29T11:04:07.000Z</time>
      </trkpt>
      <trkpt lat="47.27766" lon="-2.41959">
        <ele>40.799999237061</ele>
        <time>2019-12-29T11:04:10.000Z</time>
      </trkpt>
      <trkpt lat="47.27773" lon="-2.41937">
        <ele>40.799999237061</ele>
        <time>2019-12-29T11:04:13.000Z</time>
      </trkpt>
      <trkpt lat="47.27775" lon="-2.4193">
        <ele>40.799999237061</ele>
        <time>2019-12-29T11:04:14.000Z</time>
      </trkpt>
      <trkpt lat="47.27784" lon="-2.41902">
        <ele>40.799999237061</ele>
        <time>2019-12-29T11:04:18.000Z</time>
      </trkpt>
      <trkpt lat="47.278" lon="-2.41861">
        <ele>40.799999237061</ele>
        <time>2019-12-29T11:04:24.000Z</time>
      </trkpt>
      <trkpt lat="47.27812" lon="-2.41832">
        <ele>40.799999237061</ele>
        <time>2019-12-29T11:04:28.000Z</time>
      </trkpt>
      <trkpt lat="47.27814" lon="-2.41825">
        <ele>40.799999237061</ele>
        <time>2019-12-29T11:04:29.000Z</time>
      </trkpt>
      <trkpt lat="47.27821" lon="-2.41809">
        <ele>40.799999237061</ele>
        <time>2019-12-29T11:04:31.000Z</time>
      </trkpt>
      <trkpt lat="47.2783" lon="-2.41785">
        <ele>40.799999237061</ele>
        <time>2019-12-29T11:04:34.000Z</time>
      </trkpt>
      <trkpt lat="47.27837" lon="-2.41769">
        <ele>40.799999237061</ele>
        <time>2019-12-29T11:04:36.000Z</time>
      </trkpt>
      <trkpt lat="47.27848" lon="-2.41747">
        <ele>40.799999237061</ele>
        <time>2019-12-29T11:04:39.000Z</time>
      </trkpt>
      <trkpt lat="47.27867" lon="-2.4171">
        <ele>40.799999237061</ele>
        <time>2019-12-29T11:04:44.000Z</time>
      </trkpt>
      <trkpt lat="47.27895" lon="-2.41657">
        <ele>40.799999237061</ele>
        <time>2019-12-29T11:04:51.000Z</time>
      </trkpt>
      <trkpt lat="47.2792" lon="-2.41613">
        <ele>40.799999237061</ele>
        <time>2019-12-29T11:04:57.000Z</time>
      </trkpt>
      <trkpt lat="47.27941" lon="-2.4157">
        <ele>40.799999237061</ele>
        <time>2019-12-29T11:05:03.000Z</time>
      </trkpt>
      <trkpt lat="47.27947" lon="-2.41558">
        <ele>40.799999237061</ele>
        <time>2019-12-29T11:05:05.000Z</time>
      </trkpt>
      <trkpt lat="47.27954" lon="-2.41541">
        <ele>40.799999237061</ele>
        <time>2019-12-29T11:05:08.000Z</time>
      </trkpt>
      <trkpt lat="47.27957" lon="-2.41536">
        <ele>40.799999237061</ele>
        <time>2019-12-29T11:05:09.000Z</time>
      </trkpt>
      <trkpt lat="47.27964" lon="-2.4151">
        <ele>40.799999237061</ele>
        <time>2019-12-29T11:05:13.000Z</time>
      </trkpt>
      <trkpt lat="47.27966" lon="-2.41504">
        <ele>40.799999237061</ele>
        <time>2019-12-29T11:05:14.000Z</time>
      </trkpt>
      <trkpt lat="47.27977" lon="-2.41467">
        <ele>40.799999237061</ele>
        <time>2019-12-29T11:05:19.000Z</time>
      </trkpt>
      <trkpt lat="47.27988" lon="-2.41419">
        <ele>40.799999237061</ele>
        <time>2019-12-29T11:05:25.000Z</time>
      </trkpt>
      <trkpt lat="47.27991" lon="-2.41402">
        <ele>40.799999237061</ele>
        <time>2019-12-29T11:05:27.000Z</time>
      </trkpt>
      <trkpt lat="47.27999" lon="-2.41339">
        <ele>40.799999237061</ele>
        <time>2019-12-29T11:05:34.000Z</time>
      </trkpt>
      <trkpt lat="47.28007" lon="-2.41289">
        <ele>40.799999237061</ele>
        <time>2019-12-29T11:05:40.000Z</time>
      </trkpt>
      <trkpt lat="47.2802" lon="-2.41236">
        <ele>40.799999237061</ele>
        <time>2019-12-29T11:05:47.000Z</time>
      </trkpt>
      <trkpt lat="47.28024" lon="-2.41214">
        <ele>40.799999237061</ele>
        <time>2019-12-29T11:05:50.000Z</time>
      </trkpt>
      <trkpt lat="47.28028" lon="-2.41202">
        <ele>40.799999237061</ele>
        <time>2019-12-29T11:05:52.000Z</time>
      </trkpt>
      <trkpt lat="47.28038" lon="-2.4115">
        <ele>40.799999237061</ele>
        <time>2019-12-29T11:05:59.000Z</time>
      </trkpt>
      <trkpt lat="47.2804" lon="-2.41136">
        <ele>40.799999237061</ele>
        <time>2019-12-29T11:06:01.000Z</time>
      </trkpt>
      <trkpt lat="47.28043" lon="-2.41118">
        <ele>40.799999237061</ele>
        <time>2019-12-29T11:06:04.000Z</time>
      </trkpt>
      <trkpt lat="47.28045" lon="-2.41113">
        <ele>40.400001525879</ele>
        <time>2019-12-29T11:06:05.000Z</time>
      </trkpt>
      <trkpt lat="47.28046" lon="-2.41107">
        <ele>40</ele>
        <time>2019-12-29T11:06:06.000Z</time>
      </trkpt>
      <trkpt lat="47.28048" lon="-2.41102">
        <ele>39.599998474121</ele>
        <time>2019-12-29T11:06:07.000Z</time>
      </trkpt>
      <trkpt lat="47.28049" lon="-2.41096">
        <ele>39.200000762939</ele>
        <time>2019-12-29T11:06:08.000Z</time>
      </trkpt>
      <trkpt lat="47.2805" lon="-2.4109">
        <ele>38.799999237061</ele>
        <time>2019-12-29T11:06:09.000Z</time>
      </trkpt>
      <trkpt lat="47.28051" lon="-2.41082">
        <ele>38.799999237061</ele>
        <time>2019-12-29T11:06:10.000Z</time>
      </trkpt>
      <trkpt lat="47.2806" lon="-2.41039">
        <ele>38.799999237061</ele>
        <time>2019-12-29T11:06:16.000Z</time>
      </trkpt>
      <trkpt lat="47.28072" lon="-2.40986">
        <ele>38.799999237061</ele>
        <time>2019-12-29T11:06:23.000Z</time>
      </trkpt>
      <trkpt lat="47.28082" lon="-2.4095">
        <ele>38.799999237061</ele>
        <time>2019-12-29T11:06:29.000Z</time>
      </trkpt>
      <trkpt lat="47.28085" lon="-2.40934">
        <ele>38.799999237061</ele>
        <time>2019-12-29T11:06:32.000Z</time>
      </trkpt>
      <trkpt lat="47.28081" lon="-2.40921">
        <ele>39.200000762939</ele>
        <time>2019-12-29T11:06:34.000Z</time>
      </trkpt>
      <trkpt lat="47.28078" lon="-2.40915">
        <ele>39.599998474121</ele>
        <time>2019-12-29T11:06:35.000Z</time>
      </trkpt>
      <trkpt lat="47.28075" lon="-2.40909">
        <ele>40.200000762939</ele>
        <time>2019-12-29T11:06:36.000Z</time>
      </trkpt>
      <trkpt lat="47.28072" lon="-2.40902">
        <ele>40.599998474121</ele>
        <time>2019-12-29T11:06:37.000Z</time>
      </trkpt>
      <trkpt lat="47.28068" lon="-2.40896">
        <ele>41</ele>
        <time>2019-12-29T11:06:38.000Z</time>
      </trkpt>
      <trkpt lat="47.28053" lon="-2.40861">
        <ele>41</ele>
        <time>2019-12-29T11:06:44.000Z</time>
      </trkpt>
      <trkpt lat="47.28045" lon="-2.40843">
        <ele>41</ele>
        <time>2019-12-29T11:06:49.000Z</time>
      </trkpt>
      <trkpt lat="47.28034" lon="-2.40827">
        <ele>41</ele>
        <time>2019-12-29T11:06:54.000Z</time>
      </trkpt>
      <trkpt lat="47.28032" lon="-2.40817">
        <ele>41</ele>
        <time>2019-12-29T11:06:56.000Z</time>
      </trkpt>
      <trkpt lat="47.28033" lon="-2.4081">
        <ele>41</ele>
        <time>2019-12-29T11:06:57.000Z</time>
      </trkpt>
      <trkpt lat="47.28033" lon="-2.4079">
        <ele>41</ele>
        <time>2019-12-29T11:07:00.000Z</time>
      </trkpt>
      <trkpt lat="47.28033" lon="-2.40783">
        <ele>41</ele>
        <time>2019-12-29T11:07:01.000Z</time>
      </trkpt>
      <trkpt lat="47.28034" lon="-2.40775">
        <ele>41</ele>
        <time>2019-12-29T11:07:02.000Z</time>
      </trkpt>
      <trkpt lat="47.28037" lon="-2.40761">
        <ele>41</ele>
        <time>2019-12-29T11:07:04.000Z</time>
      </trkpt>
      <trkpt lat="47.28042" lon="-2.40735">
        <ele>41</ele>
        <time>2019-12-29T11:07:09.000Z</time>
      </trkpt>
      <trkpt lat="47.28045" lon="-2.40713">
        <ele>41</ele>
        <time>2019-12-29T11:07:14.000Z</time>
      </trkpt>
      <trkpt lat="47.2805" lon="-2.40699">
        <ele>41</ele>
        <time>2019-12-29T11:07:17.000Z</time>
      </trkpt>
      <trkpt lat="47.28052" lon="-2.40693">
        <ele>41</ele>
        <time>2019-12-29T11:07:18.000Z</time>
      </trkpt>
      <trkpt lat="47.28052" lon="-2.40669">
        <ele>41</ele>
        <time>2019-12-29T11:07:21.000Z</time>
      </trkpt>
      <trkpt lat="47.2805" lon="-2.40647">
        <ele>41</ele>
        <time>2019-12-29T11:07:24.000Z</time>
      </trkpt>
      <trkpt lat="47.28044" lon="-2.40626">
        <ele>41</ele>
        <time>2019-12-29T11:07:27.000Z</time>
      </trkpt>
      <trkpt lat="47.28044" lon="-2.40617">
        <ele>41</ele>
        <time>2019-12-29T11:07:28.000Z</time>
      </trkpt>
      <trkpt lat="47.28046" lon="-2.406">
        <ele>41</ele>
        <time>2019-12-29T11:07:30.000Z</time>
      </trkpt>
      <trkpt lat="47.28049" lon="-2.40584">
        <ele>41</ele>
        <time>2019-12-29T11:07:32.000Z</time>
      </trkpt>
      <trkpt lat="47.28057" lon="-2.40551">
        <ele>41</ele>
        <time>2019-12-29T11:07:36.000Z</time>
      </trkpt>
      <trkpt lat="47.28069" lon="-2.40493">
        <ele>41</ele>
        <time>2019-12-29T11:07:43.000Z</time>
      </trkpt>
      <trkpt lat="47.28075" lon="-2.40477">
        <ele>41</ele>
        <time>2019-12-29T11:07:45.000Z</time>
      </trkpt>
      <trkpt lat="47.28082" lon="-2.40464">
        <ele>41</ele>
        <time>2019-12-29T11:07:47.000Z</time>
      </trkpt>
      <trkpt lat="47.28102" lon="-2.40432">
        <ele>41</ele>
        <time>2019-12-29T11:07:52.000Z</time>
      </trkpt>
      <trkpt lat="47.28104" lon="-2.40424">
        <ele>41</ele>
        <time>2019-12-29T11:07:53.000Z</time>
      </trkpt>
      <trkpt lat="47.2811" lon="-2.40397">
        <ele>41</ele>
        <time>2019-12-29T11:07:56.000Z</time>
      </trkpt>
      <trkpt lat="47.28112" lon="-2.40378">
        <ele>41</ele>
        <time>2019-12-29T11:07:58.000Z</time>
      </trkpt>
      <trkpt lat="47.28118" lon="-2.40332">
        <ele>41.400001525879</ele>
        <time>2019-12-29T11:08:03.000Z</time>
      </trkpt>
      <trkpt lat="47.28119" lon="-2.40323">
        <ele>41.799999237061</ele>
        <time>2019-12-29T11:08:04.000Z</time>
      </trkpt>
      <trkpt lat="47.2812" lon="-2.40314">
        <ele>42.200000762939</ele>
        <time>2019-12-29T11:08:05.000Z</time>
      </trkpt>
      <trkpt lat="47.28121" lon="-2.40304">
        <ele>43</ele>
        <time>2019-12-29T11:08:06.000Z</time>
      </trkpt>
      <trkpt lat="47.28129" lon="-2.40239">
        <ele>43</ele>
        <time>2019-12-29T11:08:13.000Z</time>
      </trkpt>
      <trkpt lat="47.28136" lon="-2.40174">
        <ele>43</ele>
        <time>2019-12-29T11:08:20.000Z</time>
      </trkpt>
      <trkpt lat="47.28143" lon="-2.40112">
        <ele>43</ele>
        <time>2019-12-29T11:08:27.000Z</time>
      </trkpt>
      <trkpt lat="47.28147" lon="-2.40046">
        <ele>43</ele>
        <time>2019-12-29T11:08:35.000Z</time>
      </trkpt>
      <trkpt lat="47.28151" lon="-2.40008">
        <ele>43</ele>
        <time>2019-12-29T11:08:40.000Z</time>
      </trkpt>
      <trkpt lat="47.28151" lon="-2.40001">
        <ele>43</ele>
        <time>2019-12-29T11:08:41.000Z</time>
      </trkpt>
      <trkpt lat="47.28155" lon="-2.39975">
        <ele>43</ele>
        <time>2019-12-29T11:08:45.000Z</time>
      </trkpt>
      <trkpt lat="47.28156" lon="-2.39968">
        <ele>43</ele>
        <time>2019-12-29T11:08:46.000Z</time>
      </trkpt>
      <trkpt lat="47.28157" lon="-2.39941">
        <ele>43</ele>
        <time>2019-12-29T11:08:50.000Z</time>
      </trkpt>
      <trkpt lat="47.2816" lon="-2.39893">
        <ele>43</ele>
        <time>2019-12-29T11:08:56.000Z</time>
      </trkpt>
      <trkpt lat="47.28165" lon="-2.39828">
        <ele>43</ele>
        <time>2019-12-29T11:09:03.000Z</time>
      </trkpt>
      <trkpt lat="47.2817" lon="-2.39741">
        <ele>43</ele>
        <time>2019-12-29T11:09:12.000Z</time>
      </trkpt>
      <trkpt lat="47.28171" lon="-2.39723">
        <ele>43</ele>
        <time>2019-12-29T11:09:14.000Z</time>
      </trkpt>
      <trkpt lat="47.28171" lon="-2.39708">
        <ele>43</ele>
        <time>2019-12-29T11:09:16.000Z</time>
      </trkpt>
      <trkpt lat="47.28172" lon="-2.39694">
        <ele>43</ele>
        <time>2019-12-29T11:09:18.000Z</time>
      </trkpt>
      <trkpt lat="47.28172" lon="-2.39665">
        <ele>43</ele>
        <time>2019-12-29T11:09:23.000Z</time>
      </trkpt>
      <trkpt lat="47.28173" lon="-2.39636">
        <ele>43</ele>
        <time>2019-12-29T11:09:30.000Z</time>
      </trkpt>
      <trkpt lat="47.28173" lon="-2.39606">
        <ele>43</ele>
        <time>2019-12-29T11:09:37.000Z</time>
      </trkpt>
      <trkpt lat="47.28176" lon="-2.39566">
        <ele>43</ele>
        <time>2019-12-29T11:09:42.000Z</time>
      </trkpt>
      <trkpt lat="47.28177" lon="-2.39509">
        <ele>43</ele>
        <time>2019-12-29T11:09:48.000Z</time>
      </trkpt>
      <trkpt lat="47.28177" lon="-2.39432">
        <ele>43</ele>
        <time>2019-12-29T11:09:56.000Z</time>
      </trkpt>
      <trkpt lat="47.28177" lon="-2.39366">
        <ele>43</ele>
        <time>2019-12-29T11:10:03.000Z</time>
      </trkpt>
      <trkpt lat="47.28178" lon="-2.39316">
        <ele>43</ele>
        <time>2019-12-29T11:10:09.000Z</time>
      </trkpt>
      <trkpt lat="47.28176" lon="-2.39278">
        <ele>43</ele>
        <time>2019-12-29T11:10:15.000Z</time>
      </trkpt>
      <trkpt lat="47.28176" lon="-2.39258">
        <ele>43</ele>
        <time>2019-12-29T11:10:20.000Z</time>
      </trkpt>
      <trkpt lat="47.28175" lon="-2.3925">
        <ele>43</ele>
        <time>2019-12-29T11:10:26.000Z</time>
      </trkpt>
      <trkpt lat="47.28175" lon="-2.39245">
        <ele>43</ele>
        <time>2019-12-29T11:10:37.000Z</time>
      </trkpt>
      <trkpt lat="47.28174" lon="-2.39222">
        <ele>43</ele>
        <time>2019-12-29T11:10:42.000Z</time>
      </trkpt>
      <trkpt lat="47.28172" lon="-2.39191">
        <ele>43</ele>
        <time>2019-12-29T11:10:46.000Z</time>
      </trkpt>
      <trkpt lat="47.28169" lon="-2.3913">
        <ele>43</ele>
        <time>2019-12-29T11:10:53.000Z</time>
      </trkpt>
      <trkpt lat="47.28164" lon="-2.39056">
        <ele>43</ele>
        <time>2019-12-29T11:11:01.000Z</time>
      </trkpt>
      <trkpt lat="47.28158" lon="-2.38989">
        <ele>43</ele>
        <time>2019-12-29T11:11:08.000Z</time>
      </trkpt>
      <trkpt lat="47.28147" lon="-2.38932">
        <ele>43</ele>
        <time>2019-12-29T11:11:14.000Z</time>
      </trkpt>
      <trkpt lat="47.28136" lon="-2.38884">
        <ele>43</ele>
        <time>2019-12-29T11:11:19.000Z</time>
      </trkpt>
      <trkpt lat="47.2813" lon="-2.38825">
        <ele>43</ele>
        <time>2019-12-29T11:11:25.000Z</time>
      </trkpt>
      <trkpt lat="47.28124" lon="-2.38753">
        <ele>43</ele>
        <time>2019-12-29T11:11:33.000Z</time>
      </trkpt>
      <trkpt lat="47.28118" lon="-2.38685">
        <ele>43</ele>
        <time>2019-12-29T11:11:41.000Z</time>
      </trkpt>
      <trkpt lat="47.28111" lon="-2.38622">
        <ele>43</ele>
        <time>2019-12-29T11:11:48.000Z</time>
      </trkpt>
      <trkpt lat="47.28104" lon="-2.38548">
        <ele>43</ele>
        <time>2019-12-29T11:11:56.000Z</time>
      </trkpt>
      <trkpt lat="47.28093" lon="-2.38478">
        <ele>43</ele>
        <time>2019-12-29T11:12:04.000Z</time>
      </trkpt>
      <trkpt lat="47.28082" lon="-2.38414">
        <ele>43</ele>
        <time>2019-12-29T11:12:11.000Z</time>
      </trkpt>
      <trkpt lat="47.28069" lon="-2.38337">
        <ele>43</ele>
        <time>2019-12-29T11:12:19.000Z</time>
      </trkpt>
      <trkpt lat="47.28055" lon="-2.38265">
        <ele>43</ele>
        <time>2019-12-29T11:12:27.000Z</time>
      </trkpt>
      <trkpt lat="47.28042" lon="-2.38191">
        <ele>43</ele>
        <time>2019-12-29T11:12:35.000Z</time>
      </trkpt>
      <trkpt lat="47.28031" lon="-2.38137">
        <ele>43</ele>
        <time>2019-12-29T11:12:41.000Z</time>
      </trkpt>
      <trkpt lat="47.28017" lon="-2.38071">
        <ele>43</ele>
        <time>2019-12-29T11:12:48.000Z</time>
      </trkpt>
      <trkpt lat="47.2801" lon="-2.38025">
        <ele>43.400001525879</ele>
        <time>2019-12-29T11:12:53.000Z</time>
      </trkpt>
      <trkpt lat="47.28009" lon="-2.38016">
        <ele>43.799999237061</ele>
        <time>2019-12-29T11:12:54.000Z</time>
      </trkpt>
      <trkpt lat="47.28007" lon="-2.38007">
        <ele>44.200000762939</ele>
        <time>2019-12-29T11:12:55.000Z</time>
      </trkpt>
      <trkpt lat="47.28005" lon="-2.37998">
        <ele>44.599998474121</ele>
        <time>2019-12-29T11:12:56.000Z</time>
      </trkpt>
      <trkpt lat="47.28003" lon="-2.37989">
        <ele>45</ele>
        <time>2019-12-29T11:12:57.000Z</time>
      </trkpt>
      <trkpt lat="47.27994" lon="-2.37944">
        <ele>45</ele>
        <time>2019-12-29T11:13:02.000Z</time>
      </trkpt>
      <trkpt lat="47.2798" lon="-2.37877">
        <ele>45</ele>
        <time>2019-12-29T11:13:10.000Z</time>
      </trkpt>
      <trkpt lat="47.27975" lon="-2.37847">
        <ele>45</ele>
        <time>2019-12-29T11:13:14.000Z</time>
      </trkpt>
      <trkpt lat="47.27974" lon="-2.37832">
        <ele>45</ele>
        <time>2019-12-29T11:13:16.000Z</time>
      </trkpt>
      <trkpt lat="47.27967" lon="-2.37802">
        <ele>45</ele>
        <time>2019-12-29T11:13:20.000Z</time>
      </trkpt>
      <trkpt lat="47.27961" lon="-2.37767">
        <ele>45</ele>
        <time>2019-12-29T11:13:24.000Z</time>
      </trkpt>
      <trkpt lat="47.27958" lon="-2.37759">
        <ele>45</ele>
        <time>2019-12-29T11:13:25.000Z</time>
      </trkpt>
      <trkpt lat="47.27947" lon="-2.37713">
        <ele>45</ele>
        <time>2019-12-29T11:13:30.000Z</time>
      </trkpt>
      <trkpt lat="47.27935" lon="-2.37658">
        <ele>45</ele>
        <time>2019-12-29T11:13:36.000Z</time>
      </trkpt>
      <trkpt lat="47.27922" lon="-2.37605">
        <ele>45</ele>
        <time>2019-12-29T11:13:42.000Z</time>
      </trkpt>
      <trkpt lat="47.27907" lon="-2.37544">
        <ele>45</ele>
        <time>2019-12-29T11:13:49.000Z</time>
      </trkpt>
      <trkpt lat="47.2789" lon="-2.37471">
        <ele>45</ele>
        <time>2019-12-29T11:13:57.000Z</time>
      </trkpt>
      <trkpt lat="47.27873" lon="-2.37401">
        <ele>45</ele>
        <time>2019-12-29T11:14:04.000Z</time>
      </trkpt>
      <trkpt lat="47.27851" lon="-2.37321">
        <ele>45</ele>
        <time>2019-12-29T11:14:12.000Z</time>
      </trkpt>
      <trkpt lat="47.27838" lon="-2.37267">
        <ele>45</ele>
        <time>2019-12-29T11:14:18.000Z</time>
      </trkpt>
      <trkpt lat="47.27822" lon="-2.37205">
        <ele>45</ele>
        <time>2019-12-29T11:14:25.000Z</time>
      </trkpt>
      <trkpt lat="47.27817" lon="-2.37188">
        <ele>45</ele>
        <time>2019-12-29T11:14:27.000Z</time>
      </trkpt>
      <trkpt lat="47.27815" lon="-2.37172">
        <ele>45</ele>
        <time>2019-12-29T11:14:29.000Z</time>
      </trkpt>
      <trkpt lat="47.27807" lon="-2.37148">
        <ele>45</ele>
        <time>2019-12-29T11:14:32.000Z</time>
      </trkpt>
      <trkpt lat="47.27805" lon="-2.3714">
        <ele>45</ele>
        <time>2019-12-29T11:14:33.000Z</time>
      </trkpt>
      <trkpt lat="47.27789" lon="-2.37084">
        <ele>45</ele>
        <time>2019-12-29T11:14:40.000Z</time>
      </trkpt>
      <trkpt lat="47.27775" lon="-2.37028">
        <ele>45</ele>
        <time>2019-12-29T11:14:47.000Z</time>
      </trkpt>
      <trkpt lat="47.27753" lon="-2.36951">
        <ele>45</ele>
        <time>2019-12-29T11:14:56.000Z</time>
      </trkpt>
      <trkpt lat="47.2775" lon="-2.36942">
        <ele>45</ele>
        <time>2019-12-29T11:14:57.000Z</time>
      </trkpt>
      <trkpt lat="47.27738" lon="-2.36901">
        <ele>45</ele>
        <time>2019-12-29T11:15:02.000Z</time>
      </trkpt>
      <trkpt lat="47.27734" lon="-2.36884">
        <ele>45</ele>
        <time>2019-12-29T11:15:04.000Z</time>
      </trkpt>
      <trkpt lat="47.27717" lon="-2.36821">
        <ele>45</ele>
        <time>2019-12-29T11:15:11.000Z</time>
      </trkpt>
      <trkpt lat="47.27697" lon="-2.3676">
        <ele>45</ele>
        <time>2019-12-29T11:15:18.000Z</time>
      </trkpt>
      <trkpt lat="47.27676" lon="-2.367">
        <ele>45</ele>
        <time>2019-12-29T11:15:25.000Z</time>
      </trkpt>
      <trkpt lat="47.27655" lon="-2.3664">
        <ele>45</ele>
        <time>2019-12-29T11:15:32.000Z</time>
      </trkpt>
      <trkpt lat="47.27631" lon="-2.36572">
        <ele>45</ele>
        <time>2019-12-29T11:15:40.000Z</time>
      </trkpt>
      <trkpt lat="47.27611" lon="-2.36513">
        <ele>45</ele>
        <time>2019-12-29T11:15:47.000Z</time>
      </trkpt>
      <trkpt lat="47.27584" lon="-2.36438">
        <ele>45</ele>
        <time>2019-12-29T11:15:56.000Z</time>
      </trkpt>
      <trkpt lat="47.27558" lon="-2.36372">
        <ele>45</ele>
        <time>2019-12-29T11:16:04.000Z</time>
      </trkpt>
      <trkpt lat="47.27531" lon="-2.36296">
        <ele>45</ele>
        <time>2019-12-29T11:16:13.000Z</time>
      </trkpt>
      <trkpt lat="47.27528" lon="-2.36288">
        <ele>45</ele>
        <time>2019-12-29T11:16:14.000Z</time>
      </trkpt>
      <trkpt lat="47.27505" lon="-2.36231">
        <ele>45</ele>
        <time>2019-12-29T11:16:21.000Z</time>
      </trkpt>
      <trkpt lat="47.27477" lon="-2.36158">
        <ele>45</ele>
        <time>2019-12-29T11:16:30.000Z</time>
      </trkpt>
      <trkpt lat="47.2746" lon="-2.36109">
        <ele>45</ele>
        <time>2019-12-29T11:16:36.000Z</time>
      </trkpt>
      <trkpt lat="47.27446" lon="-2.36077">
        <ele>45</ele>
        <time>2019-12-29T11:16:40.000Z</time>
      </trkpt>
      <trkpt lat="47.27443" lon="-2.36068">
        <ele>45</ele>
        <time>2019-12-29T11:16:41.000Z</time>
      </trkpt>
      <trkpt lat="47.27425" lon="-2.36026">
        <ele>45</ele>
        <time>2019-12-29T11:16:46.000Z</time>
      </trkpt>
      <trkpt lat="47.274" lon="-2.35968">
        <ele>45</ele>
        <time>2019-12-29T11:16:53.000Z</time>
      </trkpt>
      <trkpt lat="47.27381" lon="-2.35917">
        <ele>45</ele>
        <time>2019-12-29T11:16:59.000Z</time>
      </trkpt>
      <trkpt lat="47.27355" lon="-2.35851">
        <ele>45</ele>
        <time>2019-12-29T11:17:07.000Z</time>
      </trkpt>
      <trkpt lat="47.27335" lon="-2.35805">
        <ele>45</ele>
        <time>2019-12-29T11:17:13.000Z</time>
      </trkpt>
      <trkpt lat="47.27318" lon="-2.35758">
        <ele>45</ele>
        <time>2019-12-29T11:17:19.000Z</time>
      </trkpt>
      <trkpt lat="47.27303" lon="-2.35727">
        <ele>45</ele>
        <time>2019-12-29T11:17:23.000Z</time>
      </trkpt>
      <trkpt lat="47.273" lon="-2.35718">
        <ele>44.599998474121</ele>
        <time>2019-12-29T11:17:24.000Z</time>
      </trkpt>
      <trkpt lat="47.27298" lon="-2.35709">
        <ele>44.200000762939</ele>
        <time>2019-12-29T11:17:25.000Z</time>
      </trkpt>
      <trkpt lat="47.27294" lon="-2.35701">
        <ele>43.799999237061</ele>
        <time>2019-12-29T11:17:26.000Z</time>
      </trkpt>
      <trkpt lat="47.2729" lon="-2.35693">
        <ele>43.400001525879</ele>
        <time>2019-12-29T11:17:27.000Z</time>
      </trkpt>
      <trkpt lat="47.27286" lon="-2.35685">
        <ele>43</ele>
        <time>2019-12-29T11:17:28.000Z</time>
      </trkpt>
      <trkpt lat="47.27262" lon="-2.35629">
        <ele>43</ele>
        <time>2019-12-29T11:17:35.000Z</time>
      </trkpt>
      <trkpt lat="47.27231" lon="-2.35561">
        <ele>43</ele>
        <time>2019-12-29T11:17:44.000Z</time>
      </trkpt>
      <trkpt lat="47.27207" lon="-2.35507">
        <ele>43</ele>
        <time>2019-12-29T11:17:51.000Z</time>
      </trkpt>
      <trkpt lat="47.2718" lon="-2.35451">
        <ele>43</ele>
        <time>2019-12-29T11:17:58.000Z</time>
      </trkpt>
      <trkpt lat="47.27176" lon="-2.35443">
        <ele>43.400001525879</ele>
        <time>2019-12-29T11:17:59.000Z</time>
      </trkpt>
      <trkpt lat="47.27172" lon="-2.35435">
        <ele>43.799999237061</ele>
        <time>2019-12-29T11:18:00.000Z</time>
      </trkpt>
      <trkpt lat="47.27168" lon="-2.35428">
        <ele>44.200000762939</ele>
        <time>2019-12-29T11:18:01.000Z</time>
      </trkpt>
      <trkpt lat="47.27164" lon="-2.3542">
        <ele>44.599998474121</ele>
        <time>2019-12-29T11:18:02.000Z</time>
      </trkpt>
      <trkpt lat="47.2716" lon="-2.35413">
        <ele>45</ele>
        <time>2019-12-29T11:18:03.000Z</time>
      </trkpt>
      <trkpt lat="47.27149" lon="-2.3539">
        <ele>45</ele>
        <time>2019-12-29T11:18:06.000Z</time>
      </trkpt>
      <trkpt lat="47.27119" lon="-2.3534">
        <ele>45</ele>
        <time>2019-12-29T11:18:13.000Z</time>
      </trkpt>
      <trkpt lat="47.27089" lon="-2.35289">
        <ele>45</ele>
        <time>2019-12-29T11:18:20.000Z</time>
      </trkpt>
      <trkpt lat="47.2705" lon="-2.35235">
        <ele>45</ele>
        <time>2019-12-29T11:18:28.000Z</time>
      </trkpt>
      <trkpt lat="47.27025" lon="-2.35193">
        <ele>45</ele>
        <time>2019-12-29T11:18:34.000Z</time>
      </trkpt>
      <trkpt lat="47.26989" lon="-2.35136">
        <ele>45</ele>
        <time>2019-12-29T11:18:42.000Z</time>
      </trkpt>
      <trkpt lat="47.26957" lon="-2.35089">
        <ele>45</ele>
        <time>2019-12-29T11:18:49.000Z</time>
      </trkpt>
      <trkpt lat="47.26921" lon="-2.35034">
        <ele>45</ele>
        <time>2019-12-29T11:18:57.000Z</time>
      </trkpt>
      <trkpt lat="47.26894" lon="-2.34992">
        <ele>45</ele>
        <time>2019-12-29T11:19:03.000Z</time>
      </trkpt>
      <trkpt lat="47.26862" lon="-2.34944">
        <ele>45</ele>
        <time>2019-12-29T11:19:10.000Z</time>
      </trkpt>
      <trkpt lat="47.2683" lon="-2.34896">
        <ele>45</ele>
        <time>2019-12-29T11:19:17.000Z</time>
      </trkpt>
      <trkpt lat="47.2679" lon="-2.34837">
        <ele>45</ele>
        <time>2019-12-29T11:19:26.000Z</time>
      </trkpt>
      <trkpt lat="47.26786" lon="-2.34831">
        <ele>45</ele>
        <time>2019-12-29T11:19:27.000Z</time>
      </trkpt>
      <trkpt lat="47.26754" lon="-2.34791">
        <ele>45</ele>
        <time>2019-12-29T11:19:34.000Z</time>
      </trkpt>
      <trkpt lat="47.26716" lon="-2.34744">
        <ele>45</ele>
        <time>2019-12-29T11:19:41.000Z</time>
      </trkpt>
      <trkpt lat="47.26677" lon="-2.34695">
        <ele>45</ele>
        <time>2019-12-29T11:19:48.000Z</time>
      </trkpt>
      <trkpt lat="47.26634" lon="-2.34643">
        <ele>45</ele>
        <time>2019-12-29T11:19:56.000Z</time>
      </trkpt>
      <trkpt lat="47.26601" lon="-2.34603">
        <ele>45</ele>
        <time>2019-12-29T11:20:03.000Z</time>
      </trkpt>
      <trkpt lat="47.26565" lon="-2.34563">
        <ele>45</ele>
        <time>2019-12-29T11:20:10.000Z</time>
      </trkpt>
      <trkpt lat="47.26529" lon="-2.34525">
        <ele>45</ele>
        <time>2019-12-29T11:20:17.000Z</time>
      </trkpt>
      <trkpt lat="47.265" lon="-2.34504">
        <ele>45</ele>
        <time>2019-12-29T11:20:22.000Z</time>
      </trkpt>
      <trkpt lat="47.26455" lon="-2.34473">
        <ele>45</ele>
        <time>2019-12-29T11:20:29.000Z</time>
      </trkpt>
      <trkpt lat="47.26419" lon="-2.34447">
        <ele>45</ele>
        <time>2019-12-29T11:20:35.000Z</time>
      </trkpt>
      <trkpt lat="47.26373" lon="-2.34409">
        <ele>45</ele>
        <time>2019-12-29T11:20:43.000Z</time>
      </trkpt>
      <trkpt lat="47.26336" lon="-2.34378">
        <ele>45</ele>
        <time>2019-12-29T11:20:50.000Z</time>
      </trkpt>
      <trkpt lat="47.26325" lon="-2.34371">
        <ele>45</ele>
        <time>2019-12-29T11:20:52.000Z</time>
      </trkpt>
      <trkpt lat="47.26315" lon="-2.34361">
        <ele>45</ele>
        <time>2019-12-29T11:20:54.000Z</time>
      </trkpt>
      <trkpt lat="47.26289" lon="-2.34331">
        <ele>45</ele>
        <time>2019-12-29T11:20:59.000Z</time>
      </trkpt>
      <trkpt lat="47.26257" lon="-2.34296">
        <ele>45</ele>
        <time>2019-12-29T11:21:05.000Z</time>
      </trkpt>
      <trkpt lat="47.26216" lon="-2.34253">
        <ele>45</ele>
        <time>2019-12-29T11:21:13.000Z</time>
      </trkpt>
      <trkpt lat="47.2618" lon="-2.34216">
        <ele>45</ele>
        <time>2019-12-29T11:21:20.000Z</time>
      </trkpt>
      <trkpt lat="47.26145" lon="-2.34184">
        <ele>45</ele>
        <time>2019-12-29T11:21:27.000Z</time>
      </trkpt>
      <trkpt lat="47.26139" lon="-2.34181">
        <ele>45</ele>
        <time>2019-12-29T11:21:28.000Z</time>
      </trkpt>
      <trkpt lat="47.26128" lon="-2.34173">
        <ele>45</ele>
        <time>2019-12-29T11:21:30.000Z</time>
      </trkpt>
      <trkpt lat="47.26111" lon="-2.34159">
        <ele>45</ele>
        <time>2019-12-29T11:21:33.000Z</time>
      </trkpt>
      <trkpt lat="47.26105" lon="-2.34155">
        <ele>45</ele>
        <time>2019-12-29T11:21:34.000Z</time>
      </trkpt>
      <trkpt lat="47.2608" lon="-2.34142">
        <ele>45</ele>
        <time>2019-12-29T11:21:38.000Z</time>
      </trkpt>
      <trkpt lat="47.26042" lon="-2.34122">
        <ele>45</ele>
        <time>2019-12-29T11:21:44.000Z</time>
      </trkpt>
      <trkpt lat="47.26007" lon="-2.34102">
        <ele>45</ele>
        <time>2019-12-29T11:21:50.000Z</time>
      </trkpt>
      <trkpt lat="47.25972" lon="-2.34086">
        <ele>45</ele>
        <time>2019-12-29T11:21:56.000Z</time>
      </trkpt>
      <trkpt lat="47.25932" lon="-2.34071">
        <ele>45</ele>
        <time>2019-12-29T11:22:03.000Z</time>
      </trkpt>
      <trkpt lat="47.25922" lon="-2.34068">
        <ele>45</ele>
        <time>2019-12-29T11:22:05.000Z</time>
      </trkpt>
      <trkpt lat="47.25913" lon="-2.3407">
        <ele>44.599998474121</ele>
        <time>2019-12-29T11:22:07.000Z</time>
      </trkpt>
      <trkpt lat="47.25911" lon="-2.34071">
        <ele>44.200000762939</ele>
        <time>2019-12-29T11:22:08.000Z</time>
      </trkpt>
      <trkpt lat="47.2591" lon="-2.34073">
        <ele>43.799999237061</ele>
        <time>2019-12-29T11:22:09.000Z</time>
      </trkpt>
      <trkpt lat="47.25908" lon="-2.34076">
        <ele>43.200000762939</ele>
        <time>2019-12-29T11:22:10.000Z</time>
      </trkpt>
      <trkpt lat="47.25907" lon="-2.34079">
        <ele>42.799999237061</ele>
        <time>2019-12-29T11:22:11.000Z</time>
      </trkpt>
      <trkpt lat="47.25906" lon="-2.34082">
        <ele>42.799999237061</ele>
        <time>2019-12-29T11:22:12.000Z</time>
      </trkpt>
      <trkpt lat="47.25904" lon="-2.34086">
        <ele>42.799999237061</ele>
        <time>2019-12-29T11:22:13.000Z</time>
      </trkpt>
      <trkpt lat="47.25895" lon="-2.34108">
        <ele>42.799999237061</ele>
        <time>2019-12-29T11:22:17.000Z</time>
      </trkpt>
      <trkpt lat="47.25879" lon="-2.34142">
        <ele>42.799999237061</ele>
        <time>2019-12-29T11:22:22.000Z</time>
      </trkpt>
      <trkpt lat="47.25872" lon="-2.34164">
        <ele>42.799999237061</ele>
        <time>2019-12-29T11:22:26.000Z</time>
      </trkpt>
      <trkpt lat="47.25864" lon="-2.34163">
        <ele>42.799999237061</ele>
        <time>2019-12-29T11:22:29.000Z</time>
      </trkpt>
      <trkpt lat="47.25862" lon="-2.34163">
        <ele>42.799999237061</ele>
        <time>2019-12-29T11:22:30.000Z</time>
      </trkpt>
      <trkpt lat="47.25846" lon="-2.34157">
        <ele>42.799999237061</ele>
        <time>2019-12-29T11:22:37.000Z</time>
      </trkpt>
      <trkpt lat="47.25838" lon="-2.34158">
        <ele>42.799999237061</ele>
        <time>2019-12-29T11:22:40.000Z</time>
      </trkpt>
      <trkpt lat="47.25836" lon="-2.34163">
        <ele>42.799999237061</ele>
        <time>2019-12-29T11:22:41.000Z</time>
      </trkpt>
      <trkpt lat="47.2583" lon="-2.34177">
        <ele>42.799999237061</ele>
        <time>2019-12-29T11:22:44.000Z</time>
      </trkpt>
      <trkpt lat="47.25826" lon="-2.34178">
        <ele>42.799999237061</ele>
        <time>2019-12-29T11:22:45.000Z</time>
      </trkpt>
      <trkpt lat="47.25813" lon="-2.34179">
        <ele>42.799999237061</ele>
        <time>2019-12-29T11:22:48.000Z</time>
      </trkpt>
      <trkpt lat="47.25809" lon="-2.34179">
        <ele>42.799999237061</ele>
        <time>2019-12-29T11:22:49.000Z</time>
      </trkpt>
      <trkpt lat="47.25784" lon="-2.34182">
        <ele>42.799999237061</ele>
        <time>2019-12-29T11:22:54.000Z</time>
      </trkpt>
      <trkpt lat="47.25758" lon="-2.34187">
        <ele>42.799999237061</ele>
        <time>2019-12-29T11:22:58.000Z</time>
      </trkpt>
      <trkpt lat="47.25718" lon="-2.34191">
        <ele>42.799999237061</ele>
        <time>2019-12-29T11:23:04.000Z</time>
      </trkpt>
      <trkpt lat="47.25683" lon="-2.34194">
        <ele>42.799999237061</ele>
        <time>2019-12-29T11:23:10.000Z</time>
      </trkpt>
      <trkpt lat="47.25677" lon="-2.34193">
        <ele>42.799999237061</ele>
        <time>2019-12-29T11:23:11.000Z</time>
      </trkpt>
      <trkpt lat="47.25669" lon="-2.34185">
        <ele>42.799999237061</ele>
        <time>2019-12-29T11:23:13.000Z</time>
      </trkpt>
      <trkpt lat="47.25659" lon="-2.34166">
        <ele>42.799999237061</ele>
        <time>2019-12-29T11:23:16.000Z</time>
      </trkpt>
      <trkpt lat="47.25653" lon="-2.34153">
        <ele>42.799999237061</ele>
        <time>2019-12-29T11:23:18.000Z</time>
      </trkpt>
      <trkpt lat="47.25641" lon="-2.34116">
        <ele>42.799999237061</ele>
        <time>2019-12-29T11:23:23.000Z</time>
      </trkpt>
      <trkpt lat="47.2564" lon="-2.34109">
        <ele>42.799999237061</ele>
        <time>2019-12-29T11:23:24.000Z</time>
      </trkpt>
      <trkpt lat="47.25637" lon="-2.34093">
        <ele>42.799999237061</ele>
        <time>2019-12-29T11:23:26.000Z</time>
      </trkpt>
      <trkpt lat="47.25638" lon="-2.34078">
        <ele>42.799999237061</ele>
        <time>2019-12-29T11:23:28.000Z</time>
      </trkpt>
      <trkpt lat="47.25642" lon="-2.34055">
        <ele>43.200000762939</ele>
        <time>2019-12-29T11:23:31.000Z</time>
      </trkpt>
      <trkpt lat="47.25643" lon="-2.34047">
        <ele>43.599998474121</ele>
        <time>2019-12-29T11:23:32.000Z</time>
      </trkpt>
      <trkpt lat="47.25644" lon="-2.34039">
        <ele>44</ele>
        <time>2019-12-29T11:23:33.000Z</time>
      </trkpt>
      <trkpt lat="47.25646" lon="-2.34031">
        <ele>44.400001525879</ele>
        <time>2019-12-29T11:23:34.000Z</time>
      </trkpt>
      <trkpt lat="47.25647" lon="-2.34023">
        <ele>45</ele>
        <time>2019-12-29T11:23:35.000Z</time>
      </trkpt>
      <trkpt lat="47.25657" lon="-2.3397">
        <ele>45</ele>
        <time>2019-12-29T11:23:42.000Z</time>
      </trkpt>
      <trkpt lat="47.25659" lon="-2.33963">
        <ele>45</ele>
        <time>2019-12-29T11:23:43.000Z</time>
      </trkpt>
      <trkpt lat="47.25661" lon="-2.33941">
        <ele>45</ele>
        <time>2019-12-29T11:23:46.000Z</time>
      </trkpt>
      <trkpt lat="47.25659" lon="-2.33926">
        <ele>45</ele>
        <time>2019-12-29T11:23:48.000Z</time>
      </trkpt>
      <trkpt lat="47.25654" lon="-2.33894">
        <ele>45</ele>
        <time>2019-12-29T11:23:52.000Z</time>
      </trkpt>
      <trkpt lat="47.25652" lon="-2.33879">
        <ele>45</ele>
        <time>2019-12-29T11:23:54.000Z</time>
      </trkpt>
      <trkpt lat="47.25644" lon="-2.33848">
        <ele>45</ele>
        <time>2019-12-29T11:23:58.000Z</time>
      </trkpt>
      <trkpt lat="47.25638" lon="-2.33807">
        <ele>45</ele>
        <time>2019-12-29T11:24:03.000Z</time>
      </trkpt>
      <trkpt lat="47.25637" lon="-2.338">
        <ele>45</ele>
        <time>2019-12-29T11:24:04.000Z</time>
      </trkpt>
      <trkpt lat="47.25633" lon="-2.33782">
        <ele>45</ele>
        <time>2019-12-29T11:24:07.000Z</time>
      </trkpt>
      <trkpt lat="47.25629" lon="-2.33773">
        <ele>45</ele>
        <time>2019-12-29T11:24:09.000Z</time>
      </trkpt>
      <trkpt lat="47.25612" lon="-2.33763">
        <ele>45</ele>
        <time>2019-12-29T11:24:14.000Z</time>
      </trkpt>
      <trkpt lat="47.25607" lon="-2.33762">
        <ele>45</ele>
        <time>2019-12-29T11:24:15.000Z</time>
      </trkpt>
      <trkpt lat="47.25591" lon="-2.33762">
        <ele>45</ele>
        <time>2019-12-29T11:24:18.000Z</time>
      </trkpt>
      <trkpt lat="47.25585" lon="-2.33762">
        <ele>45</ele>
        <time>2019-12-29T11:24:19.000Z</time>
      </trkpt>
      <trkpt lat="47.2555" lon="-2.33763">
        <ele>45</ele>
        <time>2019-12-29T11:24:25.000Z</time>
      </trkpt>
      <trkpt lat="47.25544" lon="-2.33763">
        <ele>45</ele>
        <time>2019-12-29T11:24:26.000Z</time>
      </trkpt>
      <trkpt lat="47.25507" lon="-2.33761">
        <ele>45</ele>
        <time>2019-12-29T11:24:32.000Z</time>
      </trkpt>
      <trkpt lat="47.25495" lon="-2.3376">
        <ele>45</ele>
        <time>2019-12-29T11:24:34.000Z</time>
      </trkpt>
      <trkpt lat="47.25477" lon="-2.33753">
        <ele>45</ele>
        <time>2019-12-29T11:24:37.000Z</time>
      </trkpt>
      <trkpt lat="47.25466" lon="-2.33745">
        <ele>45</ele>
        <time>2019-12-29T11:24:39.000Z</time>
      </trkpt>
      <trkpt lat="47.25459" lon="-2.33728">
        <ele>45</ele>
        <time>2019-12-29T11:24:41.000Z</time>
      </trkpt>
      <trkpt lat="47.25454" lon="-2.33699">
        <ele>45</ele>
        <time>2019-12-29T11:24:44.000Z</time>
      </trkpt>
      <trkpt lat="47.25452" lon="-2.33691">
        <ele>45</ele>
        <time>2019-12-29T11:24:45.000Z</time>
      </trkpt>
      <trkpt lat="47.25449" lon="-2.33657">
        <ele>45</ele>
        <time>2019-12-29T11:24:49.000Z</time>
      </trkpt>
      <trkpt lat="47.25447" lon="-2.33649">
        <ele>45</ele>
        <time>2019-12-29T11:24:50.000Z</time>
      </trkpt>
      <trkpt lat="47.25446" lon="-2.33617">
        <ele>45</ele>
        <time>2019-12-29T11:24:54.000Z</time>
      </trkpt>
      <trkpt lat="47.25446" lon="-2.33604">
        <ele>45</ele>
        <time>2019-12-29T11:24:56.000Z</time>
      </trkpt>
      <trkpt lat="47.25446" lon="-2.3359">
        <ele>45</ele>
        <time>2019-12-29T11:24:58.000Z</time>
      </trkpt>
      <trkpt lat="47.25454" lon="-2.33581">
        <ele>45</ele>
        <time>2019-12-29T11:25:01.000Z</time>
      </trkpt>
      <trkpt lat="47.2546" lon="-2.33571">
        <ele>45</ele>
        <time>2019-12-29T11:25:04.000Z</time>
      </trkpt>
      <trkpt lat="47.25457" lon="-2.3356">
        <ele>45</ele>
        <time>2019-12-29T11:25:06.000Z</time>
      </trkpt>
      <trkpt lat="47.25456" lon="-2.33553">
        <ele>45</ele>
        <time>2019-12-29T11:25:07.000Z</time>
      </trkpt>
      <trkpt lat="47.25455" lon="-2.33547">
        <ele>45</ele>
        <time>2019-12-29T11:25:08.000Z</time>
      </trkpt>
      <trkpt lat="47.25449" lon="-2.33516">
        <ele>45</ele>
        <time>2019-12-29T11:25:13.000Z</time>
      </trkpt>
      <trkpt lat="47.25437" lon="-2.33464">
        <ele>45</ele>
        <time>2019-12-29T11:25:20.000Z</time>
      </trkpt>
      <trkpt lat="47.25434" lon="-2.3343">
        <ele>45.400001525879</ele>
        <time>2019-12-29T11:25:24.000Z</time>
      </trkpt>
      <trkpt lat="47.25434" lon="-2.33421">
        <ele>45.799999237061</ele>
        <time>2019-12-29T11:25:25.000Z</time>
      </trkpt>
      <trkpt lat="47.25433" lon="-2.33412">
        <ele>46.200000762939</ele>
        <time>2019-12-29T11:25:26.000Z</time>
      </trkpt>
      <trkpt lat="47.25433" lon="-2.33404">
        <ele>46.599998474121</ele>
        <time>2019-12-29T11:25:27.000Z</time>
      </trkpt>
      <trkpt lat="47.25432" lon="-2.33395">
        <ele>47</ele>
        <time>2019-12-29T11:25:28.000Z</time>
      </trkpt>
      <trkpt lat="47.25432" lon="-2.33377">
        <ele>47</ele>
        <time>2019-12-29T11:25:30.000Z</time>
      </trkpt>
      <trkpt lat="47.25433" lon="-2.3336">
        <ele>47</ele>
        <time>2019-12-29T11:25:32.000Z</time>
      </trkpt>
      <trkpt lat="47.25433" lon="-2.33352">
        <ele>47</ele>
        <time>2019-12-29T11:25:33.000Z</time>
      </trkpt>
      <trkpt lat="47.25439" lon="-2.33329">
        <ele>47</ele>
        <time>2019-12-29T11:25:36.000Z</time>
      </trkpt>
      <trkpt lat="47.25446" lon="-2.33298">
        <ele>47</ele>
        <time>2019-12-29T11:25:40.000Z</time>
      </trkpt>
      <trkpt lat="47.25446" lon="-2.33281">
        <ele>47</ele>
        <time>2019-12-29T11:25:42.000Z</time>
      </trkpt>
      <trkpt lat="47.25438" lon="-2.33257">
        <ele>47</ele>
        <time>2019-12-29T11:25:45.000Z</time>
      </trkpt>
      <trkpt lat="47.25435" lon="-2.3325">
        <ele>47</ele>
        <time>2019-12-29T11:25:46.000Z</time>
      </trkpt>
      <trkpt lat="47.25418" lon="-2.3321">
        <ele>47</ele>
        <time>2019-12-29T11:25:51.000Z</time>
      </trkpt>
      <trkpt lat="47.25399" lon="-2.33165">
        <ele>47</ele>
        <time>2019-12-29T11:25:57.000Z</time>
      </trkpt>
      <trkpt lat="47.25388" lon="-2.33141">
        <ele>47</ele>
        <time>2019-12-29T11:26:01.000Z</time>
      </trkpt>
      <trkpt lat="47.25383" lon="-2.33133">
        <ele>47</ele>
        <time>2019-12-29T11:26:03.000Z</time>
      </trkpt>
      <trkpt lat="47.25375" lon="-2.33115">
        <ele>47</ele>
        <time>2019-12-29T11:26:09.000Z</time>
      </trkpt>
      <trkpt lat="47.25369" lon="-2.33107">
        <ele>47</ele>
        <time>2019-12-29T11:26:15.000Z</time>
      </trkpt>
      <trkpt lat="47.25368" lon="-2.33106">
        <ele>47</ele>
        <time>2019-12-29T11:26:17.000Z</time>
      </trkpt>
      <trkpt lat="47.25368" lon="-2.33093">
        <ele>44.799999237061</ele>
        <time>2019-12-29T11:36:17.000Z</time>
      </trkpt>
      <trkpt lat="47.25367" lon="-2.33088">
        <ele>44.799999237061</ele>
        <time>2019-12-29T11:36:19.000Z</time>
      </trkpt>
      <trkpt lat="47.25359" lon="-2.33068">
        <ele>44.799999237061</ele>
        <time>2019-12-29T11:36:24.000Z</time>
      </trkpt>
      <trkpt lat="47.25352" lon="-2.33046">
        <ele>45.200000762939</ele>
        <time>2019-12-29T11:36:28.000Z</time>
      </trkpt>
      <trkpt lat="47.2535" lon="-2.33041">
        <ele>45.799999237061</ele>
        <time>2019-12-29T11:36:29.000Z</time>
      </trkpt>
      <trkpt lat="47.25348" lon="-2.33036">
        <ele>46.200000762939</ele>
        <time>2019-12-29T11:36:30.000Z</time>
      </trkpt>
      <trkpt lat="47.25346" lon="-2.3303">
        <ele>46.599998474121</ele>
        <time>2019-12-29T11:36:31.000Z</time>
      </trkpt>
      <trkpt lat="47.25344" lon="-2.33025">
        <ele>47</ele>
        <time>2019-12-29T11:36:32.000Z</time>
      </trkpt>
      <trkpt lat="47.25338" lon="-2.33007">
        <ele>47</ele>
        <time>2019-12-29T11:36:35.000Z</time>
      </trkpt>
      <trkpt lat="47.25336" lon="-2.33002">
        <ele>47</ele>
        <time>2019-12-29T11:36:36.000Z</time>
      </trkpt>
      <trkpt lat="47.25318" lon="-2.32961">
        <ele>47</ele>
        <time>2019-12-29T11:36:43.000Z</time>
      </trkpt>
      <trkpt lat="47.2531" lon="-2.32936">
        <ele>47</ele>
        <time>2019-12-29T11:36:47.000Z</time>
      </trkpt>
      <trkpt lat="47.25312" lon="-2.32923">
        <ele>47</ele>
        <time>2019-12-29T11:36:49.000Z</time>
      </trkpt>
      <trkpt lat="47.25321" lon="-2.32911">
        <ele>47</ele>
        <time>2019-12-29T11:36:52.000Z</time>
      </trkpt>
      <trkpt lat="47.25325" lon="-2.32907">
        <ele>47</ele>
        <time>2019-12-29T11:36:53.000Z</time>
      </trkpt>
      <trkpt lat="47.25328" lon="-2.32902">
        <ele>47</ele>
        <time>2019-12-29T11:36:54.000Z</time>
      </trkpt>
      <trkpt lat="47.25336" lon="-2.32895">
        <ele>47</ele>
        <time>2019-12-29T11:36:56.000Z</time>
      </trkpt>
      <trkpt lat="47.2534" lon="-2.32891">
        <ele>47</ele>
        <time>2019-12-29T11:36:57.000Z</time>
      </trkpt>
      <trkpt lat="47.25372" lon="-2.32859">
        <ele>47</ele>
        <time>2019-12-29T11:37:05.000Z</time>
      </trkpt>
      <trkpt lat="47.25403" lon="-2.32825">
        <ele>47</ele>
        <time>2019-12-29T11:37:13.000Z</time>
      </trkpt>
      <trkpt lat="47.25406" lon="-2.3282">
        <ele>47</ele>
        <time>2019-12-29T11:37:14.000Z</time>
      </trkpt>
      <trkpt lat="47.25421" lon="-2.32797">
        <ele>47</ele>
        <time>2019-12-29T11:37:19.000Z</time>
      </trkpt>
      <trkpt lat="47.25438" lon="-2.32765">
        <ele>47</ele>
        <time>2019-12-29T11:37:26.000Z</time>
      </trkpt>
      <trkpt lat="47.25445" lon="-2.32754">
        <ele>47.400001525879</ele>
        <time>2019-12-29T11:37:28.000Z</time>
      </trkpt>
      <trkpt lat="47.25449" lon="-2.32749">
        <ele>48</ele>
        <time>2019-12-29T11:37:29.000Z</time>
      </trkpt>
      <trkpt lat="47.25452" lon="-2.32744">
        <ele>48.400001525879</ele>
        <time>2019-12-29T11:37:30.000Z</time>
      </trkpt>
      <trkpt lat="47.25455" lon="-2.32739">
        <ele>48.799999237061</ele>
        <time>2019-12-29T11:37:31.000Z</time>
      </trkpt>
      <trkpt lat="47.25458" lon="-2.32734">
        <ele>49.400001525879</ele>
        <time>2019-12-29T11:37:32.000Z</time>
      </trkpt>
      <trkpt lat="47.25478" lon="-2.32706">
        <ele>49.400001525879</ele>
        <time>2019-12-29T11:37:38.000Z</time>
      </trkpt>
      <trkpt lat="47.25484" lon="-2.32696">
        <ele>49.400001525879</ele>
        <time>2019-12-29T11:37:40.000Z</time>
      </trkpt>
      <trkpt lat="47.25488" lon="-2.32676">
        <ele>49.400001525879</ele>
        <time>2019-12-29T11:37:43.000Z</time>
      </trkpt>
      <trkpt lat="47.25488" lon="-2.32655">
        <ele>49.400001525879</ele>
        <time>2019-12-29T11:37:46.000Z</time>
      </trkpt>
      <trkpt lat="47.25486" lon="-2.32649">
        <ele>49.400001525879</ele>
        <time>2019-12-29T11:37:47.000Z</time>
      </trkpt>
      <trkpt lat="47.25485" lon="-2.32642">
        <ele>49.400001525879</ele>
        <time>2019-12-29T11:37:48.000Z</time>
      </trkpt>
      <trkpt lat="47.25478" lon="-2.32601">
        <ele>49.400001525879</ele>
        <time>2019-12-29T11:37:54.000Z</time>
      </trkpt>
      <trkpt lat="47.25477" lon="-2.32595">
        <ele>49.400001525879</ele>
        <time>2019-12-29T11:37:55.000Z</time>
      </trkpt>
      <trkpt lat="47.25477" lon="-2.32588">
        <ele>49.400001525879</ele>
        <time>2019-12-29T11:37:56.000Z</time>
      </trkpt>
      <trkpt lat="47.25481" lon="-2.32569">
        <ele>49.400001525879</ele>
        <time>2019-12-29T11:37:59.000Z</time>
      </trkpt>
      <trkpt lat="47.25494" lon="-2.32549">
        <ele>49.400001525879</ele>
        <time>2019-12-29T11:38:03.000Z</time>
      </trkpt>
      <trkpt lat="47.25525" lon="-2.32519">
        <ele>49.400001525879</ele>
        <time>2019-12-29T11:38:10.000Z</time>
      </trkpt>
      <trkpt lat="47.25556" lon="-2.32492">
        <ele>49.400001525879</ele>
        <time>2019-12-29T11:38:16.000Z</time>
      </trkpt>
      <trkpt lat="47.25589" lon="-2.32459">
        <ele>49.400001525879</ele>
        <time>2019-12-29T11:38:22.000Z</time>
      </trkpt>
      <trkpt lat="47.25605" lon="-2.32441">
        <ele>49</ele>
        <time>2019-12-29T11:38:25.000Z</time>
      </trkpt>
      <trkpt lat="47.2561" lon="-2.32435">
        <ele>48.599998474121</ele>
        <time>2019-12-29T11:38:26.000Z</time>
      </trkpt>
      <trkpt lat="47.25616" lon="-2.32429">
        <ele>48.200000762939</ele>
        <time>2019-12-29T11:38:27.000Z</time>
      </trkpt>
      <trkpt lat="47.25621" lon="-2.32423">
        <ele>47.799999237061</ele>
        <time>2019-12-29T11:38:28.000Z</time>
      </trkpt>
      <trkpt lat="47.25627" lon="-2.32418">
        <ele>47.400001525879</ele>
        <time>2019-12-29T11:38:29.000Z</time>
      </trkpt>
      <trkpt lat="47.25632" lon="-2.32412">
        <ele>47.400001525879</ele>
        <time>2019-12-29T11:38:30.000Z</time>
      </trkpt>
      <trkpt lat="47.25637" lon="-2.32407">
        <ele>46.799999237061</ele>
        <time>2019-12-29T11:38:31.000Z</time>
      </trkpt>
      <trkpt lat="47.25643" lon="-2.32403">
        <ele>46.400001525879</ele>
        <time>2019-12-29T11:38:32.000Z</time>
      </trkpt>
      <trkpt lat="47.25649" lon="-2.32403">
        <ele>46</ele>
        <time>2019-12-29T11:38:33.000Z</time>
      </trkpt>
      <trkpt lat="47.25654" lon="-2.32402">
        <ele>45.599998474121</ele>
        <time>2019-12-29T11:38:34.000Z</time>
      </trkpt>
      <trkpt lat="47.25659" lon="-2.32402">
        <ele>45.200000762939</ele>
        <time>2019-12-29T11:38:35.000Z</time>
      </trkpt>
      <trkpt lat="47.25664" lon="-2.32404">
        <ele>44.400001525879</ele>
        <time>2019-12-29T11:38:36.000Z</time>
      </trkpt>
      <trkpt lat="47.25668" lon="-2.32408">
        <ele>43.799999237061</ele>
        <time>2019-12-29T11:38:37.000Z</time>
      </trkpt>
      <trkpt lat="47.25672" lon="-2.32413">
        <ele>43.400001525879</ele>
        <time>2019-12-29T11:38:38.000Z</time>
      </trkpt>
      <trkpt lat="47.25677" lon="-2.32417">
        <ele>43</ele>
        <time>2019-12-29T11:38:39.000Z</time>
      </trkpt>
      <trkpt lat="47.25695" lon="-2.3242">
        <ele>43</ele>
        <time>2019-12-29T11:38:42.000Z</time>
      </trkpt>
      <trkpt lat="47.25702" lon="-2.32421">
        <ele>43</ele>
        <time>2019-12-29T11:38:43.000Z</time>
      </trkpt>
      <trkpt lat="47.25721" lon="-2.32423">
        <ele>43</ele>
        <time>2019-12-29T11:38:46.000Z</time>
      </trkpt>
      <trkpt lat="47.25726" lon="-2.32423">
        <ele>43</ele>
        <time>2019-12-29T11:38:47.000Z</time>
      </trkpt>
      <trkpt lat="47.25744" lon="-2.32424">
        <ele>43</ele>
        <time>2019-12-29T11:38:50.000Z</time>
      </trkpt>
      <trkpt lat="47.2575" lon="-2.32424">
        <ele>43</ele>
        <time>2019-12-29T11:38:51.000Z</time>
      </trkpt>
      <trkpt lat="47.25766" lon="-2.32419">
        <ele>43</ele>
        <time>2019-12-29T11:38:54.000Z</time>
      </trkpt>
      <trkpt lat="47.25775" lon="-2.32414">
        <ele>43</ele>
        <time>2019-12-29T11:38:56.000Z</time>
      </trkpt>
      <trkpt lat="47.25779" lon="-2.32414">
        <ele>43</ele>
        <time>2019-12-29T11:38:57.000Z</time>
      </trkpt>
      <trkpt lat="47.25787" lon="-2.3242">
        <ele>43</ele>
        <time>2019-12-29T11:38:59.000Z</time>
      </trkpt>
      <trkpt lat="47.25798" lon="-2.32438">
        <ele>43</ele>
        <time>2019-12-29T11:39:02.000Z</time>
      </trkpt>
      <trkpt lat="47.25801" lon="-2.32445">
        <ele>43</ele>
        <time>2019-12-29T11:39:03.000Z</time>
      </trkpt>
      <trkpt lat="47.25805" lon="-2.3245">
        <ele>43</ele>
        <time>2019-12-29T11:39:04.000Z</time>
      </trkpt>
      <trkpt lat="47.25823" lon="-2.32461">
        <ele>43</ele>
        <time>2019-12-29T11:39:07.000Z</time>
      </trkpt>
      <trkpt lat="47.25828" lon="-2.32465">
        <ele>43</ele>
        <time>2019-12-29T11:39:08.000Z</time>
      </trkpt>
      <trkpt lat="47.25857" lon="-2.32473">
        <ele>43</ele>
        <time>2019-12-29T11:39:13.000Z</time>
      </trkpt>
      <trkpt lat="47.25863" lon="-2.32472">
        <ele>43</ele>
        <time>2019-12-29T11:39:14.000Z</time>
      </trkpt>
      <trkpt lat="47.25884" lon="-2.32469">
        <ele>43</ele>
        <time>2019-12-29T11:39:18.000Z</time>
      </trkpt>
      <trkpt lat="47.25895" lon="-2.32464">
        <ele>43</ele>
        <time>2019-12-29T11:39:20.000Z</time>
      </trkpt>
      <trkpt lat="47.25903" lon="-2.32454">
        <ele>43</ele>
        <time>2019-12-29T11:39:22.000Z</time>
      </trkpt>
      <trkpt lat="47.25933" lon="-2.32416">
        <ele>43</ele>
        <time>2019-12-29T11:39:29.000Z</time>
      </trkpt>
      <trkpt lat="47.25966" lon="-2.32372">
        <ele>43</ele>
        <time>2019-12-29T11:39:37.000Z</time>
      </trkpt>
      <trkpt lat="47.26008" lon="-2.32318">
        <ele>43</ele>
        <time>2019-12-29T11:39:47.000Z</time>
      </trkpt>
      <trkpt lat="47.26012" lon="-2.32314">
        <ele>43</ele>
        <time>2019-12-29T11:39:48.000Z</time>
      </trkpt>
      <trkpt lat="47.26036" lon="-2.32285">
        <ele>43</ele>
        <time>2019-12-29T11:39:54.000Z</time>
      </trkpt>
      <trkpt lat="47.26069" lon="-2.32246">
        <ele>43</ele>
        <time>2019-12-29T11:40:02.000Z</time>
      </trkpt>
      <trkpt lat="47.26074" lon="-2.32243">
        <ele>42.599998474121</ele>
        <time>2019-12-29T11:40:03.000Z</time>
      </trkpt>
      <trkpt lat="47.26077" lon="-2.32238">
        <ele>42.200000762939</ele>
        <time>2019-12-29T11:40:04.000Z</time>
      </trkpt>
      <trkpt lat="47.26081" lon="-2.32232">
        <ele>41.799999237061</ele>
        <time>2019-12-29T11:40:05.000Z</time>
      </trkpt>
      <trkpt lat="47.26085" lon="-2.32227">
        <ele>41.400001525879</ele>
        <time>2019-12-29T11:40:06.000Z</time>
      </trkpt>
      <trkpt lat="47.26089" lon="-2.32222">
        <ele>41</ele>
        <time>2019-12-29T11:40:07.000Z</time>
      </trkpt>
      <trkpt lat="47.26099" lon="-2.32205">
        <ele>41</ele>
        <time>2019-12-29T11:40:10.000Z</time>
      </trkpt>
      <trkpt lat="47.26104" lon="-2.32192">
        <ele>41</ele>
        <time>2019-12-29T11:40:12.000Z</time>
      </trkpt>
      <trkpt lat="47.26123" lon="-2.32144">
        <ele>41</ele>
        <time>2019-12-29T11:40:19.000Z</time>
      </trkpt>
      <trkpt lat="47.26125" lon="-2.32137">
        <ele>41</ele>
        <time>2019-12-29T11:40:20.000Z</time>
      </trkpt>
      <trkpt lat="47.26133" lon="-2.32108">
        <ele>41</ele>
        <time>2019-12-29T11:40:24.000Z</time>
      </trkpt>
      <trkpt lat="47.26148" lon="-2.32057">
        <ele>41</ele>
        <time>2019-12-29T11:40:31.000Z</time>
      </trkpt>
      <trkpt lat="47.26156" lon="-2.32028">
        <ele>41</ele>
        <time>2019-12-29T11:40:35.000Z</time>
      </trkpt>
      <trkpt lat="47.26159" lon="-2.32013">
        <ele>41</ele>
        <time>2019-12-29T11:40:37.000Z</time>
      </trkpt>
      <trkpt lat="47.2616" lon="-2.32006">
        <ele>41</ele>
        <time>2019-12-29T11:40:38.000Z</time>
      </trkpt>
      <trkpt lat="47.26156" lon="-2.31984">
        <ele>41</ele>
        <time>2019-12-29T11:40:41.000Z</time>
      </trkpt>
      <trkpt lat="47.26156" lon="-2.31976">
        <ele>41</ele>
        <time>2019-12-29T11:40:42.000Z</time>
      </trkpt>
      <trkpt lat="47.26152" lon="-2.31953">
        <ele>41</ele>
        <time>2019-12-29T11:40:45.000Z</time>
      </trkpt>
      <trkpt lat="47.26146" lon="-2.31895">
        <ele>41</ele>
        <time>2019-12-29T11:40:52.000Z</time>
      </trkpt>
      <trkpt lat="47.26139" lon="-2.31849">
        <ele>41</ele>
        <time>2019-12-29T11:40:58.000Z</time>
      </trkpt>
      <trkpt lat="47.26137" lon="-2.31832">
        <ele>41</ele>
        <time>2019-12-29T11:41:00.000Z</time>
      </trkpt>
      <trkpt lat="47.26134" lon="-2.318">
        <ele>41</ele>
        <time>2019-12-29T11:41:04.000Z</time>
      </trkpt>
      <trkpt lat="47.26129" lon="-2.31745">
        <ele>41</ele>
        <time>2019-12-29T11:41:11.000Z</time>
      </trkpt>
      <trkpt lat="47.26126" lon="-2.31715">
        <ele>41</ele>
        <time>2019-12-29T11:41:15.000Z</time>
      </trkpt>
      <trkpt lat="47.26123" lon="-2.31694">
        <ele>41</ele>
        <time>2019-12-29T11:41:18.000Z</time>
      </trkpt>
      <trkpt lat="47.26118" lon="-2.31644">
        <ele>41</ele>
        <time>2019-12-29T11:41:25.000Z</time>
      </trkpt>
      <trkpt lat="47.26118" lon="-2.31624">
        <ele>41</ele>
        <time>2019-12-29T11:41:28.000Z</time>
      </trkpt>
      <trkpt lat="47.26122" lon="-2.31614">
        <ele>41</ele>
        <time>2019-12-29T11:41:30.000Z</time>
      </trkpt>
      <trkpt lat="47.26133" lon="-2.31611">
        <ele>41</ele>
        <time>2019-12-29T11:41:33.000Z</time>
      </trkpt>
      <trkpt lat="47.26142" lon="-2.3161">
        <ele>41</ele>
        <time>2019-12-29T11:41:35.000Z</time>
      </trkpt>
      <trkpt lat="47.26146" lon="-2.31608">
        <ele>41</ele>
        <time>2019-12-29T11:41:36.000Z</time>
      </trkpt>
      <trkpt lat="47.26156" lon="-2.31605">
        <ele>41</ele>
        <time>2019-12-29T11:41:38.000Z</time>
      </trkpt>
      <trkpt lat="47.26183" lon="-2.31596">
        <ele>41</ele>
        <time>2019-12-29T11:41:44.000Z</time>
      </trkpt>
      <trkpt lat="47.26208" lon="-2.3159">
        <ele>41</ele>
        <time>2019-12-29T11:41:49.000Z</time>
      </trkpt>
      <trkpt lat="47.26214" lon="-2.3159">
        <ele>41</ele>
        <time>2019-12-29T11:41:50.000Z</time>
      </trkpt>
      <trkpt lat="47.26227" lon="-2.31596">
        <ele>41</ele>
        <time>2019-12-29T11:41:53.000Z</time>
      </trkpt>
      <trkpt lat="47.26238" lon="-2.31604">
        <ele>41</ele>
        <time>2019-12-29T11:41:56.000Z</time>
      </trkpt>
      <trkpt lat="47.26242" lon="-2.31609">
        <ele>41</ele>
        <time>2019-12-29T11:41:57.000Z</time>
      </trkpt>
      <trkpt lat="47.26252" lon="-2.31625">
        <ele>41</ele>
        <time>2019-12-29T11:42:00.000Z</time>
      </trkpt>
      <trkpt lat="47.26258" lon="-2.31636">
        <ele>41</ele>
        <time>2019-12-29T11:42:02.000Z</time>
      </trkpt>
      <trkpt lat="47.26275" lon="-2.31669">
        <ele>41</ele>
        <time>2019-12-29T11:42:08.000Z</time>
      </trkpt>
      <trkpt lat="47.26281" lon="-2.3168">
        <ele>41</ele>
        <time>2019-12-29T11:42:10.000Z</time>
      </trkpt>
      <trkpt lat="47.26294" lon="-2.31704">
        <ele>41</ele>
        <time>2019-12-29T11:42:14.000Z</time>
      </trkpt>
      <trkpt lat="47.26297" lon="-2.31708">
        <ele>41</ele>
        <time>2019-12-29T11:42:15.000Z</time>
      </trkpt>
      <trkpt lat="47.26309" lon="-2.31711">
        <ele>41</ele>
        <time>2019-12-29T11:42:18.000Z</time>
      </trkpt>
      <trkpt lat="47.26317" lon="-2.31708">
        <ele>41</ele>
        <time>2019-12-29T11:42:20.000Z</time>
      </trkpt>
      <trkpt lat="47.26328" lon="-2.31702">
        <ele>41</ele>
        <time>2019-12-29T11:42:23.000Z</time>
      </trkpt>
      <trkpt lat="47.26331" lon="-2.31694">
        <ele>41</ele>
        <time>2019-12-29T11:42:25.000Z</time>
      </trkpt>
      <trkpt lat="47.26332" lon="-2.31689">
        <ele>41</ele>
        <time>2019-12-29T11:42:26.000Z</time>
      </trkpt>
      <trkpt lat="47.26338" lon="-2.31685">
        <ele>41.400001525879</ele>
        <time>2019-12-29T11:42:28.000Z</time>
      </trkpt>
      <trkpt lat="47.26341" lon="-2.31683">
        <ele>41.799999237061</ele>
        <time>2019-12-29T11:42:29.000Z</time>
      </trkpt>
      <trkpt lat="47.26344" lon="-2.31681">
        <ele>42.400001525879</ele>
        <time>2019-12-29T11:42:30.000Z</time>
      </trkpt>
      <trkpt lat="47.26348" lon="-2.31679">
        <ele>42.799999237061</ele>
        <time>2019-12-29T11:42:31.000Z</time>
      </trkpt>
      <trkpt lat="47.26351" lon="-2.31678">
        <ele>43.200000762939</ele>
        <time>2019-12-29T11:42:32.000Z</time>
      </trkpt>
      <trkpt lat="47.26363" lon="-2.31671">
        <ele>43.200000762939</ele>
        <time>2019-12-29T11:42:36.000Z</time>
      </trkpt>
      <trkpt lat="47.26379" lon="-2.31664">
        <ele>43.599998474121</ele>
        <time>2019-12-29T11:42:41.000Z</time>
      </trkpt>
      <trkpt lat="47.26382" lon="-2.31662">
        <ele>44</ele>
        <time>2019-12-29T11:42:42.000Z</time>
      </trkpt>
      <trkpt lat="47.26385" lon="-2.3166">
        <ele>44.799999237061</ele>
        <time>2019-12-29T11:42:43.000Z</time>
      </trkpt>
      <trkpt lat="47.26388" lon="-2.31658">
        <ele>45.200000762939</ele>
        <time>2019-12-29T11:42:44.000Z</time>
      </trkpt>
      <trkpt lat="47.26396" lon="-2.31655">
        <ele>45.200000762939</ele>
        <time>2019-12-29T11:42:47.000Z</time>
      </trkpt>
      <trkpt lat="47.26409" lon="-2.31644">
        <ele>45.200000762939</ele>
        <time>2019-12-29T11:42:51.000Z</time>
      </trkpt>
      <trkpt lat="47.26409" lon="-2.31632">
        <ele>45.200000762939</ele>
        <time>2019-12-29T11:42:54.000Z</time>
      </trkpt>
      <trkpt lat="47.2641" lon="-2.31608">
        <ele>45.200000762939</ele>
        <time>2019-12-29T11:42:59.000Z</time>
      </trkpt>
      <trkpt lat="47.26411" lon="-2.3158">
        <ele>45.200000762939</ele>
        <time>2019-12-29T11:43:05.000Z</time>
      </trkpt>
      <trkpt lat="47.2641" lon="-2.31559">
        <ele>45.200000762939</ele>
        <time>2019-12-29T11:43:10.000Z</time>
      </trkpt>
      <trkpt lat="47.26413" lon="-2.31552">
        <ele>45.200000762939</ele>
        <time>2019-12-29T11:43:13.000Z</time>
      </trkpt>
      <trkpt lat="47.26415" lon="-2.31553">
        <ele>45.200000762939</ele>
        <time>2019-12-29T11:43:14.000Z</time>
      </trkpt>
      <trkpt lat="47.26416" lon="-2.31554">
        <ele>45.599998474121</ele>
        <time>2019-12-29T11:43:16.000Z</time>
      </trkpt>
      <trkpt lat="47.26417" lon="-2.31554">
        <ele>46</ele>
        <time>2019-12-29T11:43:17.000Z</time>
      </trkpt>
    </trkseg>
  </trk>
</gpx>